Referer - HTC Touch Pro | NTTドコモ | au

Referer

このページをDeliciousに追加 このページをはてなブックマークに追加 このページをYahoo!ブックマークに追加
LastUpdate⇓ First Register RefCounter Referer
May 22, 2017, 7:40 PM 5d July 25, 2013, 5:11 PM 1402d 21 https://www.google.com/
May 13, 2017, 2:21 AM 15d December 28, 2011, 9:18 PM 1977d 481 http://wince.goo.ne.jp/
May 8, 2017, 5:21 PM 19d May 3, 2017, 3:46 PM 24d 10 https://www.inboundlinks.win/InboundLinks/touch-pro.windows-keitai.com
May 8, 2017, 3:23 PM 19d May 4, 2017, 10:39 AM 23d 3 http://www.domain2008.com/domains/touch-pro.windows-keitai.com
May 8, 2017, 11:46 AM 19d October 15, 2016, 12:27 PM 224d 2 http://touch-pro.windows-keitai.com/?cmd=referer&page=Touch+Pro...
May 8, 2017, 11:03 AM 19d May 8, 2017, 11:03 AM 19d 2 http://windows-keitai.com/?Windowsケータイ/ヘルプ/予定表のヘルプ
May 3, 2017, 6:23 PM 24d March 8, 2013, 7:33 AM 1541d 8 http://ht-03a.windows-keitai.com/?cmd=referer&page=HT-03A
May 3, 2017, 3:11 PM 24d October 7, 2016, 8:35 PM 232d 8 http://map.windows-keitai.com/WiMAX/UQ/area.html?lat=35.681391&...
April 22, 2017, 1:57 AM 36d November 11, 2013, 7:09 AM 1293d 209 http://www.google.com/
April 12, 2017, 11:10 PM 45d N/A 1 http://www.google.com/search?q=ht-01a.windows-keitai.com&ie=utf-8
April 8, 2017, 11:08 PM 49d April 8, 2017, 10:52 PM 49d 2 http://blog.goo.ne.jp/cestaff/e/da15712730455bd87fb5dfee88247f56
April 8, 2017, 2:21 PM 49d April 8, 2017, 2:20 PM 49d 2 http://wince.goo.ne.jp/snap/cnBoard.asp?PID=1155&DIR=P
March 4, 2017, 11:07 PM 84d February 20, 2017, 6:39 AM 96d 21 http://kid18.trade/
March 4, 2017, 9:48 PM 84d February 20, 2017, 6:50 PM 96d 24 http://number70.trade/
March 4, 2017, 9:32 PM 84d February 20, 2017, 5:11 PM 96d 12 http://level39.trade/
March 4, 2017, 8:39 PM 84d February 20, 2017, 6:03 AM 97d 27 http://system66.trade/
March 4, 2017, 8:27 PM 84d February 21, 2017, 11:49 AM 95d 12 http://eye01.trade/
March 4, 2017, 7:49 PM 84d February 20, 2017, 1:42 PM 96d 30 http://way95.trade/
March 4, 2017, 7:40 PM 84d February 21, 2017, 7:49 PM 95d 12 http://idea69.trade/
March 4, 2017, 7:01 PM 84d February 20, 2017, 1:04 PM 96d 18 http://area16.trade/
March 4, 2017, 6:44 PM 84d February 20, 2017, 11:22 AM 96d 15 http://part53.trade/
March 4, 2017, 6:02 PM 84d February 21, 2017, 3:44 PM 95d 15 http://point01.trade/
March 4, 2017, 5:53 PM 84d February 20, 2017, 5:54 AM 97d 36 http://inexpensive.trade/
March 4, 2017, 5:01 PM 84d February 20, 2017, 4:22 PM 96d 27 http://office58.trade/
March 4, 2017, 3:35 PM 84d February 20, 2017, 5:01 PM 96d 39 http://family42.trade/
March 4, 2017, 3:04 PM 84d February 20, 2017, 8:17 AM 96d 27 http://girl15.trade/
March 4, 2017, 2:03 PM 84d February 20, 2017, 12:18 PM 96d 21 http://state71.trade/
March 4, 2017, 1:50 PM 84d February 20, 2017, 5:18 AM 97d 24 http://face15.trade/
March 4, 2017, 12:44 PM 84d February 20, 2017, 6:48 AM 96d 6 http://game01.trade/
March 4, 2017, 11:40 AM 84d February 21, 2017, 6:56 AM 95d 15 http://line16.trade/
March 4, 2017, 10:35 AM 84d February 20, 2017, 9:04 AM 96d 18 http://change95.trade/
March 4, 2017, 8:08 AM 84d February 20, 2017, 3:37 AM 97d 30 http://health85.trade/
March 4, 2017, 7:38 AM 84d February 21, 2017, 9:54 PM 95d 9 http://old-fashioned.trade/
March 4, 2017, 5:13 AM 85d February 21, 2017, 11:21 PM 95d 9 http://book99.trade/
March 4, 2017, 2:31 AM 85d February 21, 2017, 10:35 PM 95d 15 http://group26.trade/
March 4, 2017, 12:50 AM 85d February 20, 2017, 11:31 AM 96d 15 http://time44.trade/
February 25, 2017, 7:32 PM 91d February 20, 2017, 9:48 AM 96d 18 http://hour12.trade/
February 25, 2017, 5:11 PM 91d February 20, 2017, 10:35 AM 96d 21 http://force18.trade/
February 25, 2017, 1:46 AM 92d February 20, 2017, 2:41 PM 96d 24 http://child82.trade/
February 25, 2017, 1:32 AM 92d February 20, 2017, 4:22 AM 97d 15 http://country39.trade/
February 24, 2017, 11:34 PM 92d February 20, 2017, 11:11 PM 96d 18 http://week01.trade/
February 24, 2017, 11:20 PM 92d February 20, 2017, 2:31 PM 96d 21 http://body21.trade/
February 24, 2017, 9:23 PM 92d February 21, 2017, 8:59 AM 95d 9 http://relieved.trade/
February 24, 2017, 9:09 PM 92d February 20, 2017, 8:27 AM 96d 15 http://abundant.trade/
February 24, 2017, 6:52 PM 92d February 21, 2017, 12:12 AM 96d 21 http://father17.trade/
February 24, 2017, 11:44 AM 92d February 20, 2017, 9:12 AM 96d 15 http://life45.trade/
February 24, 2017, 4:35 AM 93d February 20, 2017, 7:37 AM 96d 9 http://careful.trade/
February 23, 2017, 11:45 PM 93d February 20, 2017, 5:09 AM 97d 27 http://room83.trade/
February 23, 2017, 12:40 PM 93d February 20, 2017, 4:33 AM 97d 18 http://day53.trade/
February 23, 2017, 12:31 PM 93d February 20, 2017, 10:44 AM 96d 24 http://morning99.trade/
February 23, 2017, 9:21 AM 93d February 21, 2017, 2:20 AM 96d 12 http://money07.trade/
February 21, 2017, 4:45 PM 95d February 20, 2017, 3:24 AM 97d 9 http://night63.trade/
January 16, 2017, 5:40 AM 132d December 3, 2016, 6:08 AM 176d 8 http://sellinglist.auctions.yahoo.co.jp/user/momoko3696
December 31, 2016, 8:24 PM 147d N/A 1 http://sixcooler.de/cgi-bin/2crawl.pl
December 25, 2016, 1:52 AM 154d N/A 1 http://search.yahoo.co.jp/
November 28, 2016, 10:07 PM 180d December 4, 2011, 7:32 AM 2001d 15 http://www.google.com/search
November 23, 2016, 5:39 PM 185d N/A 1 http://blog.goo.ne.jp/cestaff/m/201112
November 21, 2016, 12:32 PM 187d N/A 1 http://search.yahoo.co.jp/search;_ylt=A2RA2C6kajJYCWQAB6KJBtF7?p=au...
November 12, 2016, 12:27 AM 197d November 12, 2016, 12:27 AM 197d 3 http://sorryzautrudnienia.eu
November 6, 2016, 10:31 AM 202d November 6, 2016, 10:30 AM 202d 2 http://image.search.yahoo.co.jp/search?p=TUCCH+携帯&search.x=1&...
November 2, 2016, 1:40 PM 206d N/A 1 http://search.yahoo.co.jp/search?p=au HTC+e30ht&ei=UTF-8&f...
October 27, 2016, 2:32 PM 212d N/A 1 http://google.com/search?q=anonymous
October 26, 2016, 12:36 PM 213d October 25, 2016, 1:12 PM 214d 9 https://essays.men/articles/
October 26, 2016, 12:22 PM 213d October 25, 2016, 10:46 AM 214d 6 https://go4essay.men/
October 26, 2016, 11:30 AM 213d October 26, 2016, 11:30 AM 213d 3 https://buyessay.men/press/
October 26, 2016, 11:16 AM 213d October 25, 2016, 9:26 PM 214d 6 https://1essay.men/news/
October 26, 2016, 10:25 AM 213d October 25, 2016, 5:01 PM 214d 6 https://dissertation.men/links/
October 26, 2016, 10:11 AM 213d October 25, 2016, 5:14 AM 215d 9 https://99essays.men/news/
October 26, 2016, 9:19 AM 213d October 26, 2016, 4:37 AM 214d 6 https://dissertation.men/news/
October 26, 2016, 9:05 AM 213d October 26, 2016, 5:44 AM 214d 9 https://termpaper.men/links/
October 26, 2016, 8:13 AM 213d October 26, 2016, 8:13 AM 213d 3 https://collegework.men/press/
October 26, 2016, 7:05 AM 213d October 25, 2016, 9:45 PM 214d 6 https://1essay.men/articles/
October 26, 2016, 6:50 AM 213d October 25, 2016, 10:54 PM 214d 6 https://go4essay.men/press/
October 26, 2016, 4:52 AM 214d October 26, 2016, 4:51 AM 214d 3 https://essays.men/press/
October 26, 2016, 12:46 AM 214d October 26, 2016, 12:45 AM 214d 3 https://go4essay.men/links/
October 26, 2016, 12:24 AM 214d October 26, 2016, 12:24 AM 214d 3 https://essays.men/
October 25, 2016, 11:14 PM 214d October 25, 2016, 11:14 PM 214d 3 https://essaykings.men/news/
October 25, 2016, 8:17 PM 214d October 25, 2016, 3:34 PM 214d 6 https://77essays.men/links/
October 25, 2016, 7:58 PM 214d October 25, 2016, 3:53 PM 214d 6 https://1essay.men/links/
October 25, 2016, 6:50 PM 214d October 25, 2016, 6:50 PM 214d 3 https://99essays.men/
October 25, 2016, 6:31 PM 214d October 25, 2016, 6:31 PM 214d 3 https://essaykings.men/articles/
October 25, 2016, 5:22 PM 214d October 25, 2016, 5:22 PM 214d 3 https://termpaper.men/articles/
October 25, 2016, 2:31 PM 214d October 25, 2016, 2:31 PM 214d 3 https://coursework.men/
October 25, 2016, 2:13 PM 214d October 25, 2016, 11:57 AM 214d 6 https://99essays.men/press/
October 25, 2016, 12:55 PM 214d October 25, 2016, 7:14 AM 214d 6 https://termpaper.men/
October 25, 2016, 11:42 AM 214d October 25, 2016, 11:42 AM 214d 3 https://buyessay.men/
October 25, 2016, 10:31 AM 214d October 25, 2016, 10:31 AM 214d 3 https://essays.men/links/
October 25, 2016, 9:38 AM 214d October 25, 2016, 9:38 AM 214d 3 https://essays.men/news/
October 25, 2016, 9:24 AM 214d October 25, 2016, 8:32 AM 214d 6 https://coursework.men/articles/
October 25, 2016, 9:00 AM 214d N/A 1 http://www.nytimes.com/pages/books/index.html
October 25, 2016, 8:18 AM 214d October 25, 2016, 8:18 AM 214d 3 https://77essays.men/articles/
October 25, 2016, 7:27 AM 214d October 25, 2016, 7:27 AM 214d 3 https://buyessay.men/news/
October 25, 2016, 6:15 AM 215d October 25, 2016, 6:14 AM 215d 3 https://essaykings.men/press/
October 25, 2016, 5:27 AM 215d October 25, 2016, 5:27 AM 215d 3 https://collegework.men/
October 25, 2016, 4:27 AM 215d October 25, 2016, 4:27 AM 215d 3 https://99essays.men/links/
October 25, 2016, 4:14 AM 215d October 25, 2016, 4:14 AM 215d 3 https://1essay.men/
October 22, 2016, 4:44 PM 217d N/A 1 http://www.bing.com/search?q=ウィンドウズ+携帯+au&go=検索&q...
October 22, 2016, 9:24 AM 217d N/A 1 https://www.bing.com/
October 21, 2016, 2:03 PM 218d November 6, 2011, 4:55 AM 2030d 84 http://s01sh.windows-keitai.com/
October 21, 2016, 1:48 AM 219d October 21, 2016, 1:47 AM 219d 2 http://touch-pro.windows-keitai.com/?cmd=referer&page=Touch+Pro...
October 18, 2016, 9:46 PM 221d February 25, 2013, 12:57 PM 1552d 51 https://www.google.co.jp/
October 18, 2016, 10:56 AM 221d October 18, 2016, 10:55 AM 221d 2 http://yagoo.link/
October 16, 2016, 12:39 PM 223d October 16, 2016, 9:04 AM 223d 4 http://hk-net.net/10014908/
October 15, 2016, 12:54 AM 225d October 9, 2016, 5:50 AM 231d 36 https://mtz82.tracland.ru/
October 14, 2016, 11:51 PM 225d March 27, 2015, 7:54 PM 792d 143 http://russ-tractor.ru/eo21.html
October 14, 2016, 6:54 PM 225d January 28, 2015, 7:33 AM 850d 113 http://russ-tractor.ru/to49.html
October 14, 2016, 6:36 PM 225d January 14, 2015, 6:48 AM 864d 159 http://russ-tractor.ru/tr80.html
October 14, 2016, 5:30 PM 225d January 30, 2015, 8:53 AM 848d 105 http://russ-tractor.ru/ko1.html
October 14, 2016, 4:10 PM 225d January 14, 2015, 7:14 AM 864d 156 http://russ-tractor.ru/price.html
October 14, 2016, 2:33 PM 225d October 9, 2016, 1:19 AM 231d 54 https://prodazha.tracland.ru/
October 14, 2016, 1:06 AM 226d January 14, 2015, 9:13 AM 864d 134 http://russ-tractor.ru/
October 14, 2016, 12:03 AM 226d January 31, 2015, 12:17 AM 848d 126 http://russ-tractor.ru/eo26.html
October 13, 2016, 10:33 PM 226d January 15, 2015, 5:33 PM 863d 104 http://russ-tractor.ru/remont-mtz-1221.html
October 13, 2016, 9:02 PM 226d January 28, 2015, 8:55 PM 850d 136 http://russ-tractor.ru/ko2.html
October 13, 2016, 8:52 PM 226d January 28, 2015, 5:48 PM 850d 85 http://russ-tractor.ru/dz133.html
October 13, 2016, 8:07 PM 226d October 9, 2016, 4:29 AM 231d 51 https://mtz80.tracland.ru/
October 13, 2016, 4:49 PM 226d January 31, 2015, 7:24 PM 847d 91 http://russ-tractor.ru/ko207.html
October 13, 2016, 4:05 PM 226d January 22, 2015, 9:32 AM 856d 115 http://russ-tractor.ru/sale.html
October 13, 2016, 2:25 PM 226d N/A 1 http://www.google.co.jp/search?hl=ja&source=hp&biw=&bih...
October 12, 2016, 11:01 PM 227d October 3, 2016, 10:40 AM 236d 42 https://kupit.tracland.ru/
October 12, 2016, 10:10 PM 227d January 16, 2015, 6:50 AM 862d 85 http://russ-tractor.ru/tr82.html
October 12, 2016, 9:09 PM 227d October 9, 2016, 1:57 PM 230d 27 https://bu.tracland.ru/
October 12, 2016, 5:56 PM 227d January 14, 2015, 4:46 AM 865d 123 http://russ-tractor.ru/kabiny.html
October 11, 2016, 5:10 AM 229d February 23, 2013, 5:52 PM 1554d 3 http://windows-keitai.com/?cmd=referer&page=ニュース/2009.03.17...
October 10, 2016, 11:00 PM 229d N/A 1 http://sc-01b.windows-keitai.com/?SC-01B/スペック
October 10, 2016, 10:57 PM 229d December 2, 2011, 9:53 AM 2003d 13 http://soft.wince.ne.jp/soft/Lists/?P=20&R=20
October 10, 2016, 8:28 AM 229d July 30, 2014, 9:19 AM 1032d 3 http://dual-diamond.windows-keitai.com/?Dual Diamond/よくある質問/通信
October 9, 2016, 1:15 PM 230d January 13, 2014, 2:19 PM 1230d 7 http://dual-diamond.windows-keitai.com/
October 9, 2016, 12:49 PM 230d N/A 1 http://touch-pro.windows-keitai.com/?cmd=referer&page=Touch Pro...
October 9, 2016, 9:13 AM 230d February 22, 2013, 7:19 PM 1555d 4 http://x01sc.windows-keitai.com/
October 9, 2016, 8:21 AM 230d October 9, 2016, 8:20 AM 230d 2 http://touch-pro.windows-keitai.com/?cmd=referer&page=Touch Pro...
October 7, 2016, 8:37 PM 232d February 25, 2013, 9:49 PM 1552d 10 http://map.windows-keitai.com/WiMAX/UQ/area.html?lat=34.985705&...
September 30, 2016, 12:31 AM 240d N/A 1 https://shop.brocker.pw/
September 27, 2016, 11:05 PM 242d September 27, 2016, 11:05 PM 242d 2 https://light.combomax.pw/
September 27, 2016, 9:03 PM 242d September 27, 2016, 9:03 PM 242d 2 https://buy.combomax.pw/
September 20, 2016, 10:19 PM 249d N/A 1 http://search.smt.docomo.ne.jp/result?MT=ドコモ+ht‐01a&SID=s08&...
August 7, 2016, 5:19 AM 294d August 7, 2016, 5:17 AM 294d 23 http://norge24slots.xyz
July 22, 2016, 2:42 AM 310d July 19, 2016, 6:35 PM 312d 18 http://chtopochem.xyz/
July 22, 2016, 2:32 AM 310d July 18, 2016, 7:55 PM 313d 21 http://bigpadaboom.xyz/
July 22, 2016, 1:53 AM 310d July 18, 2016, 2:01 PM 313d 18 http://nemerkni.xyz/
July 22, 2016, 1:43 AM 310d July 18, 2016, 9:01 AM 313d 18 http://malina17.xyz/
July 22, 2016, 12:55 AM 310d July 18, 2016, 8:14 AM 313d 33 http://moozoom.xyz/
July 22, 2016, 12:16 AM 310d July 18, 2016, 8:37 PM 313d 12 http://hop-hey.xyz/
July 22, 2016, 12:06 AM 310d July 18, 2016, 11:24 PM 313d 12 http://glaza8.xyz/
July 21, 2016, 11:08 PM 310d July 20, 2016, 5:20 AM 312d 9 http://zug-zug.xyz
July 21, 2016, 10:28 PM 310d July 18, 2016, 1:02 PM 313d 30 http://zhelanie2.xyz/
July 21, 2016, 10:18 PM 310d July 18, 2016, 5:52 AM 314d 27 http://gulyaem.xyz/
July 21, 2016, 9:39 PM 310d July 19, 2016, 1:56 AM 313d 18 http://0zero0.xyz/
July 21, 2016, 9:29 PM 310d July 18, 2016, 11:38 AM 313d 30 http://soglasen.xyz/
July 21, 2016, 8:39 PM 310d July 18, 2016, 1:51 PM 313d 21 http://mirumir.xyz/
July 21, 2016, 8:00 PM 310d July 19, 2016, 8:28 AM 312d 12 http://igla35.xyz/
July 21, 2016, 7:50 PM 310d July 18, 2016, 7:36 AM 313d 9 http://dumaisam.xyz/
July 21, 2016, 7:10 PM 310d July 21, 2016, 7:10 PM 310d 3 http://likeadoze.xyz/
July 21, 2016, 6:21 PM 310d July 18, 2016, 7:02 PM 313d 18 http://gazuem.xyz/
July 21, 2016, 6:12 PM 310d July 19, 2016, 9:26 AM 312d 21 http://ergosatum.xyz/
July 21, 2016, 5:23 PM 310d July 18, 2016, 6:02 AM 314d 21 http://fenix31.xyz/
July 21, 2016, 2:56 PM 310d July 18, 2016, 6:39 AM 313d 24 http://krasavchik.xyz/
July 20, 2016, 11:58 PM 311d July 19, 2016, 5:34 PM 312d 15 http://zabirai.xyz/
July 20, 2016, 11:44 PM 311d July 18, 2016, 5:05 AM 314d 30 http://luchsveta.xyz/
July 20, 2016, 8:47 PM 311d July 19, 2016, 8:38 AM 312d 15 http://vera7.xyz/
July 20, 2016, 2:51 PM 311d July 18, 2016, 9:58 AM 313d 21 http://arrrrrr.xyz/
July 20, 2016, 11:27 AM 311d July 18, 2016, 1:11 PM 313d 9 http://kushnyr.xyz/
July 20, 2016, 11:17 AM 311d July 18, 2016, 11:28 AM 313d 21 http://lihabeda.xyz/
July 20, 2016, 8:12 AM 311d July 18, 2016, 9:39 PM 313d 12 http://bitkabatka.xyz/
July 19, 2016, 7:17 PM 312d July 18, 2016, 9:11 AM 313d 12 http://polnyvpered.xyz/
July 19, 2016, 7:00 AM 312d July 18, 2016, 9:49 AM 313d 15 http://mnemonika.xyz/
July 18, 2016, 7:27 AM 313d July 18, 2016, 7:27 AM 313d 3 http://redut.xyz/
July 7, 2016, 10:22 AM 324d June 12, 2015, 5:59 PM 715d 3 http://blog.goo.ne.jp/cestaff/e/1403363de024138bdcc6d61038bf14d5?fm...
May 27, 2016, 1:15 AM 366d April 30, 2016, 11:31 AM 392d 4 http://87cho.jp/
May 25, 2016, 4:24 AM 368d May 23, 2016, 12:24 PM 369d 4 http://antiaging-placenta.link/
May 17, 2016, 2:52 AM 376d N/A 1 http://blog.goo.ne.jp/cestaff/m/201203
April 29, 2016, 10:01 AM 393d April 29, 2016, 10:01 AM 393d 2 http://jibunngamikata.blog.so-net.ne.jp/
April 28, 2016, 10:07 AM 394d N/A 1 http://search.yahoo.co.jp/search;_ylt=A2RhYNFJYiFXFBYAof.JBtF7?p=HT...
April 26, 2016, 9:54 PM 396d N/A 1 http://search.yahoo.co.jp/search;_ylt=A2RA1CPWZB9X.1cA01uJBtF7?p=au...
April 14, 2016, 10:28 AM 408d N/A 1 http://search.yahoo.co.jp/search;_ylt=A3aX6edd7w5XB3QA68GJBtF7?p=au...
April 6, 2016, 11:46 AM 416d N/A 1 http://search.yahoo.co.jp/search;_ylt=A3xT6tKKeARXdHEAiTCJBtF7?p=H...
April 4, 2016, 7:49 PM 418d N/A 1 http://search.yahoo.co.jp/search;_ylt=A3xTmEi4RgJXPh4A3O.JBtF7?p=ht...
March 29, 2016, 10:03 PM 424d N/A 1 http://www.baidu.com/s?wd=HTCTOUCHPROHT-01A・ノ・ウ・礬TCE30HTauKDDI-Win...
March 21, 2016, 2:35 PM 432d N/A 1 http://search.yahoo.co.jp/search?ei=UTF-8&p=hyc e30ht&fr=ap...
March 2, 2016, 11:29 AM 451d N/A 1 http://search.yahoo.co.jp/search;_ylt=A2RA2EvzT9ZWNQYAXayJBtF7?p=HT...
March 1, 2016, 7:23 PM 452d N/A 1 http://search.yahoo.co.jp/search;_ylt=A3xTymhDbdVWrDsAAzel_Op7?p=HT...
February 29, 2016, 9:21 PM 453d N/A 1 http://search.yahoo.co.jp/search;_ylt=A3xTiCQuMNRWAFkALwOJBtF7?p=H...
February 9, 2016, 2:55 AM 474d N/A 1 http://blog.goo.ne.jp/cestaff/c/da527f05d26995432774a2810d75a1c2
February 1, 2016, 4:35 AM 482d N/A 1 http://search.yahoo.co.jp/search?p=au+win+htc&ei=UTF-8&fr=a...
January 28, 2016, 10:45 PM 485d N/A 1 http://www.google.com
January 19, 2016, 11:11 AM 494d January 19, 2016, 11:10 AM 494d 2 http://trends365.blog.so-net.ne.jp/2015-11-29
January 17, 2016, 12:27 AM 497d N/A 1 http://search.yahoo.co.jp/search?ei=UTF-8&p=htc touch pro
January 16, 2016, 1:01 PM 497d N/A 1 http://search.yahoo.co.jp/search?p=ht01aレビー&x=wrt&aq=-1&...
January 13, 2016, 2:36 AM 501d January 13, 2016, 2:26 AM 501d 3 http://yisea.gq/
January 11, 2016, 4:36 AM 503d January 11, 2016, 4:35 AM 503d 3 http://draftnef.gq/
January 11, 2016, 3:51 AM 503d January 11, 2016, 3:50 AM 503d 3 http://skuqual.gq/
January 11, 2016, 2:09 AM 503d January 11, 2016, 2:09 AM 503d 3 http://dawmul.gq/
January 11, 2016, 1:40 AM 503d January 11, 2016, 1:40 AM 503d 3 http://taiter.gq/
January 11, 2016, 12:32 AM 503d January 11, 2016, 12:32 AM 503d 3 http://dhigug.gq/
January 11, 2016, 12:27 AM 503d January 11, 2016, 12:26 AM 503d 3 http://trilpyk.gq/
January 10, 2016, 11:46 PM 503d January 10, 2016, 11:46 PM 503d 3 http://jinbux.gq/
January 10, 2016, 11:38 PM 503d January 10, 2016, 11:38 PM 503d 3 http://copescert.gq/
January 10, 2016, 11:10 PM 503d January 10, 2016, 11:09 PM 503d 3 http://frincraunch.gq/
January 10, 2016, 10:59 PM 503d N/A 1 http://image.search.yahoo.co.jp/search?ei=UTF-8&fr=applpd&p...
January 10, 2016, 9:56 PM 503d January 10, 2016, 9:56 PM 503d 3 http://naanchyle.gq/
January 10, 2016, 9:31 PM 503d January 10, 2016, 9:30 PM 503d 3 http://nipsore.gq/
January 10, 2016, 9:25 PM 503d January 10, 2016, 9:24 PM 503d 3 http://chutecyanuric.gq/
January 10, 2016, 8:58 PM 503d January 10, 2016, 8:58 PM 503d 3 http://cushfalque.gq/
January 10, 2016, 8:51 PM 503d January 10, 2016, 8:51 PM 503d 3 http://hyrtents.gq/
January 10, 2016, 8:25 PM 503d January 10, 2016, 8:25 PM 503d 3 http://panedcran.gq/
January 10, 2016, 8:19 PM 503d January 10, 2016, 8:19 PM 503d 3 http://muthdin.gq/
January 10, 2016, 7:54 PM 503d January 10, 2016, 7:54 PM 503d 3 http://rutderk.gq/
January 10, 2016, 7:48 PM 503d January 10, 2016, 7:48 PM 503d 3 http://houseda.gq/
January 10, 2016, 7:24 PM 503d January 10, 2016, 7:24 PM 503d 3 http://prylsul.gq/
January 10, 2016, 7:14 PM 503d January 10, 2016, 7:14 PM 503d 3 http://nieretest.gq/
January 10, 2016, 6:12 PM 503d January 10, 2016, 6:12 PM 503d 3 http://pencehood.gq/
January 10, 2016, 5:38 PM 503d January 10, 2016, 5:38 PM 503d 3 http://legdraugh.gq/
January 10, 2016, 4:57 AM 504d January 10, 2016, 4:57 AM 504d 3 http://dowsecole.gq/
January 10, 2016, 4:29 AM 504d January 10, 2016, 4:29 AM 504d 3 http://quenscend.gq/
January 10, 2016, 3:19 AM 504d January 10, 2016, 3:19 AM 504d 3 http://motfip.gq/
January 10, 2016, 3:12 AM 504d January 10, 2016, 3:12 AM 504d 3 http://flourlight.gq/
January 10, 2016, 2:42 AM 504d January 10, 2016, 2:42 AM 504d 3 http://toilnys.gq/
January 10, 2016, 2:34 AM 504d January 10, 2016, 2:34 AM 504d 3 http://patemere.gq/
January 10, 2016, 2:03 AM 504d January 10, 2016, 2:03 AM 504d 3 http://lobeed.gq/
January 10, 2016, 1:56 AM 504d January 10, 2016, 1:56 AM 504d 3 http://chamceiv.gq/
January 10, 2016, 12:37 AM 504d January 10, 2016, 12:37 AM 504d 3 http://mancyyve.gq/
January 10, 2016, 12:30 AM 504d January 10, 2016, 12:30 AM 504d 3 http://zatezler.gq/
January 9, 2016, 4:56 PM 504d January 9, 2016, 4:56 PM 504d 3 http://tilekind.gq/wonderorganruin/
January 9, 2016, 12:36 PM 504d January 9, 2016, 12:36 PM 504d 3 http://fsas.gq/woodwouldgut/
January 9, 2016, 10:51 AM 504d January 9, 2016, 10:51 AM 504d 3 http://kerranged.gq/normproductwest/
January 9, 2016, 9:13 AM 504d January 9, 2016, 9:13 AM 504d 3 http://vegg.gq/meetingprocrawl/
January 9, 2016, 6:54 AM 504d January 9, 2016, 6:54 AM 504d 3 http://nibhatch.gq/ironweaponlead/
January 9, 2016, 5:31 AM 505d January 9, 2016, 5:31 AM 505d 3 http://cragasc.gq/mealporkoutline/
January 9, 2016, 4:45 AM 505d January 9, 2016, 4:45 AM 505d 3 http://doomnav.gq/bushhelmetself/
January 9, 2016, 4:02 AM 505d January 9, 2016, 4:02 AM 505d 3 http://daredbril.gq/arabfasterfund/
January 9, 2016, 3:20 AM 505d January 9, 2016, 3:20 AM 505d 3 http://cealedmere.gq/maybebreakright/
January 9, 2016, 2:38 AM 505d January 9, 2016, 2:38 AM 505d 3 http://croonroned.gq/maskchainshort/
January 9, 2016, 1:57 AM 505d January 9, 2016, 1:57 AM 505d 3 http://didcok.gq/labskirtcasual/
January 9, 2016, 1:16 AM 505d January 9, 2016, 1:16 AM 505d 3 http://necdreul.gq/uppotatoindex/
January 9, 2016, 12:35 AM 505d January 9, 2016, 12:35 AM 505d 3 http://hredcledge.gq/armstormbridge/
January 8, 2016, 11:56 PM 505d January 8, 2016, 11:56 PM 505d 3 http://zlingrhet.gq/gaincakeuniform/
January 8, 2016, 11:17 PM 505d January 8, 2016, 11:16 PM 505d 3 http://tudenah.gq/shamenervephoto/
January 8, 2016, 10:38 PM 505d January 8, 2016, 10:38 PM 505d 3 http://taieo.gq/exactlywavent/
January 8, 2016, 9:59 PM 505d January 8, 2016, 9:59 PM 505d 3 http://backox.gq/chronicnextrush/
January 8, 2016, 9:21 PM 505d January 8, 2016, 9:21 PM 505d 3 http://vescebud.gq/seembathpurse/
January 8, 2016, 8:43 PM 505d January 8, 2016, 8:43 PM 505d 3 http://venecule.gq/upbranchwithout/
January 8, 2016, 7:32 PM 505d January 8, 2016, 7:31 PM 505d 3 http://nunust.gq/wishtuckstake/
January 8, 2016, 6:35 PM 505d January 8, 2016, 6:35 PM 505d 3 http://wotcal.gq/desperatemessdo/
January 8, 2016, 5:51 PM 505d January 8, 2016, 5:51 PM 505d 3 http://wonun.gq/breathreadyfoot/
January 8, 2016, 5:03 PM 505d January 8, 2016, 5:03 PM 505d 3 http://bitsos.gq/damleaveexcuse/
January 8, 2016, 3:57 PM 505d January 8, 2016, 3:57 PM 505d 3 http://phracdly.gq/collapseawarddo/
January 8, 2016, 2:37 PM 505d January 8, 2016, 2:37 PM 505d 3 http://dregcurt.gq/bellvacuumhonor/
January 8, 2016, 1:18 PM 505d January 8, 2016, 1:18 PM 505d 3 http://tunyev.gq/candyrootwhy/
January 8, 2016, 11:28 AM 505d January 8, 2016, 11:28 AM 505d 3 http://bitsos.gq/nointegratedtop/
January 8, 2016, 10:08 AM 505d January 8, 2016, 10:08 AM 505d 3 http://ualdale.gq/risknoteadmit/
January 8, 2016, 9:27 AM 505d N/A 1 http://yandex.ru/clck/jsredir?from=yandex.ru;search;web;;&text=...
January 8, 2016, 8:52 AM 505d January 8, 2016, 8:52 AM 505d 3 http://varcyph.gq/flourarenabeat/
January 8, 2016, 7:37 AM 505d January 8, 2016, 7:36 AM 505d 3 http://deyesite.gq/soupjuniorforth/
January 8, 2016, 6:36 AM 505d January 8, 2016, 6:36 AM 505d 3 http://chackclo.gq/enablewhilespin/
January 1, 2016, 7:11 PM 512d N/A 1 http://search.yahoo.co.jp/search;_ylt=A2RhYkLmT4ZWVAsA7EqJBtF7?p=HT...
December 29, 2015, 1:43 PM 515d N/A 1 http://search.yahoo.co.jp/search;_ylt=A3xTiG3LDYJW4jMAb4vr9P17?p=ht...
December 22, 2015, 1:42 AM 523d December 22, 2015, 1:42 AM 523d 3 http://wheelchair.othermoney.top/
December 18, 2015, 1:04 PM 526d December 18, 2015, 1:03 PM 526d 3 http://onlyinto.top/
December 18, 2015, 11:36 AM 526d December 18, 2015, 11:36 AM 526d 3 http://pixonti.gq/
December 18, 2015, 10:53 AM 526d December 18, 2015, 10:53 AM 526d 3 http://contralane.gq/
December 18, 2015, 10:11 AM 526d December 18, 2015, 10:11 AM 526d 3 http://enescent.gq/
December 18, 2015, 9:23 AM 526d December 18, 2015, 9:23 AM 526d 3 http://electrombu.gq/
December 18, 2015, 7:59 AM 526d December 18, 2015, 7:59 AM 526d 3 http://acerend.gq/
December 18, 2015, 7:17 AM 526d December 18, 2015, 7:17 AM 526d 3 http://circumism.gq/
December 18, 2015, 6:35 AM 526d December 18, 2015, 6:35 AM 526d 3 http://ideombu.gq/
December 18, 2015, 5:53 AM 527d December 18, 2015, 5:53 AM 527d 3 http://worksome.top/
December 16, 2015, 1:36 PM 528d December 16, 2015, 1:35 PM 528d 3 http://moneythere.top/
December 16, 2015, 12:45 PM 528d N/A 1 http://search.yahoo.co.jp/search;_ylt=A2RACGZD3nBWY3MAKkmJBtF7?p=+E...
December 16, 2015, 11:33 AM 528d December 16, 2015, 11:32 AM 528d 3 http://coramia.gq/
December 16, 2015, 10:16 AM 528d December 15, 2015, 1:16 PM 529d 6 http://megadoo.gq/
December 16, 2015, 7:34 AM 528d December 16, 2015, 7:34 AM 528d 3 http://coricious.gq/
December 16, 2015, 6:30 AM 528d December 16, 2015, 6:30 AM 528d 3 http://insulil.gq/
December 16, 2015, 5:40 AM 529d December 16, 2015, 5:40 AM 529d 3 http://theseinto.top/
December 16, 2015, 5:00 AM 529d December 16, 2015, 5:00 AM 529d 3 http://multimbo.gq/
December 16, 2015, 4:24 AM 529d December 16, 2015, 4:24 AM 529d 3 http://trimbee.gq/
December 16, 2015, 1:47 AM 529d December 16, 2015, 1:47 AM 529d 3 http://kwimbee.gq/
December 16, 2015, 1:13 AM 529d December 16, 2015, 1:13 AM 529d 3 http://demodoo.gq/
December 16, 2015, 12:04 AM 529d December 16, 2015, 12:04 AM 529d 3 http://supratude.gq/
December 15, 2015, 11:29 PM 529d December 15, 2015, 11:29 PM 529d 3 http://portive.gq/
December 15, 2015, 10:54 PM 529d December 15, 2015, 10:54 PM 529d 3 http://gradiloo.gq/
December 15, 2015, 10:20 PM 529d December 15, 2015, 10:19 PM 529d 3 http://calcescent.gq/
December 15, 2015, 9:45 PM 529d December 15, 2015, 9:45 PM 529d 3 http://otherlook.top/
December 15, 2015, 8:34 PM 529d December 15, 2015, 8:34 PM 529d 3 http://epilith.gq/
December 15, 2015, 7:59 PM 529d December 15, 2015, 7:59 PM 529d 3 http://lookgrand.top/
December 15, 2015, 7:25 PM 529d December 15, 2015, 7:25 PM 529d 3 http://retrozu.gq/
December 15, 2015, 6:51 PM 529d December 15, 2015, 6:51 PM 529d 3 http://monkeythen.top/
December 15, 2015, 6:17 PM 529d December 15, 2015, 6:17 PM 529d 3 http://astrozio.gq/
December 15, 2015, 5:43 PM 529d December 15, 2015, 5:43 PM 529d 3 http://intowork.top/
December 15, 2015, 5:10 PM 529d December 15, 2015, 5:10 PM 529d 3 http://gradicy.gq/
December 15, 2015, 4:36 PM 529d December 15, 2015, 4:36 PM 529d 3 http://perinyx.gq/
December 15, 2015, 2:56 PM 529d December 15, 2015, 2:56 PM 529d 3 http://colourcould.top/
December 15, 2015, 2:22 PM 529d December 15, 2015, 2:22 PM 529d 3 http://becauselike.top/
December 15, 2015, 12:43 PM 529d December 15, 2015, 12:43 PM 529d 3 http://quasindo.gq/
December 15, 2015, 11:36 AM 529d December 15, 2015, 11:36 AM 529d 3 http://protojo.gq/
December 15, 2015, 10:29 AM 529d December 15, 2015, 10:29 AM 529d 3 http://astrondo.gq/
December 15, 2015, 9:23 AM 529d December 15, 2015, 9:23 AM 529d 3 http://inframm.gq/
December 15, 2015, 8:17 AM 529d December 15, 2015, 8:17 AM 529d 3 http://microxo.gq/
December 15, 2015, 7:44 AM 529d December 15, 2015, 7:44 AM 529d 3 http://therehot.top/
December 15, 2015, 7:11 AM 529d December 15, 2015, 7:11 AM 529d 3 http://paleombo.gq/
December 15, 2015, 6:38 AM 529d December 15, 2015, 6:38 AM 529d 3 http://laudism.gq/
December 15, 2015, 4:23 AM 530d December 15, 2015, 4:23 AM 530d 3 http://intotake.top/
December 15, 2015, 3:48 AM 530d December 15, 2015, 3:48 AM 530d 3 http://hydrolium.gq/
December 15, 2015, 3:12 AM 530d December 15, 2015, 3:12 AM 530d 3 http://keymonkey.top/
December 15, 2015, 2:35 AM 530d December 15, 2015, 2:35 AM 530d 3 http://seilarvinamb.gq/
December 15, 2015, 1:59 AM 530d December 15, 2015, 1:59 AM 530d 3 http://uberose.gq/
December 15, 2015, 1:24 AM 530d December 15, 2015, 1:24 AM 530d 3 http://colosis.gq/
December 15, 2015, 12:49 AM 530d December 15, 2015, 12:49 AM 530d 3 http://paleova.gq/
December 15, 2015, 12:13 AM 530d December 15, 2015, 12:13 AM 530d 3 http://portose.gq/
December 14, 2015, 11:04 PM 530d December 14, 2015, 11:03 PM 530d 3 http://somerainy.top/
December 14, 2015, 10:29 PM 530d December 14, 2015, 10:29 PM 530d 3 http://thesetake.top/
December 14, 2015, 9:55 PM 530d December 14, 2015, 9:55 PM 530d 3 http://amphixo.gq/
December 14, 2015, 9:22 PM 530d December 14, 2015, 9:21 PM 530d 3 http://vicendo.gq/
December 14, 2015, 7:43 PM 530d December 14, 2015, 7:43 PM 530d 3 http://octofix.gq/
December 14, 2015, 7:10 PM 530d December 14, 2015, 7:10 PM 530d 3 http://homondo.gq/
December 14, 2015, 6:05 PM 530d December 14, 2015, 6:05 PM 530d 3 http://afterkey.top/
December 14, 2015, 4:28 PM 530d December 14, 2015, 4:28 PM 530d 3 http://coldcould.top/
December 14, 2015, 2:20 PM 530d December 14, 2015, 2:19 PM 530d 3 http://archent.gq/
December 14, 2015, 1:04 PM 530d December 14, 2015, 1:04 PM 530d 3 http://ultranti.gq/
December 14, 2015, 12:22 PM 530d December 14, 2015, 12:22 PM 530d 3 http://ideocee.gq/
December 14, 2015, 11:39 AM 530d December 14, 2015, 11:39 AM 530d 3 http://wellmost.top/
December 14, 2015, 10:14 AM 530d December 13, 2015, 5:33 PM 531d 9 http://autonoodle.gq/
December 14, 2015, 9:32 AM 530d December 14, 2015, 9:32 AM 530d 3 http://abambee.gq/
December 14, 2015, 7:26 AM 530d December 14, 2015, 7:26 AM 530d 3 http://whenall.top/
December 14, 2015, 6:44 AM 530d December 14, 2015, 6:44 AM 530d 3 http://transill.gq/
December 14, 2015, 6:02 AM 531d December 14, 2015, 6:02 AM 531d 3 http://takemonkey.top/
December 14, 2015, 5:19 AM 531d December 14, 2015, 5:19 AM 531d 3 http://coranyx.gq/
December 14, 2015, 2:59 AM 531d December 14, 2015, 2:59 AM 531d 3 http://intrata.gq/
December 14, 2015, 2:20 AM 531d December 14, 2015, 2:20 AM 531d 3 http://hotkey.top/
December 14, 2015, 12:29 AM 531d December 14, 2015, 12:29 AM 531d 3 http://cryptota.gq/
December 13, 2015, 11:05 PM 531d December 13, 2015, 11:05 PM 531d 3 http://thenmost.top/
December 13, 2015, 10:27 PM 531d December 13, 2015, 10:27 PM 531d 3 http://yonoodle.gq/
December 13, 2015, 9:52 PM 531d December 13, 2015, 9:52 PM 531d 3 http://allother.top/
December 13, 2015, 8:48 PM 531d December 13, 2015, 8:48 PM 531d 2 http://blog.goo.ne.jp/admin/showentry/
December 13, 2015, 8:19 PM 531d December 13, 2015, 8:19 PM 531d 3 http://premise.gq/
December 13, 2015, 6:09 PM 531d December 13, 2015, 6:09 PM 531d 3 http://ecolith.gq/
December 13, 2015, 4:59 PM 531d December 13, 2015, 4:59 PM 531d 3 http://eanoodle.gq/
December 13, 2015, 3:55 PM 531d December 13, 2015, 3:55 PM 531d 3 http://transity.gq/
December 13, 2015, 6:42 AM 531d December 13, 2015, 6:41 AM 531d 3 http://eurondo.gq/
December 13, 2015, 5:04 AM 532d December 13, 2015, 5:04 AM 532d 3 http://othernow.top/
December 13, 2015, 3:45 AM 532d December 13, 2015, 3:45 AM 532d 3 http://dynodel.gq/
December 13, 2015, 2:49 AM 532d December 13, 2015, 2:49 AM 532d 3 http://vertore.gq/
November 26, 2015, 10:47 PM 548d N/A 1 http://search.yahoo.co.jp/search;_ylt=A2RgBcZmDFdWKVwADU2JBtF7?p=e3...
November 14, 2015, 3:08 AM 561d N/A 1 http://search.yahoo.co.jp/r/FOR=zj1uwZhV3ii5AHopzUUxU3K4qY2XUH2tb0m...
November 3, 2015, 1:09 PM 571d November 3, 2015, 1:08 PM 571d 2 http://tanosiicomyunitii.blog.so-net.ne.jp/
October 31, 2015, 2:07 AM 575d N/A 1 http://search.yahoo.co.jp/search?p=htc e30ht&sp=1&aq=-1&...
October 13, 2015, 1:11 PM 592d November 10, 2011, 12:02 PM 2025d 2 http://blog.goo.ne.jp/cestaff/e/9a080184a3e6008e54e49e958e87503d
September 30, 2015, 9:50 AM 605d N/A 1 http://yandex.ru/clck/jsredir?from=yandex.ru;search;web;;&text=...
September 13, 2015, 12:21 AM 623d N/A 1 http://search.yahoo.co.jp/search?ei=UTF-8&fr=tospccie4&p=To...
August 24, 2015, 4:17 PM 642d N/A 1 http://search.yahoo.co.jp/search?p=KDDI+docomo&aq=-1&ei=UTF...
August 17, 2015, 6:27 PM 649d August 17, 2015, 6:26 PM 649d 2 http://blog.goo.ne.jp/bcd68444-0426
August 12, 2015, 11:13 PM 654d N/A 1 http://search.yahoo.co.jp/search?p=HTC+E30HT&ei=UTF-8&fr=ap...
August 8, 2015, 3:51 PM 658d N/A 1 http://search.yahoo.co.jp/search;_ylt=A7dPSDanpsVV7xwAzRQFdNt7?p=ht...
August 2, 2015, 5:04 PM 664d N/A 1 http://search.yahoo.co.jp/search?p=e30ht&aq=-1&oq=&ei=U...
July 9, 2015, 2:33 AM 689d March 14, 2015, 9:29 AM 805d 2 http://blog.goo.ne.jp/cestaff/m/201502
July 4, 2015, 5:17 PM 693d May 17, 2015, 9:59 AM 741d 5 http://tattoo33.ru/
July 4, 2015, 4:33 PM 693d January 29, 2015, 6:33 AM 849d 15 http://taximytishi.ru/tarifi-na-vokzal.html
July 4, 2015, 3:39 PM 693d January 14, 2015, 8:11 PM 864d 12 http://liderpak.ru/
July 4, 2015, 1:06 PM 693d July 4, 2015, 1:06 PM 693d 3 http://liderpak.ru/termoetiketki.php
July 4, 2015, 11:48 AM 693d May 16, 2015, 11:10 PM 742d 10 http://liderpak.ru/svechi.php
July 4, 2015, 9:15 AM 693d May 16, 2015, 12:23 PM 742d 5 http://liderpak.ru/zip.php
July 4, 2015, 6:43 AM 693d July 4, 2015, 6:43 AM 693d 3 http://liderpak.ru/virubnaya.php
July 4, 2015, 5:33 AM 694d January 15, 2015, 8:24 AM 863d 6 http://liderpak.ru/pakety-majka.php
July 4, 2015, 4:30 AM 694d July 4, 2015, 4:30 AM 694d 3 https://xn----jtbtgbbehht5b8a2bv.xn--p1ai/index.php/основные-положе...
July 4, 2015, 3:59 AM 694d July 4, 2015, 3:59 AM 694d 3 https://xn----jtbtgbbehht5b8a2bv.xn--p1ai/index.php/гражданский-код...
July 4, 2015, 3:09 AM 694d May 16, 2015, 5:47 AM 743d 4 http://liderpak.ru/kont.php
July 4, 2015, 1:43 AM 694d May 18, 2015, 5:57 PM 740d 5 http://liderpak.ru/skotch.php
July 3, 2015, 11:34 PM 694d January 30, 2015, 3:00 AM 849d 8 http://taximytishi.ru/dopolnitelnie-uslugi.html
July 3, 2015, 9:39 PM 694d May 18, 2015, 1:16 PM 740d 6 http://liderpak.ru/services.php
July 3, 2015, 8:33 PM 694d March 22, 2015, 3:30 PM 797d 8 http://liderpak.ru/paketi_s_logo.php
July 3, 2015, 7:31 PM 694d May 17, 2015, 3:03 PM 741d 8 http://liderpak.ru/plenka.php
July 3, 2015, 1:48 PM 694d N/A 1 http://yandex.ru/clck/jsredir?from=yandex.ru;search;web;;&text=...
July 3, 2015, 9:04 AM 694d N/A 1 http://yandex.ru/clck/jsredir?from=yandex.ru;search;web;;&text=...
June 29, 2015, 7:01 AM 698d June 26, 2015, 2:51 PM 701d 2 http://www001.upp.so-net.ne.jp/oka/database4.htm
June 27, 2015, 11:13 AM 700d March 25, 2014, 4:30 AM 1160d 3 http://blog.goo.ne.jp/cestaff
June 25, 2015, 10:38 PM 702d N/A 1 http://smartguide.yahoo.co.jp/wisdom/qa/details/1137864031
June 23, 2015, 1:30 PM 704d N/A 1 http://search.yahoo.co.jp/search;_ylt=A7dPSJjnzYhVuR4A2mqJBtF7?p=e3...
June 21, 2015, 8:46 PM 706d N/A 1 http://search.yahoo.co.jp/search;_ylt=A3xTiH9booZV8W4AfRWJBtF7?p=E3...
June 20, 2015, 1:01 AM 708d N/A 1 http://search.yahoo.co.jp/search?ei=UTF-8&p=HTC Touch Pro
June 18, 2015, 11:40 AM 709d June 12, 2015, 12:41 PM 715d 4 http://ameblo.jp/yugo141211/
June 17, 2015, 2:40 AM 711d June 16, 2015, 4:09 PM 711d 8 http://bu.tracland.ru/
June 15, 2015, 12:30 AM 713d June 15, 2015, 12:15 AM 713d 2 http://search.yahoo.co.jp/search;_ylt=A7YWOSuUl31V0jkAhg6JBtF7?p=a...
June 11, 2015, 4:13 AM 717d June 11, 2015, 4:11 AM 717d 3 http://liderpak.ru/company.php
June 11, 2015, 2:13 AM 717d January 30, 2015, 4:18 AM 849d 9 http://taximytishi.ru/tarifi-v-moskvu.html
June 10, 2015, 9:57 PM 717d January 16, 2015, 11:51 AM 862d 32 http://taximytishi.ru/
June 8, 2015, 11:58 PM 719d N/A 1 http://image.search.yahoo.co.jp/search?ei=UTF-8&fr=&p=スラ...
June 8, 2015, 10:50 PM 719d N/A 1 http://search.yahoo.co.jp/search;_ylt=A7dPSPrinHVVPikA0OiJBtF7?p=HT...
June 8, 2015, 4:50 PM 719d N/A 1 http://search.yahoo.co.jp/search?p=au★E30HT&aq=-1&oq=&...
June 1, 2015, 1:52 PM 726d June 1, 2015, 1:51 PM 726d 2 http://biznes-kluch.gq/курсовая-работа-на-тему-бизнес-план-магазина...
June 1, 2015, 11:24 AM 726d June 1, 2015, 11:24 AM 726d 3 http://biznesplany.gq/бизнес-план-для-открытия-предпринимательства-...
June 1, 2015, 9:16 AM 726d June 1, 2015, 9:15 AM 726d 3 http://biz-obzor.gq/бизнес-план-на-создание-питомника/
June 1, 2015, 7:13 AM 726d June 1, 2015, 7:12 AM 726d 2 http://biz-obzor.gq/готовый-бизнес-план-магазина-одежды-с-финансово...
June 1, 2015, 5:09 AM 727d June 1, 2015, 5:09 AM 727d 2 http://biz-obzor.gq/бизнес-план-инвестиционного-проекта-по-открытию...
June 1, 2015, 3:00 AM 727d June 1, 2015, 2:59 AM 727d 3 http://biz-obzor.gq/спорт-клуб-бизнес-план/
June 1, 2015, 12:57 AM 727d June 1, 2015, 12:56 AM 727d 3 http://biz-obzor.gq/фотографии-окна/
May 31, 2015, 10:52 PM 727d May 31, 2015, 10:51 PM 727d 3 http://bezvoprosov.gq/бизнес-план-производство-одежды-для-животных/
May 23, 2015, 10:12 PM 735d May 23, 2015, 10:11 PM 735d 3 http://mtzbelarus.gq/index.php?reg=4327
May 23, 2015, 9:50 PM 735d May 23, 2015, 9:50 PM 735d 3 http://kupitmtz.gq/index.php?index=11417
May 23, 2015, 9:27 PM 735d May 23, 2015, 9:27 PM 735d 3 http://kupittraktormtz.gq/index.php?post=12605
May 23, 2015, 9:03 PM 735d May 23, 2015, 9:03 PM 735d 3 http://minskietraktora.gq/index.php?index=19188
May 23, 2015, 8:40 PM 735d May 23, 2015, 8:40 PM 735d 3 http://kupitmtz.gq/index.php?index=850
May 23, 2015, 8:17 PM 735d May 23, 2015, 8:17 PM 735d 3 http://gomtz.gq/index.php?i=6366
May 23, 2015, 7:55 PM 735d May 23, 2015, 7:55 PM 735d 3 http://kupittraktormtz.gq/index.php?post=8673
May 23, 2015, 7:34 PM 735d May 23, 2015, 7:33 PM 735d 3 http://gomtz.gq/index.php?i=11968
May 23, 2015, 7:12 PM 735d May 23, 2015, 7:12 PM 735d 3 http://kupitmtz.gq/index.php?index=8925
May 23, 2015, 6:50 PM 735d May 23, 2015, 6:50 PM 735d 3 http://kupitmtz.gq/index.php?index=13960
May 23, 2015, 6:29 PM 735d May 23, 2015, 6:28 PM 735d 3 http://minskietraktora.gq/index.php?index=17414
May 23, 2015, 6:07 PM 735d May 23, 2015, 6:07 PM 735d 3 http://mtzbelarus.gq/index.php?reg=4852
May 23, 2015, 5:44 PM 735d May 23, 2015, 5:44 PM 735d 3 http://kupitmtz.gq/index.php?index=1271
May 23, 2015, 5:20 PM 735d May 23, 2015, 5:20 PM 735d 3 http://kupitraktor.gq/index.php?form=6093
May 23, 2015, 4:07 PM 735d May 23, 2015, 4:07 PM 735d 3 http://belarus-mtz.gq/index.php?page=8471
May 23, 2015, 3:07 PM 735d May 23, 2015, 3:07 PM 735d 3 http://mtz-info.gq/index.php?page=4084
May 23, 2015, 2:41 PM 735d May 23, 2015, 2:41 PM 735d 3 http://mtzbelarus.gq/index.php?reg=16482
May 23, 2015, 2:18 PM 735d May 23, 2015, 2:18 PM 735d 3 http://kupitmtz.gq/index.php?index=19061
May 23, 2015, 1:56 PM 735d May 23, 2015, 1:56 PM 735d 3 http://mtz-bu.gq/index.php?m=1804
May 23, 2015, 1:34 PM 735d May 23, 2015, 1:34 PM 735d 3 http://minskietraktora.gq/index.php?index=3034
May 23, 2015, 1:13 PM 735d May 23, 2015, 1:12 PM 735d 3 http://agrotraktor.gq/index.php?p=19289
May 23, 2015, 12:51 PM 735d May 23, 2015, 12:50 PM 735d 3 http://mtz-info.gq/index.php?page=6674
May 23, 2015, 12:21 PM 735d May 23, 2015, 12:21 PM 735d 3 http://gomtz.gq/index.php?i=1608
May 23, 2015, 11:42 AM 735d May 23, 2015, 11:41 AM 735d 3 http://mtz80-mtz82.gq/index.php?v=16338
May 23, 2015, 11:04 AM 735d May 23, 2015, 11:04 AM 735d 3 http://mtz-bu.gq/index.php?m=11074
May 23, 2015, 10:28 AM 735d May 23, 2015, 10:28 AM 735d 3 http://gomtz.gq/index.php?i=15211
May 23, 2015, 9:53 AM 735d May 23, 2015, 9:53 AM 735d 3 http://kupitmtz.gq/index.php?index=5247
May 23, 2015, 9:20 AM 735d May 23, 2015, 9:20 AM 735d 3 http://mtz-info.gq/index.php?page=2051
May 23, 2015, 8:48 AM 735d May 23, 2015, 8:48 AM 735d 3 http://mtz-info.gq/index.php?page=14299
May 23, 2015, 8:18 AM 735d May 23, 2015, 8:18 AM 735d 3 http://mtz80-mtz82.gq/index.php?v=13009
May 23, 2015, 7:49 AM 735d May 23, 2015, 7:49 AM 735d 3 http://gomtz.gq/index.php?i=14089
May 23, 2015, 7:22 AM 735d May 23, 2015, 7:21 AM 735d 3 http://gomtz.gq/index.php?i=7655
May 23, 2015, 6:55 AM 735d May 23, 2015, 6:55 AM 735d 3 http://kupitraktor.gq/index.php?form=4660
May 23, 2015, 6:31 AM 735d May 23, 2015, 6:31 AM 735d 3 http://mtz80-mtz82.gq/index.php?v=9141
May 23, 2015, 6:07 AM 736d May 23, 2015, 6:07 AM 736d 3 http://belarus-mtz.gq/index.php?page=1552
May 23, 2015, 5:44 AM 736d May 23, 2015, 5:44 AM 736d 3 http://kupitmtz.gq/index.php?index=5119
May 23, 2015, 5:22 AM 736d May 23, 2015, 5:22 AM 736d 3 http://kupitmtz.gq/index.php?index=4526
May 23, 2015, 5:00 AM 736d May 23, 2015, 5:00 AM 736d 3 http://mtz-sng.gq/index.php?file=5770
May 23, 2015, 4:39 AM 736d May 23, 2015, 4:39 AM 736d 3 http://belarus-mtz.gq/index.php?page=7536
May 23, 2015, 4:18 AM 736d May 23, 2015, 4:18 AM 736d 3 http://mtzbelarus.gq/index.php?reg=1340
May 23, 2015, 3:56 AM 736d May 23, 2015, 3:56 AM 736d 3 http://mtz-sng.gq/index.php?file=8835
May 23, 2015, 3:34 AM 736d May 23, 2015, 3:34 AM 736d 3 http://agrotraktor.gq/index.php?p=5712
May 23, 2015, 3:10 AM 736d May 23, 2015, 3:10 AM 736d 3 http://mtz-info.gq/index.php?page=17650
May 23, 2015, 2:11 AM 736d May 23, 2015, 2:10 AM 736d 3 http://mtz-info.gq/index.php?page=19106
May 23, 2015, 1:46 AM 736d May 23, 2015, 1:46 AM 736d 3 http://mtz-info.gq/index.php?page=6690
May 23, 2015, 1:21 AM 736d May 23, 2015, 1:21 AM 736d 3 http://kupitraktor.gq/index.php?form=4753
May 23, 2015, 12:58 AM 736d May 23, 2015, 12:58 AM 736d 3 http://mtzbelarus.gq/index.php?reg=17993
May 23, 2015, 12:36 AM 736d May 23, 2015, 12:36 AM 736d 3 http://mtz-sng.gq/index.php?file=19846
May 23, 2015, 12:14 AM 736d May 23, 2015, 12:14 AM 736d 3 http://mtzbelarus.gq/index.php?reg=6709
May 22, 2015, 10:43 PM 736d May 22, 2015, 10:42 PM 736d 2 http://kupittraktormtz.gq/index.php?post=7217
May 22, 2015, 10:08 PM 736d May 22, 2015, 10:08 PM 736d 3 http://kupittraktormtz.gq/index.php?post=8169
May 22, 2015, 9:46 PM 736d May 22, 2015, 9:46 PM 736d 3 http://mtz80-mtz82.gq/index.php?v=769
May 22, 2015, 9:24 PM 736d May 22, 2015, 9:24 PM 736d 3 http://mtz-sng.gq/index.php?file=10160
May 22, 2015, 9:02 PM 736d May 22, 2015, 9:02 PM 736d 3 http://gomtz.gq/index.php?i=17866
May 22, 2015, 8:41 PM 736d May 22, 2015, 8:40 PM 736d 3 http://mtz-sng.gq/index.php?file=16783
May 22, 2015, 8:19 PM 736d May 22, 2015, 8:19 PM 736d 3 http://kupitmtz.gq/index.php?index=6299
May 22, 2015, 7:57 PM 736d May 22, 2015, 7:57 PM 736d 3 http://kupittraktormtz.gq/index.php?post=2638
May 22, 2015, 7:35 PM 736d May 22, 2015, 7:35 PM 736d 3 http://kupittraktormtz.gq/index.php?post=7032
May 22, 2015, 7:13 PM 736d May 22, 2015, 7:13 PM 736d 3 http://kupitraktor.gq/index.php?form=3109
May 22, 2015, 6:40 PM 736d N/A 1 http://touch-pro.windows-keitai.com./
May 22, 2015, 6:35 PM 736d N/A 1 http://ht-01a.windows-keitai.com./
May 21, 2015, 1:13 PM 737d N/A 1 http://agrotraktor.gq/
May 21, 2015, 12:15 PM 737d N/A 1 http://kupittraktormtz.gq/
May 21, 2015, 10:46 AM 737d N/A 1 http://gomtz.gq/
May 21, 2015, 10:14 AM 737d N/A 1 http://belarus-mtz.gq/
May 19, 2015, 11:58 PM 739d N/A 1 http://vholodilnike.gq/index.php?check=1589
May 19, 2015, 11:16 PM 739d May 19, 2015, 11:16 PM 739d 2 http://vkusnye-recepty.gq/index.php?dock=68
May 19, 2015, 10:35 PM 739d N/A 1 http://gotovimbystro.gq/index.php?hit=9520
May 19, 2015, 8:35 PM 739d N/A 1 http://vkusno-i-bystro.gq/index.php?arch=5731
May 19, 2015, 7:58 PM 739d N/A 1 http://receptyotmamy.gq/index.php?s=3253
May 19, 2015, 7:29 PM 739d N/A 1 http://vkusnopoest.gq/index.php?ticket=8217
May 19, 2015, 6:07 PM 739d N/A 1 http://gotovlu-sam.gq/index.php?class=1642
May 19, 2015, 3:42 PM 739d N/A 1 http://vkusno-i-bystro.gq/index.php?arch=1787
May 19, 2015, 3:08 PM 739d May 19, 2015, 3:08 PM 739d 2 http://babushkina-kladovka.gq/index.php?v=6730
May 19, 2015, 2:33 PM 739d N/A 1 http://gotovimbystro.gq/index.php?hit=8474
May 19, 2015, 1:54 PM 739d May 19, 2015, 1:54 PM 739d 2 http://gotovimdoma.gq/index.php?record=148
May 19, 2015, 12:02 PM 739d May 19, 2015, 12:01 PM 739d 3 http://gotovimbystro.gq/index.php?hit=8766
May 19, 2015, 10:11 AM 739d May 19, 2015, 10:11 AM 739d 3 http://vholodilnike.gq/index.php?check=6199
May 19, 2015, 8:37 AM 739d N/A 1 http://maminyrecepty.gq/index.php?r=4775
May 19, 2015, 4:18 AM 740d May 19, 2015, 4:18 AM 740d 3 http://cheapessaywriting.gq/index.php?verso=8899
May 19, 2015, 2:31 AM 740d May 19, 2015, 2:30 AM 740d 2 http://agoodcollegeessay.gq/index.php?p=66011
May 19, 2015, 1:43 AM 740d March 22, 2015, 7:50 PM 797d 5 http://liderpak.ru/fasov.php
May 19, 2015, 12:37 AM 740d May 19, 2015, 12:36 AM 740d 2 http://essaymaker.gq/index.php?reg=28001
May 18, 2015, 10:36 PM 740d May 18, 2015, 10:36 PM 740d 2 http://helpwithessay.gq/index.php?note=9410
May 18, 2015, 9:14 PM 740d N/A 1 http://cheapessaywriting.gq/index.php?verso=861
May 18, 2015, 8:51 PM 740d January 29, 2015, 2:59 AM 850d 12 http://taximytishi.ru/kontakti.html
May 18, 2015, 6:23 PM 740d May 18, 2015, 6:23 PM 740d 2 http://argumentative-essay.gq/index.php?file=11520
May 18, 2015, 4:00 PM 740d May 18, 2015, 3:59 PM 740d 3 http://resumewritingservices.gq/index.php?doc=20376
May 18, 2015, 1:30 PM 740d May 18, 2015, 1:30 PM 740d 3 http://essaymaker.gq/index.php?reg=31260
May 18, 2015, 11:12 AM 740d May 18, 2015, 11:11 AM 740d 2 http://revisemyessay.gq/index.php?a=12177
May 18, 2015, 9:52 AM 740d May 18, 2015, 9:52 AM 740d 3 http://agoodcollegeessay.gq/index.php?p=74985
May 18, 2015, 8:38 AM 740d May 18, 2015, 2:28 AM 741d 3 http://liderpak.ru/podlojk.php
May 18, 2015, 8:09 AM 740d May 18, 2015, 8:09 AM 740d 3 http://essaysforsale.gq/index.php?cab=8727
May 18, 2015, 6:23 AM 740d N/A 1 http://coolessay.gq/index.php?record=16296
May 18, 2015, 4:05 AM 741d May 18, 2015, 4:05 AM 741d 3 http://rushmyessay.gq/index.php?s=3158
May 18, 2015, 2:06 AM 741d May 18, 2015, 2:06 AM 741d 2 http://domyhomework.gq/index.php?info=3091
May 18, 2015, 12:49 AM 741d N/A 1 http://essaysforsale.gq/index.php?cab=22892
May 18, 2015, 12:30 AM 741d May 18, 2015, 12:29 AM 741d 3 http://liderpak.ru/petlevaya.php
May 17, 2015, 9:59 PM 741d May 17, 2015, 9:58 PM 741d 2 http://essayhelp.gq/index.php?record=7461
May 17, 2015, 5:59 PM 741d May 17, 2015, 5:59 PM 741d 2 http://domyhomework.gq/index.php?info=7886
May 17, 2015, 2:26 PM 741d May 17, 2015, 2:24 PM 741d 3 http://helpwithessay.gq/index.php?note=11148
May 17, 2015, 12:01 PM 741d May 17, 2015, 12:00 PM 741d 2 http://customessaystation.gq/index.php?index=11738
May 17, 2015, 10:12 AM 741d May 17, 2015, 10:12 AM 741d 3 http://revisemyessay.gq/index.php?a=8228
May 17, 2015, 8:21 AM 741d May 17, 2015, 8:20 AM 741d 3 http://agoodcollegeessay.gq/index.php?p=30672
May 17, 2015, 6:24 AM 741d May 17, 2015, 6:24 AM 741d 2 http://agoodcollegeessay.gq/index.php?p=91021
May 17, 2015, 4:47 AM 742d May 17, 2015, 4:47 AM 742d 2 http://argumentative-essay.gq/index.php?file=16340
May 17, 2015, 1:46 AM 742d May 17, 2015, 1:46 AM 742d 2 http://liderpak.ru/paketi.php
May 16, 2015, 2:39 PM 742d May 16, 2015, 2:39 PM 742d 3 http://resumewritingservices.gq/index.php?doc=15310
May 16, 2015, 12:41 PM 742d May 16, 2015, 12:40 PM 742d 3 http://resumewritingservices.gq/index.php?doc=19644
May 16, 2015, 10:51 AM 742d May 16, 2015, 10:50 AM 742d 3 http://agoodcollegeessay.gq/index.php?p=32014
May 16, 2015, 9:09 AM 742d May 16, 2015, 9:09 AM 742d 3 http://essayhelp.gq/index.php?record=8830
May 16, 2015, 8:10 AM 742d May 16, 2015, 8:10 AM 742d 2 http://argumentative-essay.gq/index.php?file=4278
May 16, 2015, 7:59 AM 742d January 30, 2015, 12:28 AM 849d 7 http://taximytishi.ru/taxi-miniven.html
May 16, 2015, 4:17 AM 743d May 16, 2015, 4:16 AM 743d 2 http://agoodcollegeessay.gq/index.php?p=44428
May 16, 2015, 1:20 AM 743d May 16, 2015, 1:19 AM 743d 3 http://cheapcustomessay.gq/index.php?side=15227
May 16, 2015, 1:16 AM 743d May 16, 2015, 1:15 AM 743d 3 http://cheapessaywriting.gq/index.php?verso=23336
May 15, 2015, 11:15 PM 743d May 15, 2015, 11:15 PM 743d 3 http://agoodcollegeessay.gq/index.php?p=54165
May 15, 2015, 10:08 PM 743d May 15, 2015, 10:08 PM 743d 2 http://revisemyessay.gq/index.php?a=2208
May 15, 2015, 8:12 PM 743d May 15, 2015, 8:12 PM 743d 2 http://buy-an-essay.gq/index.php?s=14187
May 15, 2015, 6:35 PM 743d May 15, 2015, 6:35 PM 743d 3 http://argumentative-essay.gq/index.php?file=1196
May 15, 2015, 4:52 PM 743d N/A 1 http://agoodcollegeessay.gq/index.php?p=50667
May 15, 2015, 4:21 PM 743d May 15, 2015, 4:19 PM 743d 3 http://essayhelp.gq/index.php?record=17473
May 15, 2015, 3:48 PM 743d N/A 1 http://college-essays.gq/index.php?data=16183
May 15, 2015, 1:24 PM 743d N/A 1 http://essaysforsale.gq/index.php?cab=15806
May 15, 2015, 12:49 PM 743d May 15, 2015, 12:48 PM 743d 3 http://pay-for-essay.gq/index.php?reg=11305
May 15, 2015, 10:37 AM 743d May 15, 2015, 10:36 AM 743d 3 http://cheapessaywriting.gq/index.php?verso=3143
May 15, 2015, 10:24 AM 743d May 15, 2015, 10:23 AM 743d 3 http://cheapcustomessay.gq/index.php?side=1113
May 15, 2015, 8:04 AM 743d N/A 1 http://college-essays.gq/index.php?data=4792
May 15, 2015, 7:38 AM 743d May 15, 2015, 7:37 AM 743d 2 http://essaymaker.gq/index.php?reg=21297
May 15, 2015, 6:32 AM 743d N/A 1 http://agoodcollegeessay.gq/index.php?p=44095
May 15, 2015, 5:12 AM 744d May 15, 2015, 5:10 AM 744d 3 http://college-essays.gq/index.php?data=5597
May 15, 2015, 4:15 AM 744d May 15, 2015, 4:15 AM 744d 2 http://customessaystation.gq/index.php?index=16020
May 13, 2015, 1:39 AM 746d May 13, 2015, 1:38 AM 746d 3 http://argumentative-essay.gq/index.php?file=29125
May 12, 2015, 10:42 PM 746d May 12, 2015, 10:42 PM 746d 3 http://agoodcollegeessay.gq/index.php?p=32317
May 12, 2015, 5:28 PM 746d N/A 1 http://5w1t.jp/author/fivewit/
May 12, 2015, 3:57 PM 746d May 12, 2015, 3:57 PM 746d 2 http://argumentative-essay.gq/index.php?file=366
May 12, 2015, 1:07 PM 746d N/A 1 http://helpwithessay.gq/index.php?note=118
May 12, 2015, 2:16 AM 747d May 12, 2015, 2:16 AM 747d 2 http://agoodcollegeessay.gq/index.php?p=60520
May 12, 2015, 2:06 AM 747d May 12, 2015, 2:06 AM 747d 2 http://essaymaker.gq/index.php?reg=20168
May 11, 2015, 11:58 PM 747d May 11, 2015, 11:57 PM 747d 3 http://essayhelp.gq/index.php?record=578
May 11, 2015, 11:40 PM 747d May 11, 2015, 11:39 PM 747d 2 http://agoodcollegeessay.gq/index.php?p=39080
May 11, 2015, 8:51 PM 747d May 11, 2015, 8:49 PM 747d 3 http://agoodcollegeessay.gq/index.php?p=32111
May 11, 2015, 8:06 PM 747d May 11, 2015, 8:04 PM 747d 3 http://essaymaker.gq/index.php?reg=2874
May 11, 2015, 6:07 PM 747d May 11, 2015, 6:06 PM 747d 3 http://argumentative-essay.gq/index.php?file=29431
May 11, 2015, 4:16 PM 747d May 11, 2015, 4:16 PM 747d 3 http://college-essays.gq/index.php?data=16618
May 11, 2015, 3:06 PM 747d May 11, 2015, 3:06 PM 747d 2 http://essayhelp.gq/index.php?record=398
May 11, 2015, 1:21 PM 747d May 11, 2015, 1:21 PM 747d 3 http://agoodcollegeessay.gq/index.php?p=62905
May 11, 2015, 10:55 AM 747d N/A 1 http://search.yahoo.co.jp/search?p=Windows+HT&aq=-1&oq=&...
May 11, 2015, 7:16 AM 747d N/A 1 http://domyhomework.gq/index.php?info=5069
May 11, 2015, 5:46 AM 748d May 11, 2015, 5:46 AM 748d 2 http://buy-an-essay.gq/index.php?s=16365
May 11, 2015, 4:06 AM 748d May 11, 2015, 4:06 AM 748d 2 http://essaymaker.gq/index.php?reg=18383
May 11, 2015, 2:58 AM 748d May 11, 2015, 2:58 AM 748d 2 http://cheapessaywriting.gq/index.php?verso=3612
May 11, 2015, 1:53 AM 748d May 11, 2015, 1:53 AM 748d 3 http://coolessay.gq/index.php?record=10473
May 11, 2015, 1:02 AM 748d N/A 1 http://coolessay.gq/index.php?record=15036
May 11, 2015, 12:42 AM 748d May 11, 2015, 12:42 AM 748d 2 http://argumentative-essay.gq/index.php?file=17743
May 10, 2015, 11:30 PM 748d May 10, 2015, 11:29 PM 748d 3 http://cheapcustomessay.gq/index.php?side=2581
May 10, 2015, 10:13 PM 748d May 10, 2015, 10:13 PM 748d 2 http://revisemyessay.gq/index.php?a=1291
May 10, 2015, 9:00 PM 748d N/A 1 http://buy-an-essay.gq/index.php?s=10905
May 10, 2015, 7:53 PM 748d May 10, 2015, 7:52 PM 748d 3 http://resumewritingservices.gq/index.php?doc=110
May 10, 2015, 6:49 PM 748d May 10, 2015, 6:48 PM 748d 2 http://cheapessaywriting.gq/index.php?verso=9853
April 28, 2015, 2:07 AM 761d N/A 1 http://image.search.yahoo.co.jp/search?ei=UTF-8&fr=slv1-tbtop&a...
April 27, 2015, 4:55 PM 761d N/A 1 http://search.yahoo.co.jp/search;_ylt=A2RA2DQv6T1VEQcAKMqJBtF7?p=i...
April 27, 2015, 1:09 PM 761d April 27, 2015, 1:07 PM 761d 2 http://search.yahoo.co.jp/search;_ylt=A2RA1CImtT1VrkEADPkGdNt7?p=HT...
April 25, 2015, 11:09 PM 763d N/A 1 http://search.yahoo.co.jp/search?p=htc+windows+mobile+au&ei=UTF...
April 17, 2015, 5:54 PM 771d April 17, 2015, 5:54 PM 771d 3 http://getyourdriver.gq/nvidia-графический-драйвер-306-97-скачать-б...
April 17, 2015, 3:48 PM 771d April 17, 2015, 3:48 PM 771d 2 http://getyourdriver.gq/скачать-wifislax/
April 17, 2015, 2:01 PM 771d N/A 1 http://getyourdriver.gq/nvidia-geforce-7600-gs-driver/
April 17, 2015, 12:50 PM 771d April 17, 2015, 12:49 PM 771d 3 http://getyourdriver.gq/скачать-драйвера-для-принтера-hp-laserjet-1...
April 17, 2015, 10:49 AM 771d April 17, 2015, 10:47 AM 771d 3 http://getyourdriver.gq/скачать-драйвера-на-звук-для-windows-xp-на-...
April 17, 2015, 9:04 AM 771d April 17, 2015, 9:04 AM 771d 3 http://getyourdriver.gq/скачать-драйвера-для-видеокарты-на-ноутбук-...
April 17, 2015, 7:35 AM 771d April 17, 2015, 7:34 AM 771d 2 http://getyourdriver.gq/скачать-аудиокнигу-через-торрент/
April 17, 2015, 6:00 AM 772d April 17, 2015, 6:00 AM 772d 2 http://getyourdriver.gq/скачать-графический-драйвер-nvidia-340-52-д...
April 17, 2015, 4:29 AM 772d April 17, 2015, 4:29 AM 772d 2 http://getyourdriver.gq/скачать-драйвер-nvidia-geforce-610m-для-win...
April 17, 2015, 12:33 AM 772d April 17, 2015, 12:33 AM 772d 2 http://getyourdriver.gq/скачать-драйвера-для-принтера-hp-laserjet-p...
April 16, 2015, 8:21 PM 772d April 16, 2015, 8:21 PM 772d 2 http://getyourdriver.gq/драйвера-для-ноутбука-samsung-np300e5z/
April 16, 2015, 3:55 PM 772d April 16, 2015, 3:55 PM 772d 2 http://getyourdriver.gq/стандартный-vga/
April 16, 2015, 2:38 PM 772d April 16, 2015, 2:38 PM 772d 2 http://getyourdriver.gq/скачать-драйвера-nvidia-geforce-9800-gt-для...
April 16, 2015, 1:39 PM 772d April 16, 2015, 1:38 PM 772d 3 http://getyourdriver.gq/скачать-драйвер-для-видеокарты-nvidia-gefor...
April 16, 2015, 9:50 AM 772d April 16, 2015, 9:49 AM 772d 3 http://getyourdriver.gq/nvidia-geforce-8500-gt-скачать-драйвер/
April 16, 2015, 8:26 AM 772d April 16, 2015, 8:25 AM 772d 3 http://getyourdriver.gq/скачать-драйвера-на-принтер-hp-laserjet-p1102/
April 16, 2015, 7:09 AM 772d April 16, 2015, 7:08 AM 772d 3 http://getyourdriver.gq/скачать-драйвера-на-звук-для-windows-7-макс...
April 16, 2015, 6:05 AM 773d N/A 1 http://getyourdriver.gq/nvidia-geforce-7600-gt-драйвер/
April 15, 2015, 12:46 PM 773d April 15, 2015, 12:45 PM 773d 3 http://500wordessay.gq/essay-about-soccer-passion-club-miami-new-york/
April 15, 2015, 11:13 AM 773d April 15, 2015, 11:12 AM 773d 3 http://500wordessay.gq/writing-essays-for-college/
April 15, 2015, 9:30 AM 773d April 15, 2015, 9:30 AM 773d 2 http://500wordessay.gq/sample-of-proposal-letter/
April 15, 2015, 7:53 AM 773d April 15, 2015, 7:53 AM 773d 2 http://500wordessay.gq/essay-sample-of-autobiography-paperback-hero...
April 14, 2015, 9:48 PM 774d April 14, 2015, 9:48 PM 774d 2 http://500wordessay.gq/sociology-family-functions-sociology-jobs-in...
April 14, 2015, 6:42 PM 774d April 14, 2015, 6:42 PM 774d 2 http://500wordessay.gq/stanford-law-class-profile-2018-calendar-wit...
April 14, 2015, 5:01 PM 774d April 14, 2015, 5:00 PM 774d 3 http://500wordessay.gq/essay-on-art-appreciation/
April 14, 2015, 3:35 PM 774d April 14, 2015, 3:35 PM 774d 3 http://500wordessay.gq/research-paper-abstract-conclusions-meaning-...
April 14, 2015, 2:01 PM 774d April 14, 2015, 2:01 PM 774d 2 http://500wordessay.gq/good-transitions-to-use-in-essays-do-you-und...
April 14, 2015, 4:46 AM 775d April 14, 2015, 4:46 AM 775d 2 http://1000wordessay.gq/narrative-essay-sample-conclusions-and-reco...
April 14, 2015, 3:34 AM 775d April 14, 2015, 3:34 AM 775d 3 http://1000wordessay.gq/usc-college-rankings-academically-meaningfu...
April 14, 2015, 2:25 AM 775d April 14, 2015, 2:24 AM 775d 3 http://1000wordessay.gq/accredited-online-high-school-diploma-in-ca...
April 14, 2015, 1:25 AM 775d April 14, 2015, 1:25 AM 775d 3 http://1000wordessay.gq/free-mensa-home-test-keystore-truststore-to...
April 13, 2015, 9:21 PM 775d April 13, 2015, 9:20 PM 775d 2 http://1000wordessay.gq/best-college-essay-prompts-2015-2016-school...
April 13, 2015, 8:03 PM 775d April 13, 2015, 8:02 PM 775d 3 http://1000wordessay.gq/essay-checker-easybib-mla-7-formatter-board...
April 13, 2015, 7:17 PM 775d April 13, 2015, 7:16 PM 775d 3 http://1000wordessay.gq/essay-writing-tips-for-middle-school/
April 13, 2015, 6:06 PM 775d N/A 1 http://1000wordessay.gq/best-college-essay-prompts-2016-ford/
April 13, 2015, 4:57 PM 775d April 13, 2015, 4:57 PM 775d 3 http://1000wordessay.gq/5th-grade-math-book-envision-online-resources/
April 13, 2015, 3:47 PM 775d April 13, 2015, 3:46 PM 775d 2 http://1000wordessay.gq/free-good-research-paper-topics/
April 13, 2015, 2:39 PM 775d April 13, 2015, 2:38 PM 775d 3 http://1000wordessay.gq/problem-solution-essay-definition-verbal-ir...
April 13, 2015, 1:48 PM 775d April 13, 2015, 1:48 PM 775d 3 http://1000wordessay.gq/custom-essay-meister-business-custom-essays...
April 13, 2015, 11:46 AM 775d April 13, 2015, 11:45 AM 775d 3 http://1000wordessay.gq/essay-checker-freeware-files/
April 13, 2015, 10:10 AM 775d April 13, 2015, 10:09 AM 775d 3 http://1000wordessay.gq/sample-acceptance-speeches-winners-only-top...
April 13, 2015, 8:37 AM 775d April 13, 2015, 8:37 AM 775d 3 http://1000wordessay.gq/california-state-tax-forms-2013-540ez-print...
April 13, 2015, 7:23 AM 775d April 13, 2015, 7:22 AM 775d 2 http://1000wordessay.gq/essay-on-health-is-wealth-villagesoup-newsp...
April 13, 2015, 6:00 AM 776d April 13, 2015, 5:59 AM 776d 3 http://1000wordessay.gq/essay-contest-rules-and-regulations/
April 13, 2015, 4:34 AM 776d N/A 1 http://1000wordessay.gq/accredited-online/
April 13, 2015, 3:14 AM 776d April 13, 2015, 3:14 AM 776d 3 http://1000wordessay.gq/printable-california-pizza-kitchen-coupons-...
April 13, 2015, 2:19 AM 776d April 13, 2015, 2:19 AM 776d 3 http://1000wordessay.gq/affordable-kids-writing-desks/
April 12, 2015, 8:22 PM 776d April 12, 2015, 8:20 PM 776d 2 http://1000wordessay.gq/sample-acceptance-speeches-winners-only-rol...
April 12, 2015, 6:33 PM 776d April 12, 2015, 6:32 PM 776d 2 http://1000wordessay.gq/free-essay-papers-on-euthanasia-articles-co...
April 12, 2015, 4:47 PM 776d April 12, 2015, 4:46 PM 776d 3 http://1000wordessay.gq/free-website-template-download-dreamweaver/
April 12, 2015, 3:34 PM 776d April 12, 2015, 3:34 PM 776d 3 http://1000wordessay.gq/sample-of-biographical-narrative-rubric-sba...
April 12, 2015, 1:45 PM 776d April 12, 2015, 1:45 PM 776d 3 http://1000wordessay.gq/sample-employment-offer-letter-california-s...
April 12, 2015, 11:59 AM 776d April 12, 2015, 11:59 AM 776d 3 http://1000wordessay.gq/sample-employment-offer-letter-california-s...
April 12, 2015, 10:39 AM 776d April 12, 2015, 10:39 AM 776d 3 http://1000wordessay.gq/research-paper-on-gay-marriage-legalization...
April 12, 2015, 10:14 AM 776d April 12, 2015, 10:14 AM 776d 3 http://500wordessay.gq/mla-format-citation-examples-internet-applic...
April 12, 2015, 9:07 AM 776d April 12, 2015, 9:07 AM 776d 3 http://1000wordessay.gq/mla-cite-tools/
April 12, 2015, 8:35 AM 776d N/A 1 http://search.yahoo.co.jp/search?fr=slv1-necpc7&p=E30HT &ei...
April 12, 2015, 8:09 AM 776d April 12, 2015, 8:09 AM 776d 2 http://500wordessay.gq/descriptive-essay-about-soccer-game/
April 12, 2015, 7:48 AM 776d April 12, 2015, 7:47 AM 776d 3 http://1000wordessay.gq/college-application-essay-prompts-csuf-map-...
April 12, 2015, 6:40 AM 776d April 12, 2015, 6:39 AM 776d 2 http://1000wordessay.gq/problemsolution-essay-definition/
April 12, 2015, 6:22 AM 776d N/A 1 http://500wordessay.gq/essay-on-music-appreciation-assignments/
April 12, 2015, 5:30 AM 777d April 12, 2015, 5:29 AM 777d 3 http://1000wordessay.gq/free-norton-antivirus-software-download-201...
April 12, 2015, 4:49 AM 777d April 12, 2015, 4:47 AM 777d 3 http://500wordessay.gq/writing-an-essay-conclusion/
April 12, 2015, 4:16 AM 777d April 12, 2015, 4:16 AM 777d 3 http://1000wordessay.gq/custom-essay-meister-business-custom-essays...
April 12, 2015, 3:21 AM 777d April 12, 2015, 3:20 AM 777d 3 http://500wordessay.gq/persuasive-essay-topics-on-bullying-in-schools/
April 12, 2015, 2:20 AM 777d April 12, 2015, 2:20 AM 777d 3 http://1000wordessay.gq/essay-writing-tips-tumblr/
April 12, 2015, 1:03 AM 777d April 12, 2015, 1:02 AM 777d 3 http://500wordessay.gq/mla-format-examples-website/
April 12, 2015, 12:38 AM 777d April 12, 2015, 12:38 AM 777d 3 http://1000wordessay.gq/essay-typer-legitimately-synonyms-for-diffe...
April 11, 2015, 11:37 PM 777d April 11, 2015, 11:36 PM 777d 3 http://500wordessay.gq/research-paper-abstract-conclusions-meaning-...
April 11, 2015, 11:00 PM 777d April 11, 2015, 10:59 PM 777d 3 http://1000wordessay.gq/persuasive-essay-ideas-school/
April 11, 2015, 10:02 PM 777d April 11, 2015, 10:01 PM 777d 3 http://500wordessay.gq/research-paper-abstract-conclusions-meaning-...
April 11, 2015, 9:24 PM 777d April 11, 2015, 9:24 PM 777d 2 http://1000wordessay.gq/essay-papers-on-compare-and-contrast-essays...
April 11, 2015, 8:29 PM 777d April 11, 2015, 8:29 PM 777d 3 http://500wordessay.gq/stanford-application-dates/
April 11, 2015, 7:59 PM 777d April 11, 2015, 7:58 PM 777d 2 http://1000wordessay.gq/best-college-essay-prompts-2015-2016-calendar/
April 11, 2015, 1:09 AM 778d April 11, 2015, 1:09 AM 778d 3 http://500wordessay.gq/custom-essays-in-toronto-magazine-now/
April 10, 2015, 11:56 PM 778d April 10, 2015, 11:56 PM 778d 3 http://500wordessay.gq/5th-grade-science-worksheets-energy-transfer...
April 10, 2015, 10:44 PM 778d April 10, 2015, 10:43 PM 778d 3 http://500wordessay.gq/buying-custom-cut-glass/
April 10, 2015, 9:46 PM 778d April 10, 2015, 9:45 PM 778d 3 http://500wordessay.gq/5th-grade-science-worksheets-lakeshore-apart...
April 10, 2015, 8:29 PM 778d April 10, 2015, 8:29 PM 778d 3 http://500wordessay.gq/mla-format-bibliography-examples-interview-t...
April 10, 2015, 7:18 PM 778d N/A 1 http://500wordessay.gq/compare-and-contrast-essay-examples-grade-5/
April 10, 2015, 6:12 PM 778d April 10, 2015, 6:12 PM 778d 3 http://500wordessay.gq/sociology-essays-on-culture-shock-tattoo-shop/
April 10, 2015, 5:28 PM 778d April 10, 2015, 5:28 PM 778d 3 http://500wordessay.gq/cheap-essay-writing-service-canada-website/
April 10, 2015, 4:43 PM 778d N/A 1 http://500wordessay.gq/a-research-paper-on-soccer-cheaters-showtime...
April 10, 2015, 3:19 PM 778d April 10, 2015, 3:19 PM 778d 3 http://500wordessay.gq/outline-format-for-research-paper-mla-style-...
April 10, 2015, 2:17 PM 778d N/A 1 http://500wordessay.gq/essay-about-soccer-passion-club-singapore-pe...
April 10, 2015, 6:32 AM 778d N/A 1 http://500wordessay.gq/sociology-essays-a-levels/
April 10, 2015, 5:16 AM 779d April 10, 2015, 5:16 AM 779d 3 http://500wordessay.gq/transitions-for-children-with-autism/
April 10, 2015, 4:00 AM 779d April 10, 2015, 4:00 AM 779d 2 http://500wordessay.gq/written-essay-appraisal-method/
April 10, 2015, 2:42 AM 779d April 10, 2015, 2:42 AM 779d 3 http://500wordessay.gq/5th-grade-science-worksheets-energy-plus/
April 9, 2015, 8:01 PM 779d April 9, 2015, 8:01 PM 779d 2 http://500wordessay.gq/example-of-an-essay-paper-format/
April 9, 2015, 6:59 PM 779d April 9, 2015, 6:58 PM 779d 3 http://500wordessay.gq/good-transitions-for-body-paragraphs-structu...
April 9, 2015, 5:40 PM 779d April 9, 2015, 5:40 PM 779d 3 http://500wordessay.gq/essay-on-music-appreciation-assignmentsabroa...
April 9, 2015, 4:26 PM 779d April 9, 2015, 4:26 PM 779d 2 http://500wordessay.gq/research-paper-outline-template/
April 9, 2015, 3:18 PM 779d N/A 1 http://500wordessay.gq/stanford-academic-application-requirements/
April 9, 2015, 2:15 PM 779d April 9, 2015, 2:15 PM 779d 2 http://500wordessay.gq/sample-research-statement-chemistry-projects/
April 9, 2015, 3:27 AM 780d April 9, 2015, 3:26 AM 780d 3 http://500wordessay.gq/essay-check-easybib-apa-citing/
April 9, 2015, 1:52 AM 780d April 9, 2015, 1:52 AM 780d 2 http://500wordessay.gq/how-to-make-a-proper-mla-works-cited-page-book/
April 9, 2015, 12:18 AM 780d April 9, 2015, 12:17 AM 780d 2 http://500wordessay.gq/mla-format-citation-examples-plays-and-drama/
April 8, 2015, 11:35 PM 780d April 8, 2015, 11:34 PM 780d 3 http://500wordessay.gq/custom-essay-writing-services-australian-open/
April 8, 2015, 10:19 PM 780d April 8, 2015, 10:17 PM 780d 2 http://wince.goo.ne.jp/snap/cnBoard.asp?PID=816
April 8, 2015, 10:02 PM 780d April 8, 2015, 10:02 PM 780d 3 http://500wordessay.gq/essay-about-soccer-passion-club-hard/
April 8, 2015, 8:28 PM 780d April 8, 2015, 8:28 PM 780d 2 http://500wordessay.gq/ielts-writing-essay-topics/
April 8, 2015, 6:49 PM 780d April 8, 2015, 6:49 PM 780d 3 http://500wordessay.gq/transitions-for-children-with-special-needs/
April 8, 2015, 5:52 PM 780d April 8, 2015, 5:51 PM 780d 2 http://500wordessay.gq/good-transitions-for-beginning-of-paragraphs...
April 8, 2015, 4:40 PM 780d N/A 1 http://search.yahoo.co.jp/search;_ylt=A2RhOA572yRVxwgADB2JBtF7?p=HT...
April 8, 2015, 12:56 PM 780d April 8, 2015, 12:56 PM 780d 3 http://500wordessay.gq/good-transitions-for-body-paragraphs-definit...
April 8, 2015, 11:10 AM 780d N/A 1 http://500wordessay.gq/custom-essays-org/
April 8, 2015, 9:29 AM 780d April 8, 2015, 9:29 AM 780d 2 http://500wordessay.gq/writing-an-essay-about-soccer/
April 8, 2015, 6:15 AM 781d April 8, 2015, 6:14 AM 781d 3 http://1000wordessay.gq/free-research-essay-outlines-introductions-...
April 8, 2015, 5:25 AM 781d April 8, 2015, 5:25 AM 781d 2 http://1000wordessay.gq/fifth-grade-math-review-printable/
April 8, 2015, 4:35 AM 781d April 8, 2015, 4:35 AM 781d 2 http://1000wordessay.gq/paper-checker-for-plagiarism/
April 8, 2015, 3:42 AM 781d N/A 1 http://1000wordessay.gq/research-on-south-africa-economy-overview-o...
April 8, 2015, 2:50 AM 781d April 8, 2015, 2:50 AM 781d 2 http://1000wordessay.gq/steve-jobs-last-words-revealed-washington-p...
April 7, 2015, 8:16 PM 781d April 7, 2015, 8:16 PM 781d 3 http://1000wordessay.gq/best-college-essay-prompts-utusan-harian-sa...
April 7, 2015, 7:32 PM 781d April 7, 2015, 7:32 PM 781d 3 http://1000wordessay.gq/free-mensa-home-test-keystore-truststore-to...
April 7, 2015, 11:42 AM 781d April 7, 2015, 11:42 AM 781d 3 http://1000wordessay.gq/research-projects-for-kindergarten/
April 7, 2015, 10:39 AM 781d April 7, 2015, 10:38 AM 781d 3 http://1000wordessay.gq/argumentative-vs-persuasive-essay-pdf-sampl...
April 7, 2015, 9:39 AM 781d April 7, 2015, 9:38 AM 781d 3 http://1000wordessay.gq/usc-college-rankings-academically-meaning-o...
April 7, 2015, 8:40 AM 781d April 7, 2015, 8:40 AM 781d 2 http://1000wordessay.gq/argumentative-vs-persuasive-essay-pdf-sampl...
April 7, 2015, 7:58 AM 781d N/A 1 http://1000wordessay.gq/california-bar-exam-essay-approaches-to-lit...
April 7, 2015, 6:42 AM 781d April 7, 2015, 6:42 AM 781d 2 http://1000wordessay.gq/essay-checker-easybib-mla-7-formatter-board...
April 7, 2015, 5:53 AM 782d N/A 1 http://1000wordessay.gq/best-college-essay-prompts-utusan-harian-te...
April 7, 2015, 5:02 AM 782d April 7, 2015, 5:01 AM 782d 2 http://1000wordessay.gq/essay-on-health-is-wealth-wikipedia/
April 7, 2015, 3:29 AM 782d April 7, 2015, 3:29 AM 782d 2 http://1000wordessay.gq/best-college-essay-prompts-utusan-harian-te...
April 7, 2015, 3:01 AM 782d April 7, 2015, 3:01 AM 782d 2 http://1000wordessay.gq/essay-example/
April 6, 2015, 5:51 PM 782d April 6, 2015, 5:51 PM 782d 3 http://1000wordessay.gq/essay-checker-easybib-mla-7-formatteren-bet...
April 6, 2015, 3:50 PM 782d April 6, 2015, 3:49 PM 782d 3 http://1000wordessay.gq/essay-checker-easybib-mla-7-formatteren-bet...
April 6, 2015, 2:56 PM 782d April 6, 2015, 2:55 PM 782d 3 http://1000wordessay.gq/sample-of-proposal-letter-of-thesis-generat...
April 6, 2015, 2:06 PM 782d April 6, 2015, 2:06 PM 782d 2 http://1000wordessay.gq/best-college-essay-prompts-20152016-footbal...
April 6, 2015, 10:09 AM 782d April 6, 2015, 10:09 AM 782d 3 http://1000wordessay.gq/soccer-introductions-for-essays/
April 6, 2015, 9:05 AM 782d April 6, 2015, 9:01 AM 782d 3 http://1000wordessay.gq/essay-checker-easybib-mla-7-formatter-board...
April 6, 2015, 7:55 AM 782d April 6, 2015, 7:54 AM 782d 2 http://1000wordessay.gq/best-college-essay-prompts-utusan-harian-sa...
April 6, 2015, 6:51 AM 782d April 6, 2015, 6:51 AM 782d 2 http://1000wordessay.gq/what-is-the-best-essay-writing-services/
April 6, 2015, 6:02 AM 783d April 6, 2015, 6:01 AM 783d 3 http://1000wordessay.gq/sample-of-proposal-letter-of-thesis-paper/
April 6, 2015, 5:32 AM 783d April 6, 2015, 5:32 AM 783d 2 http://1000wordessay.gq/best-college-essay-prompts-utusan-harian-te...
April 3, 2015, 11:50 PM 785d April 3, 2015, 11:50 PM 785d 2 http://lightandlife.ru/освещение-потолка-фото/
April 3, 2015, 10:42 PM 785d April 3, 2015, 10:42 PM 785d 3 http://ledlightpower.ru/светильник-уличный-шар-диаметр-500/
April 3, 2015, 9:26 PM 785d April 3, 2015, 9:26 PM 785d 2 http://lightandlife.ru/освещение-участка-своими-руками/
April 3, 2015, 8:12 PM 785d April 3, 2015, 8:11 PM 785d 3 http://lightandlife.ru/точечное-освещение/
April 3, 2015, 2:10 PM 785d April 3, 2015, 2:10 PM 785d 3 http://colossuslight.ru/светильники-для-сада-на-солнечных-батареях/
April 3, 2015, 12:58 PM 785d April 3, 2015, 12:56 PM 785d 3 http://gofurther.ru/как-в-инстаграмме-делать-репост/
April 3, 2015, 11:25 AM 785d April 3, 2015, 11:25 AM 785d 2 http://ledlightpower.ru/кто-отвечает-за-уличное-освещение-в-нижнем-...
April 3, 2015, 9:24 AM 785d April 3, 2015, 9:24 AM 785d 2 http://bringmetheball.ru/светильники-настенные-хром/
April 3, 2015, 8:57 AM 785d N/A 1 http://gofurther.ru/светильники-светодиодные-для-наружного-освещени...
March 29, 2015, 10:13 PM 790d N/A 1 http://abouttime.gq/canon+digital+camera/
March 29, 2015, 8:53 PM 790d March 29, 2015, 8:52 PM 790d 3 http://abrightspark.gq/olympus+camedia+c-50+zoom+memory+card/
March 29, 2015, 7:24 PM 790d March 29, 2015, 7:23 PM 790d 3 http://abouttime.gq/canon+photo+paper+plus+glossy+ii+4+x+6/
March 29, 2015, 5:57 PM 790d March 29, 2015, 5:57 PM 790d 3 http://abouttime.gq/canon+digital+rebel+xti+cf+card/
March 29, 2015, 4:06 PM 790d March 29, 2015, 4:06 PM 790d 2 http://abouttime.gq/canon+digital+image+professional+download/
March 29, 2015, 3:36 PM 790d March 29, 2015, 3:36 PM 790d 3 http://abouttime.gq/canon+digital+camera+repairs+adelaide/
March 29, 2015, 3:09 PM 790d N/A 1 http://adinfinitum.gq/nikon+digital+camera+prices/
March 29, 2015, 10:40 AM 790d March 29, 2015, 10:40 AM 790d 3 http://adinfinitum.gq/nikon+video+settings/
March 29, 2015, 10:12 AM 790d March 29, 2015, 10:12 AM 790d 3 http://adinfinitum.gq/nikon+price+in+malaysia/
March 29, 2015, 9:53 AM 790d March 29, 2015, 9:53 AM 790d 3 http://adinfinitum.gq/nikon+digital+camera+reviews+rockwell/
March 29, 2015, 9:34 AM 790d March 29, 2015, 9:34 AM 790d 3 http://adinfinitum.gq/nikon+canon+digital+slr+reviews/
March 29, 2015, 9:15 AM 790d March 24, 2015, 2:38 AM 796d 9 http://adinfinitum.gq/nikon+d3100+leather+body+case/
March 29, 2015, 8:56 AM 790d March 29, 2015, 8:55 AM 790d 3 http://abouttime.gq/canon+printer+drivers+for+ipad/
March 29, 2015, 8:36 AM 790d March 29, 2015, 8:36 AM 790d 3 http://abouttime.gq/canon+printer+troubleshooting+phone+number/
March 29, 2015, 8:17 AM 790d March 29, 2015, 8:17 AM 790d 3 http://abrightspark.gq/olympus+videoscope+malaysia/
March 29, 2015, 7:58 AM 790d March 29, 2015, 7:58 AM 790d 3 http://abouttime.gq/canon+digital+camera+software+download+for+wind...
March 29, 2015, 7:39 AM 790d March 29, 2015, 7:39 AM 790d 3 http://abouttime.gq/canon+digital+camera+repair+service/
March 29, 2015, 7:20 AM 790d March 29, 2015, 7:20 AM 790d 3 http://abrightspark.gq/olympus+digital+camera+reviews+waterproof+case/
March 29, 2015, 7:01 AM 790d March 29, 2015, 7:01 AM 790d 3 http://abrightspark.gq/olympus+digital+camera+malaysia+service+prov...
March 29, 2015, 6:42 AM 790d March 29, 2015, 6:42 AM 790d 3 http://adinfinitum.gq/nikon+coolpix+l820+digital+camera+reviews/
March 29, 2015, 6:23 AM 790d March 29, 2015, 6:23 AM 790d 3 http://abrightspark.gq/buy+olympus+camera+online/
March 29, 2015, 6:04 AM 791d March 29, 2015, 6:04 AM 791d 3 http://adinfinitum.gq/buy+nikon+lenses+online/
March 29, 2015, 5:45 AM 791d March 29, 2015, 5:45 AM 791d 3 http://adinfinitum.gq/nikon+digital+camera+d5000+body+price/
March 29, 2015, 5:26 AM 791d March 29, 2015, 5:26 AM 791d 3 http://abouttime.gq/canon+lens+body+number/
March 29, 2015, 5:04 AM 791d March 29, 2015, 5:04 AM 791d 3 http://abrightspark.gq/olympus+digital+camera+software+disk+encrypt...
March 29, 2015, 4:45 AM 791d March 29, 2015, 4:45 AM 791d 3 http://abouttime.gq/canon+digital+camera+accessories+philippines+we...
March 29, 2015, 4:26 AM 791d March 29, 2015, 4:26 AM 791d 3 http://abouttime.gq/a1400+canon+video+camera+accessories/
March 29, 2015, 12:28 AM 791d March 29, 2015, 12:27 AM 791d 3 http://abrightspark.gq/olympus+camera+video+software/
March 28, 2015, 11:16 PM 791d March 28, 2015, 11:15 PM 791d 3 http://abrightspark.gq/olympus+sp+800uz+photo+gallery/
March 28, 2015, 9:59 PM 791d March 28, 2015, 9:59 PM 791d 3 http://adinfinitum.gq/nikon+dslr+video+editing+software/
March 28, 2015, 8:49 PM 791d March 28, 2015, 8:49 PM 791d 3 http://adinfinitum.gq/nikon+digital+camera+prices+in+pakistan+nokia/
March 28, 2015, 7:57 PM 791d March 28, 2015, 7:57 PM 791d 4 http://abouttime.gq/canon+digital+camera+repair+calgary+weather/
March 28, 2015, 1:28 PM 791d March 28, 2015, 1:28 PM 791d 2 http://abouttime.gq/canon+printer+repair+phoenix/
March 28, 2015, 11:57 AM 791d March 28, 2015, 11:57 AM 791d 3 http://abouttime.gq/canon+digital+slr+cameras+cheap/
March 28, 2015, 10:29 AM 791d March 28, 2015, 10:27 AM 791d 3 http://abrightspark.gq/olympus+digital+voice+recorder+ws-100+owners...
March 28, 2015, 9:27 AM 791d March 28, 2015, 9:27 AM 791d 3 http://abrightspark.gq/olympus+dictation+recorder/
March 28, 2015, 8:14 AM 791d March 28, 2015, 8:13 AM 791d 2 http://adinfinitum.gq/nikon+digital+camera+reviews+2013/
March 28, 2015, 6:56 AM 791d March 28, 2015, 6:55 AM 791d 3 http://adinfinitum.gq/nikon+digital+camera+d5000+price/
March 28, 2015, 5:41 AM 792d March 28, 2015, 5:40 AM 792d 2 http://abouttime.gq/canon+digital+elph+camera+sd+750/
March 28, 2015, 4:26 AM 792d March 28, 2015, 4:26 AM 792d 2 http://abouttime.gq/canon+digital+rebel+xti+user+manual/
March 28, 2015, 3:46 AM 792d March 28, 2015, 3:46 AM 792d 3 http://abouttime.gq/canon+digital+camera+software+support/
March 27, 2015, 11:54 PM 792d March 27, 2015, 11:53 PM 792d 2 http://adinfinitum.gq/nikon+digital+camera+lens+stuck/
March 27, 2015, 10:23 PM 792d March 27, 2015, 10:23 PM 792d 3 http://abrightspark.gq/olympus+vn+7200+digital+voice+recorder+reviews/
March 27, 2015, 8:54 PM 792d March 27, 2015, 8:54 PM 792d 2 http://adinfinitum.gq/nikon+digital+camera+price+in+pakistan+2014/
March 27, 2015, 7:54 PM 792d N/A 1 http://adinfinitum.gq/buy+nikon+d3100+manual/
March 27, 2015, 6:32 PM 792d March 27, 2015, 6:32 PM 792d 2 http://abouttime.gq/canon+digital+camera+solution+disk+version+28/
March 27, 2015, 5:12 PM 792d N/A 1 http://adinfinitum.gq/buy+nikon+d7000+camera/
March 27, 2015, 3:46 PM 792d N/A 1 http://adinfinitum.gq/nikon+d3100+camera+body+case/
March 27, 2015, 2:12 PM 792d March 24, 2015, 2:42 PM 795d 6 http://adinfinitum.gq/nikon+d70+photo+tips/
March 27, 2015, 6:41 AM 792d March 27, 2015, 6:40 AM 792d 3 http://adinfinitum.gq/nikon+d610+video+tutorials/
March 27, 2015, 5:08 AM 793d March 27, 2015, 5:07 AM 793d 3 http://adinfinitum.gq/nikon+digital+cameras+prices+canada/
March 27, 2015, 4:53 AM 793d N/A 1 http://search.goo.ne.jp/web.jsp?MT=ht-01a&mode=0&IE=UTF-8&a...
March 27, 2015, 3:38 AM 793d March 27, 2015, 3:37 AM 793d 3 http://abouttime.gq/canon+digital+camera+lens+error+message/
March 27, 2015, 2:24 AM 793d March 27, 2015, 2:24 AM 793d 2 http://abouttime.gq/canon+digital+photo+professional/
March 27, 2015, 2:05 AM 793d N/A 1 http://search.yahoo.co.jp/search?p=HTC+Windows+e30ht&x=wrt&...
March 27, 2015, 1:43 AM 793d March 27, 2015, 1:43 AM 793d 2 http://abouttime.gq/canon+digital+rebel+xsi/
March 27, 2015, 12:26 AM 793d March 27, 2015, 12:26 AM 793d 3 http://adinfinitum.gq/nikon+digital+camera+reviews+ratings/
March 26, 2015, 11:44 PM 793d March 25, 2015, 9:21 PM 794d 2 http://search.yahoo.co.jp/search?p=HTC+E30HT&x=wrt&aq=-1&am...
March 26, 2015, 11:05 PM 793d March 26, 2015, 11:05 PM 793d 3 http://abrightspark.gq/photoshop+olympus+orf/
March 26, 2015, 9:43 PM 793d March 26, 2015, 9:42 PM 793d 3 http://abouttime.gq/canon+printer+repair+los+angeles/
March 26, 2015, 8:22 PM 793d March 26, 2015, 8:21 PM 793d 3 http://adinfinitum.gq/nikon+kit+lens+upgrade/
March 26, 2015, 7:19 PM 793d March 26, 2015, 7:19 PM 793d 2 http://abouttime.gq/canon+digital+camera+elph+120/
March 26, 2015, 6:11 PM 793d March 26, 2015, 6:10 PM 793d 2 http://abouttime.gq/canon+digital+camera+elph+1202/
March 26, 2015, 4:55 PM 793d March 26, 2015, 4:55 PM 793d 2 http://abouttime.gq/canon+printer+software+installation/
March 26, 2015, 3:58 PM 793d March 26, 2015, 3:57 PM 793d 3 http://adinfinitum.gq/nikon+digital+camera+d5000/
March 26, 2015, 3:22 PM 793d March 26, 2015, 3:22 PM 793d 3 http://abrightspark.gq/olympus+photography+forum/
March 26, 2015, 2:49 PM 793d March 26, 2015, 2:49 PM 793d 3 http://abouttime.gq/buy+canon+t5i/
March 26, 2015, 2:19 PM 793d March 26, 2015, 2:19 PM 793d 3 http://abouttime.gq/canon+printer+problems+with+different+language/
March 26, 2015, 1:51 PM 793d March 26, 2015, 1:51 PM 793d 3 http://abrightspark.gq/olympus+digital+wave+player+download+windows...
March 26, 2015, 3:50 AM 794d March 26, 2015, 3:50 AM 794d 3 http://adinfinitum.gq/digital+nikon+digital+cameras+reviews/
March 26, 2015, 2:36 AM 794d March 26, 2015, 2:36 AM 794d 2 http://abrightspark.gq/olympus+digital+voice+recorders+dictation+ex...
March 26, 2015, 1:49 AM 794d N/A 1 http://abrightspark.gq/olympus+digital+camera+malaysia+price/
March 26, 2015, 1:23 AM 794d March 26, 2015, 1:22 AM 794d 2 http://adinfinitum.gq/nikon+digital+camera+coolpix+l320+review/
March 25, 2015, 10:22 PM 794d N/A 1 http://search.yahoo.co.jp/search?p=e30ht&ei=UTF-8&fr=applep...
March 25, 2015, 8:54 PM 794d March 25, 2015, 8:53 PM 794d 3 http://abouttime.gq/canon+digital+slr+cameras+wikipedia+encyclopedia/
March 25, 2015, 7:53 PM 794d March 25, 2015, 7:53 PM 794d 3 http://abouttime.gq/canon+printer+troubleshooting+shows+a+yellow+tr...
March 25, 2015, 7:19 PM 794d March 25, 2015, 7:19 PM 794d 2 http://adinfinitum.gq/nikon+digital+camera+coolpix+repairs/
March 25, 2015, 6:28 AM 794d N/A 1 http://search.yahoo.co.jp/search?ei=UTF-8&fr=top_ipd_sa&x=w...
March 25, 2015, 5:13 AM 795d N/A 1 http://image.search.yahoo.co.jp/search?ei=UTF-8&fr=&p=docom...
March 25, 2015, 4:56 AM 795d March 25, 2015, 4:56 AM 795d 3 http://abrightspark.gq/olympus+digital+camera+software+master+control/
March 25, 2015, 4:26 AM 795d March 25, 2015, 4:26 AM 795d 2 http://adinfinitum.gq/nikon+body+with+canon+lens/
March 25, 2015, 3:41 AM 795d March 25, 2015, 3:41 AM 795d 3 http://abrightspark.gq/olympus+camedia+c-50+zoom+software/
March 25, 2015, 3:22 AM 795d March 25, 2015, 3:22 AM 795d 3 http://abouttime.gq/canon+digital+camera+lenses+on+ebay/
March 25, 2015, 3:03 AM 795d March 25, 2015, 3:03 AM 795d 3 http://abrightspark.gq/olympus+digital+cameras+reviews+prices/
March 24, 2015, 11:16 PM 795d March 24, 2015, 11:15 PM 795d 2 http://adinfinitum.gq/nikon+digital+cameras+prices+in+dubai/
March 24, 2015, 9:25 PM 795d March 24, 2015, 9:25 PM 795d 3 http://adinfinitum.gq/nikon+price+list+camera+malaysia/
March 24, 2015, 7:57 PM 795d March 24, 2015, 7:57 PM 795d 3 http://adinfinitum.gq/nikon+coolpix+p800/
March 24, 2015, 6:10 PM 795d March 24, 2015, 6:09 PM 795d 3 http://abouttime.gq/canon+digital+elph+1100/
March 24, 2015, 5:28 PM 795d March 24, 2015, 5:28 PM 795d 3 http://abouttime.gq/canon+printer+ink/
March 24, 2015, 4:59 PM 795d March 24, 2015, 4:59 PM 795d 3 http://abouttime.gq/canon+photo+contest/
March 24, 2015, 2:06 PM 795d March 24, 2015, 2:05 PM 795d 2 http://adinfinitum.gq/nikon+starter+kit+bag/
March 24, 2015, 11:36 AM 795d March 24, 2015, 11:36 AM 795d 2 http://adinfinitum.gq/nikon+d3100+kit/
March 24, 2015, 10:50 AM 795d March 24, 2015, 10:47 AM 795d 3 http://abrightspark.gq/olympus+digital+voice+recorder+vn-480pc+digi...
March 24, 2015, 9:56 AM 795d March 24, 2015, 9:56 AM 795d 2 http://adinfinitum.gq/nikon+digital+slr+cameras+d7100/
March 24, 2015, 9:09 AM 795d March 24, 2015, 9:09 AM 795d 3 http://abrightspark.gq/olympus+digital+cameras+usa/
March 24, 2015, 8:17 AM 795d March 24, 2015, 8:16 AM 795d 3 http://adinfinitum.gq/nikon+body+only+uk/
March 24, 2015, 7:26 AM 795d N/A 1 http://abrightspark.gq/olympus+camedia+digital+camera+c-4000+zoom+o...
March 24, 2015, 7:03 AM 795d N/A 1 http://abouttime.gq/canon+digital+camera+repair+los+angeles/
March 24, 2015, 6:27 AM 795d March 24, 2015, 6:27 AM 795d 3 http://abouttime.gq/canon+vixia+hf+r32+32gb+hd+digital+camcorder+re...
March 24, 2015, 5:55 AM 796d March 24, 2015, 5:55 AM 796d 2 http://abouttime.gq/canon+body+with+quiet+shutter/
March 24, 2015, 5:02 AM 796d March 24, 2015, 5:02 AM 796d 2 http://adinfinitum.gq/nikon+digital+camera+prices+in+pakistan+in+1960/
March 24, 2015, 4:10 AM 796d March 24, 2015, 4:09 AM 796d 3 http://abrightspark.gq/olympus+digital+camera+repair/
March 24, 2015, 3:22 AM 796d N/A 1 http://abrightspark.gq/olympus+dictation+software/
March 24, 2015, 12:20 AM 796d March 24, 2015, 12:20 AM 796d 2 http://abouttime.gq/canon+digital+camera+driver+not+found/
March 23, 2015, 11:26 PM 796d March 23, 2015, 11:26 PM 796d 3 http://adinfinitum.gq/nikon+digital+slr+cameras+d7100+price/
March 23, 2015, 10:35 PM 796d March 23, 2015, 10:35 PM 796d 2 http://abouttime.gq/canon+digital+camera+powershot+a95/
March 23, 2015, 9:43 PM 796d March 23, 2015, 9:43 PM 796d 3 http://abouttime.gq/canon+digital+camera+lens+hoods/
March 23, 2015, 8:42 PM 796d March 23, 2015, 8:42 PM 796d 2 http://abouttime.gq/canon+digital+camera+battery+life/
March 23, 2015, 8:00 PM 796d March 23, 2015, 8:00 PM 796d 3 http://abouttime.gq/canon+body+lineup/
March 23, 2015, 6:02 PM 796d March 23, 2015, 6:02 PM 796d 3 http://adinfinitum.gq/nikon+video+camera+parts/
March 23, 2015, 5:12 PM 796d March 23, 2015, 5:12 PM 796d 3 http://adinfinitum.gq/nikon+coolpix+l320+digital+camera+features/
March 23, 2015, 4:17 PM 796d March 23, 2015, 4:16 PM 796d 3 http://abouttime.gq/canon+printer+troubleshooting+mx340/
March 23, 2015, 3:22 PM 796d March 23, 2015, 3:21 PM 796d 3 http://abrightspark.gq/olympus+digital+voice+recorder+software+vn+3...
March 23, 2015, 2:31 PM 796d March 23, 2015, 2:31 PM 796d 3 http://abouttime.gq/canon+digital+camera+driver+windows+xp/
March 23, 2015, 1:59 PM 796d March 23, 2015, 1:59 PM 796d 2 http://abouttime.gq/buy+canon+24-105+lens/
March 23, 2015, 9:20 AM 796d March 23, 2015, 9:19 AM 796d 3 http://abrightspark.gq/olympus+digital+voice+recorders+model+700m/
March 23, 2015, 8:26 AM 796d March 23, 2015, 8:26 AM 796d 3 http://adinfinitum.gq/nikon+d80+body+case/
March 23, 2015, 7:35 AM 796d March 23, 2015, 7:35 AM 796d 2 http://abouttime.gq/canon+printer+troubleshooting+helps/
March 23, 2015, 6:37 AM 796d March 23, 2015, 6:37 AM 796d 3 http://adinfinitum.gq/buy+nikon+d3100/
March 23, 2015, 5:37 AM 797d March 23, 2015, 5:37 AM 797d 3 http://adinfinitum.gq/nikon+d300s+replacement/
March 23, 2015, 4:55 AM 797d March 23, 2015, 4:55 AM 797d 3 http://abouttime.gq/canon+video+cameras/
March 23, 2015, 3:40 AM 797d January 30, 2015, 6:27 PM 848d 7 http://taximytishi.ru/tarifi-mytishinskiy-raiyon.html
March 22, 2015, 1:46 PM 797d January 14, 2015, 9:52 PM 864d 8 http://liderpak.ru/manufacture.php
March 22, 2015, 7:58 AM 797d March 22, 2015, 7:58 AM 797d 2 http://taximytishi.ru/mejdugorodnee-taxi.html
March 15, 2015, 2:14 PM 804d N/A 1 http://search.yahoo.co.jp/search?aq=-1&ei=UTF-8&fr=top_ga1_...
February 24, 2015, 3:05 PM 823d N/A 1 http://search.smt.docomo.ne.jp/result?MT=e30ht&SID=000&IND=...
February 24, 2015, 1:12 PM 823d N/A 1 http://blog.goo.ne.jp/cestaff/e/ea52a57719736b56f3f012166224b31e
February 19, 2015, 12:29 PM 828d February 19, 2015, 12:28 PM 828d 2 http://search.yahoo.co.jp/search?ei=UTF-8&fr=yjapp2_hp&p=HT...
February 17, 2015, 2:14 AM 831d February 16, 2015, 12:08 PM 831d 3 http://epyzuhy.ru/blogs
February 17, 2015, 1:18 AM 831d February 12, 2015, 11:05 PM 835d 4 http://esibady.ru/board
February 16, 2015, 11:38 PM 831d February 16, 2015, 11:36 PM 831d 2 http://esibady.ru/novosti
February 16, 2015, 9:56 PM 831d February 16, 2015, 9:56 PM 831d 2 http://ebizyja.ru/
February 16, 2015, 9:15 PM 831d February 16, 2015, 9:15 PM 831d 3 http://enataxo.ru/sitemap
February 16, 2015, 8:57 PM 831d February 16, 2015, 8:57 PM 831d 2 http://equhaxu.ru/faq
February 16, 2015, 8:38 PM 831d February 16, 2015, 8:38 PM 831d 2 http://ezuvifu.ru/blogs
February 16, 2015, 8:03 PM 831d February 16, 2015, 8:03 PM 831d 3 http://evanawy.ru/novosti
February 16, 2015, 1:48 PM 831d January 2, 2014, 4:51 PM 1241d 2 http://search.yahoo.co.jp/search?p=E30HT&aq=-1&oq=&ei=U...
February 16, 2015, 12:55 PM 831d February 16, 2015, 12:52 PM 831d 3 http://evanawy.ru/faq
February 16, 2015, 10:44 AM 831d February 16, 2015, 10:44 AM 831d 3 http://ebizyja.ru/sitemap
February 16, 2015, 8:51 AM 831d February 16, 2015, 8:50 AM 831d 3 http://ewuleko.ru/photos
February 16, 2015, 7:48 AM 831d N/A 1 http://evanawy.ru/stati
February 16, 2015, 7:07 AM 831d February 16, 2015, 7:07 AM 831d 2 http://ezoveji.ru/faq
February 16, 2015, 6:48 AM 831d February 16, 2015, 6:48 AM 831d 3 http://ezobapu.ru/stati
February 16, 2015, 5:37 AM 832d February 16, 2015, 5:36 AM 832d 3 http://eqazata.ru/blogs
February 16, 2015, 4:44 AM 832d February 16, 2015, 4:44 AM 832d 2 http://eciquva.ru/faq
February 16, 2015, 2:41 AM 832d February 16, 2015, 2:39 AM 832d 2 http://eliruju.ru/photos
February 16, 2015, 1:33 AM 832d February 16, 2015, 1:33 AM 832d 2 http://eskat.ru/forum
February 15, 2015, 10:46 PM 832d February 15, 2015, 10:45 PM 832d 3 http://eqyvibu.ru/
February 15, 2015, 10:35 PM 832d February 15, 2015, 10:34 PM 832d 3 http://ebizyja.ru/forum
February 15, 2015, 9:46 PM 832d February 15, 2015, 9:46 PM 832d 2 http://evasero.ru/sitemap
February 15, 2015, 8:49 PM 832d February 15, 2015, 8:49 PM 832d 3 http://evexezu.ru/sitemap
February 15, 2015, 8:31 PM 832d February 15, 2015, 8:31 PM 832d 3 http://defolclan.ru/photos
February 15, 2015, 7:54 PM 832d February 15, 2015, 7:54 PM 832d 2 http://evexezu.ru/stati
February 15, 2015, 6:13 PM 832d February 15, 2015, 5:48 AM 833d 3 http://evexezu.ru/blogs
February 15, 2015, 5:50 PM 832d February 15, 2015, 5:50 PM 832d 3 http://ezuloco.ru/novosti
February 15, 2015, 8:52 AM 832d February 15, 2015, 8:51 AM 832d 3 http://evyqyde.ru/sitemap
February 15, 2015, 7:01 AM 832d February 15, 2015, 7:00 AM 832d 2 http://defolclan.ru/board
February 15, 2015, 4:21 AM 833d N/A 1 http://evanawy.ru/sitemap
February 15, 2015, 2:54 AM 833d February 15, 2015, 2:54 AM 833d 4 http://epypyde.ru/forum
February 15, 2015, 1:00 AM 833d February 14, 2015, 8:09 PM 833d 4 http://ezuvifu.ru/board
February 14, 2015, 9:43 PM 833d February 14, 2015, 9:43 PM 833d 3 http://ezobapu.ru/novosti
February 14, 2015, 6:35 PM 833d February 14, 2015, 6:35 PM 833d 2 http://evasero.ru/photos
February 14, 2015, 6:17 PM 833d February 14, 2015, 6:17 PM 833d 3 http://erywuja.ru/photos
February 14, 2015, 5:39 PM 833d February 14, 2015, 5:39 PM 833d 2 http://esatalu.ru/forum
February 14, 2015, 3:53 PM 833d February 14, 2015, 3:53 PM 833d 2 http://ebizyja.ru/board
February 14, 2015, 3:27 PM 833d February 14, 2015, 3:27 PM 833d 3 http://ekoxuhi.ru/
February 14, 2015, 12:39 PM 833d November 8, 2011, 4:04 PM 2027d 13 http://wince.goo.ne.jp/hpc2000/sigmarion.htm
February 14, 2015, 11:00 AM 833d February 14, 2015, 10:59 AM 833d 3 http://ecaryla.ru/novosti
February 14, 2015, 9:40 AM 833d February 14, 2015, 9:39 AM 833d 2 http://enafaza.ru/
February 14, 2015, 8:48 AM 833d N/A 1 http://esowylu.ru/forum
February 14, 2015, 7:50 AM 833d February 14, 2015, 7:50 AM 833d 3 http://ewuwaru.ru/novosti
February 14, 2015, 6:34 AM 833d February 14, 2015, 6:33 AM 833d 2 http://ezobapu.ru/faq
February 14, 2015, 6:33 AM 833d January 25, 2015, 8:16 AM 853d 3 http://search.yahoo.co.jp/search?p=au++e30ht&aq=-1&oq=&...
February 14, 2015, 5:43 AM 834d N/A 1 http://defolclan.ru/
February 14, 2015, 5:22 AM 834d February 14, 2015, 5:22 AM 834d 2 http://ewuwaru.ru/
February 14, 2015, 5:05 AM 834d N/A 1 http://enataxo.ru/faq
February 14, 2015, 4:47 AM 834d February 14, 2015, 4:47 AM 834d 3 http://edytela.ru/
February 14, 2015, 4:29 AM 834d February 14, 2015, 4:29 AM 834d 2 http://evanawy.ru/photos
February 14, 2015, 3:28 AM 834d February 14, 2015, 3:28 AM 834d 3 http://esowylu.ru/novosti
February 14, 2015, 2:56 AM 834d N/A 1 http://eliruju.ru/faq
February 14, 2015, 1:37 AM 834d February 14, 2015, 1:37 AM 834d 3 http://enafaza.ru/stati
February 13, 2015, 11:30 PM 834d February 13, 2015, 11:30 PM 834d 3 http://eskat.ru/sitemap
February 13, 2015, 9:21 PM 834d February 13, 2015, 9:20 PM 834d 3 http://ewacuwi.ru/forum
February 13, 2015, 7:54 PM 834d February 13, 2015, 7:53 PM 834d 2 http://ecaryla.ru/blogs
February 13, 2015, 6:13 PM 834d February 13, 2015, 6:12 PM 834d 3 http://eciquva.ru/
February 13, 2015, 4:17 PM 834d February 13, 2015, 4:17 PM 834d 2 http://ecaryla.ru/stati
February 13, 2015, 3:25 PM 834d February 13, 2015, 3:25 PM 834d 2 http://erivewi.ru/stati
February 13, 2015, 3:07 PM 834d February 13, 2015, 3:07 PM 834d 3 http://edytela.ru/faq
February 13, 2015, 2:45 PM 834d February 13, 2015, 2:45 PM 834d 2 http://esatalu.ru/board
February 13, 2015, 2:13 PM 834d February 13, 2015, 2:13 PM 834d 3 http://ekoxuhi.ru/faq
February 13, 2015, 9:04 AM 834d February 13, 2015, 9:03 AM 834d 3 http://evexezu.ru/
February 13, 2015, 7:11 AM 834d February 13, 2015, 7:11 AM 834d 3 http://epyzuhy.ru/board
February 13, 2015, 5:23 AM 835d February 13, 2015, 5:22 AM 835d 3 http://epyzuhy.ru/photos
February 13, 2015, 5:00 AM 835d February 13, 2015, 5:00 AM 835d 3 http://ezobapu.ru/board
February 13, 2015, 4:42 AM 835d February 13, 2015, 4:42 AM 835d 2 http://evanawy.ru/forum
February 13, 2015, 4:13 AM 835d February 13, 2015, 4:12 AM 835d 3 http://ebizyja.ru/novosti
February 13, 2015, 2:49 AM 835d February 13, 2015, 2:48 AM 835d 3 http://exawebe.ru/faq
February 13, 2015, 12:06 AM 835d February 13, 2015, 12:06 AM 835d 3 http://ekoxuhi.ru/novosti
February 12, 2015, 11:46 PM 835d N/A 1 http://eqarewa.ru/photos
February 12, 2015, 11:28 PM 835d N/A 1 http://evyqyde.ru/faq
February 12, 2015, 10:22 PM 835d February 12, 2015, 10:22 PM 835d 2 http://esajyge.ru/blogs
February 12, 2015, 9:18 PM 835d N/A 1 http://defolclan.ru/blogs
February 12, 2015, 8:02 PM 835d February 12, 2015, 8:01 PM 835d 3 http://enafaza.ru/sitemap
February 12, 2015, 7:24 PM 835d February 12, 2015, 7:22 PM 835d 3 http://defolclan.ru/sitemap
February 11, 2015, 11:10 PM 836d N/A 1 http://search.yahoo.co.jp/search?p=TOUCH Pro docomo&rs=3&ei...
February 11, 2015, 3:33 AM 837d N/A 1 http://search.yahoo.co.jp/search?ei=UTF-8&fr=yjapp_tab_wv&x...
February 10, 2015, 10:24 PM 837d N/A 1 http://search.yahoo.co.jp/search?ei=UTF-8&fr=applpd&x=wrt&a...
February 8, 2015, 6:47 PM 839d N/A 1 http://www.google.com/url?sa=t&rct=j&q=&esrc=s&sour...
February 5, 2015, 7:31 AM 842d N/A 1 http://search.yahoo.co.jp/search?ei=UTF-8&fr=slm-and&p=HT-01A
February 4, 2015, 12:18 AM 844d N/A 1 http://search.yahoo.co.jp/search?ei=UTF-8&fr=appsfch2&p=au+...
February 1, 2015, 7:33 PM 846d February 1, 2015, 5:34 PM 846d 3 http://taximytishi.ru/vakansii.html
February 1, 2015, 12:06 AM 847d January 31, 2015, 8:45 AM 847d 6 http://taximytishi.ru/nash-avtopark.html
January 30, 2015, 1:27 PM 848d January 22, 2015, 11:18 AM 856d 6 http://e-miai.jp/
January 28, 2015, 4:43 PM 850d January 28, 2015, 4:42 PM 850d 3 http://russ-tractor.ru/servis.html
January 28, 2015, 3:18 PM 850d January 28, 2015, 6:50 AM 850d 5 http://russ-tractor.ru/nuans.html
January 28, 2015, 8:01 AM 850d January 28, 2015, 8:01 AM 850d 3 http://russ-tractor.ru/calculator
January 15, 2015, 8:29 PM 863d N/A 1 http://bas.trade/begemotiki.html
January 15, 2015, 6:45 AM 863d January 14, 2015, 2:10 PM 864d 11 http://bas.trade/
January 15, 2015, 3:28 AM 864d January 14, 2015, 11:44 PM 864d 4 http://planetafitness33.ru/
January 14, 2015, 6:03 AM 865d January 14, 2015, 6:02 AM 865d 4 http://bas.trade/podushki.html
January 3, 2015, 11:57 PM 875d N/A 1 http://search.yahoo.co.jp/search?ei=UTF-8&fr=mcafeess1&p=ht...
December 27, 2014, 3:16 PM 882d N/A 1 http://search.yahoo.co.jp/search;_ylt=A2RA0DDCSp5Uw1IAr0vWq_17?p=do...
December 25, 2014, 9:39 AM 884d N/A 1 http://search.yahoo.co.jp/search;_ylt=A3xTmEoMXJtUM2YAh8iJBtF7?p=Wi...
December 14, 2014, 12:59 PM 895d N/A 1 http://www.google.com/url?sa=t&source=web&cd=5&ved=0CDA...
December 10, 2014, 10:45 AM 899d N/A 1 http://search.yahoo.co.jp/search?p=HTC+AU&aq=-1&ei=UTF...
November 19, 2014, 1:28 AM 921d N/A 1 http://search.yahoo.co.jp/search;_ylt=A7dPGZgKcWtUog0ASqvWq_17?p=HT...
November 15, 2014, 9:31 PM 924d N/A 1 http://www.google.com/cse?windowsケータイfan+サイト内検索結果=&...
November 13, 2014, 8:49 PM 926d N/A 1 http://search.yahoo.co.jp/search;_ylt=A7YWNY9pmmRUO0wA.a05oPB7;_ylu...
October 26, 2014, 8:48 PM 944d N/A 1 http://search.yahoo.co.jp/search?tt=c&ei=UTF-8&fr=sfp_as&am...
October 25, 2014, 12:15 PM 945d February 1, 2014, 9:56 AM 1211d 2 http://blog.goo.ne.jp/cestaff/e/da15712730455bd87fb5dfee88247f56?fm...
October 16, 2014, 9:03 PM 954d N/A 1 http://search.yahoo.co.jp/search;_ylt=A2RhYNXtsz9UuHMAVDGJBtF7?p=HT...
October 9, 2014, 11:26 PM 961d August 7, 2013, 7:23 PM 1389d 8 http://detail.chiebukuro.yahoo.co.jp/qa/question_detail/q1137864031
October 4, 2014, 6:38 PM 966d N/A 1 http://soft.wince.ne.jp/soft/Detail/ToggleMannerMode For HYBRID W-Z...
October 4, 2014, 3:57 PM 966d February 21, 2013, 9:17 PM 1556d 111 http://map.windows-keitai.com/WiMAX/UQ/area.html
October 4, 2014, 9:53 AM 966d February 22, 2013, 3:51 PM 1555d 14 http://sc-01b.windows-keitai.com/
October 3, 2014, 8:21 PM 967d February 24, 2013, 3:49 PM 1553d 32 http://map.windows-keitai.com/emobile/map.html?lat=35.681391&ln...
October 2, 2014, 4:19 PM 968d N/A 1 http://www.wspack.kr/b2097773782
October 2, 2014, 4:18 PM 968d N/A 1 http://www.wspack.kr/b1354198316
October 2, 2014, 4:18 PM 968d N/A 1 http://www.wspack.kr/b554248403
October 2, 2014, 11:09 AM 968d N/A 1 http://windows-keitai.com/?ポメラ/DM10/キングジム裏話
October 2, 2014, 11:02 AM 968d October 2, 2014, 11:02 AM 968d 2 http://soft.wince.ne.jp
October 2, 2014, 1:00 AM 969d January 9, 2014, 10:19 AM 1234d 72 http://search.daum.net/
October 1, 2014, 11:48 PM 969d February 25, 2013, 3:45 PM 1552d 28 http://t-01a.windows-keitai.com/
October 1, 2014, 8:36 PM 969d December 28, 2011, 11:49 AM 1977d 416 http://ht-03a.windows-keitai.com/
October 1, 2014, 1:29 PM 969d October 1, 2014, 1:29 PM 969d 2 http://xn--9ckkn4291aelnfh7degva.jp/osusume
October 1, 2014, 6:10 AM 970d October 1, 2014, 6:09 AM 970d 2 http://xn--eckkg0jqc0jocz620buc6c.jp/
September 30, 2014, 12:08 AM 971d December 28, 2011, 12:23 PM 1977d 118 http://map.windows-keitai.com/WiMAX/UQ/area.html?lat=34.702398&...
September 29, 2014, 8:38 PM 971d September 29, 2014, 8:38 PM 971d 2 http://www.wince.ne.jp
September 29, 2014, 8:21 PM 971d December 28, 2011, 1:24 AM 1978d 6 http://www.google.co.jp/
September 29, 2014, 4:47 PM 971d September 29, 2014, 4:47 PM 971d 2 http://soft.wince.ne.jp/soft/Lists/
September 29, 2014, 4:05 PM 971d March 14, 2013, 6:58 PM 1535d 10 http://htcz.windows-keitai.com/
September 29, 2014, 12:03 PM 971d March 1, 2013, 11:04 PM 1548d 27 http://map.windows-keitai.com/WiMAX/UQ/area.html?lat=35.170694&...
September 29, 2014, 11:16 AM 971d December 29, 2011, 10:58 PM 1976d 220 http://ht-02a.windows-keitai.com/
September 29, 2014, 5:51 AM 972d September 7, 2014, 6:25 PM 993d 8 http://labomf.com/wakeari/
September 28, 2014, 9:39 PM 972d N/A 1 http://ht-02a.windows-keitai.com/?Touch Diamond/購入特集/09 画面(...
September 28, 2014, 5:23 PM 972d N/A 1 http://map.windows-keitai.com/WiMAX/UQ/area.html?encode_hint=ぷ&...
September 28, 2014, 5:14 PM 972d February 23, 2013, 8:30 PM 1554d 58 http://windows-keitai.com/
September 28, 2014, 2:31 PM 972d December 30, 2011, 10:14 AM 1975d 9 http://willcom.windows-keitai.com/
September 28, 2014, 4:33 AM 973d February 6, 2014, 5:36 AM 1207d 2 http://t-01b.windows-keitai.com/
September 28, 2014, 12:51 AM 973d September 28, 2014, 12:49 AM 973d 2 http://healthydiet555.seesaa.net/
September 27, 2014, 4:53 PM 973d N/A 1 http://www.google.com/url?url=http://ht-01a.windows-keitai.com/&...
September 27, 2014, 4:36 PM 973d N/A 1 http://www.bing.com/search?q=ht-01a&FORM=CMDTLB&PC=CMDTDF&a...
September 27, 2014, 3:21 PM 973d February 22, 2014, 1:46 PM 1190d 16 http://affilinews.info/
September 26, 2014, 8:29 PM 974d N/A 1 https://www.bing.com/search?q=HT-01A&input=1&form=MB1014&am...
September 26, 2014, 6:50 PM 974d February 28, 2013, 3:39 AM 1550d 19 http://x05ht.windows-keitai.com/
September 26, 2014, 6:49 PM 974d N/A 1 http://x04ht.windows-keitai.com/
September 26, 2014, 6:19 PM 974d November 16, 2011, 5:23 PM 2019d 8 http://s12ht.windows-keitai.com/
September 26, 2014, 5:31 PM 974d N/A 1 http://www.wince.ne.jp/snap/cnBoard.asp?PID=2006
September 26, 2014, 5:03 PM 974d February 28, 2013, 5:54 PM 1549d 5 http://w-zero3.windows-keitai.com/
September 26, 2014, 12:25 PM 974d January 9, 2014, 10:44 AM 1234d 9 http://map.windows-keitai.com/WiMAX/UQ/area.html?encode_hint=ぷ&...
September 24, 2014, 11:53 PM 976d N/A 1 http://soft.wince.ne.jp/soft/Lists/?P=20&CM=3&R=20
September 24, 2014, 5:08 PM 976d March 7, 2013, 12:53 PM 1542d 4 http://is12t.windows-keitai.com/?IS12T/よくある質問/電話
September 24, 2014, 2:58 PM 976d December 28, 2011, 3:54 PM 1977d 319 http://www.wince.ne.jp/
September 24, 2014, 1:58 PM 976d January 13, 2014, 5:13 AM 1231d 8 http://map.windows-keitai.com/emobile/map.html?lat=34.702398&ln...
September 24, 2014, 3:19 AM 977d N/A 1 http://www.google.co.jp/url?sa=t&rct=j&q=&esrc=s&fr...
September 23, 2014, 8:14 PM 977d N/A 1 http://map.windows-keitai.com/WiMAX/UQ/area.html?encode_hint=ぷ&...
September 23, 2014, 1:08 PM 977d N/A 1 http://search.fenrir-inc.com/?hl=ja&channel=sleipnir_s&safe...
September 23, 2014, 7:31 AM 977d N/A 1 http://search.yahoo.co.jp/search?p=HTC+au&ei=UTF-8&pcarrier...
September 21, 2014, 10:31 PM 979d N/A 1 http://www.google.co.jp/url?url=http://ht-01a.windows-keitai.com/&a...
September 21, 2014, 12:05 AM 980d September 21, 2014, 12:04 AM 980d 2 http://windows-keitai.com/?W-ZERO3[es]Premium version
September 20, 2014, 1:12 AM 981d March 8, 2013, 10:01 AM 1541d 19 http://ht-01a.windows-keitai.com/
September 19, 2014, 7:19 PM 981d November 10, 2011, 11:51 AM 2025d 25 http://so-01b.windows-keitai.com/
September 19, 2014, 11:39 AM 981d N/A 1 http://s01sh.windows-keitai.com/?EM・ONE(S01SH)ゲット/99 購入した方...
September 18, 2014, 9:24 PM 982d September 18, 2014, 9:23 PM 982d 2 http://x02t.windows-keitai.com/?X02T/購入レビュー/13 Bluetooth
September 18, 2014, 3:20 PM 982d N/A 1 http://search.yahoo.co.jp/search?fr=slv1-necpc8&p=HTC HT-01A&am...
September 18, 2014, 3:04 PM 982d September 14, 2014, 5:31 PM 986d 4 http://ht-03a.windows-keitai.com/?HT-03A/よくある質問/ソフトウェア
September 17, 2014, 3:21 PM 983d N/A 1 http://www.wince.ne.jp/snap/ceSnapView.asp?PID=1291
September 17, 2014, 4:45 AM 984d N/A 1 http://search.yahoo.co.jp/search?p=Touch+Pro+e30ht&aq=-1&oq...
September 17, 2014, 2:40 AM 984d N/A 1 http://map.windows-keitai.com/emobile/map.html?encode_hint=ぷ&e...
September 16, 2014, 8:56 PM 984d N/A 1 http://soft.wince.ne.jp/soft/Detail/PID4298/
September 16, 2014, 10:49 AM 984d September 16, 2014, 10:48 AM 984d 2 http://map.windows-keitai.com/WiMAX/UQ/area.html?encode_hint=ぷ&...
September 16, 2014, 1:27 AM 985d N/A 1 http://map.windows-keitai.com/WiMAX/UQ/?Comments/ここの受信感度を教...
September 15, 2014, 11:49 PM 985d N/A 1 http://wince.goo.ne.jp/NewsLink/news20110112.html
September 15, 2014, 8:58 PM 985d December 29, 2011, 6:49 PM 1976d 67 http://map.windows-keitai.com/WiMAX/UQ/
September 15, 2014, 1:22 PM 985d N/A 1 http://is02.windows-keitai.com/
September 15, 2014, 10:04 AM 985d January 22, 2014, 12:53 PM 1221d 8 http://www.baidu.com
September 14, 2014, 6:35 PM 986d N/A 1 http://websearch.rakuten.co.jp/?tool_id=1&rid=2000&ref=ie3_...
September 14, 2014, 12:52 PM 986d December 2, 2011, 5:23 PM 2003d 15 http://x01ht.windows-keitai.com/
September 14, 2014, 12:48 PM 986d N/A 1 http://search.yahoo.co.jp/search?tt=c&ei=UTF-8&fr=sfp&a...
September 14, 2014, 8:02 AM 986d N/A 1 http://windows-keitai.com/?cmd=referer&page=ニュース/2009.06.16...
September 13, 2014, 10:26 PM 987d N/A 1 http://www.google.co.jp/url?sa=t&rct=j&q=&esrc=s&so...
September 13, 2014, 9:34 PM 987d September 13, 2014, 8:38 PM 987d 3 http://windows-keitai.com/?cmd=referer&page=ニュース/2009.03.17...
September 13, 2014, 8:15 PM 987d N/A 1 http://windows-keitai.com/?cmd=referer&page=イベント/2008.11.05...
September 13, 2014, 4:56 AM 988d December 27, 2011, 10:25 PM 1978d 132 http://f1100.windows-keitai.com/
September 12, 2014, 7:52 PM 988d N/A 1 http://windows-keitai.com/?ニュース/2009.11.11 セガが Windows Phone...
September 12, 2014, 1:10 AM 989d November 9, 2011, 6:01 PM 2026d 50 http://map.windows-keitai.com/WiMAX/UQ/area.html?lat=35.4662&ln...
September 11, 2014, 3:46 PM 989d N/A 1 http://wiki.wince.ne.jp/W-ZERO3es/
September 11, 2014, 3:08 PM 989d N/A 1 http://map.windows-keitai.com/WiMAX/UQ/?UQ WiMAX/端末/Wi-Fi GATEWAY...
September 9, 2014, 12:16 PM 991d N/A 1 http://www.google.co.jp/url?sa=t&rct=j&q=au htc e30ht&s...
September 9, 2014, 12:12 PM 991d N/A 1 http://search.yahoo.co.jp/search?p=HTC+au+windows+phone+&x=wrt&...
September 8, 2014, 6:08 PM 992d N/A 1 http://www.bing.com/search?q=HT-01A+pc++windows7&qs=n&form=...
September 8, 2014, 11:53 AM 992d N/A 1 http://soft.wince.ne.jp/soft/Detail/Spb Weather/PID954/
September 7, 2014, 11:40 PM 993d July 4, 2014, 11:12 PM 1058d 2 http://is02.windows-keitai.com/?IS02/購入レビュー/18 IS02のバッテリ...
September 7, 2014, 10:10 PM 993d N/A 1 http://www.google.co.jp/url?sa=t&rct=j&q=htc e30ht win wim...
September 7, 2014, 4:57 PM 993d December 19, 2011, 11:25 PM 1986d 7 http://windows-keitai.com/?スペック/2009年冬端末比較
September 7, 2014, 4:51 PM 993d November 13, 2011, 11:00 PM 2022d 20 http://windows-keitai.com/?Windowsケータイ/ヘルプ/電話/設定のヘルプ
September 7, 2014, 8:40 AM 993d N/A 1 http://www.bing.com/search?q=E30HT&form=IE8SRC&src=IE-Searc...
September 6, 2014, 7:44 PM 994d N/A 1 http://sc-01b.windows-keitai.com/?SC-01B/よくある質問
September 6, 2014, 12:09 PM 994d N/A 1 http://www.wspack.kr/b986475823
September 6, 2014, 9:07 AM 994d N/A 1 http://search.yahoo.co.jp/search?p=ht-01a+mvro&aq=-1&oq=&am...
September 6, 2014, 6:02 AM 995d N/A 1 http://wiki.wince.ne.jp/W-ZERO3es/?お薦めソフト
September 5, 2014, 10:22 PM 995d N/A 1 http://www.google.co.jp/url?sa=t&rct=j&q=&esrc=s&so...
September 5, 2014, 10:09 PM 995d N/A 1 http://www.bing.com/search?q=+au+htc+Windows&qs=n&form=QBRE...
September 5, 2014, 10:57 AM 995d N/A 1 http://ht-03a.windows-keitai.com/?HT-03A/購入レビュー/02 発売日が近...
September 4, 2014, 9:17 PM 996d N/A 1 http://search.yahoo.co.jp/search?p=Docomo HT-01&aq=-1&oq=&...
September 4, 2014, 12:02 PM 996d N/A 1 http://m.baidu.com/s?tn=zbios&pu=sz@1320_480,cuid@_8BSaliQ28lca...
September 3, 2014, 1:03 PM 997d N/A 1 http://touch-diamond.windows-keitai.com/?Touch Diamond/スペック
September 3, 2014, 8:07 AM 997d N/A 1 http://www.pageglimpse.com/touch-pro.windows-keitai.com
September 2, 2014, 11:13 PM 998d September 2, 2014, 11:13 PM 998d 4 http://dewalt.paygreendayloans.com/goto/aHR0cDovL3d3dy5hbWF6b24uY29...
September 2, 2014, 12:49 AM 999d N/A 1 http://map.windows-keitai.com/WiMAX/UQ/area.html?encode_hint=ぷ&...
September 1, 2014, 11:00 PM 999d N/A 1 http://www.google.co.jp/url?sa=t&rct=j&q=au htc e30ht win&a...
September 1, 2014, 12:51 PM 999d N/A 1 http://www.google.co.jp/url?sa=t&rct=j&q=&esrc=s&so...
August 31, 2014, 8:02 PM 1000d N/A 1 http://www.pageglimpse.com/ht-01a.windows-keitai.com
August 31, 2014, 11:51 AM 1000d December 3, 2011, 8:39 PM 2002d 7 http://htcz.windows-keitai.com/?スペック表
August 31, 2014, 2:17 AM 1001d December 26, 2011, 4:54 PM 1979d 27 http://map.windows-keitai.com/emobile/map.html?lat=36.3708481&l...
August 30, 2014, 1:53 AM 1002d N/A 1 http://www.google.co.jp/url?sa=t&rct=j&q=e30ht&source=w...
August 29, 2014, 3:17 PM 1002d August 29, 2014, 12:51 PM 1002d 2 https://www.google.com.tw/
August 29, 2014, 2:52 PM 1002d N/A 1 http://www.bing.com/search?q=E30HT&qs=n&form=QBRE&pq=e3...
August 29, 2014, 9:38 AM 1002d December 15, 2011, 3:30 PM 1990d 18 http://map.windows-keitai.com/emobile/map.html?lat=34.3867960&l...
August 28, 2014, 6:02 PM 1003d N/A 1 http://www.wspack.kr/b2085834928
August 28, 2014, 6:01 PM 1003d N/A 1 http://www.wspack.kr/b1124386335
August 27, 2014, 10:04 PM 1004d N/A 1 http://www.google.co.jp/url?sa=t&rct=j&q=htc e30ht&sour...
August 27, 2014, 12:03 PM 1004d N/A 1 http://ht1100.windows-keitai.com/?HT1100/内覧会のご案内/内覧会レポート
August 26, 2014, 2:31 PM 1005d N/A 1 http://search.fenrir-inc.com/?hl=ja&channel=sleipnir_5_w&sa...
August 26, 2014, 6:41 AM 1005d N/A 1 http://m.baidu.com/from=2001c/s?word=au.kddi+htc.com&sa=ib&...
August 26, 2014, 6:32 AM 1005d N/A 1 http://m.baidu.com/from=2001c/s?word=au.kddi+htc.com&sa=tb
August 25, 2014, 8:26 PM 1006d November 20, 2011, 6:54 PM 2015d 3 http://wiki.wince.ne.jp/W-ZERO3/?ブラウザ比較
August 25, 2014, 7:04 PM 1006d August 5, 2014, 12:18 PM 1026d 2 http://search.yahoo.co.jp/search?b=1&n=10&ei=UTF-8&fr=i...
August 25, 2014, 1:34 AM 1007d January 24, 2014, 9:05 PM 1219d 12 http://www.imakore.net/
August 24, 2014, 2:43 PM 1007d N/A 1 http://map.windows-keitai.com/WiMAX/UQ/area.html?encode_hint=ぷ&...
August 24, 2014, 3:43 AM 1008d N/A 1 http://www.google.co.jp/url?sa=t&source=web&cd=17&ved=0...
August 23, 2014, 10:04 PM 1008d N/A 1 http://www.google.co.jp/url?sa=t&rct=j&q=&esrc=s&fr...
August 23, 2014, 5:44 PM 1008d August 23, 2014, 5:43 PM 1008d 2 http://touch-pro.windows-keitai.com/?Touch Pro2/スペック
August 23, 2014, 4:50 AM 1009d August 23, 2014, 4:50 AM 1009d 2 http://t-01b.windows-keitai.com/?T-01B/購入レビュー/10 設定 画面
August 22, 2014, 3:49 PM 1009d N/A 1 http://search.yahoo.co.jp/search;_ylt=A2RA0MD55_ZTwGMAzPqJBtF7?p=au...
August 21, 2014, 3:25 PM 1010d N/A 1 http://03-willcom.windows-keitai.com/?WILLCOM 03(WS020SH)/購入特集/...
August 21, 2014, 3:24 PM 1010d February 18, 2014, 2:08 AM 1195d 2 http://t-01a.windows-keitai.com/?T-01A/購入レビュー/34 Windows Mobi...
August 21, 2014, 1:50 PM 1010d N/A 1 http://search.yahoo.co.jp/search?b=1&n=10&ei=UTF-8&fr=i...
August 21, 2014, 10:03 AM 1010d N/A 1 http://search.yahoo.co.jp/search?b=1&n=10&ei=UTF-8&fr=i...
August 21, 2014, 5:32 AM 1011d N/A 1 http://www.google.co.jp/url?sa=t&rct=j&q=&esrc=s&fr...
August 20, 2014, 11:54 AM 1011d N/A 1 http://windows-keitai.com/?FrontPage
August 18, 2014, 6:45 PM 1013d August 18, 2014, 6:45 PM 1013d 2 https://www.google.com/search?num=100&hl=ja&ie=UTF-8&oe...
August 17, 2014, 1:31 AM 1015d March 2, 2013, 7:01 PM 1547d 9 http://x01t.windows-keitai.com/
August 15, 2014, 3:21 PM 1016d December 28, 2011, 9:43 PM 1977d 20 http://www.wince.ne.jp/NewsLink/
August 15, 2014, 8:59 AM 1016d August 15, 2014, 8:53 AM 1016d 2 http://search.yahoo.co.jp/search;_ylt=A3xTtNehSu1T2T0A3feJBtF7?p=ht...
August 14, 2014, 4:11 PM 1017d N/A 1 http://soft.wince.ne.jp/soft/Lists/?P=160&CM=9&R=20
August 12, 2014, 8:55 PM 1019d December 27, 2011, 10:33 PM 1978d 67 http://is12t.windows-keitai.com/
August 12, 2014, 1:05 AM 1020d N/A 1 http://www.wspack.kr/b1936169004
August 12, 2014, 1:05 AM 1020d N/A 1 http://www.wspack.kr/b1824830582
August 12, 2014, 1:04 AM 1020d N/A 1 http://www.wspack.kr/b1195597587
August 12, 2014, 1:04 AM 1020d N/A 1 http://www.wspack.kr/b2056240713
August 11, 2014, 10:58 PM 1020d N/A 1 http://www.wspack.kr/b317071697
August 11, 2014, 10:58 PM 1020d N/A 1 http://www.wspack.kr/b135882198
August 11, 2014, 6:04 PM 1020d N/A 1 http://www.wspack.kr/b480085702
August 11, 2014, 6:03 PM 1020d N/A 1 http://www.wspack.kr/b382138156
August 11, 2014, 6:03 PM 1020d N/A 1 http://www.wspack.kr/b333559878
August 11, 2014, 4:47 PM 1020d N/A 1 http://www.wspack.kr/b1538263109
August 11, 2014, 4:47 PM 1020d N/A 1 http://www.wspack.kr/b190729375
August 11, 2014, 8:26 AM 1020d December 29, 2011, 11:03 PM 1976d 49 http://ht1100.windows-keitai.com/
August 10, 2014, 9:58 PM 1021d N/A 1 http://www.google.co.jp/url?sa=t&rct=j&q=&esrc=s&so...
August 10, 2014, 3:20 PM 1021d August 9, 2014, 5:51 PM 1022d 2 http://search.yahoo.co.jp/search?p=HT-01A&aq=-1&oq=&ei=...
August 9, 2014, 3:18 PM 1022d December 30, 2011, 8:23 AM 1975d 66 http://windows-keitai.com/?Windows Phone/Windows Phone 7 Mango
August 9, 2014, 10:18 AM 1022d N/A 1 http://map.windows-keitai.com/WiMAX/UQ/area.html?encode_hint=ぷ&...
August 5, 2014, 10:52 PM 1026d N/A 1 http://is02.windows-keitai.com/?IS02/ここが知りたい/Cメール
August 5, 2014, 10:27 PM 1026d N/A 1 http://map.windows-keitai.com/emobile/map.html?encode_hint=ぷ&e...
August 5, 2014, 1:24 PM 1026d N/A 1 http://map.windows-keitai.com/WiMAX/UQ/area.html?lat=35.60380815364...
August 4, 2014, 4:05 PM 1027d N/A 1 http://map.windows-keitai.com/WiMAX/UQ/area.html?encode_hint=ぷ&...
August 4, 2014, 12:50 PM 1027d N/A 1 http://www.google.co.jp/url?sa=t&rct=j&q=&esrc=s&so...
August 3, 2014, 9:06 PM 1028d August 3, 2014, 9:05 PM 1028d 2 http://bit.ly/1z7u9Pp
August 3, 2014, 6:07 PM 1028d August 3, 2014, 6:07 PM 1028d 2 http://map.windows-keitai.com/WiMAX/UQ/area.html?encode_hint=ぷ&...
August 3, 2014, 11:43 AM 1028d November 13, 2011, 8:37 PM 2022d 10 http://emonster.windows-keitai.com/
July 30, 2014, 9:29 PM 1032d N/A 1 http://search.yahoo.co.jp/search?p=HT+モデル+au&ei=UTF-8&fr...
July 30, 2014, 1:57 PM 1032d N/A 1 http://www.google.co.jp/url?sa=t&rct=j&q=&esrc=s&so...
July 28, 2014, 4:00 PM 1034d July 28, 2014, 3:59 PM 1034d 2 http://wkwkmail636.blog.fc2.com/
July 27, 2014, 6:22 PM 1035d January 12, 2014, 12:18 PM 1231d 7 http://map.windows-keitai.com/emobile/map.html?lat=43.0688250&l...
July 25, 2014, 10:11 PM 1037d July 25, 2014, 10:11 PM 1037d 2 http://eukusa.seesaa.net/
July 25, 2014, 4:27 PM 1037d N/A 1 http://search.yahoo.co.jp/search?p=HTC+au&tid=top_ga1_sa&ei...
July 25, 2014, 2:06 PM 1037d N/A 1 http://www.elektrobalt.lt/category/naujienos/renginiai/
July 24, 2014, 10:43 PM 1038d N/A 1 http://www.google.co.jp/url?url=http://ht-01a.windows-keitai.com/&a...
July 24, 2014, 5:51 PM 1038d March 9, 2013, 12:39 AM 1541d 2 http://map.windows-keitai.com/WiMAX/UQ/?UQ WiMAX/よくある質問/デー...
July 24, 2014, 2:09 PM 1038d N/A 1 http://map.windows-keitai.com/WiMAX/UQ/area.html?encode_hint=ぷ&...
July 24, 2014, 1:56 AM 1039d December 29, 2011, 2:59 AM 1977d 8 http://www.wince.ne.jp/snap/cnBoard.asp?PID=2846
July 23, 2014, 4:40 PM 1039d November 26, 2011, 9:01 PM 2009d 3 http://is02.windows-keitai.com/?IS02/よくある質問/ハードウェア
July 23, 2014, 4:47 AM 1040d July 23, 2014, 4:45 AM 1040d 2 http://mt4ea.blog.so-net.ne.jp/
July 22, 2014, 1:07 AM 1041d N/A 1 http://search.yahoo.co.jp/search?fr=nwsapp&p=ドコモHTC &ei=...
July 21, 2014, 11:25 PM 1041d N/A 1 http://soft.wince.ne.jp/soft/Detail/エイジフォン・モバイル2 Window...
July 20, 2014, 11:30 PM 1042d N/A 1 http://www.wince.ne.jp/snap/ceSnapView.asp?PID=230
July 20, 2014, 1:15 PM 1042d N/A 1 http://search.yahoo.co.jp/search;_ylt=A7YWNgwnQstTJWMAPhI5oPB7;_ylu...
July 18, 2014, 2:19 PM 1044d November 5, 2011, 9:10 PM 2030d 18 http://map.windows-keitai.com/emobile/map.html?encode_hint=ぷ&e...
July 18, 2014, 4:14 AM 1045d N/A 1 http://nootrino.com/search?q=google+prostitution
July 17, 2014, 4:30 PM 1045d July 17, 2014, 4:29 PM 1045d 2 http://akb48blog.dreamlog.jp/
July 17, 2014, 7:21 AM 1045d July 17, 2014, 7:20 AM 1045d 2 http://windows-keitai.com/?Windows Phone/Windows Mobile 6.5
July 15, 2014, 3:11 PM 1047d N/A 1 http://www.google.co.jp/url?sa=t&rct=j&q=&esrc=s&so...
July 15, 2014, 2:59 PM 1047d July 15, 2014, 2:59 PM 1047d 2 http://soft.wince.ne.jp/soft/Lists/?P=720&R=20&S=2
July 14, 2014, 9:51 AM 1048d March 4, 2013, 7:21 AM 1545d 5 http://t-01b.windows-keitai.com/?cmd=referer&page=FrontPage
July 14, 2014, 9:05 AM 1048d June 22, 2014, 6:31 AM 1070d 14 http://journal.iinaa.net/
July 13, 2014, 6:35 PM 1049d N/A 1 http://windows-keitai.com/?ニュース/2010.06.08 Windows Phone 用「ネ...
July 12, 2014, 10:09 PM 1050d March 15, 2013, 9:10 AM 1534d 9 http://map.windows-keitai.com/emobile/map.html?lat=35.170694&ln...
July 11, 2014, 3:28 PM 1051d July 11, 2014, 12:49 AM 1052d 6 http://search.yahoo.co.jp/search?tid=top_ga1_sa&ei=UTF-8&fr...
July 10, 2014, 5:16 PM 1052d N/A 1 http://windows-keitai.com/?Windows Phone/Windows Mobile 6.5.3
July 10, 2014, 8:18 AM 1052d December 29, 2011, 6:01 PM 1976d 10 http://map.windows-keitai.com/emobile/map.html?lat=35.76713&lng...
July 9, 2014, 8:10 AM 1053d N/A 1 http://search.yahoo.co.jp/search;_ylt=A3aX5FqAd7xTwzEAm4iJBtF7?p=HT...
July 8, 2014, 5:23 PM 1054d July 8, 2014, 5:23 PM 1054d 2 http://windows-keitai.com
July 6, 2014, 3:10 PM 1056d November 24, 2011, 9:15 AM 2011d 27 http://map.windows-keitai.com/WiMAX/UQ/area.html?encode_hint=ぷ&...
July 5, 2014, 6:29 PM 1057d July 5, 2014, 6:27 PM 1057d 2 http://ht-03a.windows-keitai.com/?HT-03A/購入レビュー/08 本体(ホワ...
July 4, 2014, 12:40 PM 1058d July 4, 2014, 12:39 PM 1058d 2 http://ht-03a.windows-keitai.com/?HTC Hero
July 4, 2014, 3:19 AM 1059d November 5, 2011, 11:01 PM 2030d 47 http://map.windows-keitai.com/emobile/map.html?lat=35.4662&lng=...
July 3, 2014, 4:44 PM 1059d July 3, 2014, 4:43 PM 1059d 2 http://windows-keitai.com/?ニュース/2009.10.15 海外版 T-01A の Wind...
July 2, 2014, 8:54 PM 1060d N/A 1 http://www.bing.com/search?q=AU&qs=n&sk=&pc=UP51&mk...
July 2, 2014, 8:09 PM 1060d N/A 1 http://www.google.co.jp/url?sa=t&rct=j&q=&esrc=s&so...
July 2, 2014, 7:49 PM 1060d N/A 1 http://www.google.co.jp/url?sa=t&rct=j&q=ht01a&source=w...
July 1, 2014, 11:20 PM 1061d N/A 1 http://t-01a.windows-keitai.com/?T-01A/スペック
July 1, 2014, 4:18 PM 1061d N/A 1 http://search.yahoo.co.jp/search?p=e30ht&aq=-1&oq=&ei=U...
June 30, 2014, 9:15 PM 1062d N/A 1 http://sc-01b.windows-keitai.com/?SC-01B/購入レビュー
June 30, 2014, 9:13 PM 1062d N/A 1 http://x02t.windows-keitai.com/?X02T/よくある質問/テザリング
June 30, 2014, 6:27 PM 1062d June 30, 2014, 6:20 PM 1062d 31 http://www.google.co.jp/url?sa=t&rct=j&q=&esrc=s&so...
June 30, 2014, 5:40 PM 1062d June 30, 2014, 5:35 PM 1062d 2 http://search.dolphin-browser.jp/?q=ht-01a
June 30, 2014, 10:19 AM 1062d N/A 1 http://www.google.co.jp/url?sa=t&rct=j&q=&esrc=s&so...
June 30, 2014, 12:31 AM 1063d November 12, 2011, 8:56 PM 2023d 11 http://is12t.windows-keitai.com/?IS12T/よくある質問/ソフトウェア
June 24, 2014, 5:58 PM 1068d December 6, 2011, 1:02 PM 1999d 4 http://is12t.windows-keitai.com/?IS12T/購入レビュー/08 IS12Tを量販...
June 24, 2014, 5:58 PM 1068d N/A 1 http://dual-diamond.windows-keitai.com/?Dual Diamond/よくある質問/...
June 24, 2014, 7:32 AM 1068d N/A 1 http://windowsmobileinjapan.blogspot.co.il/
June 22, 2014, 9:24 AM 1070d February 28, 2013, 7:09 PM 1549d 2 http://windows-keitai.com/?Windowsケータイ
June 21, 2014, 2:28 AM 1072d June 21, 2014, 2:28 AM 1072d 2 http://soft.wince.ne.jp/soft/Detail/PID3233/
June 20, 2014, 6:27 PM 1072d N/A 1 http://map.windows-keitai.com/WiMAX/UQ/area.html?encode_hint=ぷ&...
June 19, 2014, 11:34 PM 1073d N/A 1 http://www.google.co.jp/search?q=E30HT++docomo&ie=UTF-8&oe=...
June 18, 2014, 10:39 PM 1074d June 18, 2014, 10:38 PM 1074d 2 http://windows-keitai.com/?iPhone/スペック表
June 17, 2014, 2:23 PM 1075d N/A 1 http://windows-keitai.com/?X01HT,新色発売を要望するなら何色!?
June 17, 2014, 11:43 AM 1075d N/A 1 http://map.windows-keitai.com/emobile/map.html?encode_hint=ぷ&e...
June 13, 2014, 6:22 PM 1079d N/A 1 http://search.yahoo.co.jp/search?ei=UTF-8&fr=applpd&x=wrt&a...
June 8, 2014, 11:21 PM 1084d N/A 1 http://search.yahoo.co.jp/search?p=+++htc+ht01a++++++++++++++++++++...
May 31, 2014, 1:37 PM 1092d N/A 1 http://www.google.com/url?sa=t&source=web&cd=1&ved=0CCU...
May 31, 2014, 1:36 PM 1092d N/A 1 http://search.yahoo.co.jp/search?p=au++HTC++E30HT&ei=UTF-8&...
May 27, 2014, 6:12 AM 1097d N/A 1 http://translate.google.com/translate_p?hl=en&prev=/search?q=ht...
May 24, 2014, 7:20 AM 1099d N/A 1 http://search.yahoo.co.jp/search?fr=sb-kingbrw1&ei=UTF-8&p=...
May 22, 2014, 6:58 PM 1101d May 22, 2014, 6:57 PM 1101d 2 http://taxi129desu.jp/utumae/
May 19, 2014, 7:52 PM 1104d N/A 1 http://search.yahoo.co.jp/search?fr=slv1-dyzce5&p=htc 04 ht&...
May 18, 2014, 10:02 PM 1105d N/A 1 http://search.yahoo.co.jp/search?p=au+htc]&aq=-1&ei=UTF-8&a...
May 13, 2014, 11:43 AM 1110d N/A 1 http://search.yahoo.co.jp/search?p=e30ht+au&search.x=1&fr=t...
May 11, 2014, 11:17 AM 1112d N/A 1 http://search.yahoo.co.jp/search?p=ht01a&x=wrt&aq=-1&oq...
May 8, 2014, 9:55 PM 1115d February 23, 2013, 9:09 AM 1554d 8 http://search.yahoo.co.jp/search?p=HT-01A&search.x=1&fr=top...
April 25, 2014, 8:45 PM 1128d N/A 1 http://search.yahoo.co.jp/search?tid=sb-necctp_sa&ei=UTF-8&...
April 25, 2014, 4:24 PM 1128d November 18, 2011, 10:19 AM 2017d 2 http://blog.goo.ne.jp/cestaff/e/ed5e106c487ee19b643c915b46fa0980
April 16, 2014, 4:56 PM 1137d N/A 1 http://search.yahoo.co.jp/search?ei=UTF-8&fr=yjapp_and&x=wr...
April 11, 2014, 8:43 PM 1142d N/A 1 http://search.yahoo.co.jp/search?p=HT-01A+料金&aq=-1&oq=&am...
April 5, 2014, 1:23 PM 1148d N/A 1 http://afi.jo
March 27, 2014, 9:51 PM 1157d N/A 1 http://search.yahoo.co.jp/search?p=au++htc&tid=top_ga1_sa&e...
March 27, 2014, 3:33 PM 1157d November 15, 2011, 10:53 AM 2020d 11 http://windows-keitai.com/?よくある質問/ソフトウェア関連
March 27, 2014, 10:28 AM 1157d February 16, 2014, 4:08 PM 1196d 2 http://windows-keitai.com/?Comments/アンケート/2009.11.11 ドコモ、...
March 27, 2014, 7:02 AM 1157d N/A 1 http://www.bing.com/search?q=+Windows+Mobile+E30HT&go=&qs=n...
March 27, 2014, 7:01 AM 1157d March 27, 2014, 6:59 AM 1157d 2 http://www.bing.com/search?q=au Windows Mobile E30HT&pc=conduit...
March 27, 2014, 2:20 AM 1158d N/A 1 http://www.wince.ne.jp/CLIE/NX80V/
March 26, 2014, 8:39 PM 1158d N/A 1 http://is02.windows-keitai.com/?IS02/購入レビュー/16 IS02の静電容量...
March 26, 2014, 1:41 PM 1158d March 26, 2014, 1:39 PM 1158d 2 http://www.imakore.net/?p=1432
March 25, 2014, 10:25 PM 1159d December 30, 2011, 5:09 PM 1975d 13 http://map.windows-keitai.com/emobile/map.html?lat=34.971712&ln...
March 23, 2014, 5:35 PM 1161d January 13, 2014, 2:16 PM 1230d 2 http://x05ht.windows-keitai.com/?X05HT/購入特集/05 本体写真 (比較)
March 22, 2014, 11:29 PM 1162d March 15, 2013, 11:22 AM 1534d 3 http://emonster.windows-keitai.com/?cmd=referer&page=FrontPage
March 22, 2014, 8:15 PM 1162d N/A 1 http://is02.windows-keitai.com/?IS02/写真レビュー/00 報道写真
March 22, 2014, 12:30 AM 1163d March 22, 2014, 12:29 AM 1163d 2 http://konkatu.chiba.jp/
March 22, 2014, 12:22 AM 1163d N/A 1 http://www.google.co.jp/search?q=touch+pro&spell=1&sa=X&...
March 21, 2014, 6:29 AM 1163d March 21, 2014, 6:27 AM 1163d 2 http://www.imakore.net/?p=1342
March 20, 2014, 11:58 AM 1164d N/A 1 http://so.360.cn/s?psid=ed85c8a53d04e7d8767eb6ef68f23148&q=www....
March 19, 2014, 4:10 PM 1165d November 16, 2011, 1:48 AM 2020d 27 http://map.windows-keitai.com/emobile/map.html
March 18, 2014, 11:06 PM 1166d N/A 1 http://www.wince.ne.jp/snap/ceSnapView.asp?PID=1530
March 18, 2014, 10:27 PM 1166d N/A 1 http://www.wince.ne.jp/snap/ceSnapView.asp?PID=484
March 18, 2014, 8:22 PM 1166d N/A 1 http://map.windows-keitai.com/emobile/map.html?lat=39.702053&ln...
March 18, 2014, 2:30 PM 1166d March 18, 2014, 2:29 PM 1166d 2 http://sunnysmile.xsrv.jp/
March 18, 2014, 1:19 PM 1166d March 18, 2014, 1:17 PM 1166d 2 http://www.imakore.net/?p=1294
March 17, 2014, 3:12 PM 1167d November 21, 2011, 5:31 PM 2014d 19 http://htcz.windows-keitai.com/?よくある質問/接続編
March 17, 2014, 1:05 PM 1167d March 17, 2014, 1:04 PM 1167d 2 http://ken.fujigaokaboy.info/
March 16, 2014, 8:12 PM 1168d N/A 1 http://www.wince.ne.jp/snap/cnBoard.asp?PID=650
March 16, 2014, 12:19 PM 1168d March 16, 2014, 12:19 PM 1168d 2 http://map.windows-keitai.com/WiMAX/UQ/area.html?encode_hint=ぷ&...
March 15, 2014, 2:05 PM 1169d March 2, 2013, 7:02 PM 1547d 3 http://touch-pro.windows-keitai.com/
March 15, 2014, 1:52 PM 1169d N/A 1 http://www.wince.ne.jp/snap/ceSnapView.asp?PID=1585
March 14, 2014, 4:07 PM 1170d N/A 1 http://map.windows-keitai.com/emobile/map.html?lat=35.912647&ln...
March 14, 2014, 12:57 AM 1171d November 22, 2011, 10:54 PM 2013d 42 http://wiki.wince.ne.jp/W-ZERO3/
March 13, 2014, 8:40 PM 1171d N/A 1 http://search.yahoo.co.jp/search?p=HTC+Touch+Pro&ei=UTF-8&f...
March 13, 2014, 4:50 PM 1171d N/A 1 http://www.google.co.jp/url?sa=t&rct=j&q=&esrc=s&so...
March 13, 2014, 11:05 AM 1171d N/A 1 http://www.google.co.jp/url?sa=t&rct=j&q=&esrc=s&so...
March 13, 2014, 12:17 AM 1172d March 13, 2014, 12:17 AM 1172d 2 http://windows-keitai.com/?Office+Mobile/Word
March 11, 2014, 9:08 PM 1173d N/A 1 http://map.windows-keitai.com/emobile/map.html?encode_hint=ぷ&e...
March 11, 2014, 5:53 PM 1173d December 22, 2011, 9:03 PM 1983d 10 http://map.windows-keitai.com/emobile/map.html?lat=34.702398&ln...
March 10, 2014, 7:55 PM 1174d March 10, 2014, 7:55 PM 1174d 2 http://www.google.co.jp/url?sa=t&rct=j&q=&esrc=s&fr...
March 10, 2014, 12:31 PM 1174d March 10, 2014, 12:30 PM 1174d 2 http://www.imakore.net/?p=1160
March 10, 2014, 11:12 AM 1174d November 19, 2011, 11:41 AM 2016d 27 http://map.windows-keitai.com/emobile/map.html?lat=36.38294154&...
March 9, 2014, 11:37 PM 1175d N/A 1 http://sc-01b.windows-keitai.com/?FrontPage
March 9, 2014, 7:27 PM 1175d N/A 1 http://www.wince.ne.jp/snap/ceSnapView.asp?PID=1687
March 9, 2014, 12:03 PM 1175d N/A 1 http://touch-diamond.windows-keitai.com/?アンケート/01.TouchFLO 3D...
March 9, 2014, 11:50 AM 1175d N/A 1 http://www.google.com/m?q=HTC+PROHT+PRO&client=ms-opera-mini-an...
March 8, 2014, 1:26 AM 1177d March 8, 2014, 1:25 AM 1177d 2 http://map.windows-keitai.com/emobile/map.html?encode_hint=ぷ&e...
March 7, 2014, 10:41 PM 1177d N/A 1 http://search.yahoo.co.jp/search?p=e30ht+tach+daiamond&ei=UTF-8...
March 7, 2014, 4:10 PM 1177d March 7, 2014, 4:09 PM 1177d 2 http://afi.jo.net/
March 7, 2014, 1:05 PM 1177d N/A 1 http://03-willcom.windows-keitai.com/
March 6, 2014, 11:12 PM 1178d N/A 1 http://www.baidu.com/s?wd=ht-02a
March 6, 2014, 8:15 PM 1178d March 6, 2014, 8:12 PM 1178d 2 http://www.imakore.net/?p=1093
March 6, 2014, 8:07 PM 1178d January 18, 2014, 5:04 PM 1225d 2 http://www.wince.ne.jp/snap/ceSnapView.asp?PID=712
March 6, 2014, 7:11 PM 1178d N/A 1 http://windows-keitai.com/?よくある質問/Windows+Mobile+6
March 6, 2014, 1:04 AM 1179d N/A 1 http://t-01a.windows-keitai.com/?T-01A/噂と推測
March 5, 2014, 7:20 PM 1179d February 23, 2014, 6:14 PM 1189d 2 http://www.baidu.com/s?wd=ht-02a_HTC TOUCH PRO HT-01A ドコモ HTC E3...
March 5, 2014, 5:45 PM 1179d February 23, 2014, 4:17 PM 1189d 2 http://www.baidu.com/s?ie=UTF-8&wd=HT-02A
March 5, 2014, 5:25 PM 1179d March 5, 2014, 5:23 PM 1179d 2 http://x02t.windows-keitai.com/?X02T/購入レビュー/05 本体 写真
March 5, 2014, 10:21 AM 1179d N/A 1 http://map.windows-keitai.com/WiMAX/UQ/area.html?encode_hint=ぷ&...
March 3, 2014, 10:59 PM 1181d January 23, 2014, 2:20 PM 1220d 3 http://ht-03a.windows-keitai.com/?HTC Hero/写真でみるHTC Hero - 報...
March 3, 2014, 2:52 PM 1181d N/A 1 http://www.google.co.jp/url?sa=t&rct=j&q=&esrc=s&so...
March 2, 2014, 11:05 PM 1182d N/A 1 http://soft.wince.ne.jp/soft/Rank/?CM=12&Key=windows+mobile+6.5...
March 2, 2014, 4:03 PM 1182d N/A 1 http://s01sh.windows-keitai.com/?EM・ONE(S01SH)ゲット/08 画面キャプ...
March 2, 2014, 3:21 PM 1182d March 2, 2014, 3:20 PM 1182d 2 http://www.imakore.net/?p=1026
March 2, 2014, 12:23 PM 1182d N/A 1 http://map.windows-keitai.com/emobile/map.html?lat=36.5588772&l...
March 2, 2014, 9:08 AM 1182d January 20, 2014, 6:41 PM 1223d 4 http://map.windows-keitai.com/WiMAX/UQ/area.html?encode_hint=ぷ&...
February 28, 2014, 4:59 PM 1184d November 21, 2011, 6:51 PM 2014d 8 http://www.wince.ne.jp/hpc2000/sigmarion.htm
February 27, 2014, 10:30 AM 1185d N/A 1 http://map.windows-keitai.com/WiMAX/UQ/area.html?encode_hint=ぷ&...
February 26, 2014, 12:40 PM 1186d N/A 1 http://03-willcom.windows-keitai.com/?動作確認/Bluetooth
February 25, 2014, 3:10 PM 1187d N/A 1 http://www.google.co.jp/url?sa=t&rct=j&q=&esrc=s&fr...
February 24, 2014, 9:29 PM 1188d N/A 1 http://map.windows-keitai.com/WiMAX/UQ/area.html?encode_hint=ぷ&...
February 24, 2014, 6:37 PM 1188d February 24, 2014, 6:36 PM 1188d 2 http://ht-03a.windows-keitai.com/?HT-03A/スペック表
February 22, 2014, 8:29 PM 1190d December 29, 2011, 5:53 PM 1976d 2 http://windows-keitai.com/?Windows Phone
February 22, 2014, 5:38 PM 1190d N/A 1 http://www.wince.ne.jp/snap/ceSnapView.asp?PID=995
February 20, 2014, 11:53 PM 1192d N/A 1 http://www.google.co.jp/url?sa=t&rct=j&q=&esrc=s&so...
February 20, 2014, 1:32 PM 1192d February 20, 2014, 1:31 PM 1192d 2 http://map.windows-keitai.com/WiMAX/UQ/area.html?encode_hint=ぷ&...
February 19, 2014, 1:49 PM 1193d N/A 1 http://telewizornicy.pl/t/telewizor-3d/
February 19, 2014, 1:43 PM 1193d N/A 1 http://www.baidu.com/s?tn=13081079_1_pg&ie=utf-8&bs=机海一...
February 19, 2014, 11:00 AM 1193d N/A 1 http://telewizornicy.pl/t/22-cale/
February 19, 2014, 10:07 AM 1193d N/A 1 http://telewizornicy.pl/producent/philips/
February 19, 2014, 8:07 AM 1193d N/A 1 http://telewizornicy.pl/t/42-calowy-telewizor/
February 18, 2014, 12:54 PM 1194d November 23, 2011, 12:06 AM 2013d 7 http://windows-keitai.com/?Office Mobile/よくある質問
February 17, 2014, 10:45 PM 1195d April 19, 2013, 9:16 AM 1499d 6 http://search.yahoo.co.jp/search?p=ht-01a&search.x=1&fr=top...
February 17, 2014, 7:30 PM 1195d N/A 1 http://search.yahoo.co.jp/search?p=touch+pro&aq=-1&oq=&...
February 17, 2014, 8:07 AM 1195d N/A 1 http://www.google.co.jp/url?sa=t&rct=j&q=&esrc=s&fr...
February 16, 2014, 9:40 PM 1196d February 16, 2014, 9:34 PM 1196d 2 http://s01sh.windows-keitai.com/?よくある質問/ソフトウェア
February 16, 2014, 5:30 PM 1196d December 7, 2011, 1:15 AM 1999d 24 http://map.windows-keitai.com/emobile/map.html?lat=37.91915&lng...
February 13, 2014, 10:00 PM 1199d N/A 1 http://map.windows-keitai.com/WiMAX/UQ/area.html?encode_hint=ぷ&...
February 13, 2014, 9:29 PM 1199d N/A 1 http://map.windows-keitai.com/WiMAX/UQ/area.html?encode_hint=ぷ&...
February 13, 2014, 7:48 PM 1199d February 28, 2013, 3:41 AM 1550d 2 http://www.wince.ne.jp/snap/cnBoard.asp?PID=2710
February 13, 2014, 3:25 PM 1199d N/A 1 http://map.windows-keitai.com/WiMAX/UQ/area.html?encode_hint=ぷ&...
February 13, 2014, 5:06 AM 1200d February 13, 2014, 5:05 AM 1200d 2 https://www.eaglemail.jp/REG-fc89868a9ba3f97363ec40c86de09f5a
February 13, 2014, 12:03 AM 1200d N/A 1 http://x01ht.windows-keitai.com/?ソフトウェア/XRoof
February 12, 2014, 4:45 PM 1200d N/A 1 http://map.windows-keitai.com/emobile/map.html?lat=34.7041&lng=...
February 12, 2014, 4:14 PM 1200d March 15, 2013, 2:44 PM 1534d 2 http://www.wince.ne.jp/snap/ceSnapView.asp?PID=1670
February 12, 2014, 3:50 AM 1201d N/A 1 http://www.google.co.jp/url?sa=t&rct=j&q=&esrc=s&fr...
February 11, 2014, 9:39 PM 1201d N/A 1 http://soft.wince.ne.jp/soft/Detail/気象君 for WindowsMobile/PID4555/
February 11, 2014, 11:06 AM 1201d N/A 1 http://soft.wince.ne.jp/soft/Detail/RR (簡易RSSリーダー)/PID4033/
February 10, 2014, 10:27 AM 1202d N/A 1 http://www.google.co.jp/url?sa=t&rct=j&q=&esrc=s&fr...
February 8, 2014, 10:05 PM 1204d February 8, 2014, 9:46 PM 1204d 3 http://search.yahoo.co.jp/search?p=Touch+Pro&ei=UTF-8&fr=ac...
February 8, 2014, 12:57 PM 1204d N/A 1 http://windows-keitai.com/?アンケート/2010.04.02+一般化するかSIMロ...
February 8, 2014, 11:54 AM 1204d N/A 1 http://www.google.co.jp/url?sa=t&rct=j&q=&esrc=s&fr...
February 8, 2014, 9:09 AM 1204d N/A 1 http://soft.wince.ne.jp/soft/Lists/?P=0&R=20
February 6, 2014, 9:19 PM 1206d N/A 1 http://www.google.co.jp/url?sa=t&rct=j&q=&esrc=s&fr...
February 6, 2014, 3:04 PM 1206d N/A 1 http://is02.windows-keitai.com/?IS02/購入レビュー/09 IS02 操作まわり
February 6, 2014, 2:47 AM 1207d N/A 1 http://www.google.co.jp/url?sa=t&rct=j&q=&esrc=s&fr...
February 5, 2014, 5:59 PM 1207d N/A 1 http://www.google.com/search?q=au+htc&client=ms-opera-mobile&am...
February 5, 2014, 3:45 PM 1207d N/A 1 http://www.google.co.jp/url?sa=t&rct=j&q=ht 01a 価格&so...
February 5, 2014, 11:48 AM 1207d February 5, 2014, 11:47 AM 1207d 2 http://www.imakore.net/?p=591
February 4, 2014, 7:15 PM 1208d N/A 1 http://www.google.co.jp/url?sa=t&rct=j&q=&esrc=s&fr...
February 4, 2014, 1:52 PM 1208d N/A 1 http://www.google.co.jp/url?sa=t&rct=j&q=&esrc=s&fr...
February 4, 2014, 12:20 AM 1209d N/A 1 http://sc-01b.windows-keitai.com/?SC-01B/購入レビュー/02 SC-01Bをド...
February 3, 2014, 3:04 AM 1210d N/A 1 http://search.yahoo.co.jp/search?p=au+Windows+htc&aq=-1&oq=...
February 2, 2014, 3:26 PM 1210d N/A 1 http://search.yahoo.co.jp/search?tid=top_ga1_sa&ei=UTF-8&fr...
February 2, 2014, 3:17 PM 1210d N/A 1 http://search.yahoo.co.jp/search?p=touch+pro+本体ソフトウェア&a...
February 1, 2014, 7:40 PM 1211d N/A 1 http://www.google.co.jp/url?sa=t&rct=j&q=&esrc=s&fr...
January 30, 2014, 8:50 PM 1213d January 30, 2014, 8:49 PM 1213d 2 http://www.imakore.net/?p=487
January 30, 2014, 8:28 PM 1213d March 2, 2013, 2:44 PM 1547d 2 http://www.wince.ne.jp/snap/cnBoard.asp?PID=2478
January 29, 2014, 8:10 PM 1214d November 7, 2011, 4:49 PM 2028d 20 http://map.windows-keitai.com/WiMAX/UQ/?UQ WiMAX/よくある質問/サー...
January 29, 2014, 3:57 PM 1214d N/A 1 http://map.windows-keitai.com/WiMAX/UQ/area.html?encode_hint=ぷ&...
January 29, 2014, 2:10 PM 1214d N/A 1 http://www.wince.ne.jp/snap/ceSnapView.asp?PID=986
January 29, 2014, 3:30 AM 1215d N/A 1 http://wince.goo.ne.jp/Expert/
January 28, 2014, 4:06 PM 1215d N/A 1 http://ranking-piekarnikow.info.pl/
January 28, 2014, 12:34 PM 1215d N/A 1 http://search.fenrir-inc.com/?hl=ja&channel=sleipnir_5_w&sa...
January 28, 2014, 11:27 AM 1215d January 28, 2014, 11:26 AM 1215d 2 http://www.imakore.net/?p=442
January 28, 2014, 10:12 AM 1215d January 28, 2014, 10:12 AM 1215d 2 http://agara.web.fc2.com
January 28, 2014, 8:45 AM 1215d N/A 1 http://map.windows-keitai.com/WiMAX/UQ/?UQ WiMAX/よくある質問/各種...
January 27, 2014, 6:15 PM 1216d N/A 1 http://www.google.co.jp/url?sa=t&rct=j&q=&esrc=s&so...
January 27, 2014, 1:00 AM 1217d N/A 1 http://ranking-smartfonow.tky.pl/
January 27, 2014, 12:42 AM 1217d January 27, 2014, 12:41 AM 1217d 2 http://fanblogs.jp/kozintousika/
January 26, 2014, 11:19 PM 1217d N/A 1 http://map.windows-keitai.com/emobile/map.html?encode_hint=ぷ&e...
January 25, 2014, 4:12 PM 1218d November 7, 2011, 10:56 PM 2028d 15 http://www.wince.ne.jp/snap/cnBoard.asp?PID=2816
January 24, 2014, 3:36 PM 1219d N/A 1 http://soft.wince.ne.jp/soft/CommentView/PID4466/
January 23, 2014, 7:56 PM 1220d January 22, 2014, 3:47 AM 1222d 2 http://map.windows-keitai.com/WiMAX/UQ/area.html?encode_hint=ぷ&...
January 23, 2014, 2:26 PM 1220d N/A 1 http://map.windows-keitai.com/WiMAX/UQ/area.html?encode_hint=ぷ&...
January 22, 2014, 7:29 PM 1221d February 23, 2013, 8:53 AM 1554d 12 http://blog.goo.ne.jp/cestaff/
January 22, 2014, 11:27 AM 1221d January 22, 2014, 11:25 AM 1221d 2 http://www.imakore.net/?p=327
January 21, 2014, 5:59 PM 1222d November 6, 2011, 11:36 PM 2029d 10 http://t-01a.windows-keitai.com/?T-01A/購入レビュー/30 FF7 も快適動...
January 21, 2014, 2:16 PM 1222d N/A 1 http://map.windows-keitai.com/WiMAX/UQ/area.html?encode_hint=ぷ&...
January 21, 2014, 10:44 AM 1222d January 21, 2014, 10:43 AM 1222d 2 http://map.windows-keitai.com/emobile/map.html?encode_hint=ぷ&e...
January 21, 2014, 10:28 AM 1222d N/A 1 http://map.windows-keitai.com/WiMAX/UQ/area.html?encode_hint=ぷ&...
January 21, 2014, 2:20 AM 1223d N/A 1 http://map.windows-keitai.com/WiMAX/UQ/area.html?search=栃木県小山...
January 20, 2014, 1:20 PM 1223d N/A 1 http://ranking-czajnikow.pl
January 20, 2014, 10:27 AM 1223d January 20, 2014, 10:26 AM 1223d 2 http://www.imakore.net/?p=311
January 19, 2014, 5:10 AM 1225d January 16, 2014, 5:24 AM 1228d 2 http://ranking-laptopow.net.pl
January 18, 2014, 5:05 PM 1225d N/A 1 http://f1100.windows-keitai.com/?F1100/購入特集
January 18, 2014, 12:47 PM 1225d N/A 1 http://touch-diamond.windows-keitai.com/?Touch Diamond HT-02A/報道...
January 17, 2014, 1:17 PM 1226d N/A 1 http://map.windows-keitai.com/WiMAX/UQ/area.html?encode_hint=ぷ&...
January 16, 2014, 11:35 AM 1227d N/A 1 http://map.windows-keitai.com/WiMAX/UQ/area.html?encode_hint=ぷ&...
January 16, 2014, 9:53 AM 1227d N/A 1 http://ranking-monitorow.pl
January 16, 2014, 9:46 AM 1227d N/A 1 http://ranking-procesorow.pl
January 16, 2014, 9:21 AM 1227d N/A 1 http://ranking-smartfonow.pl
January 15, 2014, 6:14 PM 1228d November 5, 2011, 11:02 AM 2030d 3 http://map.windows-keitai.com/emobile/map.html?lat=34.232929&ln...
January 15, 2014, 12:56 PM 1228d November 10, 2011, 2:11 PM 2025d 31 http://map.windows-keitai.com/emobile/map.html?lat=35.9077&lng=...
January 14, 2014, 9:29 PM 1229d N/A 1 http://map.windows-keitai.com/WiMAX/UQ/area.html?encode_hint=ぷ&...
January 14, 2014, 3:47 PM 1229d N/A 1 http://map.windows-keitai.com/emobile/map.html?encode_hint=ぷ&e...
January 14, 2014, 11:45 AM 1229d January 14, 2014, 11:43 AM 1229d 2 http://www.imakore.net/?p=236
January 13, 2014, 8:25 PM 1230d N/A 1 http://www.google.co.jp/url?sa=t&rct=j&q=&esrc=s&fr...
January 13, 2014, 10:53 AM 1230d N/A 1 http://www.google.co.jp/url?sa=t&rct=j&q=&esrc=s&so...
January 12, 2014, 10:39 PM 1231d N/A 1 http://www.google.co.jp/url?sa=t&rct=j&q=&esrc=s&so...
January 12, 2014, 9:37 AM 1231d N/A 1 http://map.windows-keitai.com/WiMAX/UQ/area.html?encode_hint=ぷ&...
January 11, 2014, 1:52 PM 1232d December 28, 2011, 11:30 PM 1977d 68 http://x02t.windows-keitai.com/
January 11, 2014, 12:27 AM 1233d N/A 1 http://map.windows-keitai.com/WiMAX/UQ/area.html?encode_hint=ぷ&...
January 10, 2014, 9:57 PM 1233d N/A 1 http://x06ht.windows-keitai.com/
January 10, 2014, 3:31 PM 1233d January 10, 2014, 10:35 AM 1233d 2 http://map.windows-keitai.com/WiMAX/UQ/area.html?encode_hint=ぷ&...
January 10, 2014, 1:32 PM 1233d N/A 1 http://map.windows-keitai.com/WiMAX/UQ/area.html?encode_hint=ぷ&...
January 10, 2014, 12:30 PM 1233d January 10, 2014, 12:28 PM 1233d 2 http://www.imakore.net/?p=171
January 10, 2014, 2:57 AM 1234d N/A 1 http://map.windows-keitai.com/WiMAX/UQ/area.html?encode_hint=ぷ&...
January 9, 2014, 9:28 AM 1234d N/A 1 http://search.yahoo.co.jp/search?fr=slv1-chtbtop&p= HT-01A&...
January 8, 2014, 10:42 PM 1235d N/A 1 http://map.windows-keitai.com/WiMAX/UQ/area.html?encode_hint=ぷ&...
January 7, 2014, 12:45 PM 1236d January 7, 2014, 12:43 PM 1236d 2 http://www.imakore.net/?p=128
January 6, 2014, 5:00 PM 1237d N/A 1 http://so.360.cn/s?ie=utf-8&src=hao_search&q=HT01
January 6, 2014, 4:16 PM 1237d N/A 1 http://windows-keitai.com/?Windows+Phone/Windows+Phone+7/ニュース/2...
January 6, 2014, 3:46 PM 1237d N/A 1 http://map.windows-keitai.com/WiMAX/UQ/area.html?encode_hint=ぷ&...
January 5, 2014, 7:24 PM 1238d N/A 1 http://www.google.com/url?sa=t&rct=j&q=&esrc=s&frm=...
January 5, 2014, 11:49 AM 1238d N/A 1 http://map.windows-keitai.com/emobile/map.html?encode_hint=ぷ&e...
January 4, 2014, 2:13 PM 1239d January 4, 2014, 2:12 PM 1239d 2 http://www.imakore.net/?p=80
January 2, 2014, 8:57 PM 1241d N/A 1 http://search.yahoo.co.jp/search?p=E30HT&search.x=1&fr...
January 2, 2014, 5:30 PM 1241d N/A 1 http://search.yahoo.co.jp/search?p=ウィンドウズE30HT&search.x=1...
December 26, 2013, 11:24 PM 1248d N/A 1 http://search.yahoo.co.jp/search?p=ht-01a&aq=0&oq=h&lq=...
December 25, 2013, 10:11 AM 1249d N/A 1 http://search.yahoo.co.jp/search?tid=top_ga1_sa&ei=UTF-8&fr...
December 21, 2013, 5:13 AM 1254d December 20, 2013, 5:25 AM 1255d 2 http://ranking-dyskow-twardych.pl/
December 21, 2013, 1:39 AM 1254d October 31, 2013, 5:44 AM 1305d 5 http://ranking-pralek.pl/
December 20, 2013, 1:56 PM 1254d N/A 1 http://search.yahoo.co.jp/search?p=ドコモHTC設定&x=wrt&aq=-...
December 20, 2013, 12:39 PM 1254d N/A 1 http://ranking-drukarek.pl/
December 20, 2013, 8:39 AM 1254d N/A 1 http://ranking-aparatow.pl/
December 20, 2013, 4:35 AM 1255d December 20, 2013, 4:34 AM 1255d 2 http://p.tl/bDhS
December 20, 2013, 4:28 AM 1255d N/A 1 http://ranking-amplitunerow.pl/
December 17, 2013, 9:37 PM 1257d N/A 1 http://wince.goo.ne.jp/snap/cnBoard.asp?PID=646
December 9, 2013, 3:26 PM 1265d December 9, 2013, 3:23 PM 1265d 2 http://p.tl/vACR
November 30, 2013, 4:12 PM 1274d November 30, 2013, 4:11 PM 1274d 2 http://p.tl/s5NF
November 26, 2013, 8:12 AM 1278d N/A 1 http://m.chiebukuro.yahoo.co.jp/detail/q1137864031
November 25, 2013, 8:38 PM 1279d N/A 1 http://search.yahoo.co.jp/search?ei=UTF-8&fr=yjapp_hp&p=ド...
November 24, 2013, 6:57 AM 1280d November 23, 2013, 8:39 AM 1281d 6 http://ranking-telewizorow.pl/
November 22, 2013, 11:14 AM 1282d N/A 1 http://ranking-blenderow.pl
November 22, 2013, 10:49 AM 1282d N/A 1 http://ranking-drukarek.pl
November 22, 2013, 9:50 AM 1282d N/A 1 http://ranking-glosnikow.pl
November 22, 2013, 8:41 AM 1282d N/A 1 http://ranking-aparatow.pl
November 19, 2013, 1:21 AM 1286d November 19, 2013, 1:20 AM 1286d 2 http://ameblo.jp/iigoen/entry-11696814444.html
November 14, 2013, 6:13 PM 1290d N/A 1 http://search.yahoo.co.jp/search?p=HTC+Windows+phone+使い勝手&s...
November 12, 2013, 10:54 PM 1292d N/A 1 http://search.yahoo.co.jp/search?p=HTC+au&aq=7&oq=HTC&l...
November 10, 2013, 10:08 AM 1294d November 10, 2013, 10:04 AM 1294d 2 http://search.yahoo.co.jp/search?tt=c&ei=UTF-8&fr=sfp_as&am...
November 9, 2013, 3:39 PM 1295d N/A 1 http://market.yahoo.co.jp/app/android/wisdoms/details/1137864031
November 4, 2013, 12:45 AM 1301d N/A 1 http://search.yahoo.co.jp/search?ei=UTF-8&p=au+htc&aq=-1&am...
October 31, 2013, 3:36 PM 1304d October 31, 2013, 3:35 PM 1304d 2 http://ameblo.jp/labomf/
October 31, 2013, 2:12 PM 1304d N/A 1 http://www.google.com/url?sa=t&rct=j&q=&esrc=s&frm=...
October 27, 2013, 9:10 AM 1308d N/A 1 http://search.yahoo.co.jp/search?p=フルキーボード+au E30HT&ei=...
October 23, 2013, 1:48 AM 1313d N/A 1 http://search.yahoo.co.jp/search?p=HT01A&search.x=1&fr=top_...
October 12, 2013, 4:56 PM 1323d October 12, 2013, 4:53 PM 1323d 2 http://p.tl/BmGf
September 26, 2013, 11:41 PM 1339d September 26, 2013, 11:39 PM 1339d 2 http://wince.goo.ne.jp/newslink/news20120627.html
September 23, 2013, 10:03 PM 1342d N/A 1 http://search.yahoo.co.jp/search?p=HTC+E30HT+&search.x=1&fr...
September 23, 2013, 9:29 PM 1342d N/A 1 http://search.yahoo.co.jp/search?p=au+HTC+E30HT+&search.x=1&...
September 23, 2013, 12:01 AM 1343d N/A 1 http://www.google.com/search?q=au+HTC+E30ht&btnG=&client=ms...
September 17, 2013, 12:09 AM 1349d September 17, 2013, 12:08 AM 1349d 2 http://p.tl/AwUZ
September 14, 2013, 8:26 PM 1351d N/A 1 http://search.yahoo.co.jp/search?p=au+HTC+E30HT+アプリ&search.x...
September 5, 2013, 5:18 AM 1361d September 5, 2013, 5:16 AM 1361d 2 http://p.tl/yUxE
August 28, 2013, 9:22 PM 1368d August 28, 2013, 9:18 PM 1368d 2 http://p.tl/8SSc
August 22, 2013, 7:18 AM 1374d August 22, 2013, 7:16 AM 1374d 2 http://p.tl/_yJS
August 21, 2013, 11:32 AM 1375d N/A 1 http://search.yahoo.co.jp/search?p=HT01A&aq=-1&oq=&ei=U...
August 17, 2013, 10:42 PM 1379d N/A 1 http://search.yahoo.co.jp/search?p=スマホ+HT01A&aq=-1&ei=...
August 17, 2013, 9:56 PM 1379d N/A 1 http://www.google.com/search?q=docomo+ht01a&hl=ja&safe=off&...
August 17, 2013, 9:39 PM 1379d August 17, 2013, 9:35 PM 1379d 2 http://p.tl/oLwW
August 14, 2013, 5:38 AM 1383d August 14, 2013, 5:36 AM 1383d 2 http://p.tl/KW2h
August 13, 2013, 1:25 AM 1384d N/A 1 http://search.yahoo.co.jp/search?p=HT-01A&aq=-1&oq=&...
August 9, 2013, 10:22 AM 1387d N/A 1 http://search.yahoo.co.jp/search?p=HT-01A+&search.x=1&fr=to...
August 9, 2013, 5:27 AM 1388d August 9, 2013, 5:25 AM 1388d 2 http://image.search.yahoo.co.jp/search?ei=UTF-8&fr=top_ga1&...
August 7, 2013, 1:54 AM 1390d August 7, 2013, 1:53 AM 1390d 2 http://p.tl/HcSr
August 6, 2013, 5:22 PM 1390d N/A 1 http://hk.search.yahoo.com/search?p=au+htc&fr=FP-tab-web-t&...
August 6, 2013, 12:41 PM 1390d N/A 1 http://hk.search.yahoo.com/search;_ylt=A2oKmK1wcABSlBcA8K2zygt.?p=h...
August 3, 2013, 11:23 AM 1393d N/A 1 http://search.yahoo.co.jp/search?p=ドコモtouchpro&aq=-1&oq=...
August 1, 2013, 1:29 PM 1395d N/A 1 http://search.yahoo.co.jp/search?fr=slv1-acsy12&p=domomo HTC HT...
July 29, 2013, 9:31 PM 1398d N/A 1 http://search.yahoo.co.jp/search?p=HT-01A+&search.x=1&fr=to...
July 24, 2013, 12:34 PM 1403d N/A 1 http://www.google.com/m/search?&ie=utf-8&oe=utf-8&aq=3&...
July 3, 2013, 3:19 PM 1424d April 22, 2013, 11:10 AM 1496d 2 http://search.yahoo.co.jp/search?p=htc+E30HT&aq=-1&oq=&...
June 26, 2013, 8:13 PM 1431d N/A 1 http://search.yahoo.co.jp/search?p=au+ht30&search.x=1&fr=to...
June 26, 2013, 6:33 AM 1431d June 26, 2013, 6:27 AM 1431d 3 http://search.yahoo.co.jp/search?ei=UTF-8&fr=top_smf&x=wrt&...
June 21, 2013, 11:59 PM 1436d N/A 1 http://search.yahoo.co.jp/search?ei=euc-jp&fr=slv1-&p=HT-01A
June 21, 2013, 4:54 PM 1436d N/A 1 http://search.yahoo.co.jp/search?p=au+HTC+Windows&ei=UTF-8&...
June 20, 2013, 11:50 PM 1437d N/A 1 http://search.yahoo.co.jp/search?p=au HTC ドコモ&rs=1&tid=t...
June 20, 2013, 11:43 PM 1437d N/A 1 http://search.yahoo.co.jp/search?p=au+htcj1docomo&aq=-1&oq=...
June 20, 2013, 5:41 AM 1438d N/A 1 http://www.google.com/url?sa=t&rct=j&q=&esrc=s&frm=...
June 19, 2013, 8:47 PM 1438d June 19, 2013, 8:43 PM 1438d 2 http://search.yahoo.co.jp/search?p=docomo+HTCシリーズ まとめ&s...
June 16, 2013, 5:14 PM 1441d N/A 1 http://search.yahoo.co.jp/search?p=htc+pro&search.x=1&fr=to...
June 16, 2013, 6:29 AM 1441d N/A 1 http://search.yahoo.co.jp/search?p=windows携帯参入&aq=0&oq=...
June 13, 2013, 9:48 PM 1444d N/A 1 http://www.google.com/url?sa=t&rct=j&q=au htc ht&source...
June 9, 2013, 4:39 PM 1448d N/A 1 http://blog.goo.ne.jp/cestaff/e/7005e8d30d9c28c2e7a472083ee35ad0
June 8, 2013, 4:34 PM 1449d N/A 1 http://search.yahoo.co.jp/search?p=au+windows+pro&search.x=1&am...
May 30, 2013, 2:33 PM 1458d May 30, 2013, 2:31 PM 1458d 2 http://green.search.goo.ne.jp/search?MT=HT-01A&OE=UTF-8&isG...
May 28, 2013, 12:55 PM 1460d N/A 1 http://search.yahoo.co.jp/search?ei=UTF-8&fr=crmas&p=HT-01A
May 21, 2013, 3:12 PM 1467d N/A 1 http://search.yahoo.co.jp/search?p=Windows+phone+au+HTC&ei=UTF-...
May 20, 2013, 9:33 AM 1468d May 20, 2013, 9:30 AM 1468d 3 http://search.yahoo.co.jp/search?p=AU携帯+HT&aq=-1&oq=&...
May 12, 2013, 7:24 AM 1476d N/A 1 http://image.search.yahoo.co.jp/search?ei=UTF-8&fr=top_ga1_sa&a...
May 9, 2013, 4:43 PM 1479d N/A 1 http://search.yahoo.co.jp/search?p=HT12+au&search.x=1&fr=to...
May 5, 2013, 9:43 AM 1483d N/A 1 http://telefoniacy.pl/producent/samsung/
May 5, 2013, 7:28 AM 1483d N/A 1 http://telefoniacy.pl/
May 5, 2013, 7:05 AM 1483d N/A 1 http://nawigacyjni.pl/
May 5, 2013, 6:57 AM 1483d N/A 1 http://monitorowcy.pl/producent/philips/
May 2, 2013, 1:24 AM 1487d N/A 1 http://www.google.com/url?sa=t&rct=j&q=&esrc=s&sour...
April 25, 2013, 11:39 PM 1493d N/A 1 http://tw.search.yahoo.com/search;_ylt=A8tUwZHfPnlRPnAAm_1r1gt.;_yl...
April 21, 2013, 10:54 PM 1497d April 21, 2013, 10:51 PM 1497d 2 http://search.yahoo.co.jp/search?p=NTT+DOCOMO+HT-01A&aq=-1&...
April 15, 2013, 10:27 AM 1503d N/A 1 http://search.yahoo.co.jp/search?p=Ht-01A&search.x=1&fr=top...
April 8, 2013, 10:56 PM 1510d N/A 1 http://search.yahoo.co.jp/search?p=ht-01a&x=wrt&aq=-1&o...
April 6, 2013, 9:45 AM 1512d N/A 1 http://search.yahoo.co.jp/search?p=HTC+HT-01A&search.x=1&fr...
April 2, 2013, 10:06 AM 1516d N/A 1 http://search.yahoo.co.jp/search?p=au HTC touch pro&rs=1&ti...
April 1, 2013, 3:12 PM 1517d N/A 1 http://search.yahoo.co.jp/search?p=au+スマホ+HTC+ウィンドウ&aq=...
April 1, 2013, 3:11 PM 1517d N/A 1 http://search.yahoo.co.jp/search?p=HT+au&search.x=1&fr=top_...
March 25, 2013, 11:30 PM 1524d N/A 1 http://search.yahoo.co.jp/search?p=ht au&aq=-1&oq=&ei=...
March 25, 2013, 10:13 AM 1524d N/A 1 http://search.yahoo.co.jp/search?ei=UTF-8&fr=applep1&x=wrt&...
March 22, 2013, 7:56 PM 1527d N/A 1 http://wysuszeni.pl/ranking-suszarek-do-wlosow/
March 21, 2013, 2:32 PM 1528d N/A 1 http://wysuszeni.pl/producent/clatronic/
March 20, 2013, 1:55 PM 1529d N/A 1 http://wince.goo.ne.jp/snap/cnBoard.asp?PID=549
March 19, 2013, 6:54 PM 1530d N/A 1 http://search.yahoo.co.jp/search?p=HTC+スマートフォン ドコモ&s...
March 19, 2013, 7:56 AM 1530d March 19, 2013, 5:15 AM 1531d 2 http://wysuszeni.pl/producent/babyliss/
March 19, 2013, 7:46 AM 1530d N/A 1 http://wysuszeni.pl/producent/philips/
March 19, 2013, 6:12 AM 1531d N/A 1 http://wysuszeni.pl/producent/braun/
March 18, 2013, 11:44 PM 1531d N/A 1 http://search.yahoo.co.jp/search?p=docom+ht-01aをpcに接続&sea...
March 18, 2013, 6:10 PM 1531d N/A 1 http://www.google.com/imgres?imgurl=http://farm4.static.flickr.com/...
March 18, 2013, 2:45 PM 1531d N/A 1 http://search.yahoo.co.jp/search?p=ドコモ スマートフォン HTC&rs...
March 18, 2013, 11:59 AM 1531d March 18, 2013, 11:58 AM 1531d 2 http://www.google.co.jp/url?sa=t&rct=j&q=ht-01a&source=...
March 18, 2013, 12:00 AM 1532d N/A 1 http://map.windows-keitai.com/WiMAX/UQ/area.html?encode_hint=ぷ&...
March 17, 2013, 9:20 PM 1532d N/A 1 http://projektorowcy.pl/2013/02/
March 17, 2013, 9:11 PM 1532d N/A 1 http://projektorowcy.pl/producent/sony/
March 17, 2013, 8:55 PM 1532d November 7, 2011, 11:36 PM 2028d 15 http://www.sitedossier.com/site/www.touch-pro.windows-keitai.com
March 17, 2013, 7:44 PM 1532d N/A 1 http://projektorowcy.pl/
March 17, 2013, 7:00 PM 1532d March 17, 2013, 7:02 AM 1532d 5 http://www.danseiseikatsu.com/household-appliance-8/household-appli...
March 17, 2013, 7:00 PM 1532d N/A 1 http://projektorowcy.pl/2013/01/
March 17, 2013, 8:09 AM 1532d N/A 1 http://www.google.co.jp/url?sa=t&rct=j&q=&esrc=s&so...
March 17, 2013, 5:43 AM 1533d N/A 1 http://www.baidu.com/baidu?wd=HT-01&tn=monline_4_dg
March 16, 2013, 7:20 AM 1533d N/A 1 http://is02.windows-keitai.com/?IS02/写真レビュー/04 スタートメニュー
March 16, 2013, 1:46 AM 1534d N/A 1 http://sc-01b.windows-keitai.com/?SC-01B/よくある質問/ソフトウェア
March 16, 2013, 12:39 AM 1534d N/A 1 http://search.yahoo.co.jp/search?p=ドコモ+スマートフォン HTC&a...
March 15, 2013, 2:40 PM 1534d N/A 1 http://www.google.co.jp/url?sa=t&rct=j&q=HTC+E30HT&sour...
March 15, 2013, 2:38 PM 1534d N/A 1 http://www.google.co.jp/url?sa=t&rct=j&q=HTC+E30HT&sour...
March 15, 2013, 7:50 AM 1534d N/A 1 http://t-01a.windows-keitai.com/?T-01A/動作確認/ソフトウェア
March 14, 2013, 7:08 PM 1535d March 14, 2013, 7:07 PM 1535d 2 http://sele.qist.net/
March 14, 2013, 12:18 PM 1535d N/A 1 http://map.windows-keitai.com/WiMAX/UQ/area.html?encode_hint=ぷ&...
March 14, 2013, 8:15 AM 1535d N/A 1 http://map.windows-keitai.com/WiMAX/UQ/area.html?encode_hint=ぷ&...
March 13, 2013, 9:11 PM 1536d N/A 1 http://www.google.co.jp/url?sa=t&rct=j&q=windows phone doco...
March 13, 2013, 8:45 PM 1536d N/A 1 http://ht1100.windows-keitai.com/?よくある質問/ハードウェア
March 13, 2013, 8:32 PM 1536d December 15, 2011, 11:08 PM 1990d 4 http://htcz.windows-keitai.com/?hTc Z 写真/hTc Z起動時
March 13, 2013, 5:24 PM 1536d November 26, 2011, 8:05 PM 2009d 18 http://map.windows-keitai.com/WiMAX/UQ/area.html?encode_hint=ぷ&...
March 13, 2013, 4:21 PM 1536d March 13, 2013, 4:20 PM 1536d 2 http://fntmsr1975.xsrv.jp/mslabo/blog/加賀スイーツ「加賀彩」特集-417
March 13, 2013, 2:35 PM 1536d N/A 1 http://map.windows-keitai.com/emobile/map.html?encode_hint=ぷ&e...
March 13, 2013, 11:36 AM 1536d N/A 1 http://wiki.wince.ne.jp/W-ZERO3/?Tips
March 13, 2013, 8:17 AM 1536d N/A 1 http://search.yahoo.co.jp/search?p=au+HTC+Windows&aq=-1&oq=...
March 12, 2013, 9:40 PM 1537d N/A 1 http://www.google.co.jp/url?sa=t&rct=j&q=&esrc=s&fr...
March 12, 2013, 5:19 PM 1537d March 12, 2013, 5:16 PM 1537d 2 http://windows-keitai.com/?Comments/wpjp/まとめ/MS越川氏、スマホと...
March 11, 2013, 8:31 PM 1538d N/A 1 http://www.google.co.jp/url?sa=t&rct=j&q=&esrc=s&fr...
March 11, 2013, 8:25 PM 1538d March 8, 2013, 2:18 AM 1542d 2 http://r-domain.net/touch-pro.windows-keitai.com
March 11, 2013, 8:06 PM 1538d N/A 1 http://www.google.co.jp/url?sa=t&rct=j&q=htc e30ht&sour...
March 11, 2013, 3:42 PM 1538d March 9, 2013, 1:58 AM 1541d 2 http://r-domain.net/report/touch-pro.windows-keitai.com/?check=4b5a...
March 11, 2013, 1:18 PM 1538d N/A 1 http://t-01a.windows-keitai.com/?T-01A/よくある質問/ソフトウェア
March 11, 2013, 12:08 AM 1539d N/A 1 http://r-domain.net/ht-01a.windows-keitai.com
March 10, 2013, 11:28 PM 1539d N/A 1 http://s12ht.windows-keitai.com/?EMONSTER lite
March 10, 2013, 9:15 PM 1539d N/A 1 http://soft.wince.ne.jp/soft/Lists/?P=240&CM=3&R=20
March 10, 2013, 3:56 PM 1539d March 10, 2013, 3:55 PM 1539d 4 http://ht-03a.windows-keitai.com/?HT-03A/よくある質問/裏技
March 10, 2013, 11:11 AM 1539d N/A 1 http://www.baidu.com/s?ie=utf-8&f=8&rsv_bp=1&rsv_spt=3&...
March 10, 2013, 9:23 AM 1539d N/A 1 http://03-willcom.windows-keitai.com/?アンケート/01.WILLCOM 03どこ...
March 10, 2013, 8:35 AM 1539d N/A 1 http://map.windows-keitai.com/WiMAX/UQ/area.html?encode_hint=ぷ&...
March 9, 2013, 10:00 PM 1540d N/A 1 http://www.google.co.jp/url?sa=t&rct=j&q=&esrc=s&so...
March 9, 2013, 8:24 PM 1540d N/A 1 http://windows-keitai.com/?Windows Phone/Windows Marketplace for Mo...
March 9, 2013, 8:00 PM 1540d N/A 1 http://htcz.windows-keitai.com/?よくある質問/アクセサリ編/クレードル
March 9, 2013, 10:47 AM 1540d March 9, 2013, 10:45 AM 1540d 2 http://www.wince.ne.jp/snap/ceSnapView.asp?PID=1611
March 9, 2013, 9:26 AM 1540d N/A 1 http://www.google.co.jp/url?sa=t&rct=j&q=&esrc=s&fr...
March 8, 2013, 11:24 PM 1541d N/A 1 http://soft.wince.ne.jp/soft/Lists/?P=20&CM=2&R=20
March 8, 2013, 4:51 PM 1541d N/A 1 http://blog.goo.ne.jp/cestaff/e/5be45dc9292d27a2c893f614621cbd86
March 8, 2013, 10:00 AM 1541d March 8, 2013, 10:00 AM 1541d 2 http://t-01b.windows-keitai.com/?T-01B/よくある質問/通信
March 7, 2013, 10:18 PM 1542d N/A 1 http://map.windows-keitai.com/emobile/map.html?encode_hint=ぷ&e...
March 7, 2013, 6:16 PM 1542d N/A 1 http://search.yahoo.co.jp/search?p=ドコモ+スマートフォン+HTC&aq...
March 7, 2013, 4:52 PM 1542d N/A 1 http://www.google.co.jp/search?hl=ja&q=HTC+Touch+Pro+&lr=la...
March 7, 2013, 2:20 PM 1542d N/A 1 http://www.google.co.jp/url?sa=t&rct=j&q=&esrc=s&fr...
March 7, 2013, 1:43 PM 1542d N/A 1 http://www.google.co.jp/url?sa=t&rct=j&q=&esrc=s&fr...
March 7, 2013, 10:14 AM 1542d N/A 1 http://map.windows-keitai.com/WiMAX/UQ/area.html?encode_hint=ぷ&...
March 6, 2013, 7:13 PM 1543d N/A 1 http://www.wince.ne.jp/snap/ceSnapView.asp?PID=1709
March 6, 2013, 6:36 PM 1543d N/A 1 http://search.yahoo.co.jp/search?p=Touch+Pro+E30HT&ei=UTF-8&...
March 6, 2013, 5:36 PM 1543d March 6, 2013, 5:35 PM 1543d 2 http://fntmsr1975.xsrv.jp/mslabo/blog/まだ間に合う!ホワイトデーの...
March 6, 2013, 4:06 PM 1543d N/A 1 http://www.google.co.jp/url?sa=t&rct=j&q=&esrc=s&so...
March 6, 2013, 5:09 AM 1544d N/A 1 http://blog.goo.ne.jp/cestaff/e/01cdd360f21ba15b1b9fff365c0792d2
March 5, 2013, 9:36 PM 1544d N/A 1 http://www.google.co.jp/url?sa=t&rct=j&q=htc touch pro&...
March 5, 2013, 3:46 PM 1544d N/A 1 http://map.windows-keitai.com/WiMAX/UQ/area.html?encode_hint=ぷ&...
March 5, 2013, 11:34 AM 1544d N/A 1 http://is12t.windows-keitai.com/?IS12T/写真でみる IS12T/06 au先輩 I...
March 5, 2013, 5:38 AM 1545d November 12, 2011, 12:09 PM 2023d 5 http://soft.wince.ne.jp/soft/Detail/PID4330/
March 4, 2013, 8:32 PM 1545d N/A 1 http://www.google.co.jp/search?hl=ja&redir_esc=&client=ms-a...
March 4, 2013, 10:21 AM 1545d N/A 1 http://www.baidu.com/s?ie=utf-8&f=8&rsv_bp=1&rsv_spt=3&...
March 4, 2013, 4:32 AM 1546d N/A 1 http://www.google.co.jp/url?sa=t&rct=j&q=e30ht ドコモ&...
March 3, 2013, 11:47 PM 1546d N/A 1 http://www.baidu.com/s?tn=site888_pg&ie=utf-8&bs=狠狠干&...
March 3, 2013, 9:42 PM 1546d N/A 1 http://map.windows-keitai.com/emobile/map.html?encode_hint=ぷ&e...
March 3, 2013, 9:00 PM 1546d N/A 1 http://is12t.windows-keitai.com/?IS12T/よくある質問
March 3, 2013, 1:39 AM 1547d N/A 1 http://search.yahoo.co.jp/search?p=ドコモ+スマートフォン+htc&x=...
March 2, 2013, 11:01 PM 1547d March 2, 2013, 10:59 PM 1547d 2 http://fntmsr1975.xsrv.jp/mslabo/msrshop/「ホワイトデー限定商品」イ...
March 2, 2013, 7:43 AM 1547d February 21, 2013, 9:40 PM 1556d 51 http://mtnb.crt.jp/download/index.html
March 2, 2013, 2:25 AM 1548d February 28, 2013, 1:55 PM 1549d 9 http://www.danseiseikatsu.com/accessory-3/accessory-3-18.html
March 1, 2013, 10:11 AM 1548d N/A 1 http://t-01a.windows-keitai.com/?T-01A/よくある質問/料金プラン
February 28, 2013, 11:25 PM 1549d N/A 1 http://ht-01a.windows-keitai.com/?cmd=referer&page=Touch+Pro+HT...
February 28, 2013, 12:49 PM 1549d N/A 1 http://x01sc.windows-keitai.com/?X01SC/購入レビュー/08 ホーム Today...
February 28, 2013, 12:41 PM 1549d N/A 1 http://wiki.wince.ne.jp/W-ZERO3es/?Windows Live for Windows Mobile/...
February 28, 2013, 11:51 AM 1549d N/A 1 http://www.google.co.jp/url?sa=t&rct=j&q=&esrc=s&fr...
February 28, 2013, 10:17 AM 1549d N/A 1 http://f1100.windows-keitai.com/?スペック表
February 27, 2013, 1:28 PM 1550d N/A 1 http://map.windows-keitai.com/WiMAX/UQ/area.html?encode_hint=ぷ&...
February 27, 2013, 10:13 AM 1550d N/A 1 http://www.google.co.jp/url?sa=t&rct=j&q=&esrc=s&so...
February 27, 2013, 8:25 AM 1550d N/A 1 http://map.windows-keitai.com/WiMAX/UQ/area.html?encode_hint=ぷ&...
February 27, 2013, 6:21 AM 1550d February 27, 2013, 6:20 AM 1550d 2 http://hoken-minaoshi-soudan.com
February 27, 2013, 12:47 AM 1551d February 27, 2013, 12:43 AM 1551d 2 http://t-01a.windows-keitai.com/?T-01A/動画でみる/YouTube の HD 動...
February 27, 2013, 12:16 AM 1551d February 21, 2013, 9:01 PM 1556d 158 http://search.speedfox.me
February 26, 2013, 10:52 PM 1551d N/A 1 http://map.windows-keitai.com/WiMAX/UQ/?UQ WiMAX/よくある質問/請求...
February 26, 2013, 10:23 AM 1551d N/A 1 http://www.baidu.com/s?wd=HTCTOUCHPROHT-01A・ノ・ウ・礬TCE30HTauKDDI-Win...
February 26, 2013, 9:49 AM 1551d N/A 1 http://www.baidu.com/s?wd=ht-01a&rsv_bp=0&rsv_spt=3&rsv...
February 26, 2013, 1:03 AM 1552d November 6, 2011, 10:35 AM 2029d 42 http://soft.wince.ne.jp/
February 25, 2013, 11:49 PM 1552d February 25, 2013, 11:47 PM 1552d 2 http://fntmsr1975.xsrv.jp/mslabo/msrshop/「納豆」イマコレ!-689.html
February 25, 2013, 8:53 PM 1552d N/A 1 http://map.windows-keitai.com/WiMAX/UQ/area.html?encode_hint=ぷ&...
February 25, 2013, 7:34 PM 1552d N/A 1 http://www.baidu.com/s?wd=ht-01a
February 25, 2013, 4:19 PM 1552d N/A 1 http://www.bing.com/search?q=HT+I+12+au&qs=n&form=QBRE&...
February 25, 2013, 2:01 PM 1552d N/A 1 http://map.windows-keitai.com/WiMAX/UQ/area.html?encode_hint=ぷ&...
February 25, 2013, 10:36 AM 1552d N/A 1 http://t-01a.windows-keitai.com/?T-01A/よくある質問/通信
February 25, 2013, 9:55 AM 1552d N/A 1 http://www.baidu.com/s?ie=utf-8&f=8&rsv_bp=1&rsv_spt=3&...
February 25, 2013, 12:06 AM 1553d February 24, 2013, 12:55 PM 1553d 5 http://www.danseiseikatsu.com/household-appliance-6/household-appli...
February 24, 2013, 9:31 PM 1553d December 16, 2011, 11:28 AM 1989d 2 http://emonster.windows-keitai.com/?EMONSTER/スペック
February 24, 2013, 9:08 PM 1553d N/A 1 http://www.baidu.com/s?wd=ht-01a_HTC TOUCH PRO HT-01A ドコモ HTC E3...
February 24, 2013, 9:01 PM 1553d N/A 1 http://cgi.search.biglobe.ne.jp/cgi-bin/search2-b?search=検索&w...
February 24, 2013, 7:14 PM 1553d N/A 1 http://www.baidu.com/s?wd=HT-01A&rsv_spt=1&issp=1&rsv_b...
February 24, 2013, 3:37 PM 1553d N/A 1 http://map.windows-keitai.com/emobile/map.html?encode_hint=ぷ&e...
February 24, 2013, 12:15 PM 1553d N/A 1 http://touch-pro.windows-keitai.com/?Touch Pro E30HT/購入特集/07 オ...
February 24, 2013, 12:14 PM 1553d N/A 1 http://www.google.co.jp/url?sa=t&rct=j&q=ht-01a 周辺機器&a...
February 24, 2013, 8:04 AM 1553d N/A 1 http://map.windows-keitai.com/emobile/map.html?encode_hint=ぷ&e...
February 24, 2013, 3:05 AM 1554d N/A 1 http://windows-keitai.com/?よくある質問/裏技
February 23, 2013, 9:38 PM 1554d N/A 1 http://map.windows-keitai.com/WiMAX/UQ/area.html?encode_hint=ぷ&...
February 23, 2013, 7:26 PM 1554d N/A 1 http://x02ht.windows-keitai.com/?よくある質問/ソフトウェア
February 23, 2013, 12:03 PM 1554d N/A 1 http://www.baidu.com/s?ie=utf-8&f=8&rsv_bp=1&rsv_spt=3&...
February 23, 2013, 9:21 AM 1554d N/A 1 http://is02.windows-keitai.com/?IS02/ここが知りたい/価格
February 23, 2013, 2:18 AM 1555d N/A 1 http://www29.atwiki.jp/j/touch-pro.windows-keitai.com/
February 22, 2013, 8:41 PM 1555d N/A 1 http://www.google.com/search?client=ms-opera-mini&channel=new&a...
February 21, 2013, 3:42 PM 1556d November 8, 2011, 1:26 PM 2027d 7 http://windows-keitai.com/?解約について/ソフトバンクモバイル
February 20, 2013, 4:54 PM 1557d December 7, 2011, 1:37 PM 1998d 3 http://map.windows-keitai.com/WiMAX/UQ/?UQ WiMAX/エリア地図 - 2009...
February 17, 2013, 4:54 PM 1560d December 6, 2011, 6:15 AM 2000d 3 http://www.wince.ne.jp/snap/ceSnapView.asp?PID=253
February 17, 2013, 3:59 PM 1560d November 17, 2011, 10:16 AM 2018d 8 http://www.wince.ne.jp/snap/cnBoard.asp?PID=1043
February 17, 2013, 11:24 AM 1560d November 16, 2011, 2:28 PM 2019d 29 http://windows-keitai.com/?Office Mobile/Excel
February 12, 2013, 7:29 PM 1565d November 15, 2011, 1:09 PM 2020d 16 http://map.windows-keitai.com/emobile/map.html?lat=35.5809&lng=...
February 12, 2013, 6:32 PM 1565d November 7, 2011, 2:35 PM 2028d 5 http://map.windows-keitai.com/WiMAX/UQ/?UQ WiMAX/端末/WiMAX 搭載 PC...
February 10, 2013, 2:08 AM 1568d November 5, 2011, 9:33 PM 2030d 16 http://soft.wince.ne.jp/soft/
February 5, 2013, 2:42 PM 1572d November 16, 2011, 2:06 PM 2019d 38 http://tsukuru.sblo.jp/
February 4, 2013, 5:59 AM 1574d November 8, 2011, 5:04 PM 2027d 6 http://map.windows-keitai.com/WiMAX/UQ/area.html?encode_hint=ぷ&...
February 2, 2013, 8:16 PM 1575d November 20, 2011, 8:04 PM 2015d 12 http://www.bing.com/search?q=file+extension+pim+docomo&FORM=QSRE2
February 1, 2013, 11:32 PM 1576d December 11, 2011, 6:23 PM 1994d 3 http://www.wince.ne.jp/snap/cnBoard.asp?PID=2335
January 30, 2013, 6:20 PM 1578d December 3, 2011, 10:23 AM 2002d 11 http://map.windows-keitai.com/emobile/map.html?lat=34.225358&ln...
January 24, 2013, 12:59 AM 1585d November 6, 2011, 6:39 AM 2029d 11 http://map.windows-keitai.com/emobile/map.html?lat=33.88652&lng...
January 22, 2013, 11:41 PM 1586d November 30, 2011, 1:09 PM 2005d 5 http://is12t.windows-keitai.com/?IS12T/写真でみる IS12T/07 マゼンダ...
January 19, 2013, 10:21 PM 1589d November 19, 2011, 6:24 PM 2016d 6 http://www.bing.com/search?q=HT-01A+&src=IE-SearchBox&FORM=...
January 18, 2013, 3:56 PM 1590d November 25, 2011, 11:21 AM 2010d 24 http://ht-03a.windows-keitai.com/?HT-03A/よくある質問/テザリング
January 18, 2013, 12:05 AM 1591d December 11, 2011, 3:48 AM 1995d 11 http://x02ht.windows-keitai.com/
January 13, 2013, 11:00 AM 1595d November 11, 2011, 10:51 PM 2024d 13 http://map.windows-keitai.com/emobile/map.html?lat=35.170694&ln...
January 12, 2013, 6:35 PM 1596d November 27, 2011, 7:31 PM 2008d 4 http://t-01a.windows-keitai.com/?T-01A/レビュー/07 電話帳コピーツール
January 11, 2013, 11:47 PM 1597d November 25, 2011, 6:29 AM 2010d 10 http://map.windows-keitai.com/emobile/map.html?lat=35.6671986&l...
January 6, 2013, 3:25 PM 1602d November 21, 2011, 9:34 AM 2014d 4 http://s01sh.windows-keitai.com/?よくある質問/ハードウェア
January 1, 2013, 12:24 AM 1608d November 10, 2011, 8:45 PM 2025d 2 http://www.wince.ne.jp/snap/cnBoard.asp?PID=2765
December 31, 2012, 11:45 PM 1608d December 12, 2011, 11:45 PM 1993d 6 http://windows-keitai.com/?よくある質問/Windows Mobile 6
December 31, 2012, 12:07 PM 1608d November 8, 2011, 12:36 AM 2028d 24 http://www.bing.com/search?q=file+extension+pim+docomo&FORM=R5FD1
December 20, 2012, 11:45 PM 1619d November 15, 2011, 11:46 PM 2020d 9 http://t-01a.windows-keitai.com/?T-01A/詳細/Windows Mobile 6.5への...
December 20, 2012, 10:36 PM 1619d November 13, 2011, 8:49 PM 2022d 21 http://t-01a.windows-keitai.com/?T-01A/購入レビュー/25 T-01A の iPh...
December 20, 2012, 9:55 PM 1619d November 7, 2011, 9:48 AM 2028d 12 http://is12t.windows-keitai.com/?IS12T/スペック表
December 11, 2012, 11:22 PM 1628d November 19, 2011, 9:05 PM 2016d 4 http://map.windows-keitai.com/emobile/map.html?lat=34.985705&ln...
December 4, 2012, 10:04 PM 1635d December 29, 2011, 3:33 PM 1976d 3 http://t-01a.windows-keitai.com/?T-01A/購入レビュー/32 OS を Window...
November 29, 2012, 10:29 PM 1640d November 23, 2011, 6:24 AM 2012d 8 http://w-zero3.windows-keitai.com/?動作確認/ソフトウェア
November 28, 2012, 11:47 PM 1641d November 6, 2011, 7:59 PM 2029d 8 http://windows-keitai.com/?Windows Media Player Mobile
November 25, 2012, 11:55 PM 1644d December 3, 2011, 12:29 AM 2003d 5 http://windows-keitai.com/?ニュース/2009.09.23 Google Sync の Gmail...
November 17, 2012, 2:17 PM 1652d December 20, 2011, 10:43 PM 1985d 18 http://map.windows-keitai.com/WiMAX/UQ/area.html?lat=34.910003&...
November 16, 2012, 7:53 PM 1653d December 14, 2011, 5:13 PM 1991d 2 http://t-01a.windows-keitai.com/?T-01A/詳細/発売日
November 6, 2012, 10:54 PM 1663d December 13, 2011, 4:17 PM 1992d 2 http://www.wince.ne.jp/snap/ceSnapView.asp?PID=1694
November 4, 2012, 12:12 PM 1665d November 5, 2011, 6:36 PM 2030d 5 http://map.windows-keitai.com/WiMAX/UQ/?Comments/UQ WiMAX/コメント
November 3, 2012, 8:23 AM 1666d December 1, 2011, 1:07 PM 2004d 7 http://windows-keitai.com/?Outlook Mobile
November 2, 2012, 11:10 PM 1667d November 16, 2011, 3:36 PM 2019d 4 http://wiki.wince.ne.jp/W-ZERO3es/?ウィルコム公式サイト
October 28, 2012, 7:08 PM 1672d December 7, 2011, 12:04 PM 1998d 7 http://wiki.wince.ne.jp/W-ZERO3es/?ハード関連
October 26, 2012, 4:33 PM 1674d November 10, 2011, 10:19 AM 2025d 11 http://windows-keitai.com/?Windows Phone/Windows Phone 7 Mango/よく...
October 26, 2012, 2:38 PM 1674d December 29, 2011, 1:36 PM 1976d 3 http://windows-keitai.com/?ニュース/2009.03.17 au「E30HT」の提供条...
October 23, 2012, 10:32 AM 1677d November 23, 2011, 7:07 PM 2012d 3 http://windows-keitai.com/?機種一覧
October 22, 2012, 4:40 PM 1678d December 15, 2011, 12:27 AM 1991d 3 http://ht-02a.windows-keitai.com/?Touch Diamond HT-02A/購入特集/04 ...
October 19, 2012, 4:51 PM 1681d November 6, 2011, 1:18 PM 2029d 7 http://map.windows-keitai.com/xgp/willcom/area.html?lat=35.681391&a...
October 18, 2012, 8:04 PM 1682d November 30, 2011, 1:27 PM 2005d 5 http://soft.wince.ne.jp/soft/Detail/iPhoneToday/PID4388/
October 15, 2012, 10:42 AM 1685d November 12, 2011, 11:24 PM 2023d 9 http://ht1100.windows-keitai.com/?スペック
October 13, 2012, 4:54 AM 1688d December 19, 2011, 5:41 AM 1987d 10 http://w-zero3.windows-keitai.com/?よくある質問/ハードウェア
October 7, 2012, 4:23 PM 1693d November 26, 2011, 4:00 AM 2010d 12 http://map.windows-keitai.com/emobile/map.html?lat=35.681391&ln...
October 5, 2012, 9:53 PM 1695d December 13, 2011, 1:39 AM 1993d 2 http://soft.wince.ne.jp/soft/CommentView/PID4482/
October 2, 2012, 3:17 PM 1698d November 6, 2011, 12:25 AM 2030d 14 http://is12t.windows-keitai.com/?IS12T/購入レビュー/10 Peopleハブを...
October 2, 2012, 9:20 AM 1698d November 22, 2011, 2:15 PM 2013d 3 http://emonster.windows-keitai.com/?よくある質問/通信(裏ワザ)
September 29, 2012, 4:41 PM 1701d November 12, 2011, 10:03 PM 2023d 2 http://map.windows-keitai.com/emobile/map.html?encode_hint=ぷ&e...
September 19, 2012, 7:31 PM 1711d December 14, 2011, 9:56 PM 1991d 4 http://f1100.windows-keitai.com/?F1100
September 15, 2012, 4:09 PM 1715d November 7, 2011, 9:57 PM 2028d 7 http://soft.wince.ne.jp/soft/Detail/PID4299/
September 11, 2012, 7:32 PM 1719d December 16, 2011, 10:28 PM 1989d 2 http://map.windows-keitai.com/WiMAX/UQ/area.html?encode_hint=ぷ&...
September 9, 2012, 8:47 PM 1721d December 26, 2011, 3:49 PM 1979d 3 http://x01t.windows-keitai.com/?よくある質問/ハードウェア
September 7, 2012, 8:15 PM 1723d November 5, 2011, 7:57 PM 2030d 10 http://t-01a.windows-keitai.com/?T-01A/よくある質問/ハードウェア
September 4, 2012, 8:46 PM 1726d November 5, 2011, 9:45 PM 2030d 3 http://x02t.windows-keitai.com/?X02T/購入レビュー/10 プログラム 画...
September 4, 2012, 2:15 PM 1726d November 25, 2011, 4:25 PM 2010d 9 http://ht-03a.windows-keitai.com/?HT-03A
September 1, 2012, 5:23 PM 1729d December 2, 2011, 9:26 AM 2003d 5 http://htcz.windows-keitai.com/?よくある質問/電話編
August 28, 2012, 6:24 AM 1733d December 10, 2011, 6:46 PM 1995d 3 http://dual-diamond.windows-keitai.com/?Dual Diamond
August 25, 2012, 9:18 PM 1736d December 27, 2011, 8:12 AM 1978d 2 http://iphone.windows-keitai.com/?購入特集/11.所有コスト値下げ
August 25, 2012, 3:34 PM 1736d December 24, 2011, 12:53 AM 1982d 2 http://x01sc.windows-keitai.com/?X01SC/購入レビュー/03 購入
August 22, 2012, 6:25 PM 1739d November 16, 2011, 11:16 AM 2019d 2 http://www.bing.com/search?q=windows+携帯+au&FORM=QSRE1
August 21, 2012, 6:53 PM 1740d December 14, 2011, 4:28 PM 1991d 2 http://map.windows-keitai.com/WiMAX/UQ/area.html?encode_hint=ぷ&...
August 13, 2012, 6:07 PM 1748d November 17, 2011, 5:49 PM 2018d 2 http://htcz.windows-keitai.com/?リンク集
August 8, 2012, 12:32 PM 1753d November 26, 2011, 10:32 AM 2009d 12 http://windows-keitai.com/?Windows Phone/Windows Mobile 6
August 4, 2012, 1:13 AM 1758d December 16, 2011, 5:13 PM 1989d 3 http://t-01a.windows-keitai.com/?T-01A/購入レビュー/23 T-01A で使え...
August 2, 2012, 5:43 PM 1759d November 17, 2011, 2:47 PM 2018d 5 http://www.wince.ne.jp/Dev/
July 30, 2012, 12:57 PM 1762d November 21, 2011, 4:43 AM 2015d 3 http://sc-01b.windows-keitai.com/?SC-01B/購入レビュー/15 周辺機器
July 30, 2012, 12:05 PM 1762d December 19, 2011, 9:34 PM 1986d 5 http://map.windows-keitai.com/WiMAX/UQ/area.html?encode_hint=ぷ&...
July 27, 2012, 10:03 PM 1765d December 25, 2011, 2:34 AM 1981d 3 http://ht-02a.windows-keitai.com/?Touch Diamond HT-02A/購入特集/06 ...
July 24, 2012, 2:49 PM 1768d November 7, 2011, 2:58 AM 2029d 6 http://map.windows-keitai.com/emobile/map.html?lat=35.3388&lng=...
July 19, 2012, 9:41 AM 1773d December 29, 2011, 12:40 PM 1976d 3 http://www.google.co.jp/search?hl=ja&gl=jp&client=ms-androi...
July 15, 2012, 5:35 PM 1777d November 23, 2011, 4:03 PM 2012d 2 http://www.wince.ne.jp/snap/ceSnapView.asp?PID=134
July 13, 2012, 2:33 PM 1779d November 5, 2011, 12:34 AM 2031d 18 http://iphone.windows-keitai.com/?よくある質問/基本操作
July 9, 2012, 1:39 AM 1784d December 20, 2011, 9:00 PM 1985d 6 http://is02.windows-keitai.com/?IS02/よくある質問/ソフトウェア
July 3, 2012, 5:31 PM 1789d December 20, 2011, 9:18 PM 1985d 4 http://touch-diamond.windows-keitai.com/?よくある質問/ハードウェア
July 1, 2012, 6:44 PM 1791d December 5, 2011, 10:43 AM 2000d 3 http://map.windows-keitai.com/WiMAX/UQ/?UQ WiMAX
July 1, 2012, 6:22 PM 1791d November 6, 2011, 4:16 PM 2029d 35 http://windows-keitai.com/?NTT docomo/spモード/よくある質問/docomo....
July 1, 2012, 1:37 AM 1792d December 28, 2011, 11:34 PM 1977d 2 http://is02.windows-keitai.com/?IS02/購入レビュー/21 IS02 毎月8円の...
June 29, 2012, 2:20 PM 1793d December 17, 2011, 5:23 PM 1988d 2 http://map.windows-keitai.com/WiMAX/UQ/area.html?lat=34.722003&...
June 27, 2012, 8:56 PM 1795d December 21, 2011, 11:58 PM 1984d 4 http://x02t.windows-keitai.com/?X02T/購入レビュー/10 プログラム 画...
June 22, 2012, 10:42 AM 1800d December 6, 2011, 11:36 PM 1999d 3 http://map.windows-keitai.com/WiMAX/UQ/area.html?encode_hint=ぷ&...
June 18, 2012, 2:02 PM 1804d November 20, 2011, 10:04 PM 2015d 4 http://03-willcom.windows-keitai.com/?よくある質問/電話機能
June 16, 2012, 9:42 AM 1806d November 6, 2011, 11:26 PM 2029d 5 http://windows-keitai.com/?よくある質問/ActiveSync関連
June 15, 2012, 11:35 AM 1807d December 14, 2011, 12:37 PM 1991d 5 http://windows-keitai.com/?スペック/Touch Diamond 比較
June 14, 2012, 10:37 PM 1808d November 10, 2011, 4:38 PM 2025d 6 http://wiki.wince.ne.jp/W-ZERO3es/?裏技ソフト関連
June 7, 2012, 11:05 PM 1815d December 13, 2011, 1:08 AM 1993d 6 http://is12t.windows-keitai.com/?IS12T/価格
June 3, 2012, 9:14 PM 1819d December 25, 2011, 8:41 PM 1980d 3 http://soft.wince.ne.jp/soft/Detail/KeyHole TV/PID4299/
June 2, 2012, 5:39 PM 1820d December 18, 2011, 9:20 AM 1987d 3 http://windows-keitai.com/?ヘッドセット/ よくある質問
May 19, 2012, 1:41 PM 1834d November 7, 2011, 11:45 PM 2028d 3 http://map.windows-keitai.com/emobile/map.html?encode_hint=ぷ&e...
May 18, 2012, 11:02 PM 1835d November 9, 2011, 12:28 PM 2026d 2 http://ht-03a.windows-keitai.com/?HT-03A/写真で見る/本体
May 13, 2012, 8:26 PM 1840d November 28, 2011, 12:20 AM 2008d 2 http://windows-keitai.com/?ニュース/2010.05.05 NTT docomo版 iPhone
May 10, 2012, 8:31 AM 1843d November 23, 2011, 12:53 AM 2013d 4 http://map.windows-keitai.com/WiMAX/UQ/?UQ WiMAX/WiMAXとは
May 9, 2012, 5:20 PM 1844d November 21, 2011, 10:28 AM 2014d 3 http://windows-keitai.com/?ニュース/2010.06.10 Windows Phone が iPh...
May 9, 2012, 10:18 AM 1844d November 30, 2011, 9:35 PM 2005d 2 http://ht-03a.windows-keitai.com/?HT-03A/よくある質問/iモード
May 8, 2012, 11:55 PM 1845d December 27, 2011, 5:36 PM 1978d 3 http://soft.wince.ne.jp/soft/Detail/PID4278/
May 5, 2012, 1:12 PM 1848d December 20, 2011, 7:30 AM 1985d 2 http://www.wince.ne.jp/snap/cnBoard.asp?PID=314
May 3, 2012, 3:38 AM 1851d December 9, 2011, 8:31 AM 1996d 3 http://ht-03a.windows-keitai.com/?HT-03A/よくある質問
April 30, 2012, 9:24 AM 1853d November 29, 2011, 10:53 PM 2006d 5 http://wiki.wince.ne.jp/W-ZERO3es/?FrontPage
April 29, 2012, 10:10 AM 1854d November 26, 2011, 10:04 PM 2009d 2 http://t-01a.windows-keitai.com/?T-01A/購入レビュー
April 19, 2012, 11:57 AM 1864d December 11, 2011, 5:18 PM 1994d 2 http://ht-03a.windows-keitai.com/?HTC Magic/購入特集/03 本体 比較 ...
April 17, 2012, 9:19 PM 1866d November 20, 2011, 8:50 PM 2015d 2 http://x04ht.windows-keitai.com/?X04HT/購入特集/08 画面(TouchFLO ...
April 13, 2012, 11:03 AM 1870d November 24, 2011, 12:36 PM 2011d 11 http://windows-keitai.com/?スペック/ソフトバンクモバイル 比較
April 11, 2012, 11:30 AM 1872d December 28, 2011, 2:15 AM 1978d 2 http://map.windows-keitai.com/WiMAX/UQ/area.html?lat=34.822003
April 10, 2012, 6:43 PM 1873d November 28, 2011, 5:20 PM 2007d 2 http://www.wince.ne.jp/snap/ceSnapView.asp?PID=1313
April 10, 2012, 5:44 PM 1873d December 8, 2011, 11:27 PM 1997d 5 http://t-01a.windows-keitai.com/?T-01A/購入レビュー/37 実売1円にな...
April 10, 2012, 12:45 PM 1873d December 21, 2011, 7:29 PM 1984d 2 http://t-01b.windows-keitai.com/?T-01B/購入レビュー/12 Bluetooth
April 9, 2012, 10:15 PM 1874d December 29, 2011, 8:57 AM 1976d 2 http://soft.wince.ne.jp/soft/Lists/?CM=1
April 5, 2012, 5:33 PM 1878d December 3, 2011, 9:09 PM 2002d 2 http://www.wince.ne.jp/snap/ceSnapView.asp?PID=1624
March 30, 2012, 4:55 AM 1885d November 5, 2011, 11:38 PM 2030d 3 http://soft.wince.ne.jp/soft/Lists/?P=100&R=20
March 28, 2012, 4:16 PM 1886d December 30, 2011, 4:35 PM 1975d 2 http://t-01a.windows-keitai.com/?T-01A/よくある質問
March 27, 2012, 8:43 PM 1887d November 11, 2011, 5:27 PM 2024d 9 http://iphone.windows-keitai.com/
March 27, 2012, 3:29 AM 1888d December 14, 2011, 8:19 AM 1991d 2 http://windows-keitai.com/?ニュース/2009.09.14 ドコモから Windows M...
March 24, 2012, 10:27 PM 1890d November 18, 2011, 9:16 PM 2017d 2 http://map.windows-keitai.com/WiMAX/UQ/area.html?encode_hint=ぷ&...
March 23, 2012, 4:15 AM 1892d December 16, 2011, 11:02 PM 1989d 2 http://is02.windows-keitai.com/?IS02/よくある質問/料金プラン
March 19, 2012, 12:35 PM 1895d December 4, 2011, 11:34 AM 2001d 4 http://is02.windows-keitai.com/?T-01B vs IS02/01 端末価格と月額利用...
March 15, 2012, 11:44 AM 1899d November 14, 2011, 1:14 PM 2021d 2 http://windows-keitai.com/?wpjp/アンケート/02 赤外線機能はどの程度...
March 15, 2012, 3:09 AM 1900d December 23, 2011, 1:02 PM 1982d 2 http://www.wince.ne.jp/snap/cnBoard.asp?PID=2679
March 11, 2012, 8:27 PM 1903d November 25, 2011, 1:39 PM 2010d 2 http://windows-keitai.com/?ポメラ/DM20/購入レビュー/02 プレミアム・...
March 11, 2012, 7:17 PM 1903d November 10, 2011, 11:29 AM 2025d 7 http://t-01a.windows-keitai.com/?T-01A
March 9, 2012, 1:40 PM 1905d December 23, 2011, 8:56 PM 1982d 2 http://x05ht.windows-keitai.com/?X05HT/スペック表
March 7, 2012, 7:56 PM 1907d December 3, 2011, 8:36 PM 2002d 4 http://soft.wince.ne.jp/soft/Lists/?P=40&CM=15&R=20
March 7, 2012, 7:50 PM 1907d December 1, 2011, 4:14 PM 2004d 3 http://x05ht.windows-keitai.com/?X05HT/X05HTに関する価格.comの口コミ
February 29, 2012, 8:41 AM 1914d December 26, 2011, 4:15 PM 1979d 2 http://www.wince.ne.jp/snap/cnBoard.asp?PID=2295
February 27, 2012, 11:25 AM 1916d December 3, 2011, 5:13 PM 2002d 2 http://map.windows-keitai.com/emobile/map.html?encode_hint=ぷ&e...
February 22, 2012, 2:26 PM 1921d December 19, 2011, 10:48 AM 1986d 3 http://wiki.wince.ne.jp/W-ZERO3es/?Skype for Pocket PC
February 22, 2012, 10:35 AM 1921d December 20, 2011, 8:54 PM 1985d 2 http://soft.wince.ne.jp/soft/Detail/Elecont Weather Clock and Barom...
February 19, 2012, 1:04 AM 1925d December 16, 2011, 1:27 PM 1989d 2 http://ht-03a.windows-keitai.com/?HT-03A/よくある質問/デザリング
February 18, 2012, 9:36 PM 1925d December 30, 2011, 1:37 AM 1976d 4 http://easy-cashing.org/rakuten/
February 18, 2012, 9:00 PM 1925d December 22, 2011, 3:36 PM 1983d 2 http://windows-keitai.com/?よくある質問/アクセサリ関連
February 14, 2012, 11:29 PM 1929d November 30, 2011, 12:37 PM 2005d 10 http://www.box.net/shared/h6bflrm4gj
February 13, 2012, 2:52 AM 1931d November 12, 2011, 9:11 PM 2023d 3 http://f1100.windows-keitai.com/?F1100/出来ること 出来ないこと/出来...
February 9, 2012, 7:12 PM 1934d December 29, 2011, 3:30 PM 1976d 6 http://www.topauboots.com/
February 6, 2012, 11:38 AM 1937d November 11, 2011, 3:19 PM 2024d 5 http://ht-03a.windows-keitai.com/?HT-03A/詳細/メーカーパンフレット
February 6, 2012, 9:47 AM 1937d November 21, 2011, 8:20 PM 2014d 2 http://windows-keitai.com/?Office Mobile/入門
February 5, 2012, 7:56 AM 1938d December 29, 2011, 7:06 PM 1976d 10 http://www.hacktackul.us/derenzipaydayloans/blog
January 31, 2012, 3:31 PM 1943d December 6, 2011, 10:00 PM 1999d 3 http://soft.wince.ne.jp/soft/Rank/?P=60&R=20
January 29, 2012, 7:46 PM 1945d November 15, 2011, 9:27 AM 2020d 5 http://soft.wince.ne.jp/soft/Lists/?CM=3
January 27, 2012, 1:50 PM 1947d November 11, 2011, 8:43 PM 2024d 5 http://PoGosh.com
January 25, 2012, 9:03 AM 1949d November 14, 2011, 7:52 PM 2021d 4 http://w-zero3.windows-keitai.com/?スペック表
January 23, 2012, 12:54 PM 1951d November 7, 2011, 11:40 PM 2028d 3 http://wiki.wince.ne.jp/W-ZERO3es/?トラブル
January 22, 2012, 1:42 PM 1952d November 23, 2011, 10:55 AM 2012d 2 http://windows-keitai.com/?よくある質問/電話機能
January 21, 2012, 5:26 PM 1953d December 14, 2011, 2:00 PM 1991d 2 http://ht-03a.windows-keitai.com/?HT-03A/詳細/Android 1.5
January 20, 2012, 9:44 PM 1954d December 28, 2011, 12:33 AM 1978d 2 http://www.wince.ne.jp/backnumber/
January 20, 2012, 11:46 AM 1954d December 8, 2011, 12:57 AM 1998d 4 http://windows-keitai.com/?Office Mobile
January 15, 2012, 6:11 AM 1960d December 27, 2011, 11:51 PM 1978d 7 http://www.hionsale.com
January 14, 2012, 11:47 PM 1960d November 5, 2011, 6:49 PM 2030d 2 http://soft.wince.ne.jp/soft/Lists/?CM=15
January 12, 2012, 11:04 PM 1962d December 28, 2011, 10:26 PM 1977d 7 http://windows-keitai.com/kanda2012/
January 7, 2012, 7:52 PM 1967d November 9, 2011, 10:11 PM 2026d 8 http://akb38.com/rem
January 7, 2012, 7:17 AM 1967d December 29, 2011, 9:29 PM 1976d 4 http://black-ok.net/rakuten/
January 6, 2012, 8:44 PM 1968d December 29, 2011, 8:44 PM 1976d 4 http://com2net.biz/rakuten/
January 6, 2012, 3:21 PM 1968d December 30, 2011, 12:59 AM 1976d 4 http://easy-cashing.org/raku-ry0/
January 4, 2012, 7:50 PM 1970d December 28, 2011, 11:32 PM 1977d 20 http://www.facebook.com/notes/flexspyspy/mobile-spy-software-flexis...
January 4, 2012, 7:30 PM 1970d December 27, 2011, 12:56 PM 1978d 215 http://www.facebook.com/notes/blackberry/cell-spyware-blackberry-sp...
January 4, 2012, 2:48 PM 1970d December 28, 2011, 9:48 PM 1977d 20 http://www.facebook.com/notes/flexspyspy/mobile-phone-spy-easily-sp...
January 4, 2012, 9:51 AM 1970d December 28, 2011, 7:21 PM 1977d 20 http://www.facebook.com/notes/flexispy-iphone/cell-phone-spyware-ho...
January 4, 2012, 4:59 AM 1971d December 28, 2011, 4:24 PM 1977d 19 http://www.facebook.com/notes/flexispy-blackberry/cell-spy-now-flex...
January 4, 2012, 12:12 AM 1971d December 28, 2011, 1:37 PM 1977d 20 http://www.facebook.com/notes/flex-ispy/mobile-spy-software-flexisp...
January 3, 2012, 7:31 PM 1971d December 28, 2011, 10:41 AM 1977d 20 http://www.facebook.com/notes/flex-ispy/mobile-spy-monitor-sms-text...
January 3, 2012, 2:56 PM 1971d December 28, 2011, 8:35 AM 1977d 20 http://www.facebook.com/notes/emotional-affair/top-cell-phone-spy-s...
January 3, 2012, 10:25 AM 1971d December 28, 2011, 6:42 AM 1977d 20 http://www.facebook.com/notes/emotional-affair/mobile-spy-software-...
January 3, 2012, 6:00 AM 1972d December 28, 2011, 4:41 AM 1978d 20 http://www.facebook.com/notes/cheat-spouse/mobile-phone-spy-easily-...
January 3, 2012, 1:40 AM 1972d December 28, 2011, 2:32 AM 1978d 20 http://www.facebook.com/notes/cheat-spouse/the-leading-cell-phone-s...
January 2, 2012, 9:26 PM 1972d December 28, 2011, 12:29 AM 1978d 19 http://www.facebook.com/notes/cheat-spouse/phone-spyware-2011-best-...
January 2, 2012, 5:17 PM 1972d December 27, 2011, 10:12 PM 1978d 20 http://www.facebook.com/notes/cheating-wife/phone-spyware-2011-best...
January 2, 2012, 9:15 AM 1972d December 27, 2011, 6:18 PM 1978d 19 http://www.facebook.com/notes/cheating-wife/top-cell-phone-spy-soft...
January 2, 2012, 5:22 AM 1973d December 27, 2011, 4:21 PM 1978d 20 http://www.facebook.com/notes/cheating-spouse/top-cell-phone-spy-so...
January 2, 2012, 1:34 AM 1973d December 27, 2011, 2:37 PM 1978d 20 http://www.facebook.com/notes/cheating-spouse/spy-mobile-phone-soft...
January 1, 2012, 9:52 PM 1973d December 27, 2011, 12:54 PM 1978d 20 http://www.facebook.com/notes/cheating-spouse/spy-mobile-phone-puni...
January 1, 2012, 6:15 PM 1973d December 27, 2011, 11:19 AM 1978d 20 http://www.facebook.com/notes/cheating-spouse/cell-phone-spywarebes...
January 1, 2012, 2:44 PM 1973d December 27, 2011, 9:49 AM 1978d 20 http://www.facebook.com/notes/cheating-spouse/cell-spy-now-the-lead...
January 1, 2012, 11:19 AM 1973d December 27, 2011, 8:20 AM 1978d 20 http://www.facebook.com/notes/cheating-husband/mobile-spy-software-...
January 1, 2012, 7:59 AM 1973d December 27, 2011, 6:51 AM 1978d 20 http://www.facebook.com/notes/cheating-husband/mobile-spy-mobile-tr...
January 1, 2012, 12:39 AM 1974d November 24, 2011, 10:18 PM 2011d 4 http://forum.xda-developers.com/showthread.php?t=440834
December 31, 2011, 1:30 AM 1975d December 25, 2011, 10:36 AM 1980d 20 http://www.facebook.com/notes/cheap-alprazolam/buy-alprazolam-onlin...
December 30, 2011, 8:38 PM 1975d December 25, 2011, 9:43 AM 1980d 19 http://www.facebook.com/notes/cheap-aleram/cheap-aleram-online-chea...
December 30, 2011, 8:01 PM 1975d December 30, 2011, 7:38 PM 1975d 10 http://www.facebook.com/notes/amoxil-mg/cheapest-amoxil-fda-approve...
December 30, 2011, 7:47 PM 1975d N/A 1 http://sof
December 30, 2011, 7:22 PM 1975d December 30, 2011, 6:56 PM 1975d 10 http://www.facebook.com/notes/buy-cytotec/buy-cytotec-no-prescripti...
December 30, 2011, 7:06 PM 1975d December 29, 2011, 5:14 PM 1976d 40 http://www.facebook.com/notes/buy-phentermine/buy-phentermine-onlin...
December 30, 2011, 7:05 PM 1975d December 30, 2011, 6:43 PM 1975d 10 http://www.facebook.com/notes/cellphone-spyware/how-to-spy-on-a-cel...
December 30, 2011, 6:13 PM 1975d December 30, 2011, 5:52 PM 1975d 10 http://www.facebook.com/notes/mobile-phone-sms/spy-mobile-phone-sof...
December 30, 2011, 6:11 PM 1975d December 25, 2011, 8:51 AM 1980d 20 http://www.facebook.com/notes/cheap-albego/cheapest-albego-online-d...
December 30, 2011, 5:56 PM 1975d December 30, 2011, 5:34 PM 1975d 10 http://www.facebook.com/notes/amoxil-mg/buy-amoxil-no-prescription-...
December 30, 2011, 5:05 PM 1975d December 30, 2011, 4:41 PM 1975d 10 http://www.facebook.com/notes/buy-cytotec/buy-cytotec-online-uk-low...
December 30, 2011, 5:03 PM 1975d December 30, 2011, 4:41 PM 1975d 10 http://www.facebook.com/notes/cellphone-spy/spy-mobile-phone-cell-p...
December 30, 2011, 4:53 PM 1975d N/A 1 http://www.google.com/search?q=au+HTC+E30+HT&hl=ja&oq=au+HT...
December 30, 2011, 4:14 PM 1975d December 30, 2011, 3:54 PM 1975d 10 http://www.facebook.com/notes/mobile-key-logger/mobile-spy-mobile-t...
December 30, 2011, 3:56 PM 1975d December 30, 2011, 3:35 PM 1975d 9 http://www.facebook.com/notes/amitriptyline-mg/buy-amitriptyline-no...
December 30, 2011, 3:09 PM 1975d December 30, 2011, 2:48 PM 1975d 10 http://www.facebook.com/notes/cell-phone-spy-software/the-leading-c...
December 30, 2011, 2:56 PM 1975d December 30, 2011, 2:34 PM 1975d 10 http://www.facebook.com/notes/buy-coumadin/coumadin-best-offers-onl...
December 30, 2011, 2:23 PM 1975d December 30, 2011, 2:02 PM 1975d 10 http://www.facebook.com/notes/mobile-gadgets/cell-spy-now-the-leadi...
December 30, 2011, 2:01 PM 1975d December 30, 2011, 1:40 PM 1975d 10 http://www.facebook.com/notes/aldactone-mg/buy-aldactone-no-prescri...
December 30, 2011, 1:17 PM 1975d December 30, 2011, 12:56 PM 1975d 10 http://www.facebook.com/notes/cellphone-spy/spy-mobile-phone-cell-p...
December 30, 2011, 12:54 PM 1975d December 30, 2011, 12:33 PM 1975d 9 http://www.facebook.com/notes/buy-coumadin/buy-coumadin-no-prescrip...
December 30, 2011, 12:32 PM 1975d December 30, 2011, 12:10 PM 1975d 10 http://www.facebook.com/notes/spymobile/cell-phone-spywarebest-spy-...
December 30, 2011, 12:11 PM 1975d December 30, 2011, 11:51 AM 1975d 10 http://www.facebook.com/notes/albuterol-mg/albuterol-online-pharmac...
December 30, 2011, 11:25 AM 1975d December 30, 2011, 11:04 AM 1975d 10 http://www.facebook.com/notes/cellphone-spy/cell-phone-spy-software...
December 30, 2011, 10:59 AM 1975d December 30, 2011, 7:13 AM 1975d 30 http://www.facebook.com/notes/buy-clomid/clomid-online-pharmacy-onl...
December 30, 2011, 10:40 AM 1975d December 30, 2011, 10:21 AM 1975d 10 http://www.facebook.com/notes/iphone-spy/the-leading-cell-phone-spy...
December 30, 2011, 10:27 AM 1975d December 30, 2011, 10:09 AM 1975d 10 http://www.facebook.com/notes/acomplia-mg/buy-acomplia-online-onlin...
December 30, 2011, 9:37 AM 1975d December 30, 2011, 9:16 AM 1975d 10 http://www.facebook.com/notes/cellphone-spy/phone-spy-software-cell...
December 30, 2011, 8:53 AM 1975d December 30, 2011, 8:34 AM 1975d 10 http://www.facebook.com/notes/iphone-spy/how-to-spy-on-a-cell-phone...
December 30, 2011, 8:50 AM 1975d December 30, 2011, 8:32 AM 1975d 10 http://www.facebook.com/notes/accutane-mg/buy-cheap-accutane-online...
December 30, 2011, 8:34 AM 1975d December 30, 2011, 8:28 AM 1975d 2 http://www.google.co.jp/url?sa=t&rct=j&q=htc スマートフォン...
December 30, 2011, 7:53 AM 1975d December 30, 2011, 7:35 AM 1975d 10 http://www.facebook.com/notes/cellphone-spy/the-leading-cell-phone-...
December 30, 2011, 7:18 AM 1975d December 30, 2011, 7:03 AM 1975d 10 http://www.facebook.com/notes/abilify-mg/order-online-abilify-fda-a...
December 30, 2011, 7:12 AM 1975d December 30, 2011, 6:54 AM 1975d 10 http://www.facebook.com/notes/iphone-spy/the-leading-cell-phone-spy...
December 30, 2011, 6:11 AM 1976d December 30, 2011, 5:52 AM 1976d 10 http://www.facebook.com/notes/cell-phone-spy/spy-phone-spyphone-spy...
December 30, 2011, 5:56 AM 1976d December 30, 2011, 5:39 AM 1976d 9 http://www.facebook.com/notes/buy-clomid/cheapest-clomid-best-price...
December 30, 2011, 5:52 AM 1976d December 30, 2011, 5:37 AM 1976d 10 http://www.facebook.com/notes/abilify-mg/cheapest-abilify-in-uk-onl...
December 30, 2011, 5:31 AM 1976d December 30, 2011, 5:02 AM 1976d 9 http://www.facebook.com/notes/internet-monitoring/phone-spy-softwar...
December 30, 2011, 4:36 AM 1976d December 30, 2011, 4:20 AM 1976d 9 http://www.facebook.com/notes/cell-phone-spy/cell-phone-spyware-how...
December 30, 2011, 3:07 AM 1976d December 30, 2011, 2:52 AM 1976d 10 http://www.facebook.com/notes/cell-phone-spy/cell-spyware-cell-phon...
December 30, 2011, 2:44 AM 1976d December 30, 2011, 2:11 AM 1976d 10 http://www.facebook.com/notes/internet-monitoring/cell-phone-spy-mo...
December 30, 2011, 1:13 AM 1976d December 29, 2011, 10:06 AM 1976d 10 http://www.predatorsofdarkness.com/boruppaydayloans
December 30, 2011, 12:48 AM 1976d December 30, 2011, 12:20 AM 1976d 10 http://www.facebook.com/notes/cell-phone-record/best-cell-phone-spy...
December 30, 2011, 12:13 AM 1976d December 30, 2011, 12:12 AM 1976d 5 http://www.gamerandthegeek.com/lisypaydayloans
December 30, 2011, 12:03 AM 1976d N/A 1 http://image.search.yahoo.co.jp/search?ei=UTF-8&fr=tbtopie&...
December 29, 2011, 11:44 PM 1976d December 29, 2011, 11:12 PM 1976d 10 http://www.facebook.com/notes/internet-monitoring/phone-spyware-201...
December 29, 2011, 10:46 PM 1976d N/A 1 http://soft.wince.ne.jp/soft/Detail/T-01A Virtual Keyboard/PID4360/
December 29, 2011, 10:20 PM 1976d December 29, 2011, 9:54 PM 1976d 10 http://www.facebook.com/notes/cell-phone-record/cell-spy-now-cell-p...
December 29, 2011, 9:42 PM 1976d N/A 1 http://windows-keitai.com/?ニュース/2010.03.11 Google が Windows Mo...
December 29, 2011, 8:54 PM 1976d N/A 1 http://is02.windows-keitai.com/?IS02/購入レビュー
December 29, 2011, 8:51 PM 1976d December 29, 2011, 8:20 PM 1976d 10 http://www.facebook.com/notes/htc-spy/spy-phone-spyphone-spy-softwa...
December 29, 2011, 8:07 PM 1976d December 29, 2011, 6:27 AM 1976d 10 http://ahujapaydayloans.mylaredobucks.com/blog/
December 29, 2011, 7:57 PM 1976d December 29, 2011, 7:31 PM 1976d 10 http://www.facebook.com/notes/cell-phone-record/top-cell-phone-spy-...
December 29, 2011, 7:57 PM 1976d N/A 1 http://map.windows-keitai.com/emobile/map.html?encode_hint=ぷ&e...
December 29, 2011, 7:22 PM 1976d N/A 1 http://www.google.co.jp/url?sa=t&rct=j&q=ドコモ htc スマー...
December 29, 2011, 6:57 PM 1976d December 29, 2011, 12:42 PM 1976d 2 http://www.baidu.com/s?wd=htc e30ht鯉字
December 29, 2011, 6:04 PM 1976d December 29, 2011, 5:35 PM 1976d 9 http://www.facebook.com/notes/hidden-recorder/phone-spy-software-hi...
December 29, 2011, 5:45 PM 1976d N/A 1 http://map.windows-keitai.com/WiMAX/UQ/area.html?encode_hint=ぷ&...
December 29, 2011, 5:39 PM 1976d December 29, 2011, 5:14 PM 1976d 10 http://www.facebook.com/notes/cell-phone-monitoring/how-to-spy-on-a...
December 29, 2011, 5:28 PM 1976d N/A 1 http://map.windows-keitai.com/emobile/map.html?encode_hint=ぷ&e...
December 29, 2011, 3:26 PM 1976d December 29, 2011, 3:03 PM 1976d 10 http://www.facebook.com/notes/cell-phone-eavesdrop/cell-spyware-cel...
December 29, 2011, 3:24 PM 1976d December 29, 2011, 2:55 PM 1976d 9 http://www.facebook.com/notes/gsm-tracking/mobile-phone-spy-record-...
December 29, 2011, 3:16 PM 1976d December 29, 2011, 3:15 PM 1976d 5 http://www.cylonsrule.com/catenapaydayloans
December 29, 2011, 2:29 PM 1976d December 29, 2011, 2:29 PM 1976d 4 http://skogstadpaydayloans.myblazers.com/
December 29, 2011, 1:36 PM 1976d N/A 1 http://www.google.co.jp/imgres?q=Windowsケータイ&um=1&hl=ja...
December 29, 2011, 1:18 PM 1976d December 29, 2011, 12:56 PM 1976d 10 http://www.facebook.com/notes/cell-phone-detective/mobile-phone-spy...
December 29, 2011, 12:49 PM 1976d December 29, 2011, 12:22 PM 1976d 10 http://www.facebook.com/notes/gsm-tracking/spy-phone-spyphone-spy-s...
December 29, 2011, 11:13 AM 1976d December 29, 2011, 10:51 AM 1976d 10 http://www.facebook.com/notes/cell-phone-cheating/top-cell-phone-sp...
December 29, 2011, 10:57 AM 1976d N/A 1 http://www.google.co.jp/url?sa=t&rct=j&q=au+HTC+windows&...
December 29, 2011, 10:50 AM 1976d December 29, 2011, 10:50 AM 1976d 5 http://www.kminnovation.com/reyespaydayloans/blog/
December 29, 2011, 10:22 AM 1976d December 29, 2011, 9:56 AM 1976d 10 http://www.facebook.com/notes/gsm-spy-phone/spy-mobile-phone-gsm-sp...
December 29, 2011, 9:14 AM 1976d December 29, 2011, 8:53 AM 1976d 9 http://www.facebook.com/notes/catching-cheating/spy-phone-spyphone-...
December 29, 2011, 8:08 AM 1976d N/A 1 http://www.google.co.jp/url?sa=t&rct=j&q=docomo htc&...
December 29, 2011, 8:03 AM 1976d December 29, 2011, 7:38 AM 1976d 10 http://www.facebook.com/notes/flexy-spy/phone-spyware-2011-best-pho...
December 29, 2011, 7:18 AM 1976d December 29, 2011, 5:11 AM 1977d 18 http://www.facebook.com/notes/call-record/best-cell-spyware-call-re...
December 29, 2011, 6:29 AM 1976d December 29, 2011, 4:07 AM 1977d 10 http://www.facebook.com/notes/buy-paxipam/paxipam-online-pharmacy-o...
December 29, 2011, 5:46 AM 1977d December 29, 2011, 5:22 AM 1977d 10 http://www.facebook.com/notes/flexy-spy/cell-spy-now-the-leading-ce...
December 29, 2011, 5:40 AM 1977d December 29, 2011, 5:39 AM 1977d 5 http://www.chatalaska.com/varratopaydayloans
December 29, 2011, 4:00 AM 1977d N/A 1 http://soft.wince.ne.jp/soft/Detail/PID4238/
December 29, 2011, 3:43 AM 1977d December 29, 2011, 3:23 AM 1977d 10 http://www.facebook.com/notes/call-record/spy-phone-spyphone-spy-so...
December 29, 2011, 3:41 AM 1977d December 29, 2011, 3:18 AM 1977d 10 http://www.facebook.com/notes/flexy-spy/mobile-spy-software-flexisp...
December 29, 2011, 2:48 AM 1977d December 25, 2011, 7:56 AM 1980d 20 http://www.facebook.com/notes/cheap-adipex/adipex-best-offers-best-...
December 29, 2011, 1:58 AM 1977d December 29, 2011, 1:39 AM 1977d 10 http://www.facebook.com/notes/call-record/mobile-phone-spy-record-t...
December 29, 2011, 1:43 AM 1977d December 29, 2011, 1:22 AM 1977d 10 http://www.facebook.com/notes/flexspyspy/top-cell-phone-spy-softwar...
December 29, 2011, 12:18 AM 1977d December 29, 2011, 12:00 AM 1977d 10 http://www.facebook.com/notes/call-record/mobile-phone-spy-record-t...
December 28, 2011, 11:35 PM 1977d N/A 1 http://is02.windows-keitai.com/?IS02/ここが知りたい/発売日
December 28, 2011, 10:41 PM 1977d December 28, 2011, 10:23 PM 1977d 10 http://www.facebook.com/notes/call-record/phone-spy-software-call-r...
December 28, 2011, 10:27 PM 1977d November 19, 2011, 4:22 PM 2016d 2 http://w-zero3.windows-keitai.com/?Advanced W-ZERO3es/デュアルスラ...
December 28, 2011, 10:11 PM 1977d N/A 1 http://map.windows-keitai.com/emobile/map.html?encode_hint=ぷ&e...
December 28, 2011, 9:09 PM 1977d December 28, 2011, 8:38 PM 1977d 10 http://www.facebook.com/notes/call-record/spy-mobile-phone-call-rec...
December 28, 2011, 8:14 PM 1977d N/A 1 http://www.google.co.jp/url?sa=t&rct=j&q=htc+スマートフォン...
December 28, 2011, 7:55 PM 1977d N/A 1 http://search.yahoo.co.jp/search?_adv_prop=web&x=op&ei=UTF-...
December 28, 2011, 7:52 PM 1977d December 28, 2011, 6:04 PM 1977d 10 http://www.facebook.com/notes/buy-oxazepam/buy-oxazepam-no-prescrip...
December 28, 2011, 6:55 PM 1977d N/A 1 http://search.yahoo.co.jp/search?p=Au+htc+windows&search.x=1&am...
December 28, 2011, 6:14 PM 1977d December 28, 2011, 5:40 PM 1977d 10 http://www.facebook.com/notes/call-record/spy-mobile-phone-software...
December 28, 2011, 5:38 PM 1977d N/A 1 http://www.baidu.com/s?tn=sitehao123&bs=htc+e30ht鯉字縮殻&f...
December 28, 2011, 5:12 PM 1977d N/A 1 http://map.windows-keitai.com/WiMAX/UQ/area.html?lat=35.59605956928...
December 28, 2011, 5:11 PM 1977d N/A 1 http://search.yahoo.co.jp/search?p=HTC+E30HT&ei=UTF-8&fr=ap...
December 28, 2011, 4:51 PM 1977d December 25, 2011, 7:00 AM 1980d 20 http://www.facebook.com/notes/carisoprodol-mg/carisoprodol-online-p...
December 28, 2011, 4:03 PM 1977d N/A 1 http://windows-keitai.com/?Comments/WindowsCE FAN ソフトウェアライ...
December 28, 2011, 3:10 PM 1977d December 28, 2011, 2:37 PM 1977d 9 http://www.facebook.com/notes/call-record/mobile-spy-mobile-trackin...
December 28, 2011, 12:34 PM 1977d December 28, 2011, 12:12 PM 1977d 10 http://www.facebook.com/notes/call-record/best-cell-spyware-call-re...
December 28, 2011, 12:00 PM 1977d N/A 1 http://www.google.co.jp/url?sa=t&rct=j&q=windows スマートフ...
December 28, 2011, 10:50 AM 1977d N/A 1 http://www.google.co.jp/search?q=htc+スマートフォン+ドコモ&hl=j...
December 28, 2011, 10:17 AM 1977d December 28, 2011, 8:33 AM 1977d 10 http://www.facebook.com/notes/buy-nordiazepam/buy-nordiazepam-witho...
December 28, 2011, 9:28 AM 1977d December 28, 2011, 8:55 AM 1977d 10 http://www.facebook.com/notes/call-record/best-cell-phone-spy-softw...
December 28, 2011, 7:39 AM 1977d December 25, 2011, 6:04 AM 1981d 20 http://www.facebook.com/notes/camazepam-mg/camazepam-online-pharmac...
December 28, 2011, 7:01 AM 1977d N/A 1 http://www.google.co.jp/url?sa=t&rct=j&q=ht-01a&source=...
December 28, 2011, 6:25 AM 1977d December 28, 2011, 6:06 AM 1978d 10 http://www.facebook.com/notes/buy-noctamid/buy-noctamid-now-trusted...
December 28, 2011, 5:58 AM 1978d December 28, 2011, 5:25 AM 1978d 10 http://www.facebook.com/notes/call-record/mobile-spy-smartphone-mon...
December 28, 2011, 5:50 AM 1978d December 25, 2011, 5:08 AM 1981d 20 http://www.facebook.com/notes/buy-zopiclone/zopiclone-online-pharma...
December 28, 2011, 4:41 AM 1978d December 28, 2011, 4:23 AM 1978d 10 http://www.facebook.com/notes/buy-nobrium/cheapest-nobrium-no-presc...
December 28, 2011, 4:08 AM 1978d December 25, 2011, 4:11 AM 1981d 20 http://www.facebook.com/notes/buy-zolpidem/buy-zolpidem-online-best...
December 28, 2011, 3:30 AM 1978d December 28, 2011, 3:05 AM 1978d 10 http://www.facebook.com/notes/call-record/spy-mobile-phone-call-rec...
December 28, 2011, 3:02 AM 1978d December 28, 2011, 2:43 AM 1978d 10 http://www.facebook.com/notes/buy-nitrazepam/order-online-nitrazepa...
December 28, 2011, 2:28 AM 1978d December 25, 2011, 3:14 AM 1981d 19 http://www.facebook.com/notes/buy-zolpidem/zolpidem-best-offers-bes...
December 28, 2011, 1:23 AM 1978d December 28, 2011, 12:14 AM 1978d 15 http://www.facebook.com/notes/buy-nimetazepam/order-online-nimetaze...
December 28, 2011, 1:21 AM 1978d December 28, 2011, 1:01 AM 1978d 10 http://www.facebook.com/notes/call-record/cell-phone-spy-program-ca...
December 28, 2011, 12:53 AM 1978d December 25, 2011, 2:18 AM 1981d 14 http://www.facebook.com/notes/buy-xanax/order-online-xanax-online-d...
December 27, 2011, 11:40 PM 1978d December 27, 2011, 10:10 PM 1978d 2 http://asa-dachi.net/rakuten8/
December 27, 2011, 11:39 PM 1978d December 21, 2011, 5:33 PM 1984d 4 http://rakuten.xrea.cc/ry/
December 27, 2011, 10:45 PM 1978d December 27, 2011, 10:20 PM 1978d 10 http://www.facebook.com/notes/call-record/spy-phone-spyphone-spy-so...
December 27, 2011, 10:16 PM 1978d December 25, 2011, 1:21 AM 1981d 20 http://www.facebook.com/notes/buy-xanax/buy-xanax-no-prescription-o...
December 27, 2011, 10:07 PM 1978d December 27, 2011, 9:54 PM 1978d 10 http://www.facebook.com/notes/buy-motofen/motofen-best-offers-onlin...
December 27, 2011, 9:14 PM 1978d N/A 1 http://soft.wince.ne.jp/soft/Lists/?CM=18
December 27, 2011, 9:03 PM 1978d December 27, 2011, 9:03 PM 1978d 2 http://www.google.com/m?client=ms-opera-mobile-android&q=docomo...
December 27, 2011, 8:35 PM 1978d December 27, 2011, 8:12 PM 1978d 10 http://www.facebook.com/notes/call-record/cell-spy-now-call-recorde...
December 27, 2011, 8:01 PM 1978d December 25, 2011, 12:23 AM 1981d 20 http://www.facebook.com/notes/buy-xanax/buy-xanax-now-online-drug-s...
December 27, 2011, 7:55 PM 1978d N/A 1 http://map.windows-keitai.com/WiMAX/UQ/area.html?encode_hint=ぷ&...
December 27, 2011, 7:53 PM 1978d December 27, 2011, 7:40 PM 1978d 10 http://www.facebook.com/notes/buy-modalert/buy-modalert-no-prescrip...
December 27, 2011, 6:35 PM 1978d December 27, 2011, 6:14 PM 1978d 9 http://www.facebook.com/notes/call-record/cell-spy-now-the-leading-...
December 27, 2011, 6:03 PM 1978d N/A 1 http://www.google.co.jp/url?sa=t&rct=j&q=windows携帯+au&...
December 27, 2011, 5:53 PM 1978d December 24, 2011, 11:25 PM 1981d 20 http://www.facebook.com/notes/buy-xanax/xanax-best-offers-fast-deli...
December 27, 2011, 5:44 PM 1978d December 27, 2011, 5:32 PM 1978d 10 http://www.facebook.com/notes/buy-modafinil/order-online-modafinil-...
December 27, 2011, 4:49 PM 1978d N/A 1 http://wince.goo.ne.jp/snap/cnBoard.asp?PID=2854
December 27, 2011, 4:46 PM 1978d December 27, 2011, 4:26 PM 1978d 10 http://www.facebook.com/notes/call-record/mobile-phone-spy-easily-s...
December 27, 2011, 4:15 PM 1978d N/A 1 http://www.wince.ne.jp/snap/ceSnapView.asp?PID=427
December 27, 2011, 3:50 PM 1978d December 24, 2011, 10:27 PM 1981d 20 http://www.facebook.com/notes/buy-valium/buy-valium-online-uk-onlin...
December 27, 2011, 3:47 PM 1978d N/A 1 http://soft.wince.ne.jp/soft/Rank/?CM=19&R=20
December 27, 2011, 3:43 PM 1978d December 27, 2011, 3:32 PM 1978d 10 http://www.facebook.com/notes/buy-methylphenobarbital/methylphenoba...
December 27, 2011, 2:57 PM 1978d December 27, 2011, 2:39 PM 1978d 10 http://www.facebook.com/notes/spy-ware/mobile-spy-monitor-sms-text-...
December 27, 2011, 1:53 PM 1978d December 24, 2011, 9:27 PM 1981d 25 http://www.facebook.com/notes/buy-valium/cheap-valium-online-only-b...
December 27, 2011, 1:51 PM 1978d N/A 1 http://phishtrackers.com xzclf/1/posts/1_Reported_Phishing_Scams/2_...
December 27, 2011, 1:47 PM 1978d December 27, 2011, 1:37 PM 1978d 10 http://www.facebook.com/notes/buy-mefenorex/buy-cheap-mefenorex-onl...
December 27, 2011, 1:34 PM 1978d N/A 1 http://www.osisdust.net
December 27, 2011, 1:20 PM 1978d N/A 1 http://www.google.co.jp/url?sa=t&rct=j&q=htc docomo&sou...
December 27, 2011, 12:04 PM 1978d December 27, 2011, 11:54 AM 1978d 10 http://www.facebook.com/notes/buy-valium/buy-valium-online-uk-best-...
December 27, 2011, 11:59 AM 1978d December 27, 2011, 11:49 AM 1978d 10 http://www.facebook.com/notes/buy-medazepam/cheap-medazepam-online-...
December 27, 2011, 11:39 AM 1978d December 27, 2011, 11:22 AM 1978d 10 http://www.facebook.com/notes/blackberry/mobile-phone-spy-record-te...
December 27, 2011, 10:40 AM 1978d N/A 1 http://map.windows-keitai.com/emobile/map.html?encode_hint=ぷ&e...
December 27, 2011, 10:20 AM 1978d December 24, 2011, 7:37 PM 1981d 30 http://www.facebook.com/notes/buy-ultram/cheapest-ultram-no-prescri...
December 27, 2011, 10:16 AM 1978d December 27, 2011, 10:07 AM 1978d 10 http://www.facebook.com/notes/buy-mebaral/legal-buy-mebaral-online-...
December 27, 2011, 10:08 AM 1978d December 27, 2011, 9:52 AM 1978d 10 http://www.facebook.com/notes/android/cell-phone-spy-monitoring-and...
December 27, 2011, 8:42 AM 1978d December 24, 2011, 5:44 PM 1981d 40 http://www.facebook.com/notes/buy-tramadol/buy-tramadol-no-prescrip...
December 27, 2011, 8:39 AM 1978d December 27, 2011, 8:23 AM 1978d 10 http://www.facebook.com/notes/android/cell-spy-now-spy-calc-for-and...
December 27, 2011, 8:38 AM 1978d December 27, 2011, 8:29 AM 1978d 8 http://www.facebook.com/notes/buy-mazindol/buy-cheap-mazindol-onlin...
December 27, 2011, 7:10 AM 1978d December 27, 2011, 6:54 AM 1978d 10 http://www.facebook.com/notes/proof/cell-phone-spyware-how-to-easil...
December 27, 2011, 7:03 AM 1978d December 24, 2011, 5:12 PM 1981d 20 http://www.facebook.com/notes/buy-mazanor/cheapest-mazanor-in-uk-fd...
December 27, 2011, 5:58 AM 1979d December 26, 2011, 7:52 AM 1979d 153 http://www.facebook.com/notes/cheap-frisium/buy-frisium-online-uk-o...
December 27, 2011, 5:34 AM 1979d December 27, 2011, 5:15 AM 1979d 7 http://www.facebook.com/notes/purchase-sepazon/order-online-sepazon...
December 27, 2011, 3:54 AM 1979d December 27, 2011, 3:36 AM 1979d 10 http://www.facebook.com/notes/purchase-rondimen/cheap-rondimen-onli...
December 27, 2011, 3:12 AM 1979d N/A 1 http://www.google.com/search?num=50&hl=ja&lr=lang_ja&sa...
December 27, 2011, 2:18 AM 1979d December 27, 2011, 2:01 AM 1979d 10 http://www.facebook.com/notes/purchase-rivotril/buy-rivotril-now-on...
December 27, 2011, 2:07 AM 1979d N/A 1 http://canadagooseparka.myqblog.com/
December 27, 2011, 1:40 AM 1979d N/A 1 http://touch-diamond.windows-keitai.com/?Touch Diamond HT-02A/購入...
December 27, 2011, 12:47 AM 1979d December 27, 2011, 12:31 AM 1979d 10 http://www.facebook.com/notes/purchase-restoril/buy-restoril-no-pre...
December 26, 2011, 11:39 PM 1979d December 26, 2011, 11:38 PM 1979d 2 http://www.google.co.jp/url?sa=t&rct=j&q=ドコモ+スマートフ...
December 26, 2011, 11:21 PM 1979d December 26, 2011, 11:05 PM 1979d 10 http://www.facebook.com/notes/purchase-prozac/prozac-best-offers-fd...
December 26, 2011, 10:31 PM 1979d November 17, 2011, 9:58 AM 2018d 3 http://ht-01a.windows-keitai.com/?よくある質問/ソフトウェア
December 26, 2011, 9:57 PM 1979d December 26, 2011, 9:39 PM 1979d 10 http://www.facebook.com/notes/purchase-provigil/buy-provigil-withou...
December 26, 2011, 9:06 PM 1979d N/A 1 http://www.wince.ne.jp/scene/
December 26, 2011, 8:30 PM 1979d December 26, 2011, 8:15 PM 1979d 10 http://www.facebook.com/notes/purchase-prosom/cheap-prosom-online-c...
December 26, 2011, 7:06 PM 1979d December 26, 2011, 6:51 PM 1979d 10 http://www.facebook.com/notes/purchase-phentermine/legal-buy-phente...
December 26, 2011, 3:35 PM 1979d December 26, 2011, 3:35 PM 1979d 3 http://search.yahoo.co.jp/search?p=htc スマートフォン ドコモ&sp...
December 26, 2011, 2:54 PM 1979d N/A 1 http://windows-keitai.com/?ニュース/2009.10.05 Windows Mobile 向け ...
December 26, 2011, 1:59 PM 1979d N/A 1 http://map.windows-keitai.com/WiMAX/UQ/area.html?encode_hint=ぷ&...
December 26, 2011, 1:25 PM 1979d December 26, 2011, 1:10 PM 1979d 10 http://www.facebook.com/notes/purchase-paxipam/buy-cheap-paxipam-on...
December 26, 2011, 12:05 PM 1979d December 26, 2011, 11:51 AM 1979d 10 http://www.facebook.com/notes/purchase-oxazepam/cheapest-oxazepam-f...
December 26, 2011, 10:49 AM 1979d December 26, 2011, 10:35 AM 1979d 10 http://www.facebook.com/notes/purchase-nordiazepam/buy-nordiazepam-...
December 26, 2011, 9:33 AM 1979d December 26, 2011, 9:19 AM 1979d 10 http://www.facebook.com/notes/purchase-noctamid/buy-noctamid-withou...
December 26, 2011, 9:24 AM 1979d N/A 1 http://www.google.co.jp/search?hl=ja&gl=jp&client=ms-androi...
December 26, 2011, 8:48 AM 1979d N/A 1 http://search.yahoo.co.jp/search?p=htc-01a+docomo&aq=-1&oq=...
December 26, 2011, 8:17 AM 1979d December 26, 2011, 8:02 AM 1979d 10 http://www.facebook.com/notes/purchase-nobrium/buy-nobrium-online-u...
December 26, 2011, 7:01 AM 1979d December 26, 2011, 6:46 AM 1979d 7 http://www.facebook.com/notes/purchase-nitrazepam/buy-nitrazepam-no...
December 26, 2011, 6:56 AM 1979d December 26, 2011, 6:42 AM 1979d 10 http://www.facebook.com/notes/cheap-fludiazepam/cheap-fludiazepam-o...
December 26, 2011, 6:52 AM 1979d N/A 1 http://map.windows-keitai.com/WiMAX/UQ/area.html?encode_hint=ぷ&...
December 26, 2011, 5:44 AM 1980d December 26, 2011, 5:30 AM 1980d 10 http://www.facebook.com/notes/cheap-estazolam/buy-cheap-estazolam-o...
December 26, 2011, 5:44 AM 1980d December 26, 2011, 5:29 AM 1980d 10 http://www.facebook.com/notes/purchase-nimetazepam/order-online-nim...
December 26, 2011, 4:33 AM 1980d December 26, 2011, 4:19 AM 1980d 10 http://www.facebook.com/notes/cheap-erispan/cheap-erispan-online-no...
December 26, 2011, 4:09 AM 1980d December 26, 2011, 4:09 AM 1980d 5 http://www.facebook.com/notes/purchase-tramadol/order-online-tramad...
December 26, 2011, 3:51 AM 1980d December 26, 2011, 3:14 AM 1980d 10 http://www.facebook.com/notes/purchase-motofen/motofen-best-offers-...
December 26, 2011, 3:35 AM 1980d N/A 1 http://www.google.co.jp/url?sa=t&rct=j&q=au htc win&sou...
December 26, 2011, 3:22 AM 1980d December 26, 2011, 3:09 AM 1980d 10 http://www.facebook.com/notes/cheap-erimin/buy-erimin-great-savings...
December 26, 2011, 2:12 AM 1980d December 26, 2011, 1:59 AM 1980d 10 http://www.facebook.com/notes/cheap-dormonoct/buy-dormonoct-online-...
December 26, 2011, 1:00 AM 1980d December 26, 2011, 12:47 AM 1980d 9 http://www.facebook.com/notes/cheap-difenoxin/buy-difenoxin-no-pres...
December 26, 2011, 12:12 AM 1980d December 25, 2011, 11:25 PM 1980d 10 http://www.facebook.com/notes/purchase-temazepam/order-online-temaz...
December 25, 2011, 11:50 PM 1980d December 25, 2011, 11:37 PM 1980d 10 http://www.facebook.com/notes/cheap-diazepam/cheap-diazepam-online-...
December 25, 2011, 11:36 PM 1980d December 25, 2011, 10:49 PM 1980d 10 http://www.facebook.com/notes/purchase-modalert/cheap-modalert-onli...
December 25, 2011, 11:04 PM 1980d N/A 1 http://map.windows-keitai.com/WiMAX/UQ/area.html?encode_hint=ぷ&...
December 25, 2011, 10:41 PM 1980d December 25, 2011, 10:27 PM 1980d 10 http://www.facebook.com/notes/cheap-dalmane/dalmane-online-pharmacy...
December 25, 2011, 9:30 PM 1980d December 25, 2011, 9:17 PM 1980d 10 http://www.facebook.com/notes/cheap-cloxazolam/buy-cloxazolam-best-...
December 25, 2011, 8:28 PM 1980d N/A 1 http://www.bing.com/search?q=windows+携帯+au&qs=AS&sk=undef...
December 25, 2011, 8:19 PM 1980d December 25, 2011, 8:06 PM 1980d 10 http://www.facebook.com/notes/cheap-clonazepam/buy-cheap-clonazepam...
December 25, 2011, 7:45 PM 1980d N/A 1 http://www.google.co.jp/url?sa=t&rct=j&q=ht-01a&source=...
December 25, 2011, 7:43 PM 1980d December 25, 2011, 7:00 PM 1980d 10 http://www.facebook.com/notes/purchase-tamiflu/cheapest-tamiflu-in-...
December 25, 2011, 7:29 PM 1980d December 25, 2011, 6:42 PM 1980d 10 http://www.facebook.com/notes/purchase-modafinil/buy-modafinil-only...
December 25, 2011, 7:09 PM 1980d December 25, 2011, 6:56 PM 1980d 10 http://www.facebook.com/notes/cheap-clobazam/cheap-clobazam-online-...
December 25, 2011, 6:06 PM 1980d December 25, 2011, 5:54 PM 1980d 10 http://www.facebook.com/notes/cheap-camazepam/camazepam-best-offers...
December 25, 2011, 5:08 PM 1980d December 25, 2011, 4:57 PM 1980d 10 http://www.facebook.com/notes/cheap-bromazepam/cheapest-bromazepam-...
December 25, 2011, 4:11 PM 1980d December 25, 2011, 4:01 PM 1980d 10 http://www.facebook.com/notes/cheap-barbital/cheap-barbital-online-...
December 25, 2011, 3:15 PM 1980d December 25, 2011, 3:05 PM 1980d 9 http://www.facebook.com/notes/cheap-atomoxetine/order-online-atomox...
December 25, 2011, 2:21 PM 1980d December 25, 2011, 2:11 PM 1980d 10 http://www.facebook.com/notes/cheap-ativan/buy-ativan-online-online...
December 25, 2011, 1:27 PM 1980d December 25, 2011, 1:17 PM 1980d 10 http://www.facebook.com/notes/cheap-asendin/buy-asendin-without-pre...
December 25, 2011, 12:34 PM 1980d December 25, 2011, 12:24 PM 1980d 9 http://www.facebook.com/notes/cheap-ansieten/cheap-ansieten-online-...
December 25, 2011, 11:39 AM 1980d December 25, 2011, 11:29 AM 1980d 10 http://www.facebook.com/notes/cheap-ambien/buy-ambien-without-presc...
December 25, 2011, 10:41 AM 1980d N/A 1 http://www.google.co.jp/search?q=HT+01A&ie=UTF-8&oe=UTF-8&a...
December 25, 2011, 3:39 AM 1981d December 25, 2011, 3:39 AM 1981d 2 http://w-zero3.windows-keitai.com/?FrontPage
December 25, 2011, 12:31 AM 1981d December 17, 2011, 12:45 AM 1989d 2 http://www.wince.ne.jp/snap/cnBoard.asp?PID=2349
December 24, 2011, 9:45 PM 1981d N/A 1 http://map.windows-keitai.com/WiMAX/UQ/area.html?encode_hint=ぷ&...
December 24, 2011, 9:10 PM 1981d N/A 1 http://soft.wince.ne.jp/soft/Lists/?CM=13
December 24, 2011, 8:35 PM 1981d N/A 1 http://ht-02a.windows-keitai.com/?よくある質問/通信
December 24, 2011, 5:03 PM 1981d December 24, 2011, 5:02 PM 1981d 2 http://search.yahoo.co.jp/search?p=windos+ケータイ au&aq=-1&am...
December 24, 2011, 12:19 PM 1981d N/A 1 http://map.windows-keitai.com/WiMAX/UQ/?UQ WiMAX/料金比較
December 24, 2011, 12:12 PM 1981d N/A 1 http://map.windows-keitai.com/emobile/map.html?encode_hint=ぷ&e...
December 24, 2011, 11:01 AM 1981d December 24, 2011, 11:00 AM 1981d 2 http://ht-03a.windows-keitai.com/?HT-03A/動画でみる/基本操作画面
December 24, 2011, 10:43 AM 1981d N/A 1 http://www.google.co.jp/imgres?q=キーボード搭載+スマフォ+ドコモ&...
December 23, 2011, 10:11 PM 1982d N/A 1 http://windows-keitai.com/?ヘッドセット/モトローラ/S9/よくある質問/...
December 23, 2011, 4:30 PM 1982d N/A 1 http://www.wince.ne.jp/snap/cnBoard.asp?PID=2825
December 23, 2011, 8:18 AM 1982d N/A 1 http://www.wince.ne.jp/snap/ceSnapView.asp?PID=1270
December 23, 2011, 3:23 AM 1983d N/A 1 http://www.bing.com/search?q=HTC++au&qs=n&sk=&sc=8-6&am...
December 23, 2011, 2:07 AM 1983d N/A 1 http://map.windows-keitai.com/WiMAX/UQ/area.html?encode_hint=ぷ&...
December 23, 2011, 1:21 AM 1983d N/A 1 http://search.yahoo.co.jp/search?p=ウィンドウズホン&ei=UTF-8&am...
December 23, 2011, 12:03 AM 1983d December 23, 2011, 12:02 AM 1983d 2 http://search.yahoo.co.jp/search?p=ドコモ+スマートフォン+htc&aq...
December 22, 2011, 6:35 PM 1983d N/A 1 http://soft.wince.ne.jp/soft/Rank/?P=260&CM=12&R=20
December 22, 2011, 6:14 PM 1983d N/A 1 http://www.wince.ne.jp/snap/cnBoard.asp?PID=2758
December 22, 2011, 5:00 PM 1983d N/A 1 http://www.google.co.jp/url?sa=t&rct=j&q=docomo+htc&sou...
December 22, 2011, 4:07 PM 1983d N/A 1 http://map.windows-keitai.com/WiMAX/UQ/?UQ WiMAX/モニター/@nifty Wi...
December 22, 2011, 2:41 PM 1983d N/A 1 http://soft.wince.ne.jp/soft/Detail/Speeed Reader/PID4383/
December 22, 2011, 10:49 AM 1983d N/A 1 http://x01t.windows-keitai.com/?購入特集/08 IEとOperaの画面比較
December 22, 2011, 3:03 AM 1984d N/A 1 http://www.bing.com/search?q=ht+au+3D&qs=n&sk=&lf=1&...
December 22, 2011, 12:23 AM 1984d November 18, 2011, 11:08 AM 2017d 2 http://map.windows-keitai.com/WiMAX/UQ/?UQ WiMAX/コメント
December 22, 2011, 12:12 AM 1984d N/A 1 http://map.windows-keitai.com/WiMAX/UQ/area.html?encode_hint=ぷ&...
December 22, 2011, 12:08 AM 1984d N/A 1 http://map.windows-keitai.com/WiMAX/UQ/area.html?encode_hint=ぷ&...
December 21, 2011, 11:33 PM 1984d N/A 1 http://www.google.co.jp/url?sa=t&rct=j&q=ドコモ htc スマー...
December 21, 2011, 8:05 PM 1984d N/A 1 http://map.windows-keitai.com/emobile/map.html?encode_hint=ぷ&e...
December 21, 2011, 2:50 PM 1984d November 21, 2011, 7:08 AM 2014d 2 http://map.windows-keitai.com/WiMAX/UQ/area.html?encode_hint=ぷ&...
December 21, 2011, 2:29 PM 1984d N/A 1 http://map.windows-keitai.com/emobile/map.html?encode_hint=・スE・スE...
December 21, 2011, 1:34 PM 1984d N/A 1 http://map.windows-keitai.com/WiMAX/UQ/area.html?encode_hint=ぷ&...
December 21, 2011, 1:22 PM 1984d N/A 1 http://map.windows-keitai.com/WiMAX/UQ/area.html?encode_hint=ぷ&...
December 21, 2011, 9:45 AM 1984d N/A 1 http://soft.wince.ne.jp/soft/CommentView/PID4388/
December 21, 2011, 9:05 AM 1984d November 7, 2011, 7:39 PM 2028d 62 http://instantapprovalpaydayloanss.weebly.com/
December 21, 2011, 7:22 AM 1984d December 21, 2011, 7:22 AM 1984d 5 http://www.protectthehuman.com/users/instant-approval-payday-loans
December 21, 2011, 7:08 AM 1984d N/A 1 http://soft.wince.ne.jp/soft/Detail/法令データ for PDA フリーウェア...
December 20, 2011, 10:15 PM 1985d N/A 1 http://windows-keitai.com/?スペック/NTTドコモ 比較
December 20, 2011, 8:36 PM 1985d N/A 1 http://canadagoosekensington.weebly.com/
December 20, 2011, 4:55 PM 1985d December 20, 2011, 4:54 PM 1985d 2 http://www.google.co.jp/url?sa=t&rct=j&q=QWERTYスライドフォ...
December 20, 2011, 4:24 PM 1985d N/A 1 http://map.windows-keitai.com/emobile/map.html?encode_hint=ぷ&e...
December 20, 2011, 3:07 PM 1985d N/A 1 http://map.windows-keitai.com/WiMAX/UQ/area.html?encode_hint=ぷ&...
December 20, 2011, 2:21 PM 1985d N/A 1 http://www.waimaobang.com
December 20, 2011, 1:54 PM 1985d N/A 1 http://map.windows-keitai.com/WiMAX/UQ/area.html?encode_hint=ぷ&...
December 20, 2011, 1:21 PM 1985d N/A 1 http://map.windows-keitai.com/emobile/map.html?encode_hint=ぷ&e...
December 20, 2011, 12:08 PM 1985d N/A 1 http://map.windows-keitai.com/WiMAX/UQ/?UQ WiMAX/端末/Intel WiMAX・W...
December 20, 2011, 11:37 AM 1985d December 20, 2011, 11:35 AM 1985d 2 http://www.google.co.jp/url?sa=t&rct=j&q=htc+スマートフォン...
December 20, 2011, 9:39 AM 1985d N/A 1 http://search.yahoo.co.jp/search?p=HT-01A&ei=EUC-JP&fr=ush-...
December 19, 2011, 11:38 PM 1986d N/A 1 http://sc-01b.windows-keitai.com/?SC-01B/内覧会のご案内/内覧会レポ...
December 19, 2011, 10:39 PM 1986d N/A 1 http://map.windows-keitai.com/WiMAX/UQ/area.html?encode_hint=ぷ&...
December 19, 2011, 7:51 PM 1986d N/A 1 http://search.yahoo.co.jp/search?p=windows携帯 au&aq=-1&...
December 19, 2011, 1:47 PM 1986d N/A 1 http://s01sh.windows-keitai.com/?イー・モバイルとは
December 19, 2011, 10:52 AM 1986d N/A 1 http://www.wince.ne.jp/snap/ceSnapView.asp?PID=1685
December 18, 2011, 11:30 PM 1987d N/A 1 http://www.google.co.jp/url?sa=t&rct=j&q=htc+docomo+スマー...
December 18, 2011, 11:27 PM 1987d N/A 1 http://www.google.co.jp/url?sa=t&rct=j&q=ドコモ htc&sou...
December 18, 2011, 10:22 PM 1987d N/A 1 http://map.windows-keitai.com/emobile/map.html?encode_hint=ぷ&e...
December 18, 2011, 9:55 PM 1987d N/A 1 http://www.google.co.jp/url?sa=t&rct=j&q=htc&source=web...
December 18, 2011, 4:04 PM 1987d N/A 1 http://map.windows-keitai.com/WiMAX/UQ/area.html?encode_hint=ぷ&...
December 18, 2011, 10:15 AM 1987d N/A 1 http://search.yahoo.co.jp/search?p=HTC+HT-01A&search.x=1&fr...
December 18, 2011, 9:49 AM 1987d N/A 1 http://search.yahoo.co.jp/search?p=ウィンドウ au&x=wrt&aq=...
December 18, 2011, 2:20 AM 1988d N/A 1 http://windows-keitai.com/?ニュース/2007.11.21 アドエスをデコ電化す...
December 18, 2011, 12:50 AM 1988d N/A 1 http://map.windows-keitai.com/WiMAX/UQ/area.html?encode_hint=ぷ&...
December 18, 2011, 12:47 AM 1988d N/A 1 http://may.konskowola.pl/?p=24
December 17, 2011, 11:11 PM 1988d N/A 1 http://oyere.wloclawek.pl/wysylanie-pit-przez-internet/785/
December 17, 2011, 6:32 PM 1988d N/A 1 http://map.windows-keitai.com/WiMAX/UQ/area.html?encode_hint=ぷ&...
December 17, 2011, 12:40 PM 1988d N/A 1 http://wince.goo.ne.jp/NewsLink/
December 17, 2011, 8:35 AM 1988d N/A 1 http://map.windows-keitai.com/emobile/map.html?encode_hint=ぷ&e...
December 17, 2011, 8:22 AM 1988d N/A 1 http://map.windows-keitai.com/emobile/map.html?encode_hint=ぷ&e...
December 17, 2011, 4:52 AM 1989d N/A 1 http://www.google.com/url?sa=t&rct=j&q=&esrc=s&sour...
December 17, 2011, 3:14 AM 1989d N/A 1 http://x01ht.windows-keitai.com/?未確認情報/クロックアップ
December 17, 2011, 2:59 AM 1989d N/A 1 http://willcom.windows-keitai.com/?HYBRID_W-ZERO3/ここが知りたい/販...
December 17, 2011, 12:42 AM 1989d N/A 1 http://www.google.co.jp/url?sa=t&rct=j&q=htc スマートフォン...
December 16, 2011, 9:57 PM 1989d N/A 1 http://114search.114so.cn/search_web.html?id=1912&nid=&ec=g...
December 16, 2011, 7:50 PM 1989d N/A 1 http://soft.wince.ne.jp/soft/Lists/?CM=16
December 16, 2011, 4:27 PM 1989d December 16, 2011, 4:26 PM 1989d 2 http://p.tl/My9T
December 16, 2011, 4:02 PM 1989d N/A 1 http://map.windows-keitai.com/WiMAX/UQ/area.html?encode_hint=ぷ&...
December 16, 2011, 1:28 PM 1989d November 21, 2011, 5:42 PM 2014d 2 http://x05ht.windows-keitai.com/?X05HT/購入特集/09 画面 (プログラム編)
December 16, 2011, 12:50 PM 1989d N/A 1 http://map.windows-keitai.com/WiMAX/UQ/area.html?encode_hint=ぷ&...
December 16, 2011, 11:10 AM 1989d November 6, 2011, 10:36 AM 2029d 3 http://www.wince.ne.jp/snap/cnBoard.asp?PID=2854
December 16, 2011, 9:16 AM 1989d N/A 1 http://windows-keitai.com/?ニュース/2009.11.26 カシオの Felica 対応...
December 16, 2011, 9:00 AM 1989d N/A 1 http://www.google.co.jp/url?sa=t&rct=j&q=au+HTC+ダイヤモン...
December 16, 2011, 4:42 AM 1990d N/A 1 http://x02t.windows-keitai.com/?X02T
December 16, 2011, 4:00 AM 1990d N/A 1 http://www.google.co.jp/imgres?q=スマフォ+キーボード&um=1&h...
December 16, 2011, 3:07 AM 1990d N/A 1 http://www.google.co.jp/search?hl=ja&source=hp&q=ドコモ+htc...
December 15, 2011, 11:57 PM 1990d N/A 1 http://www.google.co.jp/url?sa=t&rct=j&q=htc e30ht&sour...
December 15, 2011, 11:56 PM 1990d N/A 1 http://map.windows-keitai.com/emobile/map.html?encode_hint=ぷ&e...
December 15, 2011, 10:56 PM 1990d N/A 1 http://search.goo.ne.jp/web.jsp?MT=ht-01a&OE=UTF-8&from=sti...
December 15, 2011, 9:53 PM 1990d N/A 1 http://www.google.co.jp/search?q=htc+スマートフォン+docomo&btnG...
December 15, 2011, 9:47 PM 1990d December 6, 2011, 6:23 PM 1999d 5 http://www.christianlouboutindo.com/
December 15, 2011, 9:25 PM 1990d N/A 1 http://is02.windows-keitai.com/?FrontPage
December 15, 2011, 7:22 PM 1990d December 6, 2011, 8:35 AM 1999d 6 http://www.weddingtungsten.com/
December 15, 2011, 5:33 PM 1990d December 15, 2011, 5:32 PM 1990d 2 http://search.yahoo.co.jp/search?p=HTC HT-01A &search.x=1&...
December 15, 2011, 5:13 PM 1990d N/A 1 http://soft.wince.ne.jp/soft/Detail/YouTube Mobile Application/PID4...
December 15, 2011, 3:48 PM 1990d N/A 1 http://ht-03a.windows-keitai.com/?HT-03A/写真で見る/文字入力
December 15, 2011, 3:19 PM 1990d December 15, 2011, 3:15 PM 1990d 2 http://www.google.co.jp/url?sa=t&rct=j&q=htc+スマートフォン...
December 15, 2011, 10:08 AM 1990d November 14, 2011, 6:51 AM 2021d 15 http://instantapprovalpaydayloanss.webs.com/
December 15, 2011, 9:13 AM 1990d N/A 1 http://windows-keitai.com/?よくある質問/ソフトウェア関連/Skype
December 15, 2011, 9:00 AM 1990d N/A 1 http://www.tiffaniwholesale.com/
December 15, 2011, 5:19 AM 1991d N/A 1 http://wiki.wince.ne.jp/W-ZERO3es/?cmd=read&page=Skype for Pock...
December 15, 2011, 1:06 AM 1991d N/A 1 http://map.windows-keitai.com/emobile/map.html?encode_hint=ぷ&e...
December 15, 2011, 12:53 AM 1991d N/A 1 http://www.cellocean.com
December 15, 2011, 12:13 AM 1991d N/A 1 http://map.windows-keitai.com/WiMAX/UQ/area.html?encode_hint=ぷ&...
December 14, 2011, 10:41 PM 1991d N/A 1 http://soft.wince.ne.jp/soft/Lists/?CM=17&Key=train+time
December 14, 2011, 9:58 PM 1991d N/A 1 http://search.yahoo.co.jp/search?p=HT-01A&fr=applpd&ei=UTF-8
December 14, 2011, 6:58 PM 1991d December 14, 2011, 6:58 PM 1991d 5 http://nodepositcasinocodes.grouply.com/message/32
December 14, 2011, 5:28 PM 1991d N/A 1 http://map.windows-keitai.com/WiMAX/UQ/area.html?encode_hint=ぷ&...
December 14, 2011, 2:41 PM 1991d December 6, 2011, 8:27 PM 1999d 2 http://search.daum.net/search?w=tot&q=Windows奥燭
December 14, 2011, 1:48 PM 1991d N/A 1 http://so-01b.windows-keitai.com/?SO-01B/よくある質問/アクセサリ
December 14, 2011, 10:48 AM 1991d N/A 1 http://www.google.co.jp/url?sa=t&rct=j&q=windows ケータイ a...
December 14, 2011, 10:24 AM 1991d December 14, 2011, 7:55 AM 1991d 10 http://allaboutpaydaylenders.blogetery.com/make-life-easy-with-inst...
December 14, 2011, 10:07 AM 1991d N/A 1 http://www.google.co.jp/search?hl=ja&client=ms-android-kddi-jp&...
December 14, 2011, 9:03 AM 1991d N/A 1 http://map.windows-keitai.com/WiMAX/UQ/area.html?encode_hint=ぷ&...
December 14, 2011, 2:18 AM 1992d N/A 1 http://www.google.co.jp/url?sa=t&rct=j&q=kddi(au) e30ht&...
December 14, 2011, 12:26 AM 1992d N/A 1 http://map.windows-keitai.com/emobile/map.html?lat=36.022391&ln...
December 13, 2011, 10:55 PM 1992d N/A 1 http://www.google.co.jp/url?sa=t&rct=j&q=ドコモ+htc+スマー...
December 13, 2011, 10:32 PM 1992d N/A 1 http://s01sh.windows-keitai.com/?S01SH端末/09 写真で解説! 5分でわか...
December 13, 2011, 10:10 PM 1992d N/A 1 http://www.google.co.jp/url?sa=t&rct=j&q=htc スマートフォン...
December 13, 2011, 8:57 PM 1992d N/A 1 http://www.erlewine.scaturro.opoczno.pl/alwar-keygen-chomik.htm
December 13, 2011, 8:08 PM 1992d December 13, 2011, 8:08 PM 1992d 2 http://soft.wince.ne.jp/soft/Detail/関数な電卓/PID4467/
December 13, 2011, 5:00 PM 1992d N/A 1 http://www.google.co.jp/url?sa=t&rct=j&q=softbank+x01sc&...
December 13, 2011, 11:28 AM 1992d N/A 1 http://www.google.co.jp/url?sa=t&rct=j&q=htc+touch+pro&...
December 13, 2011, 2:23 AM 1993d N/A 1 http://www.google.co.jp/url?sa=t&rct=j&q=docomo+htc+スマー...
December 13, 2011, 12:46 AM 1993d N/A 1 http://soft.wince.ne.jp/soft/Detail/PID4378/
December 12, 2011, 11:39 PM 1993d December 12, 2011, 11:37 PM 1993d 2 http://www.google.co.jp/search?q=HT-01A+まとめ&btnG=検索&oe...
December 12, 2011, 11:37 PM 1993d December 12, 2011, 11:34 PM 1993d 3 http://www.google.co.jp/url?sa=t&rct=j&q=HT01A&source=w...
December 12, 2011, 8:44 PM 1993d N/A 1 http://map.windows-keitai.com/WiMAX/UQ/area.html?encode_hint=ぷ&...
December 12, 2011, 5:46 PM 1993d N/A 1 http://www.bing.com/search?q=au+htc&src=IE-SearchBox&FORM=I...
December 12, 2011, 5:44 PM 1993d N/A 1 http://map.windows-keitai.com/WiMAX/UQ/area.html?encode_hint=ぷ&...
December 12, 2011, 3:59 PM 1993d N/A 1 http://windows-keitai.com/?WindowsケータイFAN+サイト内検索結果=&...
December 12, 2011, 3:06 PM 1993d N/A 1 http://www.google.co.jp/url?sa=t&rct=j&q=docomo+htc+スマー...
December 12, 2011, 2:36 PM 1993d December 9, 2011, 6:31 AM 1996d 5 http://www.specialboots.org
December 12, 2011, 12:56 PM 1993d N/A 1 http://www.google.co.jp/search?q=htc+スマートフォン+docomo+評価&...
December 12, 2011, 12:30 PM 1993d N/A 1 http://map.windows-keitai.com/emobile/map.html?encode_hint=ぷ&e...
December 12, 2011, 12:19 PM 1993d December 12, 2011, 12:15 PM 1993d 2 http://map.windows-keitai.com/emobile/map.html?encode_hint=ぷ&e...
December 12, 2011, 12:00 AM 1994d N/A 1 http://map.windows-keitai.com/WiMAX/UQ/area.html?encode_hint=ぷ&...
December 11, 2011, 11:44 PM 1994d December 11, 2011, 11:40 PM 1994d 2 http://www.gambletips.net/CRPM/kaienntai/mmaga/mmaga.php
December 11, 2011, 11:01 PM 1994d N/A 1 http://www.google.co.jp/url?sa=t&rct=j&q=htc+スマートフォン...
December 11, 2011, 8:10 PM 1994d N/A 1 http://x02ht.windows-keitai.com/?X02HT
December 11, 2011, 6:37 PM 1994d N/A 1 http://www.google.co.jp/search?hl=ja&safe=off&client=safari...
December 11, 2011, 4:10 PM 1994d N/A 1 http://windows-keitai.com/?ニュース/2009.09.30 東芝「X02T」が Wi-Fi...
December 11, 2011, 3:11 PM 1994d N/A 1 http://www.google.co.jp/url?sa=t&rct=j&q=htc touch pro&...
December 11, 2011, 11:51 AM 1994d December 2, 2011, 10:39 AM 2003d 30 http://www.fastcompany.com/user/instant-payday-loans-1
December 11, 2011, 11:13 AM 1994d N/A 1 http://www.google.co.jp/url?sa=t&rct=j&q=初windows携帯 HTC...
December 11, 2011, 11:05 AM 1994d December 10, 2011, 3:37 PM 1995d 15 http://www.syntaxis.com/index.php/S=a453f0daa9f8965d55e9867239030c4...
December 11, 2011, 6:39 AM 1994d December 11, 2011, 6:39 AM 1994d 5 http://www.consulostudios.com/html/member/1003/
December 11, 2011, 12:53 AM 1995d December 10, 2011, 11:19 AM 1995d 15 http://www.zazkia.nl/EE/index.php/member/1579/
December 11, 2011, 12:33 AM 1995d N/A 1 http://map.windows-keitai.com/emobile/map.html?encode_hint=ぷ&e...
December 10, 2011, 11:54 PM 1995d December 10, 2011, 11:54 PM 1995d 2 http://www.google.co.jp/url?sa=t&rct=j&q=ドコモ htc スマー...
December 10, 2011, 11:38 PM 1995d N/A 1 http://touch-diamond.windows-keitai.com/?よくある質問/ソフトウェア
December 10, 2011, 11:17 PM 1995d N/A 1 http://map.windows-keitai.com/WiMAX/UQ/area.html?encode_hint=ぷ&...
December 10, 2011, 6:36 PM 1995d N/A 1 http://www.google.com/m?hl=ja&gl=jp&client=ms-android-htc&a...
December 10, 2011, 4:57 PM 1995d N/A 1 http://map.windows-keitai.com/WiMAX/UQ/area.html?encode_hint=ぷ&...
December 10, 2011, 4:57 PM 1995d December 10, 2011, 4:55 PM 1995d 2 http://soft.wince.ne.jp/soft/Detail/touchkeysip/PID4144/
December 10, 2011, 4:56 PM 1995d December 10, 2011, 4:54 PM 1995d 3 http://map.windows-keitai.com/WiMAX/UQ/area.html?encode_hint=ぷ&...
December 10, 2011, 4:37 PM 1995d N/A 1 http://soft.wince.ne.jp/soft/Detail/PID4342/
December 10, 2011, 4:30 PM 1995d December 10, 2011, 4:30 PM 1995d 5 http://www.augustafc.com/member/7393/
December 10, 2011, 2:49 PM 1995d N/A 1 http://www.cpcden.com/member.php?15490-ltopofthelinelkfa
December 10, 2011, 12:06 PM 1995d December 10, 2011, 7:44 AM 1995d 8 http://carpeoplemarketing.com/member/1425/
December 10, 2011, 9:29 AM 1995d N/A 1 http://map.windows-keitai.com/emobile/map.html?encode_hint=ぷ&e...
December 10, 2011, 1:57 AM 1996d N/A 1 http://www.rkja.net
December 9, 2011, 7:42 PM 1996d N/A 1 http://x05ht.windows-keitai.com/?X05HT/購入特集/02 パッケージまわり
December 9, 2011, 7:28 PM 1996d November 10, 2011, 2:46 AM 2026d 3 http://www.aliexpress.com/store/901004/211070377-458805060/Fashion-...
December 9, 2011, 6:13 PM 1996d December 9, 2011, 6:08 PM 1996d 2 http://www.google.co.jp/url?sa=t&rct=j&q=ドコモ+htc+スマー...
December 9, 2011, 6:00 PM 1996d N/A 1 http://www.google.com/url?sa=t&rct=j&q=windows携帯 au&s...
December 9, 2011, 4:32 PM 1996d N/A 1 http://www.bing.com/search?q=HTC Touch Pro&mkt=ja-jp&FORM=L...
December 9, 2011, 4:22 PM 1996d N/A 1 http://map.windows-keitai.com/emobile/map.html?encode_hint=ぷ&e...
December 9, 2011, 3:23 PM 1996d N/A 1 http://www.google.co.jp/url?sa=t&rct=j&q=docomo htc ht-01...
December 9, 2011, 2:05 PM 1996d N/A 1 http://www.google.co.jp/url?sa=t&rct=j&q=windows 携帯 au&am...
December 9, 2011, 12:41 PM 1996d N/A 1 http://www.google.co.jp/url?sa=t&rct=j&q=ドコモ+htc+スマー...
December 9, 2011, 12:32 PM 1996d N/A 1 http://windows-keitai.com/?Windowsケータイ/ネガティブ情報
December 9, 2011, 2:18 AM 1997d December 9, 2011, 2:02 AM 1997d 2 http://www.hellougg.org
December 9, 2011, 12:06 AM 1997d N/A 1 http://www.google.co.jp/search?hl=ja&client=ms-android-sonyeric...
December 8, 2011, 11:51 PM 1997d N/A 1 http://map.windows-keitai.com/emobile/map.html?encode_hint=ぷ&e...
December 8, 2011, 11:03 PM 1997d November 7, 2011, 4:32 PM 2028d 4 http://114search.114so.cn/search_web.html?id=381&nid=&kw=TO...
December 8, 2011, 10:29 PM 1997d N/A 1 http://www.google.co.jp/url?sa=t&rct=j&q=ntt htc&source...
December 8, 2011, 9:41 PM 1997d N/A 1 http://soft.wince.ne.jp/soft/Lists/?CM=3&Key=xp
December 8, 2011, 5:53 PM 1997d N/A 1 http://www.choulnard.daubert.olkusz.pl/happy-feet-2-download.htm
December 8, 2011, 4:58 PM 1997d N/A 1 http://www.google.co.jp/url?sa=t&rct=j&q=ドコモ htc スマー...
December 8, 2011, 3:15 PM 1997d N/A 1 http://is02.windows-keitai.com/?IS02/写真レビュー/03 ホーム画面
December 8, 2011, 2:17 PM 1997d N/A 1 http://map.windows-keitai.com/WiMAX/UQ/area.html?encode_hint=ぷ&...
December 8, 2011, 12:35 PM 1997d N/A 1 http://map.windows-keitai.com/WiMAX/UQ/area.html?encode_hint=ぷ&...
December 8, 2011, 11:43 AM 1997d December 8, 2011, 11:42 AM 1997d 2 http://www.shokokai.or.jp/05/0540111254/index.htm
December 8, 2011, 11:03 AM 1997d N/A 1 http://www.sunnybeads.com/Supply/other-link-charms/c141.html
December 8, 2011, 10:22 AM 1997d N/A 1 http://is02.windows-keitai.com/?IS02/ここが知りたい/ISデビュー割
December 8, 2011, 10:11 AM 1997d N/A 1 http://www.sunnybeads.com/Supply/murano-crystal-beads-crystal-dangl...
December 8, 2011, 9:32 AM 1997d N/A 1 http://www.sunnybeads.com/Supply/european-silver-beads-enamel-silve...
December 8, 2011, 4:48 AM 1998d November 25, 2011, 6:56 AM 2010d 2 http://www.sunnybeads.com/Supply/beading-supplies-jewelry-display/c...
December 8, 2011, 1:53 AM 1998d N/A 1 http://www.sunnybeads.com/Supply/european-glass-beads-double-core-g...
December 8, 2011, 12:42 AM 1998d N/A 1 http://www.bless.puhl.tarnobrzeg.pl/inny-punkt-widzenia-tvn24-miecu...
December 8, 2011, 12:15 AM 1998d December 8, 2011, 12:12 AM 1998d 2 http://www.google.co.jp/url?sa=t&rct=j&q=ドコモ+スマートフ...
December 7, 2011, 11:05 PM 1998d N/A 1 http://map.windows-keitai.com/emobile/map.html?encode_hint=ぷ&e...
December 7, 2011, 8:48 PM 1998d N/A 1 http://map.windows-keitai.com/emobile/map.html?encode_hint=ぷ&e...
December 7, 2011, 7:13 PM 1998d November 23, 2011, 9:47 PM 2012d 3 http://www.sunnybeads.com/Supply/other-silver-leather-bracelets/c14...
December 7, 2011, 6:27 PM 1998d November 4, 2011, 11:26 PM 2031d 3 http://114search.114so.cn/search_web.html?id=375&nid=&ec=gb...
December 7, 2011, 4:54 PM 1998d N/A 1 http://www.google.co.jp/url?sa=t&rct=j&q=htc touch pro(ht-0...
December 7, 2011, 4:50 PM 1998d N/A 1 http://s01sh.windows-keitai.com/?よくある質問
December 7, 2011, 4:13 PM 1998d December 7, 2011, 4:13 PM 1998d 2 http://www.google.co.jp/imgres?q=ドコモ スマフォ キーボード&u...
December 7, 2011, 3:29 PM 1998d N/A 1 http://ht1100.windows-keitai.com/?HT1100
December 7, 2011, 11:00 AM 1998d N/A 1 http://114search.114so.cn/search_web.html?id=1912&nid=&ec=g...
December 7, 2011, 5:58 AM 1999d N/A 1 http://www.sunnybeads.com/Supply/jewelry-beads/c414.html
December 7, 2011, 1:18 AM 1999d N/A 1 http://map.windows-keitai.com/emobile/map.html?encode_hint=ぷ&e...
December 7, 2011, 12:10 AM 1999d N/A 1 http://map.windows-keitai.com/WiMAX/UQ/area.html?encode_hint=ぷ&...
December 6, 2011, 10:28 PM 1999d December 6, 2011, 10:28 PM 1999d 5 http://www.facebook.com/notes/buy-fludiazepam/buy-fludiazepam-onlin...
December 6, 2011, 9:31 PM 1999d November 19, 2011, 10:23 AM 2016d 3 http://www.sunnybeads.com/Supply/other-organza-pouch/c154.html
December 6, 2011, 9:25 PM 1999d N/A 1 http://www.sunnybeads.com/Supply/jewelry-beads-european-metal-beads...
December 6, 2011, 9:01 PM 1999d December 6, 2011, 8:41 PM 1999d 10 http://www.facebook.com/notes/buy-estazolam/estazolam-best-offers-o...
December 6, 2011, 7:01 PM 1999d December 6, 2011, 7:01 PM 1999d 5 http://www.facebook.com/notes/zolpidem/buy-zolpidem-no-prescription...
December 6, 2011, 6:54 PM 1999d December 6, 2011, 6:34 PM 1999d 10 http://www.facebook.com/notes/cheap-erispan/buy-erispan-no-prescrip...
December 6, 2011, 6:19 PM 1999d December 6, 2011, 4:42 PM 1999d 20 http://www.facebook.com/notes/lorazepam/buy-lorazepam-online-lowest...
December 6, 2011, 5:53 PM 1999d December 6, 2011, 5:19 PM 1999d 10 http://www.facebook.com/notes/buy-tafil-xanor/buy-tafil-xanor-onlin...
December 6, 2011, 5:26 PM 1999d December 6, 2011, 4:53 PM 1999d 10 http://www.facebook.com/notes/buy-erimin/buy-erimin-without-prescri...
December 6, 2011, 3:56 PM 1999d December 6, 2011, 3:35 PM 1999d 10 http://www.facebook.com/notes/cheap-erimin/legal-buy-erimin-online-...
December 6, 2011, 3:37 PM 1999d December 6, 2011, 2:07 PM 1999d 20 http://www.facebook.com/notes/lorazepam/order-online-lorazepam-onli...
December 6, 2011, 2:57 PM 1999d December 6, 2011, 2:25 PM 1999d 10 http://www.facebook.com/notes/buy-strattera/buy-strattera-only-best...
December 6, 2011, 2:28 PM 1999d December 6, 2011, 1:55 PM 1999d 9 http://www.facebook.com/notes/buy-dormonoct/buy-dormonoct-no-prescr...
December 6, 2011, 1:59 PM 1999d N/A 1 http://www.orchestraofsound.com/reclining-chair-sleeping-pad-reward...
December 6, 2011, 1:07 PM 1999d December 6, 2011, 12:52 PM 1999d 10 http://www.facebook.com/notes/ketazolam/cheapest-ketazolam-lowest-p...
December 6, 2011, 12:58 PM 1999d N/A 1 http://www.google.co.jp/url?sa=t&rct=j&q=HTC+スマートフォン...
December 6, 2011, 12:07 PM 1999d December 6, 2011, 11:35 AM 1999d 10 http://www.facebook.com/notes/buy-stilny/buy-stilny-no-prescription...
December 6, 2011, 11:59 AM 1999d N/A 1 http://map.windows-keitai.com/emobile/map.html?encode_hint=ぷ&e...
December 6, 2011, 11:51 AM 1999d December 6, 2011, 11:37 AM 1999d 9 http://www.facebook.com/notes/ketazolam/buy-ketazolam-online-great-...
December 6, 2011, 11:35 AM 1999d December 6, 2011, 11:03 AM 1999d 9 http://www.facebook.com/notes/buy-difenoxin/buy-difenoxin-no-prescr...
December 6, 2011, 11:13 AM 1999d December 6, 2011, 9:42 AM 1999d 10 http://www.facebook.com/notes/zolpidem/cheap-zolpidem-online-discou...
December 6, 2011, 10:34 AM 1999d December 6, 2011, 10:17 AM 1999d 10 http://www.facebook.com/notes/halazepam/buy-halazepam-now-no-prescr...
December 6, 2011, 10:24 AM 1999d N/A 1 http://www.google.com/search?hl=ja&tbo=1&gl=JP&biw=320&...
December 6, 2011, 9:20 AM 1999d December 6, 2011, 8:49 AM 1999d 10 http://www.facebook.com/notes/buy-sonata/buy-cheap-sonata-online-on...
December 6, 2011, 9:16 AM 1999d December 6, 2011, 9:01 AM 1999d 10 http://www.facebook.com/notes/halazepam/buy-halazepam-discount-chea...
December 6, 2011, 8:46 AM 1999d December 6, 2011, 8:14 AM 1999d 10 http://www.facebook.com/notes/buy-diazepam/buy-diazepam-online-no-p...
December 6, 2011, 7:59 AM 1999d December 6, 2011, 7:45 AM 1999d 10 http://www.facebook.com/notes/frisium/cheapest-frisium-in-uk-fast-d...
December 6, 2011, 6:43 AM 1999d December 6, 2011, 4:58 AM 2000d 20 http://www.facebook.com/notes/frisium/buy-frisium-online-online-pil...
December 6, 2011, 6:38 AM 1999d December 6, 2011, 6:06 AM 2000d 9 http://www.facebook.com/notes/buy-soma/buy-soma-cheap-price-muscle-...
December 6, 2011, 6:00 AM 2000d December 6, 2011, 5:23 AM 2000d 10 http://www.facebook.com/notes/buy-diazepam/cheap-diazepam-online-on...
December 6, 2011, 5:43 AM 2000d December 6, 2011, 5:03 AM 2000d 10 http://www.facebook.com/notes/zolpidem/legal-buy-zolpidem-online-of...
December 6, 2011, 3:33 AM 2000d December 6, 2011, 3:02 AM 2000d 10 http://www.facebook.com/notes/buy-soma/buy-soma-without-prescriptio...
December 6, 2011, 3:05 AM 2000d December 6, 2011, 2:35 AM 2000d 10 http://www.facebook.com/notes/buy-dalmane/order-online-dalmane-onli...
December 6, 2011, 12:57 AM 2000d December 6, 2011, 12:29 AM 2000d 10 http://www.facebook.com/notes/buy-slimfast/buy-slimfast-no-prescrip...
December 6, 2011, 12:33 AM 2000d N/A 1 http://map.windows-keitai.com/emobile/map.html?encode_hint=ぷ&e...
December 6, 2011, 12:27 AM 2000d December 5, 2011, 11:55 PM 2000d 10 http://www.facebook.com/notes/buy-cloxazolam/buy-cloxazolam-online-...
December 6, 2011, 12:11 AM 2000d N/A 1 http://t-01a.windows-keitai.com/?T-01A/よくある質問/電話
December 5, 2011, 11:23 PM 2000d N/A 1 http://www.google.co.jp/url?sa=t&rct=j&q=ドコモ+htc+スマー...
December 5, 2011, 10:36 PM 2000d December 5, 2011, 10:08 PM 2000d 10 http://www.facebook.com/notes/cheap-difenoxin/buy-difenoxin-no-pres...
December 5, 2011, 10:11 PM 2000d N/A 1 http://www.google.co.jp/url?sa=t&rct=j&q=windowsケータイ au...
December 5, 2011, 10:10 PM 2000d December 5, 2011, 9:38 PM 2000d 10 http://www.facebook.com/notes/buy-serax/buy-serax-without-prescript...
December 5, 2011, 9:32 PM 2000d December 5, 2011, 9:04 PM 2000d 10 http://www.facebook.com/notes/buy-clonazepam/clonazepam-best-offers...
December 5, 2011, 9:19 PM 2000d N/A 1 http://www.arcopedico.org
December 5, 2011, 9:19 PM 2000d December 5, 2011, 8:48 PM 2000d 10 http://www.facebook.com/notes/fludiazepam/fludiazepam-best-offers-g...
December 5, 2011, 9:09 PM 2000d December 4, 2011, 4:26 AM 2002d 139 http://www.facebook.com/notes/asendin/cheapest-asendin-no-prescript...
December 5, 2011, 7:38 PM 2000d December 5, 2011, 7:10 PM 2000d 10 http://www.facebook.com/notes/buy-sepazon/buy-sepazon-best-price-bu...
December 5, 2011, 7:30 PM 2000d December 5, 2011, 2:34 PM 2000d 19 http://www.facebook.com/notes/zolpidem/buy-zolpidem-online-uk-great...
December 5, 2011, 7:03 PM 2000d December 5, 2011, 6:35 PM 2000d 10 http://www.facebook.com/notes/buy-clobazam/cheapest-clobazam-best-p...
December 5, 2011, 6:37 PM 2000d December 5, 2011, 6:07 PM 2000d 9 http://www.facebook.com/notes/fludiazepam/cheapest-fludiazepam-lowe...
December 5, 2011, 5:09 PM 2000d December 5, 2011, 4:39 PM 2000d 10 http://www.facebook.com/notes/buy-rondimen/buy-rondimen-now-lowest-...
December 5, 2011, 4:27 PM 2000d December 5, 2011, 3:56 PM 2000d 10 http://www.facebook.com/notes/buy-carisoprodol/cheapest-carisoprodo...
December 5, 2011, 4:00 PM 2000d December 5, 2011, 12:58 PM 2000d 20 http://www.facebook.com/notes/erispan/buy-erispan-online-uk-only-be...
December 5, 2011, 3:38 PM 2000d December 5, 2011, 3:07 PM 2000d 10 http://www.facebook.com/notes/cheap-diazepam/buy-cheap-diazepam-onl...
December 5, 2011, 2:25 PM 2000d December 5, 2011, 1:55 PM 2000d 10 http://www.facebook.com/notes/buy-rivotril/buy-rivotril-no-prescrip...
December 5, 2011, 1:44 PM 2000d December 5, 2011, 1:13 PM 2000d 9 http://www.facebook.com/notes/buy-camazepam/cheap-camazepam-online-...
December 5, 2011, 1:18 PM 2000d N/A 1 http://windows-keitai.com/?ニュース/2009.04.08 次期 PSP はスライド...
December 5, 2011, 1:08 PM 2000d December 5, 2011, 12:40 PM 2000d 10 http://www.facebook.com/notes/cheap-dalmane/dalmane-best-offers-low...
December 5, 2011, 11:46 AM 2000d December 5, 2011, 11:17 AM 2000d 10 http://www.facebook.com/notes/buy-restoril/buy-restoril-now-fda-che...
December 5, 2011, 11:02 AM 2000d December 5, 2011, 10:32 AM 2000d 10 http://www.facebook.com/notes/buy-bromazepam/order-online-bromazepa...
December 5, 2011, 10:59 AM 2000d December 5, 2011, 10:31 AM 2000d 10 http://www.facebook.com/notes/dormonoct/buy-dormonoct-no-prescripti...
December 5, 2011, 10:53 AM 2000d December 5, 2011, 1:24 AM 2001d 30 http://www.facebook.com/notes/zolpidem/cheapest-zolpidem-online-pil...
December 5, 2011, 10:44 AM 2000d December 5, 2011, 10:18 AM 2000d 10 http://www.facebook.com/notes/cheap-cloxazolam/cheapest-cloxazolam-...
December 5, 2011, 10:43 AM 2000d December 5, 2011, 10:42 AM 2000d 2 http://search.yahoo.co.jp/search?p=Windows 携帯 AU&rs=1&tid...
December 5, 2011, 9:12 AM 2000d December 5, 2011, 8:43 AM 2000d 10 http://www.facebook.com/notes/buy-prozac/buy-prozac-online-official...
December 5, 2011, 8:33 AM 2000d December 5, 2011, 8:07 AM 2000d 10 http://www.facebook.com/notes/dormonoct/buy-cheap-dormonoct-online-...
December 5, 2011, 8:25 AM 2000d December 5, 2011, 7:59 AM 2000d 10 http://www.facebook.com/notes/cheap-clonazepam/buy-clonazepam-onlin...
December 5, 2011, 8:25 AM 2000d December 5, 2011, 7:55 AM 2000d 10 http://www.facebook.com/notes/buy-bromazepam/cheapest-bromazepam-in...
December 5, 2011, 6:41 AM 2000d December 5, 2011, 6:12 AM 2001d 8 http://www.facebook.com/notes/buy-prozac/prozac-best-offers-online-...
December 5, 2011, 6:13 AM 2001d December 5, 2011, 5:47 AM 2001d 9 http://www.facebook.com/notes/difenoxin/cheapest-difenoxin-in-uk-on...
December 5, 2011, 6:08 AM 2001d December 5, 2011, 5:43 AM 2001d 10 http://www.facebook.com/notes/cheap-clobazam/buy-clobazam-online-be...
December 5, 2011, 5:51 AM 2001d December 5, 2011, 5:22 AM 2001d 10 http://www.facebook.com/notes/buy-barbital/buy-barbital-now-online-...
December 5, 2011, 4:19 AM 2001d December 5, 2011, 3:54 AM 2001d 10 http://www.facebook.com/notes/buy-provigil/buy-provigil-online-phar...
December 5, 2011, 3:57 AM 2001d December 5, 2011, 3:32 AM 2001d 9 http://www.facebook.com/notes/difenoxin/difenoxin-online-pharmacy-o...
December 5, 2011, 3:33 AM 2001d December 5, 2011, 3:08 AM 2001d 9 http://www.facebook.com/notes/buy-atomoxetine/buy-atomoxetine-onlin...
December 5, 2011, 2:29 AM 2001d N/A 1 http://www.google.com/search?rls=com.microsoft:*:IE-SearchBox&o...
December 5, 2011, 2:17 AM 2001d N/A 1 http://map.windows-keitai.com/emobile/map.html?encode_hint=ぷ&e...
December 5, 2011, 2:05 AM 2001d December 5, 2011, 1:38 AM 2001d 10 http://www.facebook.com/notes/buy-prosom/prosom-best-offers-trusted...
December 5, 2011, 1:45 AM 2001d December 5, 2011, 1:20 AM 2001d 10 http://www.facebook.com/notes/dalmane/order-online-dalmane-fast-del...
December 5, 2011, 1:17 AM 2001d December 5, 2011, 12:49 AM 2001d 10 http://www.facebook.com/notes/buy-ativan/ativan-best-offers-great-s...
December 5, 2011, 12:49 AM 2001d N/A 1 http://map.windows-keitai.com/emobile/map.html?encode_hint=ぷ&e...
December 4, 2011, 11:46 PM 2001d December 4, 2011, 11:23 PM 2001d 10 http://www.facebook.com/notes/buy-phentermine/buy-phentermine-best-...
December 4, 2011, 11:34 PM 2001d December 4, 2011, 11:10 PM 2001d 10 http://www.facebook.com/notes/dalmane/buy-dalmane-no-prescription-o...
December 4, 2011, 11:13 PM 2001d N/A 1 http://www.google.co.jp/url?sa=t&rct=j&q=windows ケータイ a...
December 4, 2011, 11:03 PM 2001d December 4, 2011, 10:37 PM 2001d 10 http://www.facebook.com/notes/buy-asendin/buy-cheap-asendin-online-...
December 4, 2011, 10:21 PM 2001d December 4, 2011, 9:04 PM 2001d 10 http://www.facebook.com/notes/zolpidem/buy-zolpidem-online-no-presc...
December 4, 2011, 9:40 PM 2001d December 4, 2011, 9:12 PM 2001d 10 http://www.facebook.com/notes/buy-phentermine/phentermine-best-offe...
December 4, 2011, 9:30 PM 2001d December 4, 2011, 9:07 PM 2001d 10 http://www.facebook.com/notes/dalmane/dalmane-online-pharmacy-great...
December 4, 2011, 8:53 PM 2001d December 4, 2011, 8:29 PM 2001d 10 http://www.facebook.com/notes/buy-ansieten/buy-ansieten-online-uk-o...
December 4, 2011, 7:31 PM 2001d December 4, 2011, 7:09 PM 2001d 10 http://www.facebook.com/notes/clobazam/buy-cheap-clobazam-online-ch...
December 4, 2011, 7:23 PM 2001d December 4, 2011, 6:56 PM 2001d 9 http://www.facebook.com/notes/buy-phentermine/order-online-phenterm...
December 4, 2011, 6:44 PM 2001d December 4, 2011, 6:18 PM 2001d 10 http://www.facebook.com/notes/buy-ambien/legal-buy-ambien-online-ch...
December 4, 2011, 5:36 PM 2001d December 4, 2011, 5:14 PM 2001d 10 http://www.facebook.com/notes/bromazepam/buy-bromazepam-official-ca...
December 4, 2011, 5:05 PM 2001d December 4, 2011, 4:38 PM 2001d 10 http://www.facebook.com/notes/buy-phentermine/buy-cheap-phentermine...
December 4, 2011, 4:31 PM 2001d December 4, 2011, 4:04 PM 2001d 10 http://www.facebook.com/notes/buy-ambien/cheapest-ambien-fda-checke...
December 4, 2011, 3:44 PM 2001d December 4, 2011, 3:24 PM 2001d 10 http://www.facebook.com/notes/bromazepam/cheapest-bromazepam-in-uk-...
December 4, 2011, 3:40 PM 2001d December 4, 2011, 3:14 PM 2001d 9 http://www.facebook.com/notes/cheap-camazepam/cheap-carisoprodol-on...
December 4, 2011, 3:18 PM 2001d December 4, 2011, 1:45 PM 2001d 10 http://www.facebook.com/notes/zolpidem/buy-zolpidem-online-fda-appr...
December 4, 2011, 2:46 PM 2001d December 4, 2011, 2:20 PM 2001d 9 http://www.facebook.com/notes/buy-paxipam/cheap-paxipam-online-no-p...
December 4, 2011, 2:15 PM 2001d December 4, 2011, 1:48 PM 2001d 10 http://www.facebook.com/notes/buy-alprazolam/buy-alprazolam-no-pres...
December 4, 2011, 2:14 PM 2001d December 4, 2011, 1:52 PM 2001d 10 http://www.facebook.com/notes/mazindol/order-online-mazindol-lowest...
December 4, 2011, 2:05 PM 2001d N/A 1 http://windows-keitai.com/?使いこなそう/Google Maps ストリートビュ...
December 4, 2011, 1:56 PM 2001d December 4, 2011, 1:35 PM 2001d 10 http://www.facebook.com/notes/bromazepam/where-to-buy-bromazepam-br...
December 4, 2011, 1:20 PM 2001d December 4, 2011, 12:53 PM 2001d 10 http://www.facebook.com/notes/cheap-camazepam/buy-cheap-camazepam-o...
December 4, 2011, 12:26 PM 2001d December 4, 2011, 11:41 AM 2001d 10 http://www.facebook.com/notes/buy-oxazepam/buy-oxazepam-no-prescrip...
December 4, 2011, 12:20 PM 2001d December 4, 2011, 11:59 AM 2001d 10 http://www.facebook.com/notes/mazindol/mazindol-online-pharmacy-dis...
December 4, 2011, 12:07 PM 2001d December 4, 2011, 11:44 AM 2001d 10 http://www.facebook.com/notes/bromazepam/cheapest-bromazepam-in-uk-...
December 4, 2011, 11:38 AM 2001d December 4, 2011, 9:54 AM 2001d 10 http://www.facebook.com/notes/buy-alertec/buy-alertec-online-uk-bes...
December 4, 2011, 10:32 AM 2001d December 4, 2011, 10:12 AM 2001d 10 http://www.facebook.com/notes/mazanor/buy-mazanor-no-prescription-d...
December 4, 2011, 10:13 AM 2001d December 4, 2011, 9:49 AM 2001d 10 http://www.facebook.com/notes/barbital/buy-barbital-no-prescription...
December 4, 2011, 8:48 AM 2001d December 4, 2011, 8:28 AM 2001d 8 http://www.facebook.com/notes/mazanor/order-online-mazanor-great-sa...
December 4, 2011, 8:45 AM 2001d December 4, 2011, 8:13 AM 2001d 10 http://www.facebook.com/notes/cheap-camazepam/cheap-camazepam-onlin...
December 4, 2011, 8:17 AM 2001d December 4, 2011, 7:56 AM 2001d 9 http://www.facebook.com/notes/barbital/buy-cheap-barbital-online-ch...
December 4, 2011, 7:59 AM 2001d December 4, 2011, 7:31 AM 2001d 10 http://www.facebook.com/notes/buy-nordiazepam/cheapest-nordiazepam-...
December 4, 2011, 7:17 AM 2001d December 4, 2011, 6:51 AM 2001d 10 http://www.facebook.com/notes/buy-aleram/cheapest-aleram-best-price...
December 4, 2011, 7:04 AM 2001d December 4, 2011, 6:44 AM 2001d 10 http://www.facebook.com/notes/lormetazepam/buy-lormetazepam-online-...
December 4, 2011, 6:31 AM 2001d December 4, 2011, 6:10 AM 2002d 10 http://www.facebook.com/notes/barbital/buy-barbital-online-uk-onlin...
December 4, 2011, 6:10 AM 2002d December 4, 2011, 5:41 AM 2002d 10 http://www.facebook.com/notes/cheap-bromazepam/bromazepam-best-offe...
December 4, 2011, 5:37 AM 2002d December 4, 2011, 5:10 AM 2002d 10 http://www.facebook.com/notes/buy-noctamid/cheapest-noctamid-online...
December 4, 2011, 5:23 AM 2002d December 4, 2011, 3:28 AM 2002d 19 http://www.facebook.com/notes/lormetazepam/lormetazepam-online-phar...
December 4, 2011, 5:21 AM 2002d December 4, 2011, 4:16 AM 2002d 10 http://www.facebook.com/notes/zolpidem/buy-zolpidem-online-uk-only-...
December 4, 2011, 4:56 AM 2002d December 4, 2011, 4:28 AM 2002d 10 http://www.facebook.com/notes/buy-albego/buy-cheap-albego-online-on...
December 4, 2011, 4:00 AM 2002d November 29, 2011, 2:43 PM 2006d 44 http://allaboutpaydaylenders.blogetery.com/
December 4, 2011, 3:45 AM 2002d December 4, 2011, 3:17 AM 2002d 10 http://www.facebook.com/notes/cheap-barbital/barbital-best-offers-o...
December 4, 2011, 3:11 AM 2002d December 4, 2011, 2:39 AM 2002d 10 http://www.facebook.com/notes/buy-nobrium/cheapest-nobrium-trusted-...
December 4, 2011, 3:05 AM 2002d December 4, 2011, 2:45 AM 2002d 10 http://www.facebook.com/notes/asendin/buy-asendin-now-fda-checked-p...
December 4, 2011, 2:25 AM 2002d December 3, 2011, 11:31 PM 2002d 20 http://www.facebook.com/notes/buy-adipex/adipex-best-offers-only-be...
December 4, 2011, 2:11 AM 2002d December 4, 2011, 1:54 AM 2002d 10 http://www.facebook.com/notes/lorazepam/buy-lorazepam-without-presc...
December 4, 2011, 1:22 AM 2002d December 4, 2011, 12:53 AM 2002d 10 http://www.facebook.com/notes/cheap-atomoxetine/cheapest-atomoxetin...
December 4, 2011, 1:21 AM 2002d December 3, 2011, 11:14 PM 2002d 19 http://www.facebook.com/notes/ansieten/ansieten-best-offers-best-pr...
December 4, 2011, 12:59 AM 2002d N/A 1 http://map.windows-keitai.com/WiMAX/UQ/area.html?encode_hint=ぷ&...
December 4, 2011, 12:48 AM 2002d N/A 1 http://www.google.co.jp/url?sa=t&rct=j&q=windows ケータイ ...
December 4, 2011, 12:43 AM 2002d December 4, 2011, 12:25 AM 2002d 10 http://www.facebook.com/notes/lorazepam/buy-lorazepam-no-prescripti...
December 4, 2011, 12:38 AM 2002d December 4, 2011, 12:11 AM 2002d 10 http://www.facebook.com/notes/buy-nitrazepam/nitrazepam-best-offers...
December 3, 2011, 11:41 PM 2002d December 3, 2011, 10:36 PM 2002d 10 http://www.facebook.com/notes/zolpidem/buy-zolpidem-no-prescription...
December 3, 2011, 11:17 PM 2002d December 3, 2011, 9:39 PM 2002d 20 http://www.facebook.com/notes/lorazepam/buy-cheap-lorazepam-online-...
December 3, 2011, 10:56 PM 2002d December 3, 2011, 10:26 PM 2002d 10 http://www.facebook.com/notes/cheap-ativan/buy-ativan-now-best-pric...
December 3, 2011, 10:16 PM 2002d N/A 1 http://map.windows-keitai.com/WiMAX/UQ/area.html?encode_hint=ぷ&...
December 3, 2011, 10:11 PM 2002d December 3, 2011, 9:45 PM 2002d 9 http://www.facebook.com/notes/buy-nimetazepam/nimetazepam-online-ph...
December 3, 2011, 9:53 PM 2002d December 3, 2011, 7:53 PM 2002d 20 http://www.facebook.com/notes/aleram/buy-aleram-now-fda-checked-pha...
December 3, 2011, 9:35 PM 2002d December 3, 2011, 9:08 PM 2002d 10 http://www.facebook.com/notes/brand-zolpidem/buy-zolpidem-online-on...
December 3, 2011, 9:31 PM 2002d N/A 1 http://www.google.co.jp/search?q=htc+スマートフォン+ドコモ&btnG...
December 3, 2011, 8:38 PM 2002d N/A 1 http://ht-02a.windows-keitai.com/?Touch Diamond2/スペック
December 3, 2011, 8:35 PM 2002d December 3, 2011, 8:21 PM 2002d 10 http://www.facebook.com/notes/lorazepam/lorazepam-online-pharmacy-b...
December 3, 2011, 8:28 PM 2002d December 3, 2011, 8:00 PM 2002d 10 http://www.facebook.com/notes/cheap-asendin/cheapest-asendin-cheap-...
December 3, 2011, 7:43 PM 2002d December 3, 2011, 7:14 PM 2002d 10 http://www.facebook.com/notes/buy-motofen/cheapest-motofen-online-p...
December 3, 2011, 7:20 PM 2002d December 3, 2011, 7:06 PM 2002d 10 http://www.facebook.com/notes/lorazepam/legal-buy-lorazepam-online-...
December 3, 2011, 7:10 PM 2002d December 3, 2011, 6:41 PM 2002d 9 http://www.facebook.com/notes/brand-xanax/xanax-best-offers-discoun...
December 3, 2011, 6:35 PM 2002d December 2, 2011, 4:19 AM 2004d 20 http://www.magentocommerce.com/boards/member/26120840/
December 3, 2011, 6:31 PM 2002d December 3, 2011, 6:10 PM 2002d 10 http://www.facebook.com/notes/albego/buy-cheap-albego-online-only-b...
December 3, 2011, 6:23 PM 2002d December 3, 2011, 5:28 PM 2002d 10 http://www.facebook.com/notes/zolpidem/zolpidem-best-offers-no-pres...
December 3, 2011, 6:08 PM 2002d December 3, 2011, 5:54 PM 2002d 10 http://www.facebook.com/notes/lorazepam/order-online-lorazepam-no-p...
December 3, 2011, 5:49 PM 2002d December 3, 2011, 5:20 PM 2002d 10 http://www.facebook.com/notes/cheap-ansieten/cheapest-ansieten-disc...
December 3, 2011, 5:11 PM 2002d December 3, 2011, 4:43 PM 2002d 9 http://www.facebook.com/notes/buy-modalert/buy-modalert-only-best-o...
December 3, 2011, 5:05 PM 2002d December 3, 2011, 10:46 AM 2002d 2 http://www.baidu.com/s?wd=e30ht pro
December 3, 2011, 4:56 PM 2002d December 3, 2011, 4:42 PM 2002d 10 http://www.facebook.com/notes/lorazepam/buy-lorazepam-online-no-pre...
December 3, 2011, 4:53 PM 2002d November 10, 2011, 8:07 PM 2025d 2 http://114search.114so.cn/search_web.html?id=510&nid=&ec=gb...
December 3, 2011, 4:50 PM 2002d N/A 1 http://www.bb365.info
December 3, 2011, 4:49 PM 2002d December 3, 2011, 4:28 PM 2002d 10 http://www.facebook.com/notes/albego/buy-albego-without-prescriptio...
December 3, 2011, 4:38 PM 2002d December 3, 2011, 4:08 PM 2002d 10 http://www.facebook.com/notes/brand-valium/legal-buy-valium-online-...
December 3, 2011, 3:45 PM 2002d December 3, 2011, 3:31 PM 2002d 10 http://www.facebook.com/notes/lorazepam/buy-lorazepam-no-prescripti...
December 3, 2011, 3:27 PM 2002d N/A 1 http://www.baidu.com/s?wd=a
December 3, 2011, 3:16 PM 2002d December 3, 2011, 2:47 PM 2002d 10 http://www.facebook.com/notes/cheap-ambien/buy-ambien-no-prescripti...
December 3, 2011, 3:06 PM 2002d December 3, 2011, 2:45 PM 2002d 10 http://www.facebook.com/notes/clobazam/clobazam-best-offers-fda-che...
December 3, 2011, 2:36 PM 2002d December 3, 2011, 2:07 PM 2002d 10 http://www.facebook.com/notes/buy-modafinil/buy-modafinil-fast-deli...
December 3, 2011, 2:35 PM 2002d December 3, 2011, 1:16 PM 2002d 20 http://www.facebook.com/notes/lorazepam/buy-lorazepam-cheap-price-h...
December 3, 2011, 2:01 PM 2002d December 3, 2011, 1:32 PM 2002d 10 http://www.facebook.com/notes/brand-tramadol/cheap-tramadol-online-...
December 3, 2011, 1:24 PM 2002d December 3, 2011, 1:04 PM 2002d 10 http://www.facebook.com/notes/clobazam/buy-clobazam-only-best-offer...
December 3, 2011, 1:09 PM 2002d December 3, 2011, 11:57 AM 2002d 10 http://www.facebook.com/notes/zolpidem/buy-zolpidem-now-online-pres...
December 3, 2011, 12:39 PM 2002d December 3, 2011, 12:07 PM 2002d 10 http://www.facebook.com/notes/cheap-alprazolam/alprazolam-best-offe...
December 3, 2011, 12:20 PM 2002d December 3, 2011, 12:07 PM 2002d 10 http://www.facebook.com/notes/lorazepam/buy-lorazepam-now-fda-check...
December 3, 2011, 11:49 AM 2002d December 3, 2011, 11:17 AM 2002d 10 http://www.facebook.com/notes/buy-methylphenobarbital/cheapest-meth...
December 3, 2011, 11:41 AM 2002d December 3, 2011, 11:21 AM 2002d 9 http://www.facebook.com/notes/stilny/cheapest-stilny-in-uk-online-p...
December 3, 2011, 11:28 AM 2002d N/A 1 http://soft.wince.ne.jp/soft/Lists/?P=220&CM=3&R=20
December 3, 2011, 11:19 AM 2002d December 3, 2011, 10:49 AM 2002d 9 http://www.facebook.com/notes/brand-soma/legal-buy-soma-online-best...
December 3, 2011, 11:14 AM 2002d December 3, 2011, 11:01 AM 2002d 10 http://www.facebook.com/notes/lorazepam/lorazepam-online-pharmacy-o...
December 3, 2011, 10:21 AM 2002d N/A 1 http://www.google.co.jp/url?sa=t&rct=j&q=docomo+フルキーボ...
December 3, 2011, 10:07 AM 2002d December 3, 2011, 9:54 AM 2002d 10 http://www.facebook.com/notes/lorazepam/cheapest-lorazepam-in-uk-no...
December 3, 2011, 10:01 AM 2002d December 3, 2011, 9:41 AM 2002d 10 http://www.facebook.com/notes/stilny/legal-buy-stilny-online-no-pre...
December 3, 2011, 9:59 AM 2002d December 3, 2011, 9:58 AM 2002d 3 http://search.yahoo.co.jp/search?p=ドコモ ht01a&rs=1&tid=to...
December 3, 2011, 9:49 AM 2002d December 3, 2011, 9:20 AM 2002d 10 http://www.facebook.com/notes/cheap-aleram/buy-aleram-great-savings...
December 3, 2011, 9:04 AM 2002d December 3, 2011, 8:52 AM 2002d 10 http://www.facebook.com/notes/lorazepam/lorazepam-online-pharmacy-f...
December 3, 2011, 8:55 AM 2002d December 3, 2011, 8:24 AM 2002d 10 http://www.facebook.com/notes/buy-mefenorex/buy-mefenorex-without-p...
December 3, 2011, 8:28 AM 2002d December 3, 2011, 7:56 AM 2002d 9 http://www.facebook.com/notes/brand-prozac/buy-prozac-online-great-...
December 3, 2011, 8:25 AM 2002d December 3, 2011, 6:28 AM 2002d 20 http://www.facebook.com/notes/rondimen/buy-rondimen-without-prescri...
December 3, 2011, 8:03 AM 2002d December 3, 2011, 7:51 AM 2002d 10 http://www.facebook.com/notes/lorazepam/cheapest-lorazepam-fast-del...
December 3, 2011, 7:45 AM 2002d N/A 1 http://map.windows-keitai.com/WiMAX/UQ/area.html?encode_hint=ぷ&...
December 3, 2011, 7:27 AM 2002d N/A 1 http://search.yahoo.co.jp/search?p=au touch pro&rs=3&ei=UTF...
December 3, 2011, 7:06 AM 2002d December 3, 2011, 6:37 AM 2002d 9 http://www.facebook.com/notes/cheap-albego/cheapest-albego-in-uk-no...
December 3, 2011, 7:02 AM 2002d December 3, 2011, 6:49 AM 2002d 10 http://www.facebook.com/notes/lorazepam/buy-lorazepam-no-prescripti...
December 3, 2011, 6:12 AM 2003d December 3, 2011, 5:43 AM 2003d 7 http://www.facebook.com/notes/buy-medazepam/buy-medazepam-online-on...
December 3, 2011, 5:59 AM 2003d December 3, 2011, 5:46 AM 2003d 10 http://www.facebook.com/notes/lorazepam/cheapest-lorazepam-discount...
December 3, 2011, 5:52 AM 2003d December 3, 2011, 5:21 AM 2003d 10 http://www.facebook.com/notes/brand-phentermine/phentermine-best-of...
December 3, 2011, 5:31 AM 2003d December 3, 2011, 4:12 AM 2003d 10 http://www.facebook.com/notes/zolpidem/cheapest-zolpidem-in-uk-trus...
December 3, 2011, 5:08 AM 2003d December 3, 2011, 4:47 AM 2003d 9 http://www.facebook.com/notes/serax/cloxazolam-best-offers-online-p...
December 3, 2011, 4:54 AM 2003d December 3, 2011, 3:36 AM 2003d 19 http://www.facebook.com/notes/lorazepam/lorazepam-online-pharmacy-b...
December 3, 2011, 4:23 AM 2003d December 3, 2011, 3:52 AM 2003d 10 http://www.facebook.com/notes/cheap-adipex/adipex-best-offers-only-...
December 3, 2011, 3:35 AM 2003d December 3, 2011, 2:56 AM 2003d 10 http://www.facebook.com/notes/buy-mebaral/cheapest-mebaral-in-uk-on...
December 3, 2011, 3:27 AM 2003d December 2, 2011, 2:47 PM 2003d 30 http://www.facebook.com/notes/serax/order-online-erimin-only-best-o...
December 3, 2011, 3:11 AM 2003d December 3, 2011, 2:31 AM 2003d 10 http://www.facebook.com/notes/brand-lorazepam/cheapest-lorazepam-ch...
December 3, 2011, 2:39 AM 2003d December 3, 2011, 2:24 AM 2003d 10 http://www.facebook.com/notes/lorazepam/buy-lorazepam-only-best-off...
December 3, 2011, 1:42 AM 2003d December 3, 2011, 1:12 AM 2003d 10 http://www.facebook.com/notes/buy-zopiclone/order-online-zopiclone-...
December 3, 2011, 1:30 AM 2003d December 3, 2011, 1:15 AM 2003d 10 http://www.facebook.com/notes/lorazepam/cheapest-lorazepam-fast-del...
December 3, 2011, 12:54 AM 2003d December 3, 2011, 12:29 AM 2003d 10 http://www.facebook.com/notes/buy-mazindol/buy-mazindol-no-prescrip...
December 3, 2011, 12:40 AM 2003d December 3, 2011, 12:17 AM 2003d 10 http://www.facebook.com/notes/brand-diazepam/diazepam-best-offers-c...
December 3, 2011, 12:28 AM 2003d December 2, 2011, 11:53 PM 2003d 10 http://www.facebook.com/notes/zolpidem/legal-buy-zolpidem-online-fa...
December 3, 2011, 12:03 AM 2003d N/A 1 http://is12t.windows-keitai.com/?IS12T/ビデオでみる IS12T/02 つなが...
December 2, 2011, 11:24 PM 2003d December 2, 2011, 10:58 PM 2003d 10 http://www.facebook.com/notes/buy-zolpidem/buy-cheap-zolpidem-onlin...
December 2, 2011, 10:54 PM 2003d N/A 1 http://map.windows-keitai.com/emobile/map.html?encode_hint=ぷ&e...
December 2, 2011, 10:45 PM 2003d December 2, 2011, 10:22 PM 2003d 10 http://www.facebook.com/notes/buy-mazanor/buy-mazanor-fast-delivery...
December 2, 2011, 10:36 PM 2003d December 2, 2011, 10:14 PM 2003d 10 http://www.facebook.com/notes/brand-clonazepam/legal-buy-clonazepam...
December 2, 2011, 10:20 PM 2003d N/A 1 http://soft.wince.ne.jp/soft/CommentView/PID2710/
December 2, 2011, 9:43 PM 2003d December 2, 2011, 9:14 PM 2003d 10 http://www.facebook.com/notes/zolpidem/zolpidem-online-pharmacy-onl...
December 2, 2011, 9:23 PM 2003d December 2, 2011, 8:58 PM 2003d 10 http://www.facebook.com/notes/buy-zolpidem/buy-zolpidem-online-pill...
December 2, 2011, 8:44 PM 2003d December 2, 2011, 8:21 PM 2003d 10 http://www.facebook.com/notes/buy-lunesta/cheap-lunesta-online-fda-...
December 2, 2011, 8:36 PM 2003d December 2, 2011, 8:12 PM 2003d 10 http://www.facebook.com/notes/brand-ambien/buy-ambien-now-online-ph...
December 2, 2011, 7:34 PM 2003d December 2, 2011, 7:12 PM 2003d 10 http://www.facebook.com/notes/zolpidem/cheapest-zolpidem-in-uk-onli...
December 2, 2011, 7:16 PM 2003d December 2, 2011, 6:50 PM 2003d 10 http://www.facebook.com/notes/buy-xanax/buy-xanax-no-prescription-t...
December 2, 2011, 6:36 PM 2003d December 2, 2011, 6:12 PM 2003d 10 http://www.facebook.com/notes/buy-lormetazepam/buy-lormetazepam-onl...
December 2, 2011, 6:27 PM 2003d December 2, 2011, 6:02 PM 2003d 9 http://www.facebook.com/notes/brand-alprazolam/buy-alprazolam-now-o...
December 2, 2011, 6:04 PM 2003d N/A 1 http://search.yahoo.co.jp/search?p=うぃんどうずけいたい あう&a...
December 2, 2011, 5:48 PM 2003d N/A 1 http://www.baidu.com/s?tn=baiduhome_pg&bs=e30ht+t7272&f=8&a...
December 2, 2011, 5:31 PM 2003d N/A 1 http://soft.wince.ne.jp/soft/Detail/MoonMeter/PID4557/
December 2, 2011, 5:12 PM 2003d December 2, 2011, 4:47 PM 2003d 10 http://www.facebook.com/notes/buy-xanax/xanax-online-pharmacy-best-...
December 2, 2011, 4:06 PM 2003d December 2, 2011, 3:38 PM 2003d 10 http://www.facebook.com/notes/buy-lorazepam/lorazepam-best-offers-f...
December 2, 2011, 3:56 PM 2003d December 2, 2011, 3:28 PM 2003d 10 http://www.facebook.com/notes/brand-adipex/adipex-best-offers-disco...
December 2, 2011, 3:31 PM 2003d N/A 1 http://www.e-uggboots.com
December 2, 2011, 3:11 PM 2003d December 2, 2011, 1:40 AM 2004d 20 http://www.facebook.com/notes/zolpidem/buy-zolpidem-discount-cheap-...
December 2, 2011, 3:05 PM 2003d December 2, 2011, 2:40 PM 2003d 10 http://www.facebook.com/notes/buy-xanax/buy-xanax-online-uk-fda-app...
December 2, 2011, 2:46 PM 2003d December 2, 2011, 1:51 PM 2003d 9 http://www.facebook.com/notes/lorazepam/cheapest-lorazepam-in-uk-di...
December 2, 2011, 2:23 PM 2003d N/A 1 http://map.windows-keitai.com/emobile/map.html?encode_hint=ぷ&e...
December 2, 2011, 1:38 PM 2003d December 2, 2011, 1:05 PM 2003d 10 http://www.facebook.com/notes/buy-loprazolam/buy-loprazolam-online-...
December 2, 2011, 1:28 PM 2003d December 2, 2011, 12:58 PM 2003d 10 http://www.facebook.com/notes/atomoxetine-mg/buy-drugs-online-best-...
December 2, 2011, 12:54 PM 2003d December 2, 2011, 12:27 PM 2003d 9 http://www.facebook.com/notes/buy-xanax/buy-xanax-without-prescript...
December 2, 2011, 12:27 PM 2003d N/A 1 http://wiki.wince.ne.jp/W-ZERO3/?電話機能
December 2, 2011, 11:04 AM 2003d December 2, 2011, 10:35 AM 2003d 9 http://www.facebook.com/notes/buy-librium/cheapest-librium-in-uk-on...
December 2, 2011, 10:59 AM 2003d December 2, 2011, 10:31 AM 2003d 10 http://www.facebook.com/notes/ativan-mg/buy-drugs-no-prescription-d...
December 2, 2011, 10:49 AM 2003d December 2, 2011, 10:27 AM 2003d 9 http://www.facebook.com/notes/buy-veronal/buy-cheap-veronal-online-...
December 2, 2011, 10:45 AM 2003d December 2, 2011, 10:42 AM 2003d 2 http://makizume.mobi/Mobile/Top/Before?axd=105Vpj1zmenlAKgH
December 2, 2011, 9:37 AM 2003d December 2, 2011, 3:14 AM 2004d 18 http://www.facebook.com/notes/lorazepam/buy-lorazepam-only-best-off...
December 2, 2011, 9:26 AM 2003d N/A 1 http://03-willcom.windows-keitai.com/?WILLCOM 03(WS020SH)/動画で見...
December 2, 2011, 9:05 AM 2003d December 2, 2011, 7:57 AM 2003d 10 http://www.facebook.com/notes/zolpidem/buy-zolpidem-now-cheap-price...
December 2, 2011, 8:59 AM 2003d December 2, 2011, 8:37 AM 2003d 10 http://www.facebook.com/notes/buy-valium/order-online-valium-online...
December 2, 2011, 8:51 AM 2003d December 2, 2011, 8:22 AM 2003d 10 http://www.facebook.com/notes/buy-lexotan/lexotan-online-pharmacy-n...
December 2, 2011, 8:48 AM 2003d December 2, 2011, 8:20 AM 2003d 10 http://www.facebook.com/notes/ambien-mg/order-online-drugs-only-bes...
December 2, 2011, 8:48 AM 2003d December 2, 2011, 1:50 AM 2004d 20 http://www.facebook.com/notes/serax/order-online-erimin-online-pres...
December 2, 2011, 8:13 AM 2003d December 1, 2011, 10:46 PM 2004d 3 http://www.partnerbeads.com
December 2, 2011, 7:02 AM 2003d December 2, 2011, 6:40 AM 2003d 10 http://www.facebook.com/notes/buy-valium/buy-valium-online-lowest-p...
December 2, 2011, 6:32 AM 2003d December 2, 2011, 6:07 AM 2004d 8 http://www.facebook.com/notes/buy-klonopin/cheapest-klonopin-in-uk-...
December 2, 2011, 6:31 AM 2003d December 2, 2011, 6:05 AM 2004d 9 http://www.facebook.com/notes/ambien-mg/cheap-drugs-online-fast-del...
December 2, 2011, 5:37 AM 2004d November 22, 2011, 6:25 AM 2013d 8 http://www.topauboots.com
December 2, 2011, 5:16 AM 2004d December 2, 2011, 4:52 AM 2004d 10 http://www.facebook.com/notes/buy-valium/buy-valium-now-online-drug...
December 2, 2011, 4:19 AM 2004d December 2, 2011, 3:52 AM 2004d 10 http://www.facebook.com/notes/buy-ketazolam/buy-ketazolam-without-p...
December 2, 2011, 4:19 AM 2004d December 2, 2011, 3:52 AM 2004d 9 http://www.facebook.com/notes/alprazolam-mg/buy-drugs-without-presc...
December 2, 2011, 3:22 AM 2004d December 2, 2011, 3:01 AM 2004d 10 http://www.facebook.com/notes/buy-ultram/buy-ultram-cheap-price-buy...
December 2, 2011, 2:04 AM 2004d December 2, 2011, 1:39 AM 2004d 10 http://www.facebook.com/notes/alprazolam-mg/buy-drugs-no-prescripti...
December 2, 2011, 2:02 AM 2004d December 2, 2011, 1:36 AM 2004d 10 http://www.facebook.com/notes/buy-imovane/buy-imovane-online-drug-s...
December 2, 2011, 1:59 AM 2004d N/A 1 http://www.canedy.swiebodzin.pl/barbie-pokaz-mody-torrent-download.htm
December 2, 2011, 1:28 AM 2004d December 2, 2011, 1:06 AM 2004d 10 http://www.facebook.com/notes/buy-tramadol/order-online-tramadol-on...
December 1, 2011, 11:50 PM 2004d December 1, 2011, 11:24 PM 2004d 10 http://www.facebook.com/notes/adipex-mg/adipex-best-offers-trusted-...
December 1, 2011, 11:47 PM 2004d December 1, 2011, 11:21 PM 2004d 10 http://www.facebook.com/notes/buy-halazepam/buy-halazepam-no-prescr...
December 1, 2011, 11:34 PM 2004d December 1, 2011, 11:14 PM 2004d 10 http://www.facebook.com/notes/buy-tramadol/order-online-tramadol-of...
December 1, 2011, 10:16 PM 2004d December 1, 2011, 2:29 PM 2004d 20 http://www.facebook.com/notes/lorazepam/buy-lorazepam-without-presc...
December 1, 2011, 9:59 PM 2004d December 1, 2011, 9:36 PM 2004d 10 http://www.facebook.com/notes/pharmacy/buy-drugs-online-best-price-...
December 1, 2011, 9:27 PM 2004d December 1, 2011, 8:09 PM 2004d 10 http://www.facebook.com/notes/serax/where-to-buy-serax-celexa-20-mg...
December 1, 2011, 8:53 PM 2004d December 1, 2011, 7:48 PM 2004d 10 http://www.facebook.com/notes/zolpidem/zolpidem-best-offers-cheap-p...
December 1, 2011, 8:47 PM 2004d November 29, 2011, 8:07 AM 2006d 269 http://www.facebook.com/notes/zovirax/cheapest-zovirax-best-price-v...
December 1, 2011, 8:00 PM 2004d December 1, 2011, 7:41 PM 2004d 10 http://www.facebook.com/notes/pharmacy/buy-drugs-without-prescripti...
December 1, 2011, 6:26 PM 2004d December 1, 2011, 6:10 PM 2004d 10 http://www.facebook.com/notes/pharmacy/drugs-online-pharmacy-best-p...
December 1, 2011, 5:45 PM 2004d November 11, 2011, 12:05 PM 2024d 64 http://my.speedtv.com/paydayloansonline
December 1, 2011, 5:12 PM 2004d N/A 1 http://www.wince.ne.jp/snap/ceSnapView.asp?PID=1675
December 1, 2011, 4:06 PM 2004d December 1, 2011, 3:44 PM 2004d 10 http://www.facebook.com/notes/pharmacy/order-online-drugs-discount-...
December 1, 2011, 4:02 PM 2004d N/A 1 http://www.google.co.jp/url?sa=t&rct=j&q=ht12 au&source...
December 1, 2011, 3:37 PM 2004d N/A 1 http://bit.ly/t2DySJ
December 1, 2011, 3:07 PM 2004d N/A 1 http://netslotmachine.info
December 1, 2011, 2:13 PM 2004d December 1, 2011, 1:53 PM 2004d 10 http://www.facebook.com/notes/pharmacy/buy-drugs-now-fda-checked-ph...
December 1, 2011, 1:16 PM 2004d N/A 1 http://map.windows-keitai.com/WiMAX/UQ/area.html?encode_hint=ぷ&...
December 1, 2011, 12:50 PM 2004d December 1, 2011, 11:13 AM 2004d 10 http://www.facebook.com/notes/zolpidem/buy-zolpidem-without-prescri...
December 1, 2011, 12:40 PM 2004d N/A 1 http://ht-02a.windows-keitai.com/?Touch Diamond/購入特集/06 画面(...
December 1, 2011, 12:26 PM 2004d December 1, 2011, 12:05 PM 2004d 10 http://www.facebook.com/notes/pharmacy/buy-drugs-online-uk-fast-del...
December 1, 2011, 12:08 PM 2004d December 1, 2011, 11:13 AM 2004d 10 http://www.facebook.com/notes/serax/cheapest-serax-no-prescription-...
December 1, 2011, 11:16 AM 2004d December 1, 2011, 11:15 AM 2004d 2 http://www.google.co.jp/url?sa=t&rct=j&q=e30ht docomo&...
December 1, 2011, 10:42 AM 2004d December 1, 2011, 10:20 AM 2004d 10 http://www.facebook.com/notes/pharmacy/buy-cheap-drugs-online-onlin...
December 1, 2011, 9:07 AM 2004d December 1, 2011, 8:13 AM 2004d 10 http://www.facebook.com/notes/lorazepam/lorazepam-best-offers-cheap...
December 1, 2011, 9:06 AM 2004d N/A 1 http://www.google.co.jp/url?sa=t&rct=j&q=ドコモ+スマートフ...
December 1, 2011, 9:03 AM 2004d December 1, 2011, 8:43 AM 2004d 10 http://www.facebook.com/notes/pharmacy/drugs-online-pharmacy-cheap-...
December 1, 2011, 8:13 AM 2004d December 1, 2011, 7:34 AM 2004d 10 http://www.facebook.com/notes/serax/legal-buy-serax-online-best-pri...
December 1, 2011, 8:03 AM 2004d N/A 1 http://map.windows-keitai.com/WiMAX/UQ/area.html?encode_hint=ぷ&...
December 1, 2011, 7:23 AM 2004d December 1, 2011, 7:04 AM 2004d 10 http://www.facebook.com/notes/pharmacy/drugs-online-pharmacy-fda-ch...
December 1, 2011, 6:39 AM 2004d December 1, 2011, 2:48 AM 2005d 20 http://www.facebook.com/notes/zolpidem/cheap-zolpidem-online-fda-ap...
December 1, 2011, 5:53 AM 2005d N/A 1 http://www.bing.com/search?q=windows+携帯+au&FORM=HPNTBG&PC...
December 1, 2011, 5:35 AM 2005d December 1, 2011, 5:13 AM 2005d 8 http://www.facebook.com/notes/pharmacy/cheapest-drugs-in-uk-online-...
December 1, 2011, 5:24 AM 2005d December 1, 2011, 4:59 AM 2005d 9 http://www.facebook.com/notes/nimetazepam/nimetazepam-best-offers-g...
December 1, 2011, 5:09 AM 2005d December 1, 2011, 4:35 AM 2005d 10 http://www.facebook.com/notes/lorazepam/buy-lorazepam-now-fast-deli...
December 1, 2011, 3:50 AM 2005d December 1, 2011, 3:30 AM 2005d 10 http://www.facebook.com/notes/pharmacy/cheapest-drugs-no-prescripti...
December 1, 2011, 2:40 AM 2005d December 1, 2011, 2:14 AM 2005d 9 http://www.facebook.com/notes/lorazepam/buy-lorazepam-now-online-dr...
December 1, 2011, 2:27 AM 2005d N/A 1 http://www.uggconcept.com
December 1, 2011, 2:03 AM 2005d December 1, 2011, 1:41 AM 2005d 10 http://www.facebook.com/notes/pharmacy/buy-drugs-now-great-savings-...
December 1, 2011, 12:42 AM 2005d November 16, 2011, 10:49 AM 2019d 20 http://www.facebook.com/notes/finpecia/cheap-finpecia-online-no-pre...
December 1, 2011, 12:19 AM 2005d N/A 1 http://search.yahoo.co.jp/search?p=HTC&tid=top_ga1_sa&ei=UT...
November 30, 2011, 11:27 PM 2005d November 30, 2011, 6:48 PM 2005d 10 http://www.facebook.com/notes/zolpidem/cheap-zolpidem-online-online...
November 30, 2011, 10:27 PM 2005d N/A 1 http://soft.wince.ne.jp/soft/Detail/波動ケーン for Windows Mobile/P...
November 30, 2011, 10:25 PM 2005d N/A 1 http://www.bing.com/search?q=Touch+Pro&x=116&y=11&form=...
November 30, 2011, 10:24 PM 2005d November 16, 2011, 9:36 AM 2019d 20 http://www.facebook.com/notes/finasteride/buy-finasteride-discount-...
November 30, 2011, 10:16 PM 2005d N/A 1 http://www.google.co.jp/search?q=docomo+スマフォ+HTC&ie=UTF-8&a...
November 30, 2011, 9:25 PM 2005d November 30, 2011, 6:16 PM 2005d 10 http://www.facebook.com/notes/lorazepam/lorazepam-online-pharmacy-t...
November 30, 2011, 9:12 PM 2005d November 30, 2011, 8:50 PM 2005d 10 http://www.facebook.com/notes/best-casino-online/online-casinos-rev...
November 30, 2011, 8:30 PM 2005d N/A 1 http://search.goo.ne.jp/web.jsp?TF=w&OE=EUC-JP&MT=au+docomo...
November 30, 2011, 8:06 PM 2005d November 16, 2011, 8:22 AM 2019d 20 http://www.facebook.com/notes/finasteride/finasteride-best-offers-o...
November 30, 2011, 7:10 PM 2005d November 30, 2011, 6:27 PM 2005d 10 http://www.facebook.com/notes/best-casino-online/slots-of-vegas-cas...
November 30, 2011, 5:59 PM 2005d N/A 1 http://map.windows-keitai.com/emobile/map.html?encode_hint=ぷ&e...
November 30, 2011, 4:59 PM 2005d November 30, 2011, 4:36 PM 2005d 9 http://www.facebook.com/notes/best-casino-online/best-online-casino...
November 30, 2011, 4:51 PM 2005d November 16, 2011, 7:16 AM 2019d 19 http://www.facebook.com/notes/finasteride/order-online-finasteride-...
November 30, 2011, 4:45 PM 2005d N/A 1 http://www.google.co.jp/url?sa=t&rct=j&q=aquos phone 102sh...
November 30, 2011, 4:43 PM 2005d November 30, 2011, 4:43 PM 2005d 5 http://gravatar.com/nodepositcasinobonuscode23
November 30, 2011, 4:01 PM 2005d November 30, 2011, 4:01 PM 2005d 4 http://trig.com/newprismcasinonodepositcodes/biography
November 30, 2011, 3:02 PM 2005d November 30, 2011, 2:39 PM 2005d 10 http://www.facebook.com/notes/best-casino-online/mobile-casino-no-d...
November 30, 2011, 2:47 PM 2005d November 30, 2011, 1:57 PM 2005d 10 http://www.facebook.com/notes/zolpidem/zolpidem-online-pharmacy-che...
November 30, 2011, 2:46 PM 2005d November 30, 2011, 9:44 AM 2005d 20 http://www.facebook.com/notes/lorazepam/lorazepam-online-pharmacy-o...
November 30, 2011, 2:41 PM 2005d November 16, 2011, 6:12 AM 2020d 20 http://www.facebook.com/notes/finasteride/finasteride-online-pharma...
November 30, 2011, 1:50 PM 2005d November 30, 2011, 1:49 PM 2005d 2 http://seddvd.seesaa.net/
November 30, 2011, 1:12 PM 2005d November 30, 2011, 12:50 PM 2005d 10 http://www.facebook.com/notes/best-casino-online/vip-lounge-casino-...
November 30, 2011, 1:11 PM 2005d November 30, 2011, 1:11 PM 2005d 5 http://gravatar.com/casinonodeposit345
November 30, 2011, 12:35 PM 2005d November 16, 2011, 5:06 AM 2020d 20 http://www.facebook.com/notes/estradiol/order-online-estradiol-no-p...
November 30, 2011, 12:27 PM 2005d N/A 1 http://search.yahoo.co.jp/search?ei=UTF-8&fr=ie8scint&p=ド...
November 30, 2011, 11:20 AM 2005d November 30, 2011, 10:58 AM 2005d 10 http://www.facebook.com/notes/best-casino-online/new-no-deposit-cas...
November 30, 2011, 10:43 AM 2005d N/A 1 http://search.goo.ne.jp/web.jsp?MT=ドコモ HTC+スマートフォン&S...
November 30, 2011, 10:36 AM 2005d November 16, 2011, 3:58 AM 2020d 20 http://www.facebook.com/notes/estrace/estrace-online-pharmacy-onlin...
November 30, 2011, 10:26 AM 2005d November 30, 2011, 10:26 AM 2005d 5 http://trig.com/freenodepositcasino700/biography
November 30, 2011, 10:13 AM 2005d November 30, 2011, 9:13 AM 2005d 10 http://www.facebook.com/notes/zolpidem/cheap-zolpidem-online-only-b...
November 30, 2011, 9:55 AM 2005d November 30, 2011, 9:55 AM 2005d 5 http://www.box.net/shared/7uvdespnxf
November 30, 2011, 9:32 AM 2005d November 30, 2011, 9:12 AM 2005d 10 http://www.facebook.com/notes/best-casino-online/online-casino-game...
November 30, 2011, 8:41 AM 2005d November 16, 2011, 2:46 AM 2020d 20 http://www.facebook.com/notes/erythromycin/cheapest-erythromycin-in...
November 30, 2011, 7:58 AM 2005d November 28, 2011, 12:11 PM 2007d 18 http://www.facebook.com/notes/best-casino-online/online-casinos-bes...
November 30, 2011, 7:38 AM 2005d November 30, 2011, 7:38 AM 2005d 5 http://www.box.net/shared/jadtga718q
November 30, 2011, 7:06 AM 2005d November 30, 2011, 7:06 AM 2005d 5 http://www.box.net/shared/zodtzfn5ek
November 30, 2011, 6:50 AM 2005d November 16, 2011, 1:30 AM 2020d 20 http://www.facebook.com/notes/duphaston/cheapest-duphaston-in-uk-fd...
November 30, 2011, 6:20 AM 2005d November 30, 2011, 6:00 AM 2006d 10 http://www.facebook.com/notes/best-casino-online/best-online-casino...
November 30, 2011, 5:37 AM 2006d November 30, 2011, 4:17 AM 2006d 10 http://www.facebook.com/notes/lorazepam/cheapest-lorazepam-in-uk-on...
November 30, 2011, 4:59 AM 2006d November 16, 2011, 12:08 AM 2020d 20 http://www.facebook.com/notes/doxycycline/buy-cheap-doxycycline-onl...
November 30, 2011, 4:41 AM 2006d November 30, 2011, 4:23 AM 2006d 10 http://www.facebook.com/notes/best-casino-online/slots-of-vegas-jun...
November 30, 2011, 3:50 AM 2006d November 30, 2011, 1:52 AM 2006d 10 http://www.facebook.com/notes/zolpidem/buy-cheap-zolpidem-online-gr...
November 30, 2011, 3:03 AM 2006d November 30, 2011, 2:43 AM 2006d 10 http://www.facebook.com/notes/best-casino-online/free-sign-up-bonus...
November 30, 2011, 2:14 AM 2006d November 14, 2011, 7:36 AM 2021d 14 http://www.protopage.com/directpaydaylenders
November 30, 2011, 1:41 AM 2006d November 29, 2011, 1:28 AM 2007d 15 http://www.elfwood.com/~directpaydaylenders
November 30, 2011, 1:16 AM 2006d November 30, 2011, 12:54 AM 2006d 10 http://www.facebook.com/notes/best-casino-online/bella-vegas-casino...
November 30, 2011, 12:14 AM 2006d N/A 1 http://search.yahoo.co.jp/search?p=AU+HTC+03&aq=-1&oq=...
November 29, 2011, 11:15 PM 2006d November 29, 2011, 10:49 PM 2006d 10 http://www.facebook.com/notes/best-casino-online/online-casinos-wit...
November 29, 2011, 11:10 PM 2006d November 29, 2011, 11:10 PM 2006d 5 http://youjustgetme.com/index.php?page=view_profile&id=94452?di...
November 29, 2011, 9:57 PM 2006d N/A 1 http://willcom.windows-keitai.com/?HYBRID_W-ZERO3/購入レビュー/08 H...
November 29, 2011, 9:25 PM 2006d November 29, 2011, 4:00 PM 2006d 20 http://www.facebook.com/notes/lorazepam/cheapest-lorazepam-cheap-pr...
November 29, 2011, 9:21 PM 2006d November 29, 2011, 9:02 PM 2006d 10 http://www.facebook.com/notes/best-casino-online/free-online-casino...
November 29, 2011, 8:14 PM 2006d November 29, 2011, 2:09 AM 2007d 10 http://paydaylendersnewsblog.jimdo.com/
November 29, 2011, 7:51 PM 2006d November 29, 2011, 6:54 PM 2006d 10 http://www.facebook.com/notes/zolpidem/cheap-zolpidem-online-online...
November 29, 2011, 7:43 PM 2006d November 29, 2011, 6:43 AM 2006d 10 http://forums.saa.edu/profile.php?id=244293
November 29, 2011, 7:43 PM 2006d November 29, 2011, 7:23 PM 2006d 10 http://www.facebook.com/notes/best-casino-online/free-videos-of-gir...
November 29, 2011, 5:59 PM 2006d November 29, 2011, 5:39 PM 2006d 10 http://www.facebook.com/notes/best-casino-online/free-money-for-onl...
November 29, 2011, 5:53 PM 2006d N/A 1 http://www.google.co.jp/search?q=HTC+Touch+Pro+E30HT&hl=ja&...
November 29, 2011, 4:59 PM 2006d N/A 1 http://www.google.co.jp/url?sa=t&rct=j&q=ドコモ スマートフ...
November 29, 2011, 4:16 PM 2006d November 29, 2011, 2:02 PM 2006d 20 http://www.facebook.com/notes/best-casino-online/eurogrand-mobile-c...
November 29, 2011, 3:57 PM 2006d N/A 1 http://www.google.co.jp/url?sa=t&rct=j&q=ドコモ+スマートフ...
November 29, 2011, 3:52 PM 2006d N/A 1 http://www.google.co.jp/url?sa=t&rct=j&q=ドコモ スマートフ...
November 29, 2011, 3:35 PM 2006d N/A 1 http://www.google.co.jp/url?sa=t&rct=j&q=ドコモ htc&...
November 29, 2011, 3:19 PM 2006d November 29, 2011, 2:29 PM 2006d 10 http://www.facebook.com/notes/zolpidem/cheapest-zolpidem-in-uk-no-p...
November 29, 2011, 2:10 PM 2006d November 29, 2011, 6:13 AM 2007d 25 http://www.maxmouth.com/directpaydaylenders
November 29, 2011, 12:36 PM 2006d November 29, 2011, 11:42 AM 2006d 10 http://www.facebook.com/notes/lorazepam/where-to-buy-lorazepam-lora...
November 29, 2011, 11:31 AM 2006d November 29, 2011, 10:56 AM 2006d 10 http://www.facebook.com/notes/best-casino-online/online-casinos-no-...
November 29, 2011, 10:54 AM 2006d November 29, 2011, 10:54 AM 2006d 2 http://ht-02a.windows-keitai.com/?よくある質問/ソフトウェア
November 29, 2011, 10:53 AM 2006d November 29, 2011, 10:01 AM 2006d 10 http://www.facebook.com/notes/zolpidem/cheap-zolpidem-online-no-pre...
November 29, 2011, 10:47 AM 2006d N/A 1 http://www.cheapjerseysgear.com
November 29, 2011, 10:16 AM 2006d N/A 1 http://www.google.co.jp/search?hl=ja&client=ms-android-htc&...
November 29, 2011, 9:45 AM 2006d N/A 1 http://www.bing.com/search?q=au+E30HT&qs=n&sk=&sc=1-8&a...
November 29, 2011, 9:39 AM 2006d N/A 1 http://www.google.co.jp/search?q=TouchPro
November 29, 2011, 9:04 AM 2006d N/A 1 http://blog.goo.ne.jp/cestaff/c/b0381f1300c827aa976291296facdc64
November 29, 2011, 8:49 AM 2006d November 29, 2011, 8:49 AM 2006d 5 http://allaboutpaydaylenders.blogetery.com/direct-payday-lenders-fa...
November 29, 2011, 8:29 AM 2006d November 29, 2011, 7:55 AM 2006d 9 http://www.facebook.com/notes/best-casino-online/free-casino-games-...
November 29, 2011, 8:25 AM 2006d November 29, 2011, 7:36 AM 2006d 9 http://www.facebook.com/notes/lorazepam/lorazepam-best-offers-onlin...
November 29, 2011, 6:00 AM 2007d November 29, 2011, 5:02 AM 2007d 10 http://www.facebook.com/notes/zolpidem/legal-buy-zolpidem-online-lo...
November 29, 2011, 5:29 AM 2007d November 29, 2011, 4:56 AM 2007d 10 http://www.facebook.com/notes/best-casino-online/slots-of-vegas-whi...
November 29, 2011, 5:17 AM 2007d N/A 1 http://www.pc-notdienst-fulda.de/
November 29, 2011, 4:06 AM 2007d November 29, 2011, 3:17 AM 2007d 10 http://www.facebook.com/notes/lorazepam/buy-cheap-lorazepam-online-...
November 29, 2011, 2:54 AM 2007d N/A 1 http://www.soccerprogear.com
November 29, 2011, 2:34 AM 2007d November 29, 2011, 2:00 AM 2007d 10 http://www.facebook.com/notes/best-casino-online/no-deposit-casinos...
November 29, 2011, 1:38 AM 2007d N/A 1 http://zinganobjj.com/
November 29, 2011, 1:06 AM 2007d November 28, 2011, 7:28 PM 2007d 20 http://www.facebook.com/notes/zolpidem/zolpidem-online-pharmacy-onl...
November 29, 2011, 1:00 AM 2007d N/A 1 http://map.windows-keitai.com/WiMAX/UQ/area.html?lat=35.399805&...
November 28, 2011, 11:51 PM 2007d November 28, 2011, 7:10 PM 2007d 19 http://www.facebook.com/notes/lorazepam/buy-cheap-lorazepam-online-...
November 28, 2011, 11:39 PM 2007d November 28, 2011, 11:08 PM 2007d 10 http://www.facebook.com/notes/best-casino-online/free-casino-games-...
November 28, 2011, 11:13 PM 2007d November 28, 2011, 7:07 AM 2007d 20 http://citiesprogramme.org/index.php/member/88419/
November 28, 2011, 10:33 PM 2007d November 28, 2011, 10:33 PM 2007d 5 http://www.podclass.com/directpaydaylenders
November 28, 2011, 10:13 PM 2007d N/A 1 http://www.google.co.jp/search?hl=ja&source=hp&biw=1078&...
November 28, 2011, 10:07 PM 2007d N/A 1 http://www.microsoft.com/japan/clubppc/
November 28, 2011, 9:55 PM 2007d N/A 1 http://114search.114so.cn/search_web.html?id=379&nid=&ec=gb...
November 28, 2011, 8:51 PM 2007d November 28, 2011, 8:20 PM 2007d 10 http://www.facebook.com/notes/best-casino-online/online-casino-usa-...
November 28, 2011, 8:46 PM 2007d N/A 1 http://114search.114so.cn/search_web.html?id=1912&nid=&ec=g...
November 28, 2011, 7:08 PM 2007d November 28, 2011, 6:28 AM 2007d 15 http://www.londonbridgehospital.com/member/75000/
November 28, 2011, 6:29 PM 2007d November 28, 2011, 6:29 PM 2007d 5 http://www.extratasty.com/profile/52563/paydaylendersdirect
November 28, 2011, 6:08 PM 2007d November 28, 2011, 5:37 PM 2007d 10 http://www.facebook.com/notes/best-casino-online/free-casino-online...
November 28, 2011, 3:41 PM 2007d November 28, 2011, 2:44 PM 2007d 10 http://www.facebook.com/notes/lorazepam/cheapest-lorazepam-in-uk-be...
November 28, 2011, 3:25 PM 2007d November 28, 2011, 2:20 PM 2007d 10 http://www.facebook.com/notes/zolpidem/buy-zolpidem-online-official...
November 28, 2011, 3:22 PM 2007d November 28, 2011, 2:51 PM 2007d 10 http://www.facebook.com/notes/best-casino-online/no-deposit-bonus-c...
November 28, 2011, 3:05 PM 2007d November 28, 2011, 3:05 PM 2007d 5 http://www.befund.org/index.php/member/46486/
November 28, 2011, 10:34 AM 2007d November 28, 2011, 10:30 AM 2007d 2 http://map.windows-keitai.com/emobile/map.html?encode_hint=ぷ&e...
November 28, 2011, 10:08 AM 2007d November 28, 2011, 9:01 AM 2007d 10 http://www.facebook.com/notes/lorazepam/buy-lorazepam-no-prescripti...
November 28, 2011, 10:05 AM 2007d November 25, 2011, 7:44 PM 2010d 20 http://www.facebook.com/notes/best-casino-online/online-casino-with...
November 28, 2011, 8:48 AM 2007d November 28, 2011, 7:31 AM 2007d 10 http://www.facebook.com/notes/zolpidem/buy-cheap-zolpidem-online-be...
November 28, 2011, 7:26 AM 2007d November 28, 2011, 6:57 AM 2007d 10 http://www.facebook.com/notes/online-casinos/best-casino-online-leg...
November 28, 2011, 7:03 AM 2007d November 28, 2011, 6:41 AM 2007d 10 http://www.facebook.com/notes/nexium/nexium-best-offers-online-phar...
November 28, 2011, 4:50 AM 2008d November 28, 2011, 4:19 AM 2008d 10 http://www.facebook.com/notes/nexium/nexium-online-pharmacy-great-s...
November 28, 2011, 4:49 AM 2008d November 28, 2011, 4:19 AM 2008d 10 http://www.facebook.com/notes/online-casinos/vip-slots-online-casin...
November 28, 2011, 4:15 AM 2008d November 28, 2011, 3:25 AM 2008d 10 http://www.facebook.com/notes/lorazepam/buy-lorazepam-online-prescr...
November 28, 2011, 3:33 AM 2008d N/A 1 http://map.windows-keitai.com/WiMAX/UQ/area.html?encode_hint=ぷ&...
November 28, 2011, 2:48 AM 2008d November 28, 2011, 2:30 AM 2008d 10 http://www.facebook.com/notes/neurontin/buy-neurontin-now-online-dr...
November 28, 2011, 2:30 AM 2008d November 28, 2011, 1:36 AM 2008d 10 http://www.facebook.com/notes/zolpidem/cheapest-zolpidem-online-dru...
November 28, 2011, 2:21 AM 2008d November 28, 2011, 1:53 AM 2008d 10 http://www.facebook.com/notes/online-casinos/best-online-casino-201...
November 28, 2011, 12:23 AM 2008d November 27, 2011, 8:38 PM 2008d 20 http://www.facebook.com/notes/lorazepam/lorazepam-online-pharmacy-f...
November 27, 2011, 11:58 PM 2008d November 27, 2011, 11:32 PM 2008d 10 http://www.facebook.com/notes/online-casinos/all-mobile-casinos-in-...
November 27, 2011, 11:34 PM 2008d N/A 1 http://blog.goo.ne.jp/cestaff/e/dfbe75f46f88f2995f119f2373e1a455?fm...
November 27, 2011, 11:14 PM 2008d N/A 1 http://www.google.co.jp/url?sa=t&rct=j&q=au ht&source=...
November 27, 2011, 10:39 PM 2008d N/A 1 http://search.yahoo.co.jp/search?p=htc+スマートフォン ドコモ&a...
November 27, 2011, 10:20 PM 2008d November 27, 2011, 9:37 PM 2008d 10 http://www.facebook.com/notes/zolpidem/cheapest-zolpidem-online-pre...
November 27, 2011, 9:57 PM 2008d N/A 1 http://www.google.co.jp/url?sa=t&rct=j&q=windows phone au&a...
November 27, 2011, 9:40 PM 2008d November 27, 2011, 9:12 PM 2008d 10 http://www.facebook.com/notes/online-casinos/online-casino-free-rol...
November 27, 2011, 9:01 PM 2008d November 27, 2011, 9:00 PM 2008d 3 http://map.windows-keitai.com/WiMAX/UQ/area.html?lat=38.259076&...
November 27, 2011, 7:21 PM 2008d November 27, 2011, 6:56 PM 2008d 10 http://www.facebook.com/notes/online-casinos/free-online-casino-slo...
November 27, 2011, 6:50 PM 2008d November 27, 2011, 6:10 PM 2008d 8 http://www.facebook.com/notes/zolpidem/buy-zolpidem-online-uk-offic...
November 27, 2011, 6:19 PM 2008d November 27, 2011, 5:46 PM 2008d 10 http://www.facebook.com/notes/lorazepam/cheapest-lorazepam-only-bes...
November 27, 2011, 5:06 PM 2008d November 27, 2011, 4:41 PM 2008d 10 http://www.facebook.com/notes/online-casinos/play-hoyle-casino-onli...
November 27, 2011, 4:58 PM 2008d November 27, 2011, 7:55 AM 2008d 25 http://www.threadless.com/profile/1802043/directpaydaylenderss
November 27, 2011, 4:26 PM 2008d November 27, 2011, 8:26 AM 2008d 15 http://my.opera.com/chapmanqueenieom/about/
November 27, 2011, 3:22 PM 2008d November 27, 2011, 2:44 PM 2008d 9 http://www.facebook.com/notes/lorazepam/buy-lorazepam-discount-chea...
November 27, 2011, 3:21 PM 2008d November 27, 2011, 2:37 PM 2008d 10 http://www.facebook.com/notes/zolpidem/cheapest-zolpidem-in-uk-offi...
November 27, 2011, 3:04 PM 2008d November 27, 2011, 2:19 PM 2008d 10 http://www.facebook.com/notes/nimetazepam/order-online-nimetazepam-...
November 27, 2011, 2:55 PM 2008d November 27, 2011, 2:31 PM 2008d 10 http://www.facebook.com/notes/online-casinos/international-flights-...
November 27, 2011, 12:51 PM 2008d November 27, 2011, 12:27 PM 2008d 10 http://www.facebook.com/notes/online-casinos/no-deposit-casino-free...
November 27, 2011, 12:13 PM 2008d November 27, 2011, 11:32 AM 2008d 10 http://www.facebook.com/notes/lorazepam/buy-lorazepam-online-uk-tru...
November 27, 2011, 11:40 AM 2008d N/A 1 http://www.healthyin4.com/
November 27, 2011, 11:30 AM 2008d November 27, 2011, 2:31 AM 2009d 20 http://www.facebook.com/notes/zolpidem/buy-zolpidem-online-online-p...
November 27, 2011, 11:28 AM 2008d November 24, 2011, 11:28 AM 2011d 2 http://www.sunnybeads.com/Supply/beads-wholesale-semiprecious-gemst...
November 27, 2011, 11:07 AM 2008d November 27, 2011, 10:05 AM 2008d 10 http://www.facebook.com/notes/lexotan/buy-lexotan-online-fda-approv...
November 27, 2011, 10:49 AM 2008d November 27, 2011, 10:26 AM 2008d 9 http://www.facebook.com/notes/online-casinos/online-canadian-casino...
November 27, 2011, 10:15 AM 2008d N/A 1 http://www.google.co.jp/url?sa=t&rct=j&q=htc+スマートフォン...
November 27, 2011, 8:49 AM 2008d November 27, 2011, 8:27 AM 2008d 10 http://www.facebook.com/notes/online-casinos/online-casino-free-gam...
November 27, 2011, 7:02 AM 2008d November 27, 2011, 5:46 AM 2009d 10 http://www.facebook.com/notes/lorazepam/order-online-lorazepam-no-p...
November 27, 2011, 6:50 AM 2008d November 27, 2011, 6:27 AM 2008d 10 http://www.facebook.com/notes/online-casinos/the-best-online-casino...
November 27, 2011, 6:02 AM 2009d November 27, 2011, 6:02 AM 2009d 5 http://www.box.net/shared/4sa8xfvuvi
November 27, 2011, 5:30 AM 2009d November 15, 2011, 8:35 PM 2020d 10 http://nodepositcasinocodes.grouply.com/blog
November 27, 2011, 4:45 AM 2009d November 27, 2011, 4:23 AM 2009d 10 http://www.facebook.com/notes/online-casinos/mobile-casino-real-mon...
November 27, 2011, 3:54 AM 2009d November 27, 2011, 2:46 AM 2009d 10 http://www.facebook.com/notes/lexotan/buy-lexotan-without-prescript...
November 27, 2011, 2:51 AM 2009d November 27, 2011, 2:28 AM 2009d 10 http://www.facebook.com/notes/online-casinos/mobile-casino-download...
November 27, 2011, 1:49 AM 2009d November 27, 2011, 1:10 AM 2009d 10 http://www.facebook.com/notes/lorazepam/legal-buy-lorazepam-online-...
November 27, 2011, 1:48 AM 2009d N/A 1 http://blog.goo.ne.jp/cestaff/e/712c01acc3c4fe25cda2a77c6ec90b27
November 27, 2011, 1:03 AM 2009d November 27, 2011, 12:41 AM 2009d 10 http://www.facebook.com/notes/online-casinos/best-hotel-deal-rates-...
November 27, 2011, 12:57 AM 2009d N/A 1 http://www.sunnybeads.com/Supply/other-alloy-leather-bracelet/c152....
November 26, 2011, 11:37 PM 2009d November 26, 2011, 11:10 PM 2009d 10 http://www.facebook.com/notes/neurontin/cheapest-neurontin-cheap-pr...
November 26, 2011, 11:25 PM 2009d November 26, 2011, 10:44 PM 2009d 10 http://www.facebook.com/notes/lexotan/lexotan-online-pharmacy-cheap...
November 26, 2011, 11:15 PM 2009d November 26, 2011, 10:35 PM 2009d 10 http://www.facebook.com/notes/zolpidem/buy-zolpidem-no-prescription...
November 26, 2011, 11:11 PM 2009d November 26, 2011, 10:50 PM 2009d 10 http://www.facebook.com/notes/online-casinos/best-online-casinos-an...
November 26, 2011, 10:45 PM 2009d N/A 1 http://www.wince.ne.jp/snap/ceSnapView.asp?PID=198
November 26, 2011, 10:42 PM 2009d November 26, 2011, 10:11 PM 2009d 10 http://www.facebook.com/notes/lorazepam/buy-cheap-lorazepam-online-...
November 26, 2011, 9:23 PM 2009d November 26, 2011, 9:01 PM 2009d 10 http://www.facebook.com/notes/online-casinos/free-las-vegas-casino-...
November 26, 2011, 9:20 PM 2009d November 26, 2011, 8:54 PM 2009d 10 http://www.facebook.com/notes/naproxen/buy-cheap-naproxen-online-be...
November 26, 2011, 9:02 PM 2009d N/A 1 http://search.yahoo.co.jp/search?p=au E30HT&rs=2&tid=top_ga...
November 26, 2011, 8:31 PM 2009d November 26, 2011, 8:04 PM 2009d 10 http://www.facebook.com/notes/camazepam/buy-cheap-camazepam-online-...
November 26, 2011, 8:28 PM 2009d November 26, 2011, 8:02 PM 2009d 10 http://www.facebook.com/notes/zolpidem/buy-zolpidem-online-uk-fast-...
November 26, 2011, 8:24 PM 2009d November 26, 2011, 8:01 PM 2009d 10 http://www.facebook.com/notes/lorazepam/buy-lorazepam-no-prescripti...
November 26, 2011, 7:34 PM 2009d November 26, 2011, 7:13 PM 2009d 10 http://www.facebook.com/notes/online-casinos/online-casino-free-sig...
November 26, 2011, 7:29 PM 2009d N/A 1 http://search.yahoo.co.jp/search?p=docomo+スマートフォン+htc&...
November 26, 2011, 7:13 PM 2009d N/A 1 http://touch-pro.windows-keitai.com/?Touch Pro HT-01A/購入特集
November 26, 2011, 7:06 PM 2009d November 26, 2011, 6:41 PM 2009d 10 http://www.facebook.com/notes/naproxen/order-online-naproxen-fda-ap...
November 26, 2011, 6:49 PM 2009d November 26, 2011, 6:49 PM 2009d 5 http://www.facebook.com/notes/symbian-spy/cell-phone-spy-software-s...
November 26, 2011, 5:47 PM 2009d November 26, 2011, 5:26 PM 2009d 9 http://www.facebook.com/notes/online-casinos/free-casino-games-play...
November 26, 2011, 5:41 PM 2009d November 26, 2011, 5:02 PM 2009d 9 http://www.facebook.com/notes/call-recorder/cell-phone-spy-program-...
November 26, 2011, 5:27 PM 2009d November 26, 2011, 4:46 PM 2009d 10 http://www.facebook.com/notes/mobile-key-logger/cell-phone-spyware-...
November 26, 2011, 4:56 PM 2009d November 26, 2011, 4:32 PM 2009d 10 http://www.facebook.com/notes/motilium/motilium-online-pharmacy-tru...
November 26, 2011, 4:06 PM 2009d November 26, 2011, 3:45 PM 2009d 10 http://www.facebook.com/notes/online-casinos/free-casino-games-onli...
November 26, 2011, 4:04 PM 2009d November 26, 2011, 3:26 PM 2009d 10 http://www.facebook.com/notes/spy-tools/spy-mobile-phone-spy-tools-...
November 26, 2011, 3:37 PM 2009d November 12, 2011, 2:51 PM 2023d 24 http://instantapprovalpaydayloanss.yolasite.com/
November 26, 2011, 3:25 PM 2009d N/A 1 http://www.google.co.jp/search?hl=ja&q=htc+au+ht30&oq=htc+a...
November 26, 2011, 3:06 PM 2009d November 26, 2011, 3:05 PM 2009d 5 http://instantapprovalpaydayloanss.webnode.com/
November 26, 2011, 2:47 PM 2009d November 26, 2011, 2:23 PM 2009d 9 http://www.facebook.com/notes/motilium/buy-motilium-without-prescri...
November 26, 2011, 2:23 PM 2009d November 26, 2011, 1:50 PM 2009d 9 http://www.facebook.com/notes/call-recorder/phone-spy-software-call...
November 26, 2011, 2:21 PM 2009d November 26, 2011, 2:04 PM 2009d 10 http://www.facebook.com/notes/online-casinos/casino-online-free-pla...
November 26, 2011, 2:02 PM 2009d November 26, 2011, 1:28 PM 2009d 9 http://www.facebook.com/notes/keylog/mobile-phone-spy-record-text-m...
November 26, 2011, 1:12 PM 2009d November 26, 2011, 12:43 PM 2009d 10 http://www.facebook.com/notes/spy-symbian/mobile-phone-spyware-phon...
November 26, 2011, 12:50 PM 2009d November 26, 2011, 12:34 PM 2009d 10 http://www.facebook.com/notes/online-casinos/slots-of-vegas-casino-...
November 26, 2011, 12:35 PM 2009d November 26, 2011, 12:08 PM 2009d 10 http://www.facebook.com/notes/mirapex/buy-mirapex-online-uk-best-pr...
November 26, 2011, 11:31 AM 2009d November 26, 2011, 10:54 AM 2009d 10 http://www.facebook.com/notes/call-recorder/mobile-spy-mobile-track...
November 26, 2011, 11:20 AM 2009d November 26, 2011, 11:00 AM 2009d 10 http://www.facebook.com/notes/online-casinos/free-online-casino-fun...
November 26, 2011, 11:01 AM 2009d November 26, 2011, 10:23 AM 2009d 10 http://www.facebook.com/notes/iphone-spy/best-cell-phone-spy-softwa...
November 26, 2011, 10:22 AM 2009d November 26, 2011, 9:46 AM 2009d 10 http://www.facebook.com/notes/spy-store/phone-spy-software-spy-stor...
November 26, 2011, 10:09 AM 2009d November 12, 2011, 11:29 PM 2023d 39 http://www.protectthehuman.com/users/janaek
November 26, 2011, 10:06 AM 2009d November 26, 2011, 9:33 AM 2009d 10 http://www.facebook.com/notes/metformin/cheapest-metformin-in-uk-fa...
November 26, 2011, 9:44 AM 2009d November 26, 2011, 9:23 AM 2009d 10 http://www.facebook.com/notes/online-casinos/winpalace-casino-no-de...
November 26, 2011, 9:38 AM 2009d N/A 1 http://www.boot-store.net
November 26, 2011, 8:44 AM 2009d November 26, 2011, 8:07 AM 2009d 10 http://www.facebook.com/notes/levothroid/buy-levothroid-online-chea...
November 26, 2011, 8:40 AM 2009d N/A 1 http://www.bing.com/search?q=htc+HT-01A&qs=n&sk=&form=QBRE
November 26, 2011, 8:15 AM 2009d November 26, 2011, 7:34 AM 2009d 9 http://www.facebook.com/notes/call-recorder/cell-phone-spy-program-...
November 26, 2011, 8:01 AM 2009d November 26, 2011, 7:42 AM 2009d 10 http://www.facebook.com/notes/online-casinos/new-no-deposit-casino-...
November 26, 2011, 7:32 AM 2009d November 26, 2011, 6:52 AM 2009d 9 http://www.facebook.com/notes/iphone-spy/cell-spyware-iphone-spy-ap...
November 26, 2011, 7:24 AM 2009d November 12, 2011, 7:27 AM 2023d 15 http://instantpaydayloans.exteen.com/
November 26, 2011, 7:13 AM 2009d November 26, 2011, 6:41 AM 2009d 10 http://www.facebook.com/notes/metformin/order-online-metformin-trus...
November 26, 2011, 7:12 AM 2009d November 26, 2011, 6:36 AM 2009d 10 http://www.facebook.com/notes/spy-store/mobile-phone-spy-easily-spy...
November 26, 2011, 7:06 AM 2009d November 26, 2011, 7:02 AM 2009d 2 http://f1100.windows-keitai.com/?F1100/購入特集/02 パッケージ周り
November 26, 2011, 6:24 AM 2009d November 26, 2011, 6:05 AM 2010d 10 http://www.facebook.com/notes/online-casinos/best-online-casino-usa...
November 26, 2011, 5:30 AM 2010d November 26, 2011, 4:54 AM 2010d 10 http://www.facebook.com/notes/levlen/buy-levlen-without-prescriptio...
November 26, 2011, 4:49 AM 2010d November 26, 2011, 4:08 AM 2010d 10 http://www.facebook.com/notes/call-recorder/cell-phone-spy-monitori...
November 26, 2011, 4:47 AM 2010d November 26, 2011, 4:27 AM 2010d 10 http://www.facebook.com/notes/online-casinos/free-online-casino-gam...
November 26, 2011, 4:25 AM 2010d November 26, 2011, 3:53 AM 2010d 10 http://www.facebook.com/notes/lipitor/buy-lipitor-online-best-price...
November 26, 2011, 4:13 AM 2010d November 26, 2011, 3:30 AM 2010d 10 http://www.facebook.com/notes/iphone-spy/mobile-spy-software-iphone...
November 26, 2011, 4:07 AM 2010d N/A 1 http://www.sunnybeads.com/Supply/others-aluminium-beads/c126.html
November 26, 2011, 4:06 AM 2010d November 26, 2011, 3:25 AM 2010d 10 http://www.facebook.com/notes/spy-shop/cell-phone-spy-software-the-...
November 26, 2011, 3:58 AM 2010d N/A 1 http://www.sunnybeads.com/Supply/other/c425.html
November 26, 2011, 3:02 AM 2010d November 26, 2011, 2:42 AM 2010d 10 http://www.facebook.com/notes/online-casinos/online-poker-real-mone...
November 26, 2011, 2:37 AM 2010d November 24, 2011, 6:55 PM 2011d 30 http://my.speedtv.com/paydayloansonline#instantapprovalpaydayloans
November 26, 2011, 2:18 AM 2010d November 26, 2011, 1:43 AM 2010d 9 http://www.facebook.com/notes/levitra/cheapest-levitra-online-pharm...
November 26, 2011, 1:39 AM 2010d November 26, 2011, 1:08 AM 2010d 10 http://www.facebook.com/notes/lipitor/buy-lipitor-no-prescription-f...
November 26, 2011, 1:32 AM 2010d N/A 1 http://map.windows-keitai.com/WiMAX/UQ/area.html?encode_hint=ぷ&...
November 26, 2011, 1:17 AM 2010d November 26, 2011, 12:42 AM 2010d 10 http://www.facebook.com/notes/call-recorder/the-leading-cell-phone-...
November 26, 2011, 1:16 AM 2010d November 26, 2011, 12:57 AM 2010d 8 http://www.facebook.com/notes/online-casinos/slots-of-vegas-free-ch...
November 26, 2011, 12:51 AM 2010d November 26, 2011, 12:15 AM 2010d 10 http://www.facebook.com/notes/spy-shop/mobile-phone-spy-easily-spy-...
November 26, 2011, 12:33 AM 2010d November 25, 2011, 11:53 PM 2010d 10 http://www.facebook.com/notes/iphone-spy/how-to-spy-on-a-cell-phone...
November 26, 2011, 12:19 AM 2010d November 26, 2011, 12:18 AM 2010d 2 http://www.google.co.jp/url?sa=t&rct=j&q=TouchPro&sourc...
November 25, 2011, 11:42 PM 2010d November 11, 2011, 11:05 PM 2024d 30 http://www.stupidvideos.com/profile/pzjuhepjmejg/blogs/payday_loans...
November 25, 2011, 11:39 PM 2010d November 25, 2011, 11:39 PM 2010d 5 http://www.facebook.com/notes/online-casinos/real-money-poker-on-mo...
November 25, 2011, 11:11 PM 2010d November 25, 2011, 10:36 PM 2010d 9 http://www.facebook.com/notes/levitra/buy-cheap-levitra-online-chea...
November 25, 2011, 11:11 PM 2010d November 19, 2011, 7:47 AM 2016d 40 http://www.lightstalkers.org/zaebok#instantapprovalpaydayloans
November 25, 2011, 10:58 PM 2010d November 25, 2011, 10:28 PM 2010d 10 http://www.facebook.com/notes/lipitor/lipitor-online-pharmacy-offic...
November 25, 2011, 10:47 PM 2010d N/A 1 http://www.sunnybeads.com/Supply/beading-supplies-srorage-packaging...
November 25, 2011, 10:20 PM 2010d November 25, 2011, 9:46 PM 2010d 10 http://www.facebook.com/notes/call-recorder/best-cell-spyware-nokia...
November 25, 2011, 10:04 PM 2010d November 25, 2011, 6:00 PM 2010d 20 http://www.facebook.com/notes/online-casinos/online-casino-free-rea...
November 25, 2011, 9:58 PM 2010d November 25, 2011, 9:27 PM 2010d 10 http://www.facebook.com/notes/spy-samsung/top-cell-phone-spy-softwa...
November 25, 2011, 9:42 PM 2010d N/A 1 http://map.windows-keitai.com/emobile/map.html?encode_hint=ぷ&e...
November 25, 2011, 9:30 PM 2010d November 25, 2011, 8:57 PM 2010d 10 http://www.facebook.com/notes/internet-monitoring/phone-spy-softwar...
November 25, 2011, 8:34 PM 2010d N/A 1 http://www.runecross.com
November 25, 2011, 8:21 PM 2010d N/A 1 http://www.sfera.raridon.boleslawiec.pl/call-of-duty-black-ops-patc...
November 25, 2011, 8:20 PM 2010d November 25, 2011, 7:51 PM 2010d 10 http://www.facebook.com/notes/lexapro/buy-lexapro-now-no-prescripti...
November 25, 2011, 8:07 PM 2010d November 25, 2011, 7:33 PM 2010d 10 http://www.facebook.com/notes/levitra/cheapest-levitra-only-best-of...
November 25, 2011, 7:48 PM 2010d N/A 1 http://t-01a.windows-keitai.com/?T-01A/動画でみる/東芝によるCM
November 25, 2011, 7:31 PM 2010d November 25, 2011, 7:01 PM 2010d 10 http://www.facebook.com/notes/call-recorder/cell-phone-spywarebest-...
November 25, 2011, 7:23 PM 2010d November 25, 2011, 6:54 PM 2010d 10 http://www.facebook.com/notes/spy-on-sms/cell-phone-spy-spy-on-sms-...
November 25, 2011, 6:43 PM 2010d November 25, 2011, 6:05 PM 2010d 7 http://www.facebook.com/notes/internet-monitoring/mobile-phone-spyw...
November 25, 2011, 5:48 PM 2010d November 19, 2011, 7:01 AM 2016d 25 http://gravatar.com/davidsergun#nofaxpaydayloans
November 25, 2011, 5:46 PM 2010d November 25, 2011, 5:18 PM 2010d 10 http://www.facebook.com/notes/lexapro/buy-lexapro-no-prescription-o...
November 25, 2011, 5:15 PM 2010d N/A 1 http://www.google.co.jp/url?sa=t&rct=j&q=htc+スマートフォン...
November 25, 2011, 5:13 PM 2010d November 19, 2011, 11:57 AM 2016d 20 http://www.design21sdn.com/people/61094#guaranteedpaydayloans
November 25, 2011, 5:06 PM 2010d November 25, 2011, 4:33 PM 2010d 9 http://www.facebook.com/notes/levitra/cheapest-levitra-in-uk-only-b...
November 25, 2011, 4:40 PM 2010d November 25, 2011, 4:11 PM 2010d 10 http://www.facebook.com/notes/call-recorder/cell-spyware-call-recor...
November 25, 2011, 4:40 PM 2010d November 25, 2011, 4:09 PM 2010d 10 http://www.facebook.com/notes/spy-on-phone/spy-phone-spyphone-spy-s...
November 25, 2011, 3:41 PM 2010d November 25, 2011, 3:06 PM 2010d 10 http://www.facebook.com/notes/internet-monitoring/spy-mobile-phone-...
November 25, 2011, 3:34 PM 2010d N/A 1 http://search.yahoo.co.jp/search?p=ドコモ+スマートフォン HTC&am...
November 25, 2011, 3:15 PM 2010d November 25, 2011, 2:47 PM 2010d 10 http://www.facebook.com/notes/lexapro/buy-cheap-lexapro-online-only...
November 25, 2011, 2:55 PM 2010d November 19, 2011, 11:11 AM 2016d 14 http://www.ted.com/profiles/1005497#instantapprovalpaydayloans
November 25, 2011, 2:09 PM 2010d November 25, 2011, 1:36 PM 2010d 9 http://www.facebook.com/notes/levitra/cheapest-levitra-in-uk-lowest...
November 25, 2011, 1:56 PM 2010d November 25, 2011, 1:23 PM 2010d 10 http://www.facebook.com/notes/call-recorder/spy-phone-spyphone-spy-...
November 25, 2011, 1:51 PM 2010d November 25, 2011, 1:19 PM 2010d 10 http://www.facebook.com/notes/spy-on-mobile/cell-spy-now-the-leadin...
November 25, 2011, 12:49 PM 2010d November 25, 2011, 12:21 PM 2010d 10 http://www.facebook.com/notes/levothroid/buy-levothroid-without-pre...
November 25, 2011, 12:43 PM 2010d November 25, 2011, 12:10 PM 2010d 10 http://www.facebook.com/notes/htc-spy/spy-mobile-phone-htc-evo-4g-s...
November 25, 2011, 11:16 AM 2010d November 25, 2011, 10:44 AM 2010d 10 http://www.facebook.com/notes/levaquin/buy-levaquin-online-only-bes...
November 25, 2011, 11:16 AM 2010d November 25, 2011, 10:47 AM 2010d 7 http://www.facebook.com/notes/call-recorder/mobile-spy-mobile-track...
November 25, 2011, 11:13 AM 2010d November 25, 2011, 10:44 AM 2010d 10 http://www.facebook.com/notes/spy-nokia/download-spy-software-for-c...
November 25, 2011, 10:41 AM 2010d N/A 1 http://map.windows-keitai.com/WiMAX/UQ/area.html?encode_hint=ぷ&...
November 25, 2011, 10:25 AM 2010d November 25, 2011, 9:59 AM 2010d 10 http://www.facebook.com/notes/levothroid/buy-levothroid-cheap-price...
November 25, 2011, 10:20 AM 2010d N/A 1 http://www.scape-xp.com/runescape-combat-calculator.html
November 25, 2011, 9:59 AM 2010d November 25, 2011, 9:26 AM 2010d 10 http://www.facebook.com/notes/gsm-tracking/cell-phone-spywarebest-s...
November 25, 2011, 8:46 AM 2010d N/A 1 http://www.dnistomatologi.pl
November 25, 2011, 8:42 AM 2010d November 25, 2011, 8:12 AM 2010d 10 http://www.facebook.com/notes/call-recorder/spy-phone-spyphone-spy-...
November 25, 2011, 8:35 AM 2010d November 25, 2011, 8:03 AM 2010d 10 http://www.facebook.com/notes/spy-nokia/phone-spy-software-spy-call...
November 25, 2011, 8:26 AM 2010d November 25, 2011, 7:55 AM 2010d 10 http://www.facebook.com/notes/levaquin/buy-levaquin-online-drug-sto...
November 25, 2011, 8:06 AM 2010d November 25, 2011, 7:40 AM 2010d 10 http://www.facebook.com/notes/levlen/buy-levlen-now-best-price-guar...
November 25, 2011, 7:55 AM 2010d N/A 1 http://www.911jobforums.com/member.php?44141-photolessons
November 25, 2011, 7:02 AM 2010d November 25, 2011, 6:28 AM 2010d 10 http://www.facebook.com/notes/gsm-tracking/spy-mobile-phone-gsm-tra...
November 25, 2011, 6:10 AM 2011d November 25, 2011, 5:40 AM 2011d 10 http://www.facebook.com/notes/call-recorder/the-leading-cell-phone-...
November 25, 2011, 6:07 AM 2011d November 24, 2011, 1:45 PM 2011d 14 http://buncospace.com/directpaydaylenders#directpaydaylenders
November 25, 2011, 5:51 AM 2011d November 25, 2011, 5:21 AM 2011d 10 http://www.facebook.com/notes/spy-nokia/phone-spyware-2011-best-pho...
November 25, 2011, 5:50 AM 2011d November 25, 2011, 5:25 AM 2011d 9 http://www.facebook.com/notes/levitra/cheapest-levitra-only-best-of...
November 25, 2011, 5:40 AM 2011d November 25, 2011, 5:09 AM 2011d 10 http://www.facebook.com/notes/levaquin/cheap-levaquin-online-only-b...
November 25, 2011, 4:39 AM 2011d N/A 1 http://www.google.co.jp/url?sa=t&rct=j&q=ht-01a&source=...
November 25, 2011, 4:27 AM 2011d November 9, 2011, 1:03 AM 2027d 2 http://www.sunnybeads.com/Supply/european-metal-beads-metal-stone-b...
November 25, 2011, 3:56 AM 2011d November 25, 2011, 3:19 AM 2011d 10 http://www.facebook.com/notes/gsm-spy-phone/mobile-spy-software-gsm...
November 25, 2011, 3:37 AM 2011d November 25, 2011, 3:11 AM 2011d 10 http://www.facebook.com/notes/levitra/buy-levitra-online-fda-approv...
November 25, 2011, 3:27 AM 2011d November 25, 2011, 2:52 AM 2011d 10 http://www.facebook.com/notes/call-recorder/mobile-phone-spyware-ph...
November 25, 2011, 3:00 AM 2011d November 25, 2011, 2:23 AM 2011d 10 http://www.facebook.com/notes/spy-lg/mobile-spy-mobile-tracking-cel...
November 25, 2011, 2:52 AM 2011d November 25, 2011, 2:21 AM 2011d 10 http://www.facebook.com/notes/levaquin/buy-cheap-levaquin-online-on...
November 25, 2011, 1:22 AM 2011d November 25, 2011, 12:58 AM 2011d 9 http://www.facebook.com/notes/levitra/buy-levitra-without-prescript...
November 25, 2011, 1:15 AM 2011d November 25, 2011, 12:42 AM 2011d 9 http://www.facebook.com/notes/zoloft/zoloft-online-pharmacy-online-...
November 25, 2011, 12:29 AM 2011d November 24, 2011, 11:51 PM 2011d 10 http://www.facebook.com/notes/flexispy-iphone/mobile-spy-smartphone...
November 25, 2011, 12:12 AM 2011d November 24, 2011, 11:43 PM 2011d 9 http://www.facebook.com/notes/lasix/buy-lasix-online-no-prescriptio...
November 25, 2011, 12:07 AM 2011d November 24, 2011, 11:24 PM 2011d 10 http://www.facebook.com/notes/call-recorder/cell-phone-spy-monitori...
November 24, 2011, 11:39 PM 2011d November 24, 2011, 10:58 PM 2011d 10 http://www.facebook.com/notes/spy-iphone/mobile-spy-software-spy-ph...
November 24, 2011, 11:22 PM 2011d N/A 1 http://www.google.co.jp/url?sa=t&rct=j&q=docomo ht-01a&...
November 24, 2011, 11:18 PM 2011d November 24, 2011, 10:54 PM 2011d 10 http://www.facebook.com/notes/levitra/buy-levitra-without-prescript...
November 24, 2011, 10:47 PM 2011d N/A 1 http://foreverfriendsbook.com/pg/blog/owner/beertea
November 24, 2011, 10:45 PM 2011d N/A 1 http://www.google.co.jp/url?sa=t&rct=j&q=htc スマートフォン...
November 24, 2011, 10:30 PM 2011d November 9, 2011, 3:20 AM 2027d 2 http://www.sunnybeads.com/Supply/other-murano-crystal-beads/c212.html
November 24, 2011, 10:30 PM 2011d N/A 1 http://www.sunnybeads.com/Supply/other-crystal-earrings/c211.html
November 24, 2011, 10:24 PM 2011d November 24, 2011, 9:52 PM 2011d 10 http://www.facebook.com/notes/zoloft/cheapest-zoloft-in-uk-cheap-pr...
November 24, 2011, 10:13 PM 2011d N/A 1 http://t-01a.windows-keitai.com/?T-01A/対決 HT-03A vs T-01A/05 解像...
November 24, 2011, 9:42 PM 2011d November 24, 2011, 9:42 PM 2011d 5 http://www.protopage.com/directpaydaylenders#directpaydayloanlenders
November 24, 2011, 9:37 PM 2011d November 24, 2011, 9:08 PM 2011d 10 http://www.facebook.com/notes/lasix/order-online-lasix-online-pill-...
November 24, 2011, 9:21 PM 2011d November 24, 2011, 8:47 PM 2011d 10 http://www.facebook.com/notes/flexispy-blackberry/cell-phone-spywar...
November 24, 2011, 9:17 PM 2011d November 24, 2011, 8:54 PM 2011d 10 http://www.facebook.com/notes/levitra/buy-levitra-online-uk-cheap-p...
November 24, 2011, 8:15 PM 2011d November 24, 2011, 7:30 PM 2011d 10 http://www.facebook.com/notes/call-recorder/best-cell-spyware-call-...
November 24, 2011, 8:09 PM 2011d November 24, 2011, 7:31 PM 2011d 10 http://www.facebook.com/notes/spy-iphone/cell-spyware-cell-phone-sp...
November 24, 2011, 8:03 PM 2011d N/A 1 http://www.google.co.jp/url?sa=t&rct=j&q=スマートフォン htc...
November 24, 2011, 7:36 PM 2011d November 24, 2011, 7:05 PM 2011d 10 http://www.facebook.com/notes/zoloft/buy-zoloft-no-prescription-fda...
November 24, 2011, 7:20 PM 2011d November 24, 2011, 6:58 PM 2011d 10 http://www.facebook.com/notes/levaquin/buy-levaquin-without-prescri...
November 24, 2011, 7:05 PM 2011d November 24, 2011, 6:36 PM 2011d 10 http://www.facebook.com/notes/lasix/buy-lasix-without-prescription-...
November 24, 2011, 6:33 PM 2011d N/A 1 http://www.constellationindex.com/
November 24, 2011, 6:31 PM 2011d November 24, 2011, 5:58 PM 2011d 10 http://www.facebook.com/notes/cheat-spouse/cell-spy-now-cheating-sp...
November 24, 2011, 5:58 PM 2011d N/A 1 http://map.windows-keitai.com/WiMAX/UQ/area.html?encode_hint=ぷ&...
November 24, 2011, 5:25 PM 2011d November 24, 2011, 5:04 PM 2011d 10 http://www.facebook.com/notes/levaquin/buy-levaquin-without-prescri...
November 24, 2011, 5:17 PM 2011d N/A 1 http://map.windows-keitai.com/WiMAX/UQ/area.html?encode_hint=ぷ&...
November 24, 2011, 4:57 PM 2011d N/A 1 http://www.e-keygen.com
November 24, 2011, 4:54 PM 2011d November 24, 2011, 4:16 PM 2011d 10 http://www.facebook.com/notes/spy-iphone/cell-spy-now-iphone-3-spy-...
November 24, 2011, 4:53 PM 2011d November 24, 2011, 4:22 PM 2011d 10 http://www.facebook.com/notes/zoloft/zoloft-online-pharmacy-discoun...
November 24, 2011, 4:35 PM 2011d November 24, 2011, 4:07 PM 2011d 10 http://www.facebook.com/notes/keflex/buy-keflex-without-prescriptio...
November 24, 2011, 4:33 PM 2011d N/A 1 http://www.scape-xp.com/runescape-clan-chat.html
November 24, 2011, 4:20 PM 2011d November 24, 2011, 3:34 PM 2011d 10 http://www.facebook.com/notes/call-recorder/spy-mobile-phone-softwa...
November 24, 2011, 3:39 PM 2011d November 24, 2011, 3:03 PM 2011d 10 http://www.facebook.com/notes/cheat-spouse/cell-spy-now-cheating-sp...
November 24, 2011, 3:31 PM 2011d November 24, 2011, 3:09 PM 2011d 10 http://www.facebook.com/notes/lasix/order-online-lasix-best-price-b...
November 24, 2011, 2:15 PM 2011d November 24, 2011, 1:46 PM 2011d 9 http://www.facebook.com/notes/zoloft/zoloft-best-offers-no-prescrip...
November 24, 2011, 1:41 PM 2011d N/A 1 http://www.google.com/url?sa=t&rct=j&q=windows phone ht01a&...
November 24, 2011, 1:36 PM 2011d November 24, 2011, 1:13 PM 2011d 10 http://www.facebook.com/notes/lasix/cheap-lasix-online-best-price-g...
November 24, 2011, 1:31 PM 2011d November 24, 2011, 12:58 PM 2011d 10 http://www.facebook.com/notes/spy-iphone/mobile-phone-spy-easily-sp...
November 24, 2011, 1:06 PM 2011d November 24, 2011, 12:37 PM 2011d 10 http://www.facebook.com/notes/call-recorder/spy-phone-spyphone-spy-...
November 24, 2011, 12:48 PM 2011d November 24, 2011, 12:18 PM 2011d 10 http://www.facebook.com/notes/cheat-spouse/cell-phone-spy-software-...
November 24, 2011, 12:15 PM 2011d N/A 1 http://www.google.co.jp/search?q=au+htc&hl=ja&client=ms-and...
November 24, 2011, 11:44 AM 2011d November 24, 2011, 11:16 AM 2011d 10 http://www.facebook.com/notes/zithromax/order-online-zithromax-fda-...
November 24, 2011, 11:43 AM 2011d November 24, 2011, 11:16 AM 2011d 10 http://www.facebook.com/notes/inderal/inderal-online-pharmacy-no-pr...
November 24, 2011, 11:39 AM 2011d November 24, 2011, 11:17 AM 2011d 9 http://www.facebook.com/notes/keflex/cheapest-keflex-trusted-online...
November 24, 2011, 10:55 AM 2011d November 24, 2011, 10:33 AM 2011d 10 http://www.facebook.com/notes/call-recorder/cell-phone-spy-call-rec...
November 24, 2011, 10:52 AM 2011d November 24, 2011, 10:23 AM 2011d 10 http://www.facebook.com/notes/spy-iphone/best-cell-phone-spy-softwa...
November 24, 2011, 10:20 AM 2011d November 24, 2011, 9:50 AM 2011d 10 http://www.facebook.com/notes/cheat-spouse/cell-phone-spy-program-c...
November 24, 2011, 9:51 AM 2011d November 24, 2011, 9:30 AM 2011d 10 http://www.facebook.com/notes/keflex/keflex-best-offers-no-prescrip...
November 24, 2011, 9:24 AM 2011d November 24, 2011, 8:57 AM 2011d 10 http://www.facebook.com/notes/inderal/buy-inderal-no-prescription-o...
November 24, 2011, 9:14 AM 2011d November 24, 2011, 8:46 AM 2011d 10 http://www.facebook.com/notes/zithromax/buy-zithromax-online-drug-s...
November 24, 2011, 9:12 AM 2011d November 24, 2011, 8:53 AM 2011d 10 http://www.facebook.com/notes/call-recorder/cell-phone-spy-call-rec...
November 24, 2011, 8:14 AM 2011d N/A 1 http://latinloversparadise.devhub.com/blog/719495-latina-booty/
November 24, 2011, 8:12 AM 2011d November 24, 2011, 7:32 AM 2011d 10 http://www.facebook.com/notes/spy-android/how-to-spy-on-a-cell-phon...
November 24, 2011, 8:07 AM 2011d November 24, 2011, 7:48 AM 2011d 9 http://www.facebook.com/notes/kamagra-soft/buy-kamagra-soft-without...
November 24, 2011, 7:36 AM 2011d November 24, 2011, 7:19 AM 2011d 10 http://www.facebook.com/notes/call-recorder/mobile-spy-monitor-sms-...
November 24, 2011, 7:09 AM 2011d November 24, 2011, 6:00 AM 2012d 10 http://www.facebook.com/notes/cheat-spouse/cell-phone-spy-program-s...
November 24, 2011, 7:08 AM 2011d November 24, 2011, 6:43 AM 2011d 10 http://www.facebook.com/notes/inderal/cheapest-inderal-official-can...
November 24, 2011, 6:46 AM 2011d November 24, 2011, 6:18 AM 2011d 10 http://www.facebook.com/notes/zanaflex/order-online-zanaflex-fast-d...
November 24, 2011, 6:34 AM 2011d N/A 1 http://www.sunnybeads.com/Supply/beading-supplies/c415.html
November 24, 2011, 6:30 AM 2011d November 24, 2011, 6:10 AM 2012d 9 http://www.facebook.com/notes/kamagra-soft/buy-kamagra-soft-online-...
November 24, 2011, 6:10 AM 2012d November 24, 2011, 5:52 AM 2012d 10 http://www.facebook.com/notes/call-recorder/mobile-phone-spy-easily...
November 24, 2011, 4:57 AM 2012d November 24, 2011, 4:28 AM 2012d 10 http://www.facebook.com/notes/inderal/cheap-inderal-online-no-presc...
November 24, 2011, 4:47 AM 2012d November 24, 2011, 4:24 AM 2012d 8 http://www.facebook.com/notes/kamagra/order-online-kamagra-no-presc...
November 24, 2011, 4:45 AM 2012d November 24, 2011, 3:46 AM 2012d 9 http://www.facebook.com/notes/call-recorder/spy-mobile-phone-total-...
November 24, 2011, 4:26 AM 2012d November 24, 2011, 4:00 AM 2012d 10 http://www.facebook.com/notes/xenical/buy-xenical-now-fda-approved-...
November 24, 2011, 2:58 AM 2012d N/A 1 http://www.google.co.jp/url?sa=t&rct=j&q=ドコモ スマートフ...
November 24, 2011, 2:57 AM 2012d November 24, 2011, 2:35 AM 2012d 9 http://www.facebook.com/notes/kamagra/buy-cheap-kamagra-online-no-p...
November 24, 2011, 2:39 AM 2012d November 24, 2011, 2:13 AM 2012d 10 http://www.facebook.com/notes/hyzaar/cheapest-hyzaar-in-uk-lowest-p...
November 24, 2011, 2:33 AM 2012d November 24, 2011, 1:32 AM 2012d 10 http://www.facebook.com/notes/spy-android/mobile-spy-mobile-trackin...
November 24, 2011, 2:12 AM 2012d November 24, 2011, 1:47 AM 2012d 10 http://www.facebook.com/notes/xenical/cheapest-xenical-best-price-g...
November 24, 2011, 1:11 AM 2012d November 24, 2011, 12:50 AM 2012d 10 http://www.facebook.com/notes/inderal/inderal-online-pharmacy-no-pr...
November 24, 2011, 1:07 AM 2012d November 24, 2011, 12:15 AM 2012d 10 http://www.facebook.com/notes/cell-phone-record/mobile-spy-monitor-...
November 24, 2011, 12:28 AM 2012d November 24, 2011, 12:03 AM 2012d 10 http://www.facebook.com/notes/hydrochlorothiazide/buy-hydrochloroth...
November 24, 2011, 12:13 AM 2012d November 23, 2011, 11:28 PM 2012d 10 http://www.facebook.com/notes/bluetooth-monitor/spy-mobile-phone-bl...
November 24, 2011, 12:02 AM 2012d November 23, 2011, 11:38 PM 2012d 10 http://www.facebook.com/notes/xenical/xenical-best-offers-official-...
November 23, 2011, 11:43 PM 2012d N/A 1 http://map.windows-keitai.com/emobile/map.html?query_loc=山梨市
November 23, 2011, 11:28 PM 2012d November 23, 2011, 11:07 PM 2012d 10 http://www.facebook.com/notes/inderal/buy-cheap-inderal-online-best...
November 23, 2011, 10:13 PM 2012d November 23, 2011, 9:46 PM 2012d 10 http://www.facebook.com/notes/hydrochlorothiazide/order-online-hydr...
November 23, 2011, 9:57 PM 2012d November 23, 2011, 9:15 PM 2012d 10 http://www.facebook.com/notes/sms-spy/mobile-spy-smartphone-monitor...
November 23, 2011, 9:57 PM 2012d November 23, 2011, 9:32 PM 2012d 10 http://www.facebook.com/notes/voltaren/buy-cheap-voltaren-online-gr...
November 23, 2011, 9:37 PM 2012d November 23, 2011, 9:15 PM 2012d 10 http://www.facebook.com/notes/hyzaar/buy-hyzaar-fda-approved-pharma...
November 23, 2011, 9:12 PM 2012d November 23, 2011, 8:39 PM 2012d 10 http://www.facebook.com/notes/cell-phone-record/mobile-spy-software...
November 23, 2011, 9:03 PM 2012d November 5, 2011, 12:48 AM 2031d 2 http://windows-keitai.com/?Windows Phone/Windows Phone 7/ニュース/2...
November 23, 2011, 8:44 PM 2012d November 23, 2011, 8:12 PM 2012d 10 http://www.facebook.com/notes/bluetooth-monitor/how-to-spy-on-a-cel...
November 23, 2011, 7:56 PM 2012d November 23, 2011, 7:27 PM 2012d 10 http://www.facebook.com/notes/zovirax/buy-grifulvin-v-discount-chea...
November 23, 2011, 7:50 PM 2012d November 23, 2011, 7:25 PM 2012d 10 http://www.facebook.com/notes/voltaren/order-online-voltaren-fda-ap...
November 23, 2011, 7:45 PM 2012d November 23, 2011, 7:20 PM 2012d 10 http://www.facebook.com/notes/hyzaar/buy-hyzaar-online-official-can...
November 23, 2011, 6:55 PM 2012d November 23, 2011, 6:28 PM 2012d 10 http://www.facebook.com/notes/sms-spy/cell-phone-spy-monitoring-sms...
November 23, 2011, 6:40 PM 2012d N/A 1 http://www.google.co.jp/url?sa=t&rct=j&q=ドコモ スマートフ...
November 23, 2011, 6:35 PM 2012d November 23, 2011, 6:10 PM 2012d 8 http://www.facebook.com/notes/cell-phone-record/how-to-spy-on-a-cel...
November 23, 2011, 6:26 PM 2012d N/A 1 http://isocial.co/pg/blog/owner/anxiaoyu
November 23, 2011, 6:25 PM 2012d November 20, 2011, 2:56 AM 2016d 4 http://www.buycheapsnowboots.com/
November 23, 2011, 6:07 PM 2012d November 23, 2011, 5:38 PM 2012d 10 http://www.facebook.com/notes/blackberry-spy/cell-phone-spyware-how...
November 23, 2011, 5:39 PM 2012d N/A 1 http://soft.wince.ne.jp/soft/Detail/青空子猫/PID4062/
November 23, 2011, 5:39 PM 2012d November 23, 2011, 5:16 PM 2012d 9 http://www.facebook.com/notes/voltaren/cheapest-voltaren-online-dru...
November 23, 2011, 5:38 PM 2012d November 23, 2011, 5:16 PM 2012d 10 http://www.facebook.com/notes/hydrochlorothiazide/cheap-hydrochloro...
November 23, 2011, 5:26 PM 2012d November 23, 2011, 1:22 PM 2012d 20 http://www.facebook.com/notes/zovirax/zovirax-best-offers-great-sav...
November 23, 2011, 5:13 PM 2012d N/A 1 http://azby.search.nifty.com/websearch/search?select=1041&cflg=...
November 23, 2011, 4:52 PM 2012d November 23, 2011, 4:32 PM 2012d 10 http://www.facebook.com/notes/sms-intercept/best-cell-phone-spy-sof...
November 23, 2011, 4:40 PM 2012d November 23, 2011, 4:19 PM 2012d 10 http://www.facebook.com/notes/cell-phone-record/best-cell-phone-spy...
November 23, 2011, 4:06 PM 2012d November 23, 2011, 3:48 PM 2012d 10 http://www.facebook.com/notes/blackberry-spy/how-to-spy-on-a-cell-p...
November 23, 2011, 3:57 PM 2012d November 23, 2011, 3:39 PM 2012d 10 http://www.facebook.com/notes/hydrochlorothiazide/hydrochlorothiazi...
November 23, 2011, 3:48 PM 2012d November 23, 2011, 1:43 PM 2012d 20 http://www.facebook.com/notes/voltaren/voltaren-best-offers-fast-de...
November 23, 2011, 3:29 PM 2012d November 23, 2011, 11:36 AM 2012d 20 http://www.facebook.com/notes/zovirax/buy-zovirax-fda-checked-pharm...
November 23, 2011, 3:04 PM 2012d N/A 1 http://www.buycheapsnowboots.com/sundance-ugg-boots-c-63.html
November 23, 2011, 2:29 PM 2012d November 23, 2011, 2:11 PM 2012d 10 http://www.facebook.com/notes/grifulvin-v/order-online-grifulvin-v-...
November 23, 2011, 2:05 PM 2012d N/A 1 http://www.buycheapsnowboots.com/classic-cardy-crochet-boots-c-58.html
November 23, 2011, 1:19 PM 2012d N/A 1 http://windows-keitai.com/?SSD/OCZ Vertex Series OCZSSD2-1VTX30G/フ...
November 23, 2011, 1:01 PM 2012d November 23, 2011, 12:44 PM 2012d 10 http://www.facebook.com/notes/glucophage/cheapest-glucophage-online...
November 23, 2011, 12:29 PM 2012d N/A 1 http://map.windows-keitai.com/WiMAX/UQ/area.html?encode_hint=ぷ&...
November 23, 2011, 12:21 PM 2012d November 23, 2011, 12:03 PM 2012d 9 http://www.facebook.com/notes/voltaren/voltaren-online-pharmacy-fda...
November 23, 2011, 11:35 AM 2012d November 23, 2011, 11:18 AM 2012d 10 http://www.facebook.com/notes/glucophage/cheap-glucophage-online-tr...
November 23, 2011, 10:53 AM 2012d November 23, 2011, 9:23 AM 2012d 10 http://www.facebook.com/notes/sms-intercept/cell-phone-spy-sms-inte...
November 23, 2011, 10:43 AM 2012d November 23, 2011, 10:23 AM 2012d 10 http://www.facebook.com/notes/viagra/viagra-online-pharmacy-best-pr...
November 23, 2011, 10:31 AM 2012d November 23, 2011, 9:14 AM 2012d 10 http://www.facebook.com/notes/cell-phone-cheating/spy-mobile-phone-...
November 23, 2011, 10:06 AM 2012d November 23, 2011, 7:21 AM 2012d 20 http://www.facebook.com/notes/zoloft/buy-zoloft-online-online-presc...
November 23, 2011, 10:00 AM 2012d November 23, 2011, 7:35 AM 2012d 20 http://www.facebook.com/notes/furosemide/cheap-furosemide-online-be...
November 23, 2011, 9:39 AM 2012d November 23, 2011, 8:36 AM 2012d 10 http://www.facebook.com/notes/android-spy/mobile-spy-smartphone-mon...
November 23, 2011, 8:47 AM 2012d N/A 1 http://www.getjealous.com/latinainterest/journal/2522737/latina-fan...
November 23, 2011, 8:20 AM 2012d November 23, 2011, 8:02 AM 2012d 10 http://www.facebook.com/notes/viagra/cheapest-viagra-in-uk-fda-appr...
November 23, 2011, 7:22 AM 2012d N/A 1 http://www.buycheapsnowboots.com/cheap-classic-mini-c-55.html
November 23, 2011, 6:59 AM 2012d November 23, 2011, 6:31 AM 2012d 10 http://www.facebook.com/notes/sms-archive/phone-spyware-2011-best-p...
November 23, 2011, 6:59 AM 2012d November 23, 2011, 6:31 AM 2012d 10 http://www.facebook.com/notes/catching-cheating/download-spy-softwa...
November 23, 2011, 6:47 AM 2012d November 23, 2011, 6:29 AM 2012d 10 http://www.facebook.com/notes/viagra/order-online-viagra-cheap-pric...
November 23, 2011, 6:43 AM 2012d November 23, 2011, 6:20 AM 2012d 9 http://www.facebook.com/notes/android-spy/cell-spy-now-the-leading-...
November 23, 2011, 6:26 AM 2012d November 23, 2011, 6:08 AM 2013d 10 http://www.facebook.com/notes/fluoxetine/buy-fluoxetine-now-great-s...
November 23, 2011, 5:59 AM 2013d November 23, 2011, 5:39 AM 2013d 10 http://www.facebook.com/notes/zoloft/legal-buy-zoloft-online-online...
November 23, 2011, 5:46 AM 2013d November 22, 2011, 10:30 PM 2013d 2 http://hyip-libertyreserve.com/savelibertyreserve.html
November 23, 2011, 5:17 AM 2013d November 23, 2011, 3:04 AM 2013d 20 http://www.facebook.com/notes/viagra/cheap-viagra-online-best-price...
November 23, 2011, 4:47 AM 2013d November 23, 2011, 4:22 AM 2013d 10 http://www.facebook.com/notes/fluoxetine/fluoxetine-best-offers-onl...
November 23, 2011, 4:43 AM 2013d November 23, 2011, 4:14 AM 2013d 10 http://www.facebook.com/notes/samsung-spy/mobile-spy-software-spywa...
November 23, 2011, 4:41 AM 2013d November 23, 2011, 4:11 AM 2013d 10 http://www.facebook.com/notes/call-recorder/mobile-phone-spyware-ph...
November 23, 2011, 4:35 AM 2013d November 23, 2011, 4:07 AM 2013d 10 http://www.facebook.com/notes/adultry-proof/cell-phone-spy-adultery...
November 23, 2011, 4:02 AM 2013d N/A 1 http://www.buycheapsnowboots.com/ugg-stripe-cable-knit-c-62.html
November 23, 2011, 3:45 AM 2013d November 23, 2011, 3:25 AM 2013d 10 http://www.facebook.com/notes/zoloft/buy-zoloft-no-prescription-no-...
November 23, 2011, 3:12 AM 2013d November 22, 2011, 4:53 AM 2014d 67 http://www.facebook.com/notes/xanax/cheapest-xanax-in-uk-discount-c...
November 23, 2011, 3:12 AM 2013d November 17, 2011, 11:02 AM 2018d 89 http://www.facebook.com/notes/valium/buy-valium-only-best-offers-wi...
November 23, 2011, 2:59 AM 2013d November 23, 2011, 2:41 AM 2013d 10 http://www.facebook.com/notes/flomax/cheapest-flomax-fda-checked-ph...
November 23, 2011, 2:00 AM 2013d November 23, 2011, 1:38 AM 2013d 9 http://www.facebook.com/notes/zithromax/cheap-zithromax-online-only...
November 23, 2011, 1:49 AM 2013d November 23, 2011, 1:31 AM 2013d 10 http://www.facebook.com/notes/ventolin/buy-ventolin-without-prescri...
November 23, 2011, 1:48 AM 2013d November 21, 2011, 10:16 PM 2014d 6 http://www.hionsale.com/
November 23, 2011, 1:28 AM 2013d November 23, 2011, 1:12 AM 2013d 10 http://www.facebook.com/notes/flomax/buy-flomax-online-online-pill-...
November 23, 2011, 1:17 AM 2013d N/A 1 http://f1100.windows-keitai.com/?よくある質問/ハードウェア
November 23, 2011, 12:19 AM 2013d November 23, 2011, 12:02 AM 2013d 10 http://www.facebook.com/notes/trazodone/buy-trazodone-online-only-b...
November 23, 2011, 12:11 AM 2013d N/A 1 http://www.
November 23, 2011, 12:08 AM 2013d November 22, 2011, 11:46 PM 2013d 10 http://www.facebook.com/notes/zithromax/legal-buy-zithromax-online-...
November 22, 2011, 11:00 PM 2013d N/A 1 http://www.google.co.jp/url?sa=t&rct=j&q=ドコモ+スマートフ...
November 22, 2011, 10:53 PM 2013d November 22, 2011, 10:37 PM 2013d 10 http://www.facebook.com/notes/topamax/topamax-online-pharmacy-onlin...
November 22, 2011, 10:08 PM 2013d November 22, 2011, 9:45 PM 2013d 10 http://www.facebook.com/notes/zanaflex/buy-cheap-zanaflex-online-of...
November 22, 2011, 9:29 PM 2013d November 22, 2011, 9:00 PM 2013d 10 http://www.facebook.com/notes/flagyl/order-online-flagyl-fda-approv...
November 22, 2011, 9:19 PM 2013d November 22, 2011, 9:03 PM 2013d 10 http://www.facebook.com/notes/topamax/buy-cheap-topamax-online-chea...
November 22, 2011, 8:28 PM 2013d November 8, 2011, 3:19 AM 2028d 3 http://www.shoecl.com
November 22, 2011, 8:10 PM 2013d November 22, 2011, 7:48 PM 2013d 10 http://www.facebook.com/notes/zanaflex/buy-zanaflex-online-uk-disco...
November 22, 2011, 8:04 PM 2013d N/A 1 http://map.windows-keitai.com/WiMAX/UQ/area.html?encode_hint=ぷ&...
November 22, 2011, 7:53 PM 2013d November 22, 2011, 7:36 PM 2013d 10 http://www.facebook.com/notes/tenormin/buy-tenormin-cheap-price-ten...
November 22, 2011, 7:51 PM 2013d N/A 1 http://dobryadwokat.info.pl/praca-adwokata/
November 22, 2011, 7:34 PM 2013d N/A 1 http://www.google.co.jp/url?sa=t&rct=j&q=ドコモ+スマートフ...
November 22, 2011, 6:57 PM 2013d November 22, 2011, 6:29 PM